<?xml version="1.0" encoding="UTF-8" standalone="no" ?>
<gpx xmlns="http://www.topografix.com/GPX/1/1" xmlns:xsi="http://www.w3.org/2001/XMLSchema-instance" xsi:schemaLocation="http://www.topografix.com/GPX/1/1 http://www.topografix.com/GPX/1/1/gpx.xsd" version="1.1" creator="VisuGPX - https://www.visugpx.com">
  <metadata>
    <name>Le_Grand_Tour_avec_2_passeurs_Superbe</name>
    <desc><![CDATA[Tour du Golfe du Morbihan. En single sur la presqu'ile de R. Passeurs à Port-Navalo et Séné-Saint-Armel.]]></desc>
  </metadata>
  <trk>
    <name><![CDATA[Le Grand Tour avec 2 passeurs :-) . Superbe]]></name>
    <extensions>
      <line xmlns="http://www.topografix.com/GPX/gpx_style/0/2">
        <color>0000FF</color>
        <width>4</width>
      </line>
    </extensions>
    <trkseg>
      <trkpt lat="47.49356" lon="-2.82154">
        <ele>27.3</ele>
        <time>2023-07-19T05:10:34Z</time>
      </trkpt>
      <trkpt lat="47.49356" lon="-2.82154">
        <ele>27.3</ele>
        <time>2023-07-19T05:10:35Z</time>
      </trkpt>
      <trkpt lat="47.49356" lon="-2.82154">
        <ele>27.3</ele>
        <time>2023-07-19T05:10:37Z</time>
      </trkpt>
      <trkpt lat="47.49356" lon="-2.82154">
        <ele>27.3</ele>
        <time>2023-07-19T05:10:38Z</time>
      </trkpt>
      <trkpt lat="47.49356" lon="-2.82154">
        <ele>27.3</ele>
        <time>2023-07-19T05:10:40Z</time>
      </trkpt>
      <trkpt lat="47.49356" lon="-2.82154">
        <ele>27.3</ele>
        <time>2023-07-19T05:10:42Z</time>
      </trkpt>
      <trkpt lat="47.49356" lon="-2.82154">
        <ele>27.3</ele>
        <time>2023-07-19T05:10:44Z</time>
      </trkpt>
      <trkpt lat="47.49356" lon="-2.82154">
        <ele>27.3</ele>
        <time>2023-07-19T05:10:48Z</time>
      </trkpt>
      <trkpt lat="47.49356" lon="-2.82154">
        <ele>27.3</ele>
        <time>2023-07-19T05:10:51Z</time>
      </trkpt>
      <trkpt lat="47.49356" lon="-2.82154">
        <ele>27.3</ele>
        <time>2023-07-19T05:10:54Z</time>
      </trkpt>
      <trkpt lat="47.49356" lon="-2.82154">
        <ele>27.3</ele>
        <time>2023-07-19T05:10:56Z</time>
      </trkpt>
      <trkpt lat="47.49356" lon="-2.82154">
        <ele>27.3</ele>
        <time>2023-07-19T05:11:00Z</time>
      </trkpt>
      <trkpt lat="47.49356" lon="-2.82154">
        <ele>27.3</ele>
        <time>2023-07-19T05:11:01Z</time>
      </trkpt>
      <trkpt lat="47.49356" lon="-2.82154">
        <ele>27.3</ele>
        <time>2023-07-19T05:11:02Z</time>
      </trkpt>
      <trkpt lat="47.49356" lon="-2.82154">
        <ele>27.3</ele>
        <time>2023-07-19T05:11:04Z</time>
      </trkpt>
      <trkpt lat="47.49356" lon="-2.82154">
        <ele>27.3</ele>
        <time>2023-07-19T05:11:07Z</time>
      </trkpt>
      <trkpt lat="47.49356" lon="-2.82154">
        <ele>27.3</ele>
        <time>2023-07-19T05:11:09Z</time>
      </trkpt>
      <trkpt lat="47.49356" lon="-2.82154">
        <ele>27.3</ele>
        <time>2023-07-19T05:11:13Z</time>
      </trkpt>
      <trkpt lat="47.49356" lon="-2.82154">
        <ele>27.3</ele>
        <time>2023-07-19T05:11:18Z</time>
      </trkpt>
      <trkpt lat="47.49356" lon="-2.82154">
        <ele>27.3</ele>
        <time>2023-07-19T05:11:20Z</time>
      </trkpt>
      <trkpt lat="47.49356" lon="-2.82154">
        <ele>27.3</ele>
        <time>2023-07-19T05:11:23Z</time>
      </trkpt>
      <trkpt lat="47.49356" lon="-2.82154">
        <ele>27.3</ele>
        <time>2023-07-19T05:11:27Z</time>
      </trkpt>
      <trkpt lat="47.49356" lon="-2.82154">
        <ele>27.3</ele>
        <time>2023-07-19T05:11:37Z</time>
      </trkpt>
      <trkpt lat="47.49356" lon="-2.82154">
        <ele>27.3</ele>
        <time>2023-07-19T05:11:40Z</time>
      </trkpt>
      <trkpt lat="47.49356" lon="-2.82154">
        <ele>27.3</ele>
        <time>2023-07-19T05:11:45Z</time>
      </trkpt>
      <trkpt lat="47.49356" lon="-2.82154">
        <ele>27.3</ele>
        <time>2023-07-19T05:11:46Z</time>
      </trkpt>
      <trkpt lat="47.49356" lon="-2.82154">
        <ele>27.3</ele>
        <time>2023-07-19T05:11:47Z</time>
      </trkpt>
      <trkpt lat="47.49356" lon="-2.82154">
        <ele>27.3</ele>
        <time>2023-07-19T05:11:52Z</time>
      </trkpt>
      <trkpt lat="47.49367" lon="-2.82182">
        <ele>27.1</ele>
        <time>2023-07-19T05:12:00Z</time>
      </trkpt>
      <trkpt lat="47.4937" lon="-2.82182">
        <ele>27.1</ele>
        <time>2023-07-19T05:12:04Z</time>
      </trkpt>
      <trkpt lat="47.49365" lon="-2.82175">
        <ele>27.2</ele>
        <time>2023-07-19T05:12:31Z</time>
      </trkpt>
      <trkpt lat="47.49372" lon="-2.82177">
        <ele>27.1</ele>
        <time>2023-07-19T05:12:36Z</time>
      </trkpt>
      <trkpt lat="47.49429" lon="-2.82163">
        <ele>26.9</ele>
        <time>2023-07-19T05:12:51Z</time>
      </trkpt>
      <trkpt lat="47.49482" lon="-2.8214">
        <ele>26.8</ele>
        <time>2023-07-19T05:13:04Z</time>
      </trkpt>
      <trkpt lat="47.49479" lon="-2.82093">
        <ele>27.8</ele>
        <time>2023-07-19T05:13:13Z</time>
      </trkpt>
      <trkpt lat="47.4951" lon="-2.8208">
        <ele>27.8</ele>
        <time>2023-07-19T05:13:21Z</time>
      </trkpt>
      <trkpt lat="47.49535" lon="-2.8207">
        <ele>27.7</ele>
        <time>2023-07-19T05:13:27Z</time>
      </trkpt>
      <trkpt lat="47.4954" lon="-2.82061">
        <ele>28</ele>
        <time>2023-07-19T05:13:29Z</time>
      </trkpt>
      <trkpt lat="47.49533" lon="-2.82008">
        <ele>29.2</ele>
        <time>2023-07-19T05:13:42Z</time>
      </trkpt>
      <trkpt lat="47.49581" lon="-2.81972">
        <ele>29.8</ele>
        <time>2023-07-19T05:13:54Z</time>
      </trkpt>
      <trkpt lat="47.4959" lon="-2.81966">
        <ele>29.9</ele>
        <time>2023-07-19T05:13:56Z</time>
      </trkpt>
      <trkpt lat="47.49599" lon="-2.81966">
        <ele>30</ele>
        <time>2023-07-19T05:13:58Z</time>
      </trkpt>
      <trkpt lat="47.49607" lon="-2.81972">
        <ele>29.9</ele>
        <time>2023-07-19T05:14:00Z</time>
      </trkpt>
      <trkpt lat="47.49613" lon="-2.81981">
        <ele>29.9</ele>
        <time>2023-07-19T05:14:02Z</time>
      </trkpt>
      <trkpt lat="47.49618" lon="-2.81993">
        <ele>29.8</ele>
        <time>2023-07-19T05:14:04Z</time>
      </trkpt>
      <trkpt lat="47.49622" lon="-2.82006">
        <ele>29.6</ele>
        <time>2023-07-19T05:14:06Z</time>
      </trkpt>
      <trkpt lat="47.49628" lon="-2.82052">
        <ele>28.8</ele>
        <time>2023-07-19T05:14:12Z</time>
      </trkpt>
      <trkpt lat="47.49629" lon="-2.8206">
        <ele>28.7</ele>
        <time>2023-07-19T05:14:13Z</time>
      </trkpt>
      <trkpt lat="47.4963" lon="-2.82068">
        <ele>28.5</ele>
        <time>2023-07-19T05:14:14Z</time>
      </trkpt>
      <trkpt lat="47.4963" lon="-2.82076">
        <ele>28.4</ele>
        <time>2023-07-19T05:14:15Z</time>
      </trkpt>
      <trkpt lat="47.4963" lon="-2.82084">
        <ele>28.3</ele>
        <time>2023-07-19T05:14:16Z</time>
      </trkpt>
      <trkpt lat="47.49627" lon="-2.82101">
        <ele>27.9</ele>
        <time>2023-07-19T05:14:18Z</time>
      </trkpt>
      <trkpt lat="47.49607" lon="-2.82163">
        <ele>26.3</ele>
        <time>2023-07-19T05:14:25Z</time>
      </trkpt>
      <trkpt lat="47.49597" lon="-2.82246">
        <ele>25.4</ele>
        <time>2023-07-19T05:14:34Z</time>
      </trkpt>
      <trkpt lat="47.49595" lon="-2.82263">
        <ele>25.4</ele>
        <time>2023-07-19T05:14:36Z</time>
      </trkpt>
      <trkpt lat="47.49598" lon="-2.82321">
        <ele>26.9</ele>
        <time>2023-07-19T05:14:43Z</time>
      </trkpt>
      <trkpt lat="47.49609" lon="-2.82337">
        <ele>27.8</ele>
        <time>2023-07-19T05:14:47Z</time>
      </trkpt>
      <trkpt lat="47.49624" lon="-2.82344">
        <ele>28.6</ele>
        <time>2023-07-19T05:14:51Z</time>
      </trkpt>
      <trkpt lat="47.49636" lon="-2.82355">
        <ele>29.2</ele>
        <time>2023-07-19T05:14:55Z</time>
      </trkpt>
      <trkpt lat="47.49651" lon="-2.82387">
        <ele>30.3</ele>
        <time>2023-07-19T05:15:02Z</time>
      </trkpt>
      <trkpt lat="47.49661" lon="-2.82418">
        <ele>31.2</ele>
        <time>2023-07-19T05:15:08Z</time>
      </trkpt>
      <trkpt lat="47.49667" lon="-2.82437">
        <ele>31.7</ele>
        <time>2023-07-19T05:15:12Z</time>
      </trkpt>
      <trkpt lat="47.49685" lon="-2.82502">
        <ele>32.9</ele>
        <time>2023-07-19T05:15:26Z</time>
      </trkpt>
      <trkpt lat="47.49692" lon="-2.8255">
        <ele>33.2</ele>
        <time>2023-07-19T05:15:36Z</time>
      </trkpt>
      <trkpt lat="47.49697" lon="-2.82567">
        <ele>33.3</ele>
        <time>2023-07-19T05:15:40Z</time>
      </trkpt>
      <trkpt lat="47.49703" lon="-2.82601">
        <ele>33.6</ele>
        <time>2023-07-19T05:15:47Z</time>
      </trkpt>
      <trkpt lat="47.49707" lon="-2.82617">
        <ele>33.7</ele>
        <time>2023-07-19T05:15:50Z</time>
      </trkpt>
      <trkpt lat="47.49709" lon="-2.82621">
        <ele>33.8</ele>
        <time>2023-07-19T05:15:51Z</time>
      </trkpt>
      <trkpt lat="47.49712" lon="-2.82624">
        <ele>33.9</ele>
        <time>2023-07-19T05:15:52Z</time>
      </trkpt>
      <trkpt lat="47.49719" lon="-2.82624">
        <ele>33.9</ele>
        <time>2023-07-19T05:15:54Z</time>
      </trkpt>
      <trkpt lat="47.49762" lon="-2.82588">
        <ele>33.7</ele>
        <time>2023-07-19T05:16:08Z</time>
      </trkpt>
      <trkpt lat="47.49813" lon="-2.82563">
        <ele>34.2</ele>
        <time>2023-07-19T05:16:22Z</time>
      </trkpt>
      <trkpt lat="47.49821" lon="-2.82564">
        <ele>34.3</ele>
        <time>2023-07-19T05:16:24Z</time>
      </trkpt>
      <trkpt lat="47.49876" lon="-2.82549">
        <ele>34.5</ele>
        <time>2023-07-19T05:16:39Z</time>
      </trkpt>
      <trkpt lat="47.49894" lon="-2.82545">
        <ele>34.6</ele>
        <time>2023-07-19T05:16:43Z</time>
      </trkpt>
      <trkpt lat="47.49951" lon="-2.82536">
        <ele>34.6</ele>
        <time>2023-07-19T05:16:56Z</time>
      </trkpt>
      <trkpt lat="47.49978" lon="-2.82525">
        <ele>34.6</ele>
        <time>2023-07-19T05:17:02Z</time>
      </trkpt>
      <trkpt lat="47.49983" lon="-2.82524">
        <ele>34.7</ele>
        <time>2023-07-19T05:17:03Z</time>
      </trkpt>
      <trkpt lat="47.49996" lon="-2.82523">
        <ele>34.8</ele>
        <time>2023-07-19T05:17:06Z</time>
      </trkpt>
      <trkpt lat="47.50011" lon="-2.82515">
        <ele>34.9</ele>
        <time>2023-07-19T05:17:10Z</time>
      </trkpt>
      <trkpt lat="47.50029" lon="-2.82503">
        <ele>35.1</ele>
        <time>2023-07-19T05:17:15Z</time>
      </trkpt>
      <trkpt lat="47.50051" lon="-2.82489">
        <ele>35.5</ele>
        <time>2023-07-19T05:17:22Z</time>
      </trkpt>
      <trkpt lat="47.50072" lon="-2.82476">
        <ele>35.6</ele>
        <time>2023-07-19T05:17:29Z</time>
      </trkpt>
      <trkpt lat="47.5009" lon="-2.82471">
        <ele>35.8</ele>
        <time>2023-07-19T05:17:35Z</time>
      </trkpt>
      <trkpt lat="47.50107" lon="-2.82488">
        <ele>36.4</ele>
        <time>2023-07-19T05:17:42Z</time>
      </trkpt>
      <trkpt lat="47.50135" lon="-2.82546">
        <ele>37.1</ele>
        <time>2023-07-19T05:17:54Z</time>
      </trkpt>
      <trkpt lat="47.50142" lon="-2.8257">
        <ele>37.6</ele>
        <time>2023-07-19T05:17:59Z</time>
      </trkpt>
      <trkpt lat="47.50139" lon="-2.82611">
        <ele>38.1</ele>
        <time>2023-07-19T05:18:08Z</time>
      </trkpt>
      <trkpt lat="47.50158" lon="-2.8269">
        <ele>38.2</ele>
        <time>2023-07-19T05:18:23Z</time>
      </trkpt>
      <trkpt lat="47.50175" lon="-2.82768">
        <ele>38.4</ele>
        <time>2023-07-19T05:18:37Z</time>
      </trkpt>
      <trkpt lat="47.50189" lon="-2.8285">
        <ele>38</ele>
        <time>2023-07-19T05:18:50Z</time>
      </trkpt>
      <trkpt lat="47.50214" lon="-2.82924">
        <ele>37.6</ele>
        <time>2023-07-19T05:19:01Z</time>
      </trkpt>
      <trkpt lat="47.50238" lon="-2.82997">
        <ele>37.3</ele>
        <time>2023-07-19T05:19:12Z</time>
      </trkpt>
      <trkpt lat="47.50249" lon="-2.8304">
        <ele>37.1</ele>
        <time>2023-07-19T05:19:19Z</time>
      </trkpt>
      <trkpt lat="47.50259" lon="-2.83071">
        <ele>36.8</ele>
        <time>2023-07-19T05:19:25Z</time>
      </trkpt>
      <trkpt lat="47.50256" lon="-2.8309">
        <ele>36.6</ele>
        <time>2023-07-19T05:19:28Z</time>
      </trkpt>
      <trkpt lat="47.50255" lon="-2.83103">
        <ele>36.4</ele>
        <time>2023-07-19T05:19:30Z</time>
      </trkpt>
      <trkpt lat="47.50239" lon="-2.83183">
        <ele>35.4</ele>
        <time>2023-07-19T05:19:41Z</time>
      </trkpt>
      <trkpt lat="47.5023" lon="-2.83243">
        <ele>35.1</ele>
        <time>2023-07-19T05:19:49Z</time>
      </trkpt>
      <trkpt lat="47.5023" lon="-2.83257">
        <ele>35.2</ele>
        <time>2023-07-19T05:19:51Z</time>
      </trkpt>
      <trkpt lat="47.5023" lon="-2.83264">
        <ele>35.2</ele>
        <time>2023-07-19T05:19:52Z</time>
      </trkpt>
      <trkpt lat="47.5023" lon="-2.83271">
        <ele>35.2</ele>
        <time>2023-07-19T05:19:53Z</time>
      </trkpt>
      <trkpt lat="47.50234" lon="-2.83302">
        <ele>35.3</ele>
        <time>2023-07-19T05:19:58Z</time>
      </trkpt>
      <trkpt lat="47.50241" lon="-2.83304">
        <ele>35.3</ele>
        <time>2023-07-19T05:20:00Z</time>
      </trkpt>
      <trkpt lat="47.50246" lon="-2.83295">
        <ele>35.4</ele>
        <time>2023-07-19T05:20:02Z</time>
      </trkpt>
      <trkpt lat="47.50274" lon="-2.83251">
        <ele>36.2</ele>
        <time>2023-07-19T05:20:10Z</time>
      </trkpt>
      <trkpt lat="47.5029" lon="-2.83228">
        <ele>36.8</ele>
        <time>2023-07-19T05:20:15Z</time>
      </trkpt>
      <trkpt lat="47.50327" lon="-2.83187">
        <ele>38.1</ele>
        <time>2023-07-19T05:20:26Z</time>
      </trkpt>
      <trkpt lat="47.50345" lon="-2.8317">
        <ele>38.7</ele>
        <time>2023-07-19T05:20:31Z</time>
      </trkpt>
      <trkpt lat="47.50352" lon="-2.83163">
        <ele>38.9</ele>
        <time>2023-07-19T05:20:33Z</time>
      </trkpt>
      <trkpt lat="47.50355" lon="-2.8316">
        <ele>39</ele>
        <time>2023-07-19T05:20:34Z</time>
      </trkpt>
      <trkpt lat="47.50358" lon="-2.83157">
        <ele>39.1</ele>
        <time>2023-07-19T05:20:35Z</time>
      </trkpt>
      <trkpt lat="47.50365" lon="-2.8315">
        <ele>39.3</ele>
        <time>2023-07-19T05:20:37Z</time>
      </trkpt>
      <trkpt lat="47.50368" lon="-2.83146">
        <ele>39.3</ele>
        <time>2023-07-19T05:20:38Z</time>
      </trkpt>
      <trkpt lat="47.50418" lon="-2.83111">
        <ele>39.6</ele>
        <time>2023-07-19T05:20:52Z</time>
      </trkpt>
      <trkpt lat="47.50437" lon="-2.83085">
        <ele>39.9</ele>
        <time>2023-07-19T05:20:59Z</time>
      </trkpt>
      <trkpt lat="47.50436" lon="-2.83079">
        <ele>39.9</ele>
        <time>2023-07-19T05:21:00Z</time>
      </trkpt>
      <trkpt lat="47.50436" lon="-2.83073">
        <ele>39.9</ele>
        <time>2023-07-19T05:21:01Z</time>
      </trkpt>
      <trkpt lat="47.50436" lon="-2.83067">
        <ele>39.9</ele>
        <time>2023-07-19T05:21:02Z</time>
      </trkpt>
      <trkpt lat="47.50464" lon="-2.82996">
        <ele>39.8</ele>
        <time>2023-07-19T05:21:15Z</time>
      </trkpt>
      <trkpt lat="47.50485" lon="-2.82947">
        <ele>39.7</ele>
        <time>2023-07-19T05:21:24Z</time>
      </trkpt>
      <trkpt lat="47.50508" lon="-2.82868">
        <ele>39.4</ele>
        <time>2023-07-19T05:21:36Z</time>
      </trkpt>
      <trkpt lat="47.5051" lon="-2.82862">
        <ele>39.3</ele>
        <time>2023-07-19T05:21:37Z</time>
      </trkpt>
      <trkpt lat="47.50513" lon="-2.82855">
        <ele>39.3</ele>
        <time>2023-07-19T05:21:38Z</time>
      </trkpt>
      <trkpt lat="47.50516" lon="-2.82849">
        <ele>39.3</ele>
        <time>2023-07-19T05:21:39Z</time>
      </trkpt>
      <trkpt lat="47.50519" lon="-2.82842">
        <ele>39.2</ele>
        <time>2023-07-19T05:21:40Z</time>
      </trkpt>
      <trkpt lat="47.50523" lon="-2.82836">
        <ele>39.2</ele>
        <time>2023-07-19T05:21:41Z</time>
      </trkpt>
      <trkpt lat="47.50568" lon="-2.82784">
        <ele>38.4</ele>
        <time>2023-07-19T05:21:52Z</time>
      </trkpt>
      <trkpt lat="47.50577" lon="-2.82778">
        <ele>38.2</ele>
        <time>2023-07-19T05:21:54Z</time>
      </trkpt>
      <trkpt lat="47.50588" lon="-2.82776">
        <ele>37.9</ele>
        <time>2023-07-19T05:21:56Z</time>
      </trkpt>
      <trkpt lat="47.50642" lon="-2.82779">
        <ele>37</ele>
        <time>2023-07-19T05:22:06Z</time>
      </trkpt>
      <trkpt lat="47.50647" lon="-2.82781">
        <ele>36.9</ele>
        <time>2023-07-19T05:22:07Z</time>
      </trkpt>
      <trkpt lat="47.50652" lon="-2.82783">
        <ele>36.8</ele>
        <time>2023-07-19T05:22:08Z</time>
      </trkpt>
      <trkpt lat="47.50667" lon="-2.82789">
        <ele>36.5</ele>
        <time>2023-07-19T05:22:11Z</time>
      </trkpt>
      <trkpt lat="47.50672" lon="-2.8279">
        <ele>36.5</ele>
        <time>2023-07-19T05:22:12Z</time>
      </trkpt>
      <trkpt lat="47.50681" lon="-2.82792">
        <ele>36.3</ele>
        <time>2023-07-19T05:22:14Z</time>
      </trkpt>
      <trkpt lat="47.50715" lon="-2.82788">
        <ele>35.9</ele>
        <time>2023-07-19T05:22:21Z</time>
      </trkpt>
      <trkpt lat="47.5072" lon="-2.82786">
        <ele>35.8</ele>
        <time>2023-07-19T05:22:22Z</time>
      </trkpt>
      <trkpt lat="47.50755" lon="-2.82783">
        <ele>35.3</ele>
        <time>2023-07-19T05:22:29Z</time>
      </trkpt>
      <trkpt lat="47.50801" lon="-2.82785">
        <ele>34.8</ele>
        <time>2023-07-19T05:22:38Z</time>
      </trkpt>
      <trkpt lat="47.50811" lon="-2.82781">
        <ele>34.7</ele>
        <time>2023-07-19T05:22:40Z</time>
      </trkpt>
      <trkpt lat="47.5082" lon="-2.82774">
        <ele>34.5</ele>
        <time>2023-07-19T05:22:42Z</time>
      </trkpt>
      <trkpt lat="47.50858" lon="-2.8271">
        <ele>33.4</ele>
        <time>2023-07-19T05:22:53Z</time>
      </trkpt>
      <trkpt lat="47.50898" lon="-2.82656">
        <ele>32.2</ele>
        <time>2023-07-19T05:23:03Z</time>
      </trkpt>
      <trkpt lat="47.50936" lon="-2.82589">
        <ele>29.5</ele>
        <time>2023-07-19T05:23:13Z</time>
      </trkpt>
      <trkpt lat="47.50978" lon="-2.82533">
        <ele>27.6</ele>
        <time>2023-07-19T05:23:22Z</time>
      </trkpt>
      <trkpt lat="47.50997" lon="-2.82512">
        <ele>27.1</ele>
        <time>2023-07-19T05:23:26Z</time>
      </trkpt>
      <trkpt lat="47.51007" lon="-2.82502">
        <ele>26.9</ele>
        <time>2023-07-19T05:23:28Z</time>
      </trkpt>
      <trkpt lat="47.51018" lon="-2.82492">
        <ele>26.9</ele>
        <time>2023-07-19T05:23:30Z</time>
      </trkpt>
      <trkpt lat="47.51032" lon="-2.82476">
        <ele>26.9</ele>
        <time>2023-07-19T05:23:33Z</time>
      </trkpt>
      <trkpt lat="47.5104" lon="-2.82466">
        <ele>27</ele>
        <time>2023-07-19T05:23:35Z</time>
      </trkpt>
      <trkpt lat="47.51063" lon="-2.82468">
        <ele>27.9</ele>
        <time>2023-07-19T05:23:42Z</time>
      </trkpt>
      <trkpt lat="47.51112" lon="-2.82465">
        <ele>28.8</ele>
        <time>2023-07-19T05:23:57Z</time>
      </trkpt>
      <trkpt lat="47.51121" lon="-2.8246">
        <ele>29.7</ele>
        <time>2023-07-19T05:24:00Z</time>
      </trkpt>
      <trkpt lat="47.51131" lon="-2.82458">
        <ele>30.4</ele>
        <time>2023-07-19T05:24:04Z</time>
      </trkpt>
      <trkpt lat="47.51137" lon="-2.82472">
        <ele>30.1</ele>
        <time>2023-07-19T05:24:08Z</time>
      </trkpt>
      <trkpt lat="47.51148" lon="-2.82499">
        <ele>29.6</ele>
        <time>2023-07-19T05:24:13Z</time>
      </trkpt>
      <trkpt lat="47.51156" lon="-2.82527">
        <ele>28.7</ele>
        <time>2023-07-19T05:24:17Z</time>
      </trkpt>
      <trkpt lat="47.51165" lon="-2.82548">
        <ele>27.9</ele>
        <time>2023-07-19T05:24:20Z</time>
      </trkpt>
      <trkpt lat="47.51179" lon="-2.82575">
        <ele>27.2</ele>
        <time>2023-07-19T05:24:24Z</time>
      </trkpt>
      <trkpt lat="47.51186" lon="-2.82605">
        <ele>26</ele>
        <time>2023-07-19T05:24:28Z</time>
      </trkpt>
      <trkpt lat="47.51188" lon="-2.8262">
        <ele>25.3</ele>
        <time>2023-07-19T05:24:30Z</time>
      </trkpt>
      <trkpt lat="47.51181" lon="-2.82633">
        <ele>24.6</ele>
        <time>2023-07-19T05:24:32Z</time>
      </trkpt>
      <trkpt lat="47.51145" lon="-2.82685">
        <ele>23.3</ele>
        <time>2023-07-19T05:24:39Z</time>
      </trkpt>
      <trkpt lat="47.51138" lon="-2.82701">
        <ele>23.3</ele>
        <time>2023-07-19T05:24:41Z</time>
      </trkpt>
      <trkpt lat="47.51135" lon="-2.8272">
        <ele>23.7</ele>
        <time>2023-07-19T05:24:43Z</time>
      </trkpt>
      <trkpt lat="47.51138" lon="-2.82745">
        <ele>24.8</ele>
        <time>2023-07-19T05:24:46Z</time>
      </trkpt>
      <trkpt lat="47.51138" lon="-2.82752">
        <ele>25.2</ele>
        <time>2023-07-19T05:24:47Z</time>
      </trkpt>
      <trkpt lat="47.51137" lon="-2.82759">
        <ele>25.7</ele>
        <time>2023-07-19T05:24:48Z</time>
      </trkpt>
      <trkpt lat="47.51136" lon="-2.82766">
        <ele>26.1</ele>
        <time>2023-07-19T05:24:49Z</time>
      </trkpt>
      <trkpt lat="47.51135" lon="-2.82779">
        <ele>26.9</ele>
        <time>2023-07-19T05:24:51Z</time>
      </trkpt>
      <trkpt lat="47.51135" lon="-2.82799">
        <ele>27.9</ele>
        <time>2023-07-19T05:24:55Z</time>
      </trkpt>
      <trkpt lat="47.51136" lon="-2.82825">
        <ele>29</ele>
        <time>2023-07-19T05:25:01Z</time>
      </trkpt>
      <trkpt lat="47.51136" lon="-2.8283">
        <ele>29.2</ele>
        <time>2023-07-19T05:25:02Z</time>
      </trkpt>
      <trkpt lat="47.51137" lon="-2.82839">
        <ele>29.5</ele>
        <time>2023-07-19T05:25:04Z</time>
      </trkpt>
      <trkpt lat="47.51138" lon="-2.8289">
        <ele>31.3</ele>
        <time>2023-07-19T05:25:15Z</time>
      </trkpt>
      <trkpt lat="47.51137" lon="-2.82895">
        <ele>31.4</ele>
        <time>2023-07-19T05:25:16Z</time>
      </trkpt>
      <trkpt lat="47.51135" lon="-2.82899">
        <ele>31.6</ele>
        <time>2023-07-19T05:25:17Z</time>
      </trkpt>
      <trkpt lat="47.51133" lon="-2.82903">
        <ele>31.8</ele>
        <time>2023-07-19T05:25:18Z</time>
      </trkpt>
      <trkpt lat="47.51129" lon="-2.82913">
        <ele>32.2</ele>
        <time>2023-07-19T05:25:20Z</time>
      </trkpt>
      <trkpt lat="47.51135" lon="-2.8295">
        <ele>33.3</ele>
        <time>2023-07-19T05:25:29Z</time>
      </trkpt>
      <trkpt lat="47.51143" lon="-2.82991">
        <ele>34</ele>
        <time>2023-07-19T05:25:37Z</time>
      </trkpt>
      <trkpt lat="47.51145" lon="-2.83019">
        <ele>34.2</ele>
        <time>2023-07-19T05:25:43Z</time>
      </trkpt>
      <trkpt lat="47.51147" lon="-2.83034">
        <ele>34.3</ele>
        <time>2023-07-19T05:25:47Z</time>
      </trkpt>
      <trkpt lat="47.51163" lon="-2.83036">
        <ele>33.9</ele>
        <time>2023-07-19T05:25:53Z</time>
      </trkpt>
      <trkpt lat="47.51183" lon="-2.83036">
        <ele>33.3</ele>
        <time>2023-07-19T05:25:58Z</time>
      </trkpt>
      <trkpt lat="47.51216" lon="-2.83034">
        <ele>32.6</ele>
        <time>2023-07-19T05:26:05Z</time>
      </trkpt>
      <trkpt lat="47.51264" lon="-2.83037">
        <ele>31.4</ele>
        <time>2023-07-19T05:26:14Z</time>
      </trkpt>
      <trkpt lat="47.5132" lon="-2.83045">
        <ele>30</ele>
        <time>2023-07-19T05:26:24Z</time>
      </trkpt>
      <trkpt lat="47.51362" lon="-2.8305">
        <ele>28.8</ele>
        <time>2023-07-19T05:26:31Z</time>
      </trkpt>
      <trkpt lat="47.51373" lon="-2.83056">
        <ele>28.3</ele>
        <time>2023-07-19T05:26:33Z</time>
      </trkpt>
      <trkpt lat="47.51379" lon="-2.8306">
        <ele>28.1</ele>
        <time>2023-07-19T05:26:34Z</time>
      </trkpt>
      <trkpt lat="47.51385" lon="-2.83063">
        <ele>27.9</ele>
        <time>2023-07-19T05:26:35Z</time>
      </trkpt>
      <trkpt lat="47.51419" lon="-2.83083">
        <ele>27.2</ele>
        <time>2023-07-19T05:26:41Z</time>
      </trkpt>
      <trkpt lat="47.51473" lon="-2.83115">
        <ele>25.8</ele>
        <time>2023-07-19T05:26:51Z</time>
      </trkpt>
      <trkpt lat="47.51479" lon="-2.83118">
        <ele>25.7</ele>
        <time>2023-07-19T05:26:52Z</time>
      </trkpt>
      <trkpt lat="47.51485" lon="-2.83121">
        <ele>25.5</ele>
        <time>2023-07-19T05:26:53Z</time>
      </trkpt>
      <trkpt lat="47.51529" lon="-2.8317">
        <ele>24</ele>
        <time>2023-07-19T05:27:02Z</time>
      </trkpt>
      <trkpt lat="47.5158" lon="-2.832">
        <ele>22.9</ele>
        <time>2023-07-19T05:27:12Z</time>
      </trkpt>
      <trkpt lat="47.51603" lon="-2.83206">
        <ele>22.6</ele>
        <time>2023-07-19T05:27:18Z</time>
      </trkpt>
      <trkpt lat="47.51658" lon="-2.83185">
        <ele>22</ele>
        <time>2023-07-19T05:27:29Z</time>
      </trkpt>
      <trkpt lat="47.51715" lon="-2.83166">
        <ele>20.3</ele>
        <time>2023-07-19T05:27:39Z</time>
      </trkpt>
      <trkpt lat="47.51769" lon="-2.83146">
        <ele>18</ele>
        <time>2023-07-19T05:27:48Z</time>
      </trkpt>
      <trkpt lat="47.51779" lon="-2.83144">
        <ele>17.5</ele>
        <time>2023-07-19T05:27:50Z</time>
      </trkpt>
      <trkpt lat="47.51787" lon="-2.83148">
        <ele>17</ele>
        <time>2023-07-19T05:27:52Z</time>
      </trkpt>
      <trkpt lat="47.51786" lon="-2.8316">
        <ele>17.3</ele>
        <time>2023-07-19T05:27:54Z</time>
      </trkpt>
      <trkpt lat="47.51778" lon="-2.8317">
        <ele>17.5</ele>
        <time>2023-07-19T05:27:57Z</time>
      </trkpt>
      <trkpt lat="47.51775" lon="-2.83173">
        <ele>17.6</ele>
        <time>2023-07-19T05:27:58Z</time>
      </trkpt>
      <trkpt lat="47.51771" lon="-2.83179">
        <ele>17.7</ele>
        <time>2023-07-19T05:28:00Z</time>
      </trkpt>
      <trkpt lat="47.51767" lon="-2.83189">
        <ele>17.8</ele>
        <time>2023-07-19T05:28:01Z</time>
      </trkpt>
      <trkpt lat="47.51766" lon="-2.83192">
        <ele>17.8</ele>
        <time>2023-07-19T05:28:02Z</time>
      </trkpt>
      <trkpt lat="47.51765" lon="-2.83194">
        <ele>17.8</ele>
        <time>2023-07-19T05:28:03Z</time>
      </trkpt>
      <trkpt lat="47.51763" lon="-2.83201">
        <ele>17.9</ele>
        <time>2023-07-19T05:28:04Z</time>
      </trkpt>
      <trkpt lat="47.51751" lon="-2.83236">
        <ele>17.7</ele>
        <time>2023-07-19T05:28:10Z</time>
      </trkpt>
      <trkpt lat="47.51737" lon="-2.83267">
        <ele>17.2</ele>
        <time>2023-07-19T05:28:15Z</time>
      </trkpt>
      <trkpt lat="47.51722" lon="-2.83309">
        <ele>16.1</ele>
        <time>2023-07-19T05:28:21Z</time>
      </trkpt>
      <trkpt lat="47.51712" lon="-2.83347">
        <ele>14.9</ele>
        <time>2023-07-19T05:28:26Z</time>
      </trkpt>
      <trkpt lat="47.51709" lon="-2.83364">
        <ele>14.4</ele>
        <time>2023-07-19T05:28:28Z</time>
      </trkpt>
      <trkpt lat="47.51701" lon="-2.83444">
        <ele>13.4</ele>
        <time>2023-07-19T05:28:37Z</time>
      </trkpt>
      <trkpt lat="47.51695" lon="-2.83465">
        <ele>13.6</ele>
        <time>2023-07-19T05:28:40Z</time>
      </trkpt>
      <trkpt lat="47.51678" lon="-2.83491">
        <ele>14.2</ele>
        <time>2023-07-19T05:28:46Z</time>
      </trkpt>
      <trkpt lat="47.51674" lon="-2.83495">
        <ele>14.3</ele>
        <time>2023-07-19T05:28:47Z</time>
      </trkpt>
      <trkpt lat="47.51666" lon="-2.83509">
        <ele>14.6</ele>
        <time>2023-07-19T05:28:50Z</time>
      </trkpt>
      <trkpt lat="47.51663" lon="-2.83513">
        <ele>14.7</ele>
        <time>2023-07-19T05:28:51Z</time>
      </trkpt>
      <trkpt lat="47.51658" lon="-2.83521">
        <ele>14.9</ele>
        <time>2023-07-19T05:28:53Z</time>
      </trkpt>
      <trkpt lat="47.51656" lon="-2.83524">
        <ele>14.9</ele>
        <time>2023-07-19T05:28:54Z</time>
      </trkpt>
      <trkpt lat="47.51646" lon="-2.83537">
        <ele>15.3</ele>
        <time>2023-07-19T05:28:58Z</time>
      </trkpt>
      <trkpt lat="47.51643" lon="-2.83541">
        <ele>15.4</ele>
        <time>2023-07-19T05:28:59Z</time>
      </trkpt>
      <trkpt lat="47.5164" lon="-2.83545">
        <ele>15.6</ele>
        <time>2023-07-19T05:29:00Z</time>
      </trkpt>
      <trkpt lat="47.51629" lon="-2.83556">
        <ele>16.1</ele>
        <time>2023-07-19T05:29:03Z</time>
      </trkpt>
      <trkpt lat="47.51615" lon="-2.83572">
        <ele>16.9</ele>
        <time>2023-07-19T05:29:07Z</time>
      </trkpt>
      <trkpt lat="47.5157" lon="-2.83619">
        <ele>19.5</ele>
        <time>2023-07-19T05:29:22Z</time>
      </trkpt>
      <trkpt lat="47.51522" lon="-2.83662">
        <ele>23.1</ele>
        <time>2023-07-19T05:29:43Z</time>
      </trkpt>
      <trkpt lat="47.51471" lon="-2.83697">
        <ele>25.5</ele>
        <time>2023-07-19T05:30:04Z</time>
      </trkpt>
      <trkpt lat="47.51424" lon="-2.83736">
        <ele>26.3</ele>
        <time>2023-07-19T05:30:28Z</time>
      </trkpt>
      <trkpt lat="47.5138" lon="-2.83784">
        <ele>25.6</ele>
        <time>2023-07-19T05:30:44Z</time>
      </trkpt>
      <trkpt lat="47.51364" lon="-2.83802">
        <ele>25</ele>
        <time>2023-07-19T05:30:49Z</time>
      </trkpt>
      <trkpt lat="47.51355" lon="-2.8382">
        <ele>24.5</ele>
        <time>2023-07-19T05:30:52Z</time>
      </trkpt>
      <trkpt lat="47.51354" lon="-2.83832">
        <ele>24.3</ele>
        <time>2023-07-19T05:30:54Z</time>
      </trkpt>
      <trkpt lat="47.51361" lon="-2.8384">
        <ele>24.1</ele>
        <time>2023-07-19T05:30:57Z</time>
      </trkpt>
      <trkpt lat="47.51369" lon="-2.83838">
        <ele>24.2</ele>
        <time>2023-07-19T05:30:59Z</time>
      </trkpt>
      <trkpt lat="47.51388" lon="-2.83835">
        <ele>24.5</ele>
        <time>2023-07-19T05:31:05Z</time>
      </trkpt>
      <trkpt lat="47.5141" lon="-2.83829">
        <ele>24.8</ele>
        <time>2023-07-19T05:31:11Z</time>
      </trkpt>
      <trkpt lat="47.51439" lon="-2.83828">
        <ele>25.1</ele>
        <time>2023-07-19T05:31:19Z</time>
      </trkpt>
      <trkpt lat="47.51447" lon="-2.83828">
        <ele>25.1</ele>
        <time>2023-07-19T05:31:21Z</time>
      </trkpt>
      <trkpt lat="47.515" lon="-2.8382">
        <ele>24.3</ele>
        <time>2023-07-19T05:31:34Z</time>
      </trkpt>
      <trkpt lat="47.5153" lon="-2.83824">
        <ele>23.5</ele>
        <time>2023-07-19T05:31:40Z</time>
      </trkpt>
      <trkpt lat="47.51589" lon="-2.8383">
        <ele>21.1</ele>
        <time>2023-07-19T05:31:50Z</time>
      </trkpt>
      <trkpt lat="47.51646" lon="-2.83834">
        <ele>18.2</ele>
        <time>2023-07-19T05:31:58Z</time>
      </trkpt>
      <trkpt lat="47.51706" lon="-2.83841">
        <ele>15.4</ele>
        <time>2023-07-19T05:32:06Z</time>
      </trkpt>
      <trkpt lat="47.51748" lon="-2.83853">
        <ele>13.1</ele>
        <time>2023-07-19T05:32:12Z</time>
      </trkpt>
      <trkpt lat="47.51762" lon="-2.83856">
        <ele>12</ele>
        <time>2023-07-19T05:32:15Z</time>
      </trkpt>
      <trkpt lat="47.51768" lon="-2.8385">
        <ele>11.6</ele>
        <time>2023-07-19T05:32:17Z</time>
      </trkpt>
      <trkpt lat="47.51772" lon="-2.83839">
        <ele>11.4</ele>
        <time>2023-07-19T05:32:19Z</time>
      </trkpt>
      <trkpt lat="47.51788" lon="-2.8379">
        <ele>10.5</ele>
        <time>2023-07-19T05:32:26Z</time>
      </trkpt>
      <trkpt lat="47.51793" lon="-2.83774">
        <ele>10.2</ele>
        <time>2023-07-19T05:32:28Z</time>
      </trkpt>
      <trkpt lat="47.51823" lon="-2.83701">
        <ele>9.2</ele>
        <time>2023-07-19T05:32:37Z</time>
      </trkpt>
      <trkpt lat="47.51847" lon="-2.83657">
        <ele>8.6</ele>
        <time>2023-07-19T05:32:43Z</time>
      </trkpt>
      <trkpt lat="47.51887" lon="-2.83597">
        <ele>8.4</ele>
        <time>2023-07-19T05:32:52Z</time>
      </trkpt>
      <trkpt lat="47.51932" lon="-2.83548">
        <ele>7.8</ele>
        <time>2023-07-19T05:33:01Z</time>
      </trkpt>
      <trkpt lat="47.51978" lon="-2.83505">
        <ele>7</ele>
        <time>2023-07-19T05:33:09Z</time>
      </trkpt>
      <trkpt lat="47.52028" lon="-2.83473">
        <ele>6.4</ele>
        <time>2023-07-19T05:33:17Z</time>
      </trkpt>
      <trkpt lat="47.52082" lon="-2.83449">
        <ele>6.2</ele>
        <time>2023-07-19T05:33:26Z</time>
      </trkpt>
      <trkpt lat="47.5214" lon="-2.83433">
        <ele>6.4</ele>
        <time>2023-07-19T05:33:36Z</time>
      </trkpt>
      <trkpt lat="47.52193" lon="-2.83428">
        <ele>6.5</ele>
        <time>2023-07-19T05:33:45Z</time>
      </trkpt>
      <trkpt lat="47.52251" lon="-2.83434">
        <ele>6.7</ele>
        <time>2023-07-19T05:33:55Z</time>
      </trkpt>
      <trkpt lat="47.52306" lon="-2.83448">
        <ele>7.6</ele>
        <time>2023-07-19T05:34:05Z</time>
      </trkpt>
      <trkpt lat="47.52326" lon="-2.83457">
        <ele>7.8</ele>
        <time>2023-07-19T05:34:09Z</time>
      </trkpt>
      <trkpt lat="47.52346" lon="-2.83466">
        <ele>8</ele>
        <time>2023-07-19T05:34:13Z</time>
      </trkpt>
      <trkpt lat="47.52366" lon="-2.83478">
        <ele>8</ele>
        <time>2023-07-19T05:34:17Z</time>
      </trkpt>
      <trkpt lat="47.52375" lon="-2.83485">
        <ele>8.1</ele>
        <time>2023-07-19T05:34:19Z</time>
      </trkpt>
      <trkpt lat="47.52427" lon="-2.83522">
        <ele>8.1</ele>
        <time>2023-07-19T05:34:31Z</time>
      </trkpt>
      <trkpt lat="47.5245" lon="-2.83541">
        <ele>8.2</ele>
        <time>2023-07-19T05:34:36Z</time>
      </trkpt>
      <trkpt lat="47.52475" lon="-2.83564">
        <ele>8.4</ele>
        <time>2023-07-19T05:34:42Z</time>
      </trkpt>
      <trkpt lat="47.52479" lon="-2.83567">
        <ele>8.5</ele>
        <time>2023-07-19T05:34:43Z</time>
      </trkpt>
      <trkpt lat="47.52484" lon="-2.8357">
        <ele>8.5</ele>
        <time>2023-07-19T05:34:44Z</time>
      </trkpt>
      <trkpt lat="47.52493" lon="-2.83578">
        <ele>8.6</ele>
        <time>2023-07-19T05:34:46Z</time>
      </trkpt>
      <trkpt lat="47.52515" lon="-2.83594">
        <ele>8.7</ele>
        <time>2023-07-19T05:34:51Z</time>
      </trkpt>
      <trkpt lat="47.52551" lon="-2.83623">
        <ele>9</ele>
        <time>2023-07-19T05:34:59Z</time>
      </trkpt>
      <trkpt lat="47.52564" lon="-2.83635">
        <ele>9.1</ele>
        <time>2023-07-19T05:35:02Z</time>
      </trkpt>
      <trkpt lat="47.52573" lon="-2.83641">
        <ele>9.2</ele>
        <time>2023-07-19T05:35:04Z</time>
      </trkpt>
      <trkpt lat="47.52582" lon="-2.83649">
        <ele>9.3</ele>
        <time>2023-07-19T05:35:06Z</time>
      </trkpt>
      <trkpt lat="47.52591" lon="-2.83655">
        <ele>9.4</ele>
        <time>2023-07-19T05:35:08Z</time>
      </trkpt>
      <trkpt lat="47.526" lon="-2.83662">
        <ele>9.5</ele>
        <time>2023-07-19T05:35:10Z</time>
      </trkpt>
      <trkpt lat="47.52614" lon="-2.83674">
        <ele>9.7</ele>
        <time>2023-07-19T05:35:13Z</time>
      </trkpt>
      <trkpt lat="47.52623" lon="-2.83683">
        <ele>9.8</ele>
        <time>2023-07-19T05:35:15Z</time>
      </trkpt>
      <trkpt lat="47.52636" lon="-2.83694">
        <ele>10</ele>
        <time>2023-07-19T05:35:18Z</time>
      </trkpt>
      <trkpt lat="47.52646" lon="-2.83701">
        <ele>10.1</ele>
        <time>2023-07-19T05:35:21Z</time>
      </trkpt>
      <trkpt lat="47.52644" lon="-2.83707">
        <ele>10.1</ele>
        <time>2023-07-19T05:36:49Z</time>
      </trkpt>
      <trkpt lat="47.52646" lon="-2.83708">
        <ele>10.2</ele>
        <time>2023-07-19T05:36:50Z</time>
      </trkpt>
      <trkpt lat="47.52647" lon="-2.8371">
        <ele>10.2</ele>
        <time>2023-07-19T05:36:51Z</time>
      </trkpt>
      <trkpt lat="47.52651" lon="-2.83712">
        <ele>10.2</ele>
        <time>2023-07-19T05:36:53Z</time>
      </trkpt>
      <trkpt lat="47.52656" lon="-2.83715">
        <ele>10.3</ele>
        <time>2023-07-19T05:36:55Z</time>
      </trkpt>
      <trkpt lat="47.52663" lon="-2.8372">
        <ele>10.3</ele>
        <time>2023-07-19T05:36:57Z</time>
      </trkpt>
      <trkpt lat="47.52671" lon="-2.83728">
        <ele>10.4</ele>
        <time>2023-07-19T05:36:59Z</time>
      </trkpt>
      <trkpt lat="47.52699" lon="-2.83753">
        <ele>10.7</ele>
        <time>2023-07-19T05:37:05Z</time>
      </trkpt>
      <trkpt lat="47.52704" lon="-2.83757">
        <ele>10.7</ele>
        <time>2023-07-19T05:37:06Z</time>
      </trkpt>
      <trkpt lat="47.5271" lon="-2.83761">
        <ele>10.8</ele>
        <time>2023-07-19T05:37:07Z</time>
      </trkpt>
      <trkpt lat="47.5272" lon="-2.83768">
        <ele>11</ele>
        <time>2023-07-19T05:37:09Z</time>
      </trkpt>
      <trkpt lat="47.52725" lon="-2.83773">
        <ele>11.1</ele>
        <time>2023-07-19T05:37:10Z</time>
      </trkpt>
      <trkpt lat="47.52758" lon="-2.83799">
        <ele>11.5</ele>
        <time>2023-07-19T05:37:17Z</time>
      </trkpt>
      <trkpt lat="47.52792" lon="-2.83828">
        <ele>11.7</ele>
        <time>2023-07-19T05:37:24Z</time>
      </trkpt>
      <trkpt lat="47.52802" lon="-2.83835">
        <ele>11.9</ele>
        <time>2023-07-19T05:37:26Z</time>
      </trkpt>
      <trkpt lat="47.52823" lon="-2.83852">
        <ele>12.2</ele>
        <time>2023-07-19T05:37:31Z</time>
      </trkpt>
      <trkpt lat="47.5284" lon="-2.83865">
        <ele>12.5</ele>
        <time>2023-07-19T05:37:35Z</time>
      </trkpt>
      <trkpt lat="47.52847" lon="-2.83871">
        <ele>12.6</ele>
        <time>2023-07-19T05:37:37Z</time>
      </trkpt>
      <trkpt lat="47.52895" lon="-2.83912">
        <ele>13.4</ele>
        <time>2023-07-19T05:37:49Z</time>
      </trkpt>
      <trkpt lat="47.52913" lon="-2.83927">
        <ele>13.7</ele>
        <time>2023-07-19T05:37:54Z</time>
      </trkpt>
      <trkpt lat="47.52919" lon="-2.83936">
        <ele>13.7</ele>
        <time>2023-07-19T05:37:56Z</time>
      </trkpt>
      <trkpt lat="47.52943" lon="-2.84007">
        <ele>13.4</ele>
        <time>2023-07-19T05:38:07Z</time>
      </trkpt>
      <trkpt lat="47.52976" lon="-2.8407">
        <ele>12.9</ele>
        <time>2023-07-19T05:38:17Z</time>
      </trkpt>
      <trkpt lat="47.53015" lon="-2.84135">
        <ele>12.6</ele>
        <time>2023-07-19T05:38:28Z</time>
      </trkpt>
      <trkpt lat="47.5304" lon="-2.84186">
        <ele>12.9</ele>
        <time>2023-07-19T05:38:36Z</time>
      </trkpt>
      <trkpt lat="47.53066" lon="-2.84233">
        <ele>13.1</ele>
        <time>2023-07-19T05:38:44Z</time>
      </trkpt>
      <trkpt lat="47.53092" lon="-2.84301">
        <ele>13.6</ele>
        <time>2023-07-19T05:38:55Z</time>
      </trkpt>
      <trkpt lat="47.53109" lon="-2.84356">
        <ele>13.7</ele>
        <time>2023-07-19T05:39:04Z</time>
      </trkpt>
      <trkpt lat="47.53136" lon="-2.84422">
        <ele>13.6</ele>
        <time>2023-07-19T05:39:16Z</time>
      </trkpt>
      <trkpt lat="47.53143" lon="-2.84429">
        <ele>13.5</ele>
        <time>2023-07-19T05:39:18Z</time>
      </trkpt>
      <trkpt lat="47.53161" lon="-2.84437">
        <ele>13.3</ele>
        <time>2023-07-19T05:39:22Z</time>
      </trkpt>
      <trkpt lat="47.53169" lon="-2.84444">
        <ele>13.3</ele>
        <time>2023-07-19T05:39:24Z</time>
      </trkpt>
      <trkpt lat="47.53169" lon="-2.84455">
        <ele>13.2</ele>
        <time>2023-07-19T05:39:26Z</time>
      </trkpt>
      <trkpt lat="47.53166" lon="-2.84467">
        <ele>13.2</ele>
        <time>2023-07-19T05:39:28Z</time>
      </trkpt>
      <trkpt lat="47.53166" lon="-2.84481">
        <ele>13.2</ele>
        <time>2023-07-19T05:39:30Z</time>
      </trkpt>
      <trkpt lat="47.53168" lon="-2.84494">
        <ele>13.1</ele>
        <time>2023-07-19T05:39:32Z</time>
      </trkpt>
      <trkpt lat="47.53175" lon="-2.84512">
        <ele>13.1</ele>
        <time>2023-07-19T05:39:35Z</time>
      </trkpt>
      <trkpt lat="47.53176" lon="-2.84519">
        <ele>13.1</ele>
        <time>2023-07-19T05:39:36Z</time>
      </trkpt>
      <trkpt lat="47.53188" lon="-2.84597">
        <ele>12.6</ele>
        <time>2023-07-19T05:39:47Z</time>
      </trkpt>
      <trkpt lat="47.53199" lon="-2.84676">
        <ele>12.1</ele>
        <time>2023-07-19T05:39:58Z</time>
      </trkpt>
      <trkpt lat="47.53209" lon="-2.84759">
        <ele>11.6</ele>
        <time>2023-07-19T05:40:09Z</time>
      </trkpt>
      <trkpt lat="47.5322" lon="-2.84843">
        <ele>10.9</ele>
        <time>2023-07-19T05:40:20Z</time>
      </trkpt>
      <trkpt lat="47.53222" lon="-2.84866">
        <ele>10.6</ele>
        <time>2023-07-19T05:40:23Z</time>
      </trkpt>
      <trkpt lat="47.53223" lon="-2.84874">
        <ele>10.5</ele>
        <time>2023-07-19T05:40:24Z</time>
      </trkpt>
      <trkpt lat="47.53224" lon="-2.84882">
        <ele>10.4</ele>
        <time>2023-07-19T05:40:25Z</time>
      </trkpt>
      <trkpt lat="47.53226" lon="-2.8489">
        <ele>10.2</ele>
        <time>2023-07-19T05:40:26Z</time>
      </trkpt>
      <trkpt lat="47.53228" lon="-2.84906">
        <ele>9.9</ele>
        <time>2023-07-19T05:40:28Z</time>
      </trkpt>
      <trkpt lat="47.5323" lon="-2.84922">
        <ele>9.5</ele>
        <time>2023-07-19T05:40:30Z</time>
      </trkpt>
      <trkpt lat="47.53231" lon="-2.8493">
        <ele>9.3</ele>
        <time>2023-07-19T05:40:31Z</time>
      </trkpt>
      <trkpt lat="47.53233" lon="-2.84939">
        <ele>9.1</ele>
        <time>2023-07-19T05:40:32Z</time>
      </trkpt>
      <trkpt lat="47.53234" lon="-2.84948">
        <ele>8.9</ele>
        <time>2023-07-19T05:40:33Z</time>
      </trkpt>
      <trkpt lat="47.53246" lon="-2.8503">
        <ele>6.6</ele>
        <time>2023-07-19T05:40:42Z</time>
      </trkpt>
      <trkpt lat="47.53252" lon="-2.85069">
        <ele>5.3</ele>
        <time>2023-07-19T05:40:46Z</time>
      </trkpt>
      <trkpt lat="47.53268" lon="-2.85148">
        <ele>4.3</ele>
        <time>2023-07-19T05:40:54Z</time>
      </trkpt>
      <trkpt lat="47.5329" lon="-2.85224">
        <ele>3.8</ele>
        <time>2023-07-19T05:41:03Z</time>
      </trkpt>
      <trkpt lat="47.533" lon="-2.85255">
        <ele>3.8</ele>
        <time>2023-07-19T05:41:07Z</time>
      </trkpt>
      <trkpt lat="47.53304" lon="-2.8527">
        <ele>3.8</ele>
        <time>2023-07-19T05:41:09Z</time>
      </trkpt>
      <trkpt lat="47.53308" lon="-2.85284">
        <ele>3.8</ele>
        <time>2023-07-19T05:41:11Z</time>
      </trkpt>
      <trkpt lat="47.53317" lon="-2.8531">
        <ele>3.8</ele>
        <time>2023-07-19T05:41:15Z</time>
      </trkpt>
      <trkpt lat="47.53324" lon="-2.85322">
        <ele>3.7</ele>
        <time>2023-07-19T05:41:17Z</time>
      </trkpt>
      <trkpt lat="47.53347" lon="-2.85362">
        <ele>3.9</ele>
        <time>2023-07-19T05:41:24Z</time>
      </trkpt>
      <trkpt lat="47.53351" lon="-2.85374">
        <ele>4</ele>
        <time>2023-07-19T05:41:26Z</time>
      </trkpt>
      <trkpt lat="47.53362" lon="-2.85392">
        <ele>4</ele>
        <time>2023-07-19T05:41:30Z</time>
      </trkpt>
      <trkpt lat="47.53373" lon="-2.8543">
        <ele>3.8</ele>
        <time>2023-07-19T05:41:36Z</time>
      </trkpt>
      <trkpt lat="47.5337" lon="-2.85447">
        <ele>3.8</ele>
        <time>2023-07-19T05:41:39Z</time>
      </trkpt>
      <trkpt lat="47.53362" lon="-2.85457">
        <ele>3.7</ele>
        <time>2023-07-19T05:41:41Z</time>
      </trkpt>
      <trkpt lat="47.53318" lon="-2.85503">
        <ele>3.1</ele>
        <time>2023-07-19T05:41:50Z</time>
      </trkpt>
      <trkpt lat="47.53287" lon="-2.85544">
        <ele>3.1</ele>
        <time>2023-07-19T05:41:57Z</time>
      </trkpt>
      <trkpt lat="47.53262" lon="-2.85618">
        <ele>3.1</ele>
        <time>2023-07-19T05:42:07Z</time>
      </trkpt>
      <trkpt lat="47.53231" lon="-2.85692">
        <ele>3.2</ele>
        <time>2023-07-19T05:42:18Z</time>
      </trkpt>
      <trkpt lat="47.53226" lon="-2.85705">
        <ele>3.2</ele>
        <time>2023-07-19T05:42:20Z</time>
      </trkpt>
      <trkpt lat="47.5321" lon="-2.85728">
        <ele>3</ele>
        <time>2023-07-19T05:42:24Z</time>
      </trkpt>
      <trkpt lat="47.5316" lon="-2.85761">
        <ele>2.9</ele>
        <time>2023-07-19T05:42:34Z</time>
      </trkpt>
      <trkpt lat="47.53125" lon="-2.85796">
        <ele>2.7</ele>
        <time>2023-07-19T05:42:42Z</time>
      </trkpt>
      <trkpt lat="47.53109" lon="-2.85835">
        <ele>2.7</ele>
        <time>2023-07-19T05:42:48Z</time>
      </trkpt>
      <trkpt lat="47.53106" lon="-2.85841">
        <ele>2.6</ele>
        <time>2023-07-19T05:42:49Z</time>
      </trkpt>
      <trkpt lat="47.53091" lon="-2.85872">
        <ele>2.4</ele>
        <time>2023-07-19T05:42:54Z</time>
      </trkpt>
      <trkpt lat="47.53088" lon="-2.85887">
        <ele>2.4</ele>
        <time>2023-07-19T05:42:56Z</time>
      </trkpt>
      <trkpt lat="47.53089" lon="-2.85902">
        <ele>2.3</ele>
        <time>2023-07-19T05:42:58Z</time>
      </trkpt>
      <trkpt lat="47.53089" lon="-2.85923">
        <ele>2.1</ele>
        <time>2023-07-19T05:43:01Z</time>
      </trkpt>
      <trkpt lat="47.53082" lon="-2.85995">
        <ele>1.8</ele>
        <time>2023-07-19T05:43:11Z</time>
      </trkpt>
      <trkpt lat="47.53083" lon="-2.86008">
        <ele>1.9</ele>
        <time>2023-07-19T05:43:13Z</time>
      </trkpt>
      <trkpt lat="47.53115" lon="-2.86072">
        <ele>2.3</ele>
        <time>2023-07-19T05:43:28Z</time>
      </trkpt>
      <trkpt lat="47.5316" lon="-2.86121">
        <ele>3.1</ele>
        <time>2023-07-19T05:43:44Z</time>
      </trkpt>
      <trkpt lat="47.53197" lon="-2.86138">
        <ele>3.1</ele>
        <time>2023-07-19T05:43:54Z</time>
      </trkpt>
      <trkpt lat="47.53252" lon="-2.86146">
        <ele>3.1</ele>
        <time>2023-07-19T05:44:07Z</time>
      </trkpt>
      <trkpt lat="47.53271" lon="-2.86147">
        <ele>3</ele>
        <time>2023-07-19T05:44:11Z</time>
      </trkpt>
      <trkpt lat="47.53324" lon="-2.86175">
        <ele>3.1</ele>
        <time>2023-07-19T05:44:23Z</time>
      </trkpt>
      <trkpt lat="47.53376" lon="-2.86208">
        <ele>3.3</ele>
        <time>2023-07-19T05:44:35Z</time>
      </trkpt>
      <trkpt lat="47.53425" lon="-2.86242">
        <ele>3.9</ele>
        <time>2023-07-19T05:44:48Z</time>
      </trkpt>
      <trkpt lat="47.53471" lon="-2.86287">
        <ele>3.6</ele>
        <time>2023-07-19T05:45:01Z</time>
      </trkpt>
      <trkpt lat="47.53502" lon="-2.86329">
        <ele>3.7</ele>
        <time>2023-07-19T05:45:10Z</time>
      </trkpt>
      <trkpt lat="47.53534" lon="-2.86352">
        <ele>4.1</ele>
        <time>2023-07-19T05:45:18Z</time>
      </trkpt>
      <trkpt lat="47.53543" lon="-2.86353">
        <ele>4.2</ele>
        <time>2023-07-19T05:45:20Z</time>
      </trkpt>
      <trkpt lat="47.53597" lon="-2.86346">
        <ele>5.1</ele>
        <time>2023-07-19T05:45:33Z</time>
      </trkpt>
      <trkpt lat="47.53625" lon="-2.86343">
        <ele>6.7</ele>
        <time>2023-07-19T05:45:40Z</time>
      </trkpt>
      <trkpt lat="47.53635" lon="-2.86334">
        <ele>7.4</ele>
        <time>2023-07-19T05:45:44Z</time>
      </trkpt>
      <trkpt lat="47.53642" lon="-2.86322">
        <ele>7.4</ele>
        <time>2023-07-19T05:45:49Z</time>
      </trkpt>
      <trkpt lat="47.53646" lon="-2.86329">
        <ele>6.3</ele>
        <time>2023-07-19T05:45:51Z</time>
      </trkpt>
      <trkpt lat="47.53649" lon="-2.8634">
        <ele>6.1</ele>
        <time>2023-07-19T05:45:53Z</time>
      </trkpt>
      <trkpt lat="47.53668" lon="-2.86353">
        <ele>6</ele>
        <time>2023-07-19T05:45:59Z</time>
      </trkpt>
      <trkpt lat="47.53687" lon="-2.86347">
        <ele>6.3</ele>
        <time>2023-07-19T05:46:03Z</time>
      </trkpt>
      <trkpt lat="47.53693" lon="-2.86344">
        <ele>6.4</ele>
        <time>2023-07-19T05:46:04Z</time>
      </trkpt>
      <trkpt lat="47.53697" lon="-2.86342">
        <ele>6.6</ele>
        <time>2023-07-19T05:46:05Z</time>
      </trkpt>
      <trkpt lat="47.53711" lon="-2.86336">
        <ele>6.8</ele>
        <time>2023-07-19T05:46:08Z</time>
      </trkpt>
      <trkpt lat="47.53718" lon="-2.86324">
        <ele>7</ele>
        <time>2023-07-19T05:46:11Z</time>
      </trkpt>
      <trkpt lat="47.53718" lon="-2.86317">
        <ele>7</ele>
        <time>2023-07-19T05:46:12Z</time>
      </trkpt>
      <trkpt lat="47.53707" lon="-2.86277">
        <ele>7</ele>
        <time>2023-07-19T05:46:19Z</time>
      </trkpt>
      <trkpt lat="47.53708" lon="-2.86265">
        <ele>6.9</ele>
        <time>2023-07-19T05:46:21Z</time>
      </trkpt>
      <trkpt lat="47.53713" lon="-2.86255">
        <ele>6.7</ele>
        <time>2023-07-19T05:46:23Z</time>
      </trkpt>
      <trkpt lat="47.53717" lon="-2.86251">
        <ele>6.6</ele>
        <time>2023-07-19T05:46:24Z</time>
      </trkpt>
      <trkpt lat="47.5377" lon="-2.8622">
        <ele>5.8</ele>
        <time>2023-07-19T05:46:34Z</time>
      </trkpt>
      <trkpt lat="47.53816" lon="-2.86174">
        <ele>5.3</ele>
        <time>2023-07-19T05:46:45Z</time>
      </trkpt>
      <trkpt lat="47.53819" lon="-2.86175">
        <ele>5.3</ele>
        <time>2023-07-19T05:46:50Z</time>
      </trkpt>
      <trkpt lat="47.53811" lon="-2.8618">
        <ele>5.4</ele>
        <time>2023-07-19T05:46:54Z</time>
      </trkpt>
      <trkpt lat="47.53797" lon="-2.86193">
        <ele>5.6</ele>
        <time>2023-07-19T05:46:59Z</time>
      </trkpt>
      <trkpt lat="47.53791" lon="-2.86197">
        <ele>5.7</ele>
        <time>2023-07-19T05:47:01Z</time>
      </trkpt>
      <trkpt lat="47.53787" lon="-2.86194">
        <ele>5.7</ele>
        <time>2023-07-19T05:47:03Z</time>
      </trkpt>
      <trkpt lat="47.53781" lon="-2.86176">
        <ele>5.7</ele>
        <time>2023-07-19T05:47:07Z</time>
      </trkpt>
      <trkpt lat="47.5377" lon="-2.86149">
        <ele>5.8</ele>
        <time>2023-07-19T05:47:13Z</time>
      </trkpt>
      <trkpt lat="47.53756" lon="-2.86117">
        <ele>6.3</ele>
        <time>2023-07-19T05:47:19Z</time>
      </trkpt>
      <trkpt lat="47.53724" lon="-2.86053">
        <ele>8.2</ele>
        <time>2023-07-19T05:47:35Z</time>
      </trkpt>
      <trkpt lat="47.53702" lon="-2.86006">
        <ele>9.8</ele>
        <time>2023-07-19T05:47:48Z</time>
      </trkpt>
      <trkpt lat="47.53694" lon="-2.85987">
        <ele>10.7</ele>
        <time>2023-07-19T05:47:53Z</time>
      </trkpt>
      <trkpt lat="47.53692" lon="-2.85984">
        <ele>10.9</ele>
        <time>2023-07-19T05:47:54Z</time>
      </trkpt>
      <trkpt lat="47.53684" lon="-2.85906">
        <ele>13.2</ele>
        <time>2023-07-19T05:48:18Z</time>
      </trkpt>
      <trkpt lat="47.53684" lon="-2.85902">
        <ele>13.2</ele>
        <time>2023-07-19T05:48:19Z</time>
      </trkpt>
      <trkpt lat="47.53685" lon="-2.85895">
        <ele>13.3</ele>
        <time>2023-07-19T05:48:21Z</time>
      </trkpt>
      <trkpt lat="47.53685" lon="-2.8589">
        <ele>13.3</ele>
        <time>2023-07-19T05:48:22Z</time>
      </trkpt>
      <trkpt lat="47.53685" lon="-2.85886">
        <ele>13.4</ele>
        <time>2023-07-19T05:48:23Z</time>
      </trkpt>
      <trkpt lat="47.53685" lon="-2.85878">
        <ele>13.4</ele>
        <time>2023-07-19T05:48:25Z</time>
      </trkpt>
      <trkpt lat="47.53686" lon="-2.85868">
        <ele>13.5</ele>
        <time>2023-07-19T05:48:27Z</time>
      </trkpt>
      <trkpt lat="47.53688" lon="-2.85845">
        <ele>13.7</ele>
        <time>2023-07-19T05:48:32Z</time>
      </trkpt>
      <trkpt lat="47.53688" lon="-2.85829">
        <ele>13.8</ele>
        <time>2023-07-19T05:48:35Z</time>
      </trkpt>
      <trkpt lat="47.53689" lon="-2.85824">
        <ele>13.8</ele>
        <time>2023-07-19T05:48:36Z</time>
      </trkpt>
      <trkpt lat="47.53689" lon="-2.85819">
        <ele>13.9</ele>
        <time>2023-07-19T05:48:37Z</time>
      </trkpt>
      <trkpt lat="47.53689" lon="-2.85813">
        <ele>13.9</ele>
        <time>2023-07-19T05:48:38Z</time>
      </trkpt>
      <trkpt lat="47.53689" lon="-2.85803">
        <ele>13.9</ele>
        <time>2023-07-19T05:48:40Z</time>
      </trkpt>
      <trkpt lat="47.5369" lon="-2.85787">
        <ele>13.9</ele>
        <time>2023-07-19T05:48:43Z</time>
      </trkpt>
      <trkpt lat="47.53691" lon="-2.85782">
        <ele>13.9</ele>
        <time>2023-07-19T05:48:44Z</time>
      </trkpt>
      <trkpt lat="47.53692" lon="-2.85773">
        <ele>13.8</ele>
        <time>2023-07-19T05:48:46Z</time>
      </trkpt>
      <trkpt lat="47.53693" lon="-2.85762">
        <ele>13.7</ele>
        <time>2023-07-19T05:48:48Z</time>
      </trkpt>
      <trkpt lat="47.53696" lon="-2.85739">
        <ele>13.3</ele>
        <time>2023-07-19T05:48:52Z</time>
      </trkpt>
      <trkpt lat="47.53698" lon="-2.85719">
        <ele>12.8</ele>
        <time>2023-07-19T05:48:55Z</time>
      </trkpt>
      <trkpt lat="47.537" lon="-2.85693">
        <ele>12</ele>
        <time>2023-07-19T05:48:59Z</time>
      </trkpt>
      <trkpt lat="47.53699" lon="-2.85633">
        <ele>8.7</ele>
        <time>2023-07-19T05:49:07Z</time>
      </trkpt>
      <trkpt lat="47.53699" lon="-2.85605">
        <ele>7.4</ele>
        <time>2023-07-19T05:49:10Z</time>
      </trkpt>
      <trkpt lat="47.53698" lon="-2.85587">
        <ele>6.5</ele>
        <time>2023-07-19T05:49:12Z</time>
      </trkpt>
      <trkpt lat="47.53697" lon="-2.85568">
        <ele>5.8</ele>
        <time>2023-07-19T05:49:14Z</time>
      </trkpt>
      <trkpt lat="47.53684" lon="-2.85488">
        <ele>4.4</ele>
        <time>2023-07-19T05:49:24Z</time>
      </trkpt>
      <trkpt lat="47.5368" lon="-2.8544">
        <ele>4.5</ele>
        <time>2023-07-19T05:49:34Z</time>
      </trkpt>
      <trkpt lat="47.53684" lon="-2.85434">
        <ele>4.5</ele>
        <time>2023-07-19T05:49:39Z</time>
      </trkpt>
      <trkpt lat="47.53728" lon="-2.85463">
        <ele>4.8</ele>
        <time>2023-07-19T05:49:55Z</time>
      </trkpt>
      <trkpt lat="47.53783" lon="-2.85491">
        <ele>5.7</ele>
        <time>2023-07-19T05:50:10Z</time>
      </trkpt>
      <trkpt lat="47.53811" lon="-2.85512">
        <ele>6.2</ele>
        <time>2023-07-19T05:50:17Z</time>
      </trkpt>
      <trkpt lat="47.53815" lon="-2.85515">
        <ele>6.3</ele>
        <time>2023-07-19T05:50:18Z</time>
      </trkpt>
      <trkpt lat="47.53818" lon="-2.85518">
        <ele>6.4</ele>
        <time>2023-07-19T05:50:19Z</time>
      </trkpt>
      <trkpt lat="47.5386" lon="-2.85571">
        <ele>7.3</ele>
        <time>2023-07-19T05:50:32Z</time>
      </trkpt>
      <trkpt lat="47.5389" lon="-2.85639">
        <ele>7.5</ele>
        <time>2023-07-19T05:50:45Z</time>
      </trkpt>
      <trkpt lat="47.53906" lon="-2.85721">
        <ele>6.8</ele>
        <time>2023-07-19T05:50:57Z</time>
      </trkpt>
      <trkpt lat="47.53907" lon="-2.85779">
        <ele>6.2</ele>
        <time>2023-07-19T05:51:04Z</time>
      </trkpt>
      <trkpt lat="47.53907" lon="-2.85862">
        <ele>5.9</ele>
        <time>2023-07-19T05:51:15Z</time>
      </trkpt>
      <trkpt lat="47.53907" lon="-2.85947">
        <ele>5.5</ele>
        <time>2023-07-19T05:51:27Z</time>
      </trkpt>
      <trkpt lat="47.53908" lon="-2.86028">
        <ele>5.2</ele>
        <time>2023-07-19T05:51:39Z</time>
      </trkpt>
      <trkpt lat="47.53914" lon="-2.86113">
        <ele>4.8</ele>
        <time>2023-07-19T05:51:51Z</time>
      </trkpt>
      <trkpt lat="47.53924" lon="-2.86192">
        <ele>4.9</ele>
        <time>2023-07-19T05:52:03Z</time>
      </trkpt>
      <trkpt lat="47.53951" lon="-2.86266">
        <ele>6</ele>
        <time>2023-07-19T05:52:16Z</time>
      </trkpt>
      <trkpt lat="47.53966" lon="-2.86299">
        <ele>6.7</ele>
        <time>2023-07-19T05:52:23Z</time>
      </trkpt>
      <trkpt lat="47.53971" lon="-2.86308">
        <ele>6.9</ele>
        <time>2023-07-19T05:52:25Z</time>
      </trkpt>
      <trkpt lat="47.53979" lon="-2.8632">
        <ele>7.2</ele>
        <time>2023-07-19T05:52:28Z</time>
      </trkpt>
      <trkpt lat="47.54011" lon="-2.86358">
        <ele>8.5</ele>
        <time>2023-07-19T05:52:39Z</time>
      </trkpt>
      <trkpt lat="47.54019" lon="-2.86368">
        <ele>8.8</ele>
        <time>2023-07-19T05:52:42Z</time>
      </trkpt>
      <trkpt lat="47.54035" lon="-2.86383">
        <ele>9.3</ele>
        <time>2023-07-19T05:52:47Z</time>
      </trkpt>
      <trkpt lat="47.54081" lon="-2.86421">
        <ele>10.1</ele>
        <time>2023-07-19T05:53:02Z</time>
      </trkpt>
      <trkpt lat="47.54084" lon="-2.86424">
        <ele>10.1</ele>
        <time>2023-07-19T05:53:03Z</time>
      </trkpt>
      <trkpt lat="47.54092" lon="-2.8643">
        <ele>10.1</ele>
        <time>2023-07-19T05:53:05Z</time>
      </trkpt>
      <trkpt lat="47.5413" lon="-2.86456">
        <ele>9.8</ele>
        <time>2023-07-19T05:53:16Z</time>
      </trkpt>
      <trkpt lat="47.54138" lon="-2.86451">
        <ele>9</ele>
        <time>2023-07-19T05:53:18Z</time>
      </trkpt>
      <trkpt lat="47.54148" lon="-2.86444">
        <ele>8.1</ele>
        <time>2023-07-19T05:53:21Z</time>
      </trkpt>
      <trkpt lat="47.54157" lon="-2.86446">
        <ele>7.6</ele>
        <time>2023-07-19T05:53:24Z</time>
      </trkpt>
      <trkpt lat="47.54161" lon="-2.86446">
        <ele>7.1</ele>
        <time>2023-07-19T05:53:25Z</time>
      </trkpt>
      <trkpt lat="47.54165" lon="-2.86439">
        <ele>6.4</ele>
        <time>2023-07-19T05:53:27Z</time>
      </trkpt>
      <trkpt lat="47.54164" lon="-2.86428">
        <ele>6.4</ele>
        <time>2023-07-19T05:53:29Z</time>
      </trkpt>
      <trkpt lat="47.5416" lon="-2.86412">
        <ele>6.4</ele>
        <time>2023-07-19T05:53:32Z</time>
      </trkpt>
      <trkpt lat="47.54154" lon="-2.86393">
        <ele>6.4</ele>
        <time>2023-07-19T05:53:36Z</time>
      </trkpt>
      <trkpt lat="47.54154" lon="-2.86384">
        <ele>6.4</ele>
        <time>2023-07-19T05:53:38Z</time>
      </trkpt>
      <trkpt lat="47.54164" lon="-2.86375">
        <ele>6.3</ele>
        <time>2023-07-19T05:53:41Z</time>
      </trkpt>
      <trkpt lat="47.54174" lon="-2.86378">
        <ele>6.2</ele>
        <time>2023-07-19T05:53:43Z</time>
      </trkpt>
      <trkpt lat="47.54202" lon="-2.86417">
        <ele>7.7</ele>
        <time>2023-07-19T05:53:56Z</time>
      </trkpt>
      <trkpt lat="47.54214" lon="-2.86425">
        <ele>8.5</ele>
        <time>2023-07-19T05:54:02Z</time>
      </trkpt>
      <trkpt lat="47.54262" lon="-2.8639">
        <ele>10.7</ele>
        <time>2023-07-19T05:54:23Z</time>
      </trkpt>
      <trkpt lat="47.5428" lon="-2.86376">
        <ele>11.5</ele>
        <time>2023-07-19T05:54:31Z</time>
      </trkpt>
      <trkpt lat="47.54282" lon="-2.86374">
        <ele>11.6</ele>
        <time>2023-07-19T05:54:32Z</time>
      </trkpt>
      <trkpt lat="47.54284" lon="-2.86373">
        <ele>11.7</ele>
        <time>2023-07-19T05:54:33Z</time>
      </trkpt>
      <trkpt lat="47.54287" lon="-2.86371">
        <ele>11.9</ele>
        <time>2023-07-19T05:54:34Z</time>
      </trkpt>
      <trkpt lat="47.54322" lon="-2.86358">
        <ele>13.8</ele>
        <time>2023-07-19T05:54:47Z</time>
      </trkpt>
      <trkpt lat="47.54338" lon="-2.86355">
        <ele>14.4</ele>
        <time>2023-07-19T05:54:52Z</time>
      </trkpt>
      <trkpt lat="47.54345" lon="-2.86354">
        <ele>14.6</ele>
        <time>2023-07-19T05:54:54Z</time>
      </trkpt>
      <trkpt lat="47.54399" lon="-2.8635">
        <ele>15.5</ele>
        <time>2023-07-19T05:55:12Z</time>
      </trkpt>
      <trkpt lat="47.54421" lon="-2.86319">
        <ele>14.8</ele>
        <time>2023-07-19T05:55:20Z</time>
      </trkpt>
      <trkpt lat="47.54424" lon="-2.86314">
        <ele>14.7</ele>
        <time>2023-07-19T05:55:21Z</time>
      </trkpt>
      <trkpt lat="47.54434" lon="-2.86302">
        <ele>14.5</ele>
        <time>2023-07-19T05:55:27Z</time>
      </trkpt>
      <trkpt lat="47.54444" lon="-2.86297">
        <ele>14.4</ele>
        <time>2023-07-19T05:56:52Z</time>
      </trkpt>
      <trkpt lat="47.54443" lon="-2.86296">
        <ele>14.4</ele>
        <time>2023-07-19T05:56:53Z</time>
      </trkpt>
      <trkpt lat="47.54447" lon="-2.86295">
        <ele>14.3</ele>
        <time>2023-07-19T05:56:57Z</time>
      </trkpt>
      <trkpt lat="47.54466" lon="-2.86296">
        <ele>14.2</ele>
        <time>2023-07-19T05:57:04Z</time>
      </trkpt>
      <trkpt lat="47.54519" lon="-2.86312">
        <ele>14.4</ele>
        <time>2023-07-19T05:57:20Z</time>
      </trkpt>
      <trkpt lat="47.54575" lon="-2.86309">
        <ele>15.9</ele>
        <time>2023-07-19T05:57:39Z</time>
      </trkpt>
      <trkpt lat="47.54578" lon="-2.86308">
        <ele>16</ele>
        <time>2023-07-19T05:57:40Z</time>
      </trkpt>
      <trkpt lat="47.5458" lon="-2.86308">
        <ele>16.2</ele>
        <time>2023-07-19T05:57:41Z</time>
      </trkpt>
      <trkpt lat="47.54599" lon="-2.86307">
        <ele>17.1</ele>
        <time>2023-07-19T05:57:47Z</time>
      </trkpt>
      <trkpt lat="47.54605" lon="-2.8631">
        <ele>17.5</ele>
        <time>2023-07-19T05:57:49Z</time>
      </trkpt>
      <trkpt lat="47.5462" lon="-2.86322">
        <ele>18.7</ele>
        <time>2023-07-19T05:57:55Z</time>
      </trkpt>
      <trkpt lat="47.5466" lon="-2.86376">
        <ele>21.1</ele>
        <time>2023-07-19T05:58:15Z</time>
      </trkpt>
      <trkpt lat="47.54695" lon="-2.86385">
        <ele>20.5</ele>
        <time>2023-07-19T05:58:25Z</time>
      </trkpt>
      <trkpt lat="47.54703" lon="-2.86385">
        <ele>20.4</ele>
        <time>2023-07-19T05:58:27Z</time>
      </trkpt>
      <trkpt lat="47.54706" lon="-2.86386">
        <ele>20.3</ele>
        <time>2023-07-19T05:58:28Z</time>
      </trkpt>
      <trkpt lat="47.54714" lon="-2.86386">
        <ele>20.2</ele>
        <time>2023-07-19T05:58:30Z</time>
      </trkpt>
      <trkpt lat="47.54717" lon="-2.86385">
        <ele>20.2</ele>
        <time>2023-07-19T05:58:31Z</time>
      </trkpt>
      <trkpt lat="47.54746" lon="-2.86396">
        <ele>20.2</ele>
        <time>2023-07-19T05:58:41Z</time>
      </trkpt>
      <trkpt lat="47.54754" lon="-2.86385">
        <ele>20</ele>
        <time>2023-07-19T05:58:46Z</time>
      </trkpt>
      <trkpt lat="47.54766" lon="-2.86373">
        <ele>19.8</ele>
        <time>2023-07-19T05:58:50Z</time>
      </trkpt>
      <trkpt lat="47.54782" lon="-2.86363">
        <ele>19.2</ele>
        <time>2023-07-19T05:58:55Z</time>
      </trkpt>
      <trkpt lat="47.54793" lon="-2.86358">
        <ele>18.6</ele>
        <time>2023-07-19T05:58:58Z</time>
      </trkpt>
      <trkpt lat="47.54802" lon="-2.86354">
        <ele>18.3</ele>
        <time>2023-07-19T05:59:00Z</time>
      </trkpt>
      <trkpt lat="47.54805" lon="-2.8635">
        <ele>18.1</ele>
        <time>2023-07-19T05:59:01Z</time>
      </trkpt>
      <trkpt lat="47.54808" lon="-2.86336">
        <ele>17.8</ele>
        <time>2023-07-19T05:59:03Z</time>
      </trkpt>
      <trkpt lat="47.5481" lon="-2.8631">
        <ele>17.3</ele>
        <time>2023-07-19T05:59:07Z</time>
      </trkpt>
      <trkpt lat="47.54808" lon="-2.86234">
        <ele>16.5</ele>
        <time>2023-07-19T05:59:19Z</time>
      </trkpt>
      <trkpt lat="47.54801" lon="-2.86155">
        <ele>15.2</ele>
        <time>2023-07-19T05:59:31Z</time>
      </trkpt>
      <trkpt lat="47.54798" lon="-2.86147">
        <ele>15</ele>
        <time>2023-07-19T05:59:32Z</time>
      </trkpt>
      <trkpt lat="47.54795" lon="-2.86126">
        <ele>14.5</ele>
        <time>2023-07-19T05:59:35Z</time>
      </trkpt>
      <trkpt lat="47.54794" lon="-2.86112">
        <ele>14.3</ele>
        <time>2023-07-19T05:59:37Z</time>
      </trkpt>
      <trkpt lat="47.54795" lon="-2.86098">
        <ele>14.1</ele>
        <time>2023-07-19T05:59:39Z</time>
      </trkpt>
      <trkpt lat="47.548" lon="-2.86077">
        <ele>13.7</ele>
        <time>2023-07-19T05:59:42Z</time>
      </trkpt>
      <trkpt lat="47.54802" lon="-2.86063">
        <ele>13.4</ele>
        <time>2023-07-19T05:59:44Z</time>
      </trkpt>
      <trkpt lat="47.54801" lon="-2.86011">
        <ele>11.4</ele>
        <time>2023-07-19T05:59:51Z</time>
      </trkpt>
      <trkpt lat="47.54792" lon="-2.85943">
        <ele>5.9</ele>
        <time>2023-07-19T06:00:04Z</time>
      </trkpt>
      <trkpt lat="47.54791" lon="-2.85914">
        <ele>3.9</ele>
        <time>2023-07-19T06:00:14Z</time>
      </trkpt>
      <trkpt lat="47.54792" lon="-2.85914">
        <ele>3.8</ele>
        <time>2023-07-19T06:00:16Z</time>
      </trkpt>
      <trkpt lat="47.54802" lon="-2.85925">
        <ele>4.8</ele>
        <time>2023-07-19T06:04:00Z</time>
      </trkpt>
      <trkpt lat="47.54804" lon="-2.8593">
        <ele>5.3</ele>
        <time>2023-07-19T06:04:04Z</time>
      </trkpt>
      <trkpt lat="47.54815" lon="-2.86011">
        <ele>11.5</ele>
        <time>2023-07-19T06:04:36Z</time>
      </trkpt>
      <trkpt lat="47.54815" lon="-2.86054">
        <ele>13.2</ele>
        <time>2023-07-19T06:04:49Z</time>
      </trkpt>
      <trkpt lat="47.54814" lon="-2.86057">
        <ele>13.3</ele>
        <time>2023-07-19T06:04:50Z</time>
      </trkpt>
      <trkpt lat="47.54813" lon="-2.86064">
        <ele>13.5</ele>
        <time>2023-07-19T06:04:52Z</time>
      </trkpt>
      <trkpt lat="47.54812" lon="-2.86067">
        <ele>13.5</ele>
        <time>2023-07-19T06:04:53Z</time>
      </trkpt>
      <trkpt lat="47.54811" lon="-2.8607">
        <ele>13.6</ele>
        <time>2023-07-19T06:04:54Z</time>
      </trkpt>
      <trkpt lat="47.54804" lon="-2.86093">
        <ele>14.1</ele>
        <time>2023-07-19T06:05:01Z</time>
      </trkpt>
      <trkpt lat="47.54802" lon="-2.86109">
        <ele>14.3</ele>
        <time>2023-07-19T06:05:05Z</time>
      </trkpt>
      <trkpt lat="47.54802" lon="-2.86117">
        <ele>14.4</ele>
        <time>2023-07-19T06:05:07Z</time>
      </trkpt>
      <trkpt lat="47.5481" lon="-2.8616">
        <ele>15.4</ele>
        <time>2023-07-19T06:05:17Z</time>
      </trkpt>
      <trkpt lat="47.54817" lon="-2.86177">
        <ele>16</ele>
        <time>2023-07-19T06:05:23Z</time>
      </trkpt>
      <trkpt lat="47.54819" lon="-2.86185">
        <ele>16.1</ele>
        <time>2023-07-19T06:05:25Z</time>
      </trkpt>
      <trkpt lat="47.54819" lon="-2.8619">
        <ele>16.2</ele>
        <time>2023-07-19T06:05:26Z</time>
      </trkpt>
      <trkpt lat="47.5482" lon="-2.86195">
        <ele>16.3</ele>
        <time>2023-07-19T06:05:27Z</time>
      </trkpt>
      <trkpt lat="47.5482" lon="-2.862">
        <ele>16.3</ele>
        <time>2023-07-19T06:05:28Z</time>
      </trkpt>
      <trkpt lat="47.54818" lon="-2.8628">
        <ele>16.8</ele>
        <time>2023-07-19T06:05:44Z</time>
      </trkpt>
      <trkpt lat="47.5482" lon="-2.86302">
        <ele>17</ele>
        <time>2023-07-19T06:05:49Z</time>
      </trkpt>
      <trkpt lat="47.54821" lon="-2.86312">
        <ele>17.2</ele>
        <time>2023-07-19T06:05:51Z</time>
      </trkpt>
      <trkpt lat="47.54821" lon="-2.86324">
        <ele>17.5</ele>
        <time>2023-07-19T06:05:53Z</time>
      </trkpt>
      <trkpt lat="47.54777" lon="-2.8637">
        <ele>19.5</ele>
        <time>2023-07-19T06:06:08Z</time>
      </trkpt>
      <trkpt lat="47.54766" lon="-2.86378">
        <ele>19.8</ele>
        <time>2023-07-19T06:06:11Z</time>
      </trkpt>
      <trkpt lat="47.54745" lon="-2.86448">
        <ele>19.8</ele>
        <time>2023-07-19T06:06:27Z</time>
      </trkpt>
      <trkpt lat="47.54746" lon="-2.86522">
        <ele>17.9</ele>
        <time>2023-07-19T06:06:37Z</time>
      </trkpt>
      <trkpt lat="47.5474" lon="-2.86579">
        <ele>17</ele>
        <time>2023-07-19T06:06:44Z</time>
      </trkpt>
      <trkpt lat="47.54735" lon="-2.86633">
        <ele>15.6</ele>
        <time>2023-07-19T06:06:53Z</time>
      </trkpt>
      <trkpt lat="47.54794" lon="-2.86634">
        <ele>13.6</ele>
        <time>2023-07-19T06:07:07Z</time>
      </trkpt>
      <trkpt lat="47.54832" lon="-2.86642">
        <ele>13</ele>
        <time>2023-07-19T06:07:15Z</time>
      </trkpt>
      <trkpt lat="47.54836" lon="-2.86643">
        <ele>13</ele>
        <time>2023-07-19T06:07:16Z</time>
      </trkpt>
      <trkpt lat="47.54886" lon="-2.86679">
        <ele>13.2</ele>
        <time>2023-07-19T06:07:31Z</time>
      </trkpt>
      <trkpt lat="47.5494" lon="-2.86696">
        <ele>13.3</ele>
        <time>2023-07-19T06:07:47Z</time>
      </trkpt>
      <trkpt lat="47.54994" lon="-2.86711">
        <ele>12.2</ele>
        <time>2023-07-19T06:08:01Z</time>
      </trkpt>
      <trkpt lat="47.54999" lon="-2.86713">
        <ele>12.1</ele>
        <time>2023-07-19T06:08:02Z</time>
      </trkpt>
      <trkpt lat="47.55047" lon="-2.86756">
        <ele>9.9</ele>
        <time>2023-07-19T06:08:13Z</time>
      </trkpt>
      <trkpt lat="47.55091" lon="-2.86811">
        <ele>7</ele>
        <time>2023-07-19T06:08:22Z</time>
      </trkpt>
      <trkpt lat="47.55129" lon="-2.8687">
        <ele>4.5</ele>
        <time>2023-07-19T06:08:29Z</time>
      </trkpt>
      <trkpt lat="47.55158" lon="-2.86917">
        <ele>3.6</ele>
        <time>2023-07-19T06:08:35Z</time>
      </trkpt>
      <trkpt lat="47.55166" lon="-2.86931">
        <ele>3.3</ele>
        <time>2023-07-19T06:08:37Z</time>
      </trkpt>
      <trkpt lat="47.5517" lon="-2.86937">
        <ele>3.2</ele>
        <time>2023-07-19T06:08:38Z</time>
      </trkpt>
      <trkpt lat="47.55174" lon="-2.86942">
        <ele>3.2</ele>
        <time>2023-07-19T06:08:39Z</time>
      </trkpt>
      <trkpt lat="47.55182" lon="-2.86952">
        <ele>3.2</ele>
        <time>2023-07-19T06:08:41Z</time>
      </trkpt>
      <trkpt lat="47.55194" lon="-2.86962">
        <ele>3.3</ele>
        <time>2023-07-19T06:08:44Z</time>
      </trkpt>
      <trkpt lat="47.55212" lon="-2.86988">
        <ele>3.3</ele>
        <time>2023-07-19T06:08:52Z</time>
      </trkpt>
      <trkpt lat="47.55219" lon="-2.86998">
        <ele>3.3</ele>
        <time>2023-07-19T06:08:56Z</time>
      </trkpt>
      <trkpt lat="47.55221" lon="-2.86999">
        <ele>3.3</ele>
        <time>2023-07-19T06:08:57Z</time>
      </trkpt>
      <trkpt lat="47.55223" lon="-2.86998">
        <ele>3.3</ele>
        <time>2023-07-19T06:08:58Z</time>
      </trkpt>
      <trkpt lat="47.55223" lon="-2.86995">
        <ele>3.3</ele>
        <time>2023-07-19T06:08:59Z</time>
      </trkpt>
      <trkpt lat="47.55221" lon="-2.86991">
        <ele>3.3</ele>
        <time>2023-07-19T06:09:04Z</time>
      </trkpt>
      <trkpt lat="47.55156" lon="-2.86918">
        <ele>3.6</ele>
        <time>2023-07-19T06:12:33Z</time>
      </trkpt>
      <trkpt lat="47.55156" lon="-2.86917">
        <ele>3.6</ele>
        <time>2023-07-19T06:12:34Z</time>
      </trkpt>
      <trkpt lat="47.55156" lon="-2.86913">
        <ele>3.7</ele>
        <time>2023-07-19T06:12:38Z</time>
      </trkpt>
      <trkpt lat="47.55151" lon="-2.8691">
        <ele>3.8</ele>
        <time>2023-07-19T06:12:41Z</time>
      </trkpt>
      <trkpt lat="47.55117" lon="-2.86858">
        <ele>5.1</ele>
        <time>2023-07-19T06:12:58Z</time>
      </trkpt>
      <trkpt lat="47.55114" lon="-2.86854">
        <ele>5.2</ele>
        <time>2023-07-19T06:12:59Z</time>
      </trkpt>
      <trkpt lat="47.55109" lon="-2.86847">
        <ele>5.5</ele>
        <time>2023-07-19T06:13:01Z</time>
      </trkpt>
      <trkpt lat="47.55097" lon="-2.86827">
        <ele>6.4</ele>
        <time>2023-07-19T06:13:06Z</time>
      </trkpt>
      <trkpt lat="47.55062" lon="-2.86777">
        <ele>9</ele>
        <time>2023-07-19T06:13:21Z</time>
      </trkpt>
      <trkpt lat="47.55054" lon="-2.86767">
        <ele>9.5</ele>
        <time>2023-07-19T06:13:24Z</time>
      </trkpt>
      <trkpt lat="47.55044" lon="-2.86758">
        <ele>10</ele>
        <time>2023-07-19T06:13:28Z</time>
      </trkpt>
      <trkpt lat="47.5503" lon="-2.86745">
        <ele>10.6</ele>
        <time>2023-07-19T06:13:33Z</time>
      </trkpt>
      <trkpt lat="47.55028" lon="-2.86743">
        <ele>10.7</ele>
        <time>2023-07-19T06:13:34Z</time>
      </trkpt>
      <trkpt lat="47.55024" lon="-2.8674">
        <ele>10.9</ele>
        <time>2023-07-19T06:13:35Z</time>
      </trkpt>
      <trkpt lat="47.55016" lon="-2.86732">
        <ele>11.3</ele>
        <time>2023-07-19T06:13:38Z</time>
      </trkpt>
      <trkpt lat="47.54997" lon="-2.86717">
        <ele>12.1</ele>
        <time>2023-07-19T06:13:45Z</time>
      </trkpt>
      <trkpt lat="47.54961" lon="-2.867">
        <ele>13.1</ele>
        <time>2023-07-19T06:13:57Z</time>
      </trkpt>
      <trkpt lat="47.54905" lon="-2.86687">
        <ele>13.3</ele>
        <time>2023-07-19T06:14:14Z</time>
      </trkpt>
      <trkpt lat="47.54865" lon="-2.86668">
        <ele>13.1</ele>
        <time>2023-07-19T06:14:24Z</time>
      </trkpt>
      <trkpt lat="47.54858" lon="-2.86674">
        <ele>12.7</ele>
        <time>2023-07-19T06:14:26Z</time>
      </trkpt>
      <trkpt lat="47.54856" lon="-2.86686">
        <ele>12.3</ele>
        <time>2023-07-19T06:14:28Z</time>
      </trkpt>
      <trkpt lat="47.54862" lon="-2.86747">
        <ele>10.1</ele>
        <time>2023-07-19T06:14:36Z</time>
      </trkpt>
      <trkpt lat="47.54875" lon="-2.86822">
        <ele>8.2</ele>
        <time>2023-07-19T06:14:54Z</time>
      </trkpt>
      <trkpt lat="47.54876" lon="-2.86818">
        <ele>8.3</ele>
        <time>2023-07-19T06:14:57Z</time>
      </trkpt>
      <trkpt lat="47.54873" lon="-2.8678">
        <ele>9.1</ele>
        <time>2023-07-19T06:15:07Z</time>
      </trkpt>
      <trkpt lat="47.54857" lon="-2.86705">
        <ele>11.7</ele>
        <time>2023-07-19T06:15:25Z</time>
      </trkpt>
      <trkpt lat="47.54832" lon="-2.86649">
        <ele>13</ele>
        <time>2023-07-19T06:15:44Z</time>
      </trkpt>
      <trkpt lat="47.54812" lon="-2.86641">
        <ele>13.2</ele>
        <time>2023-07-19T06:15:50Z</time>
      </trkpt>
      <trkpt lat="47.54809" lon="-2.8664">
        <ele>13.2</ele>
        <time>2023-07-19T06:15:51Z</time>
      </trkpt>
      <trkpt lat="47.54805" lon="-2.86639">
        <ele>13.3</ele>
        <time>2023-07-19T06:15:52Z</time>
      </trkpt>
      <trkpt lat="47.54802" lon="-2.86639">
        <ele>13.4</ele>
        <time>2023-07-19T06:15:53Z</time>
      </trkpt>
      <trkpt lat="47.54798" lon="-2.86639">
        <ele>13.5</ele>
        <time>2023-07-19T06:15:54Z</time>
      </trkpt>
      <trkpt lat="47.54772" lon="-2.86636">
        <ele>14.2</ele>
        <time>2023-07-19T06:16:02Z</time>
      </trkpt>
      <trkpt lat="47.54715" lon="-2.86632">
        <ele>16.1</ele>
        <time>2023-07-19T06:16:21Z</time>
      </trkpt>
      <trkpt lat="47.54698" lon="-2.86648">
        <ele>16.9</ele>
        <time>2023-07-19T06:16:29Z</time>
      </trkpt>
      <trkpt lat="47.54678" lon="-2.86694">
        <ele>17.6</ele>
        <time>2023-07-19T06:16:41Z</time>
      </trkpt>
      <trkpt lat="47.54677" lon="-2.86699">
        <ele>17.6</ele>
        <time>2023-07-19T06:16:42Z</time>
      </trkpt>
      <trkpt lat="47.5466" lon="-2.86779">
        <ele>17.3</ele>
        <time>2023-07-19T06:16:59Z</time>
      </trkpt>
      <trkpt lat="47.54658" lon="-2.86782">
        <ele>17.3</ele>
        <time>2023-07-19T06:17:00Z</time>
      </trkpt>
      <trkpt lat="47.54604" lon="-2.86765">
        <ele>17.5</ele>
        <time>2023-07-19T06:17:14Z</time>
      </trkpt>
      <trkpt lat="47.54567" lon="-2.86801">
        <ele>17.1</ele>
        <time>2023-07-19T06:17:25Z</time>
      </trkpt>
      <trkpt lat="47.54563" lon="-2.86812">
        <ele>17</ele>
        <time>2023-07-19T06:17:27Z</time>
      </trkpt>
      <trkpt lat="47.54554" lon="-2.86867">
        <ele>16.5</ele>
        <time>2023-07-19T06:17:35Z</time>
      </trkpt>
      <trkpt lat="47.54557" lon="-2.86894">
        <ele>16.4</ele>
        <time>2023-07-19T06:17:39Z</time>
      </trkpt>
      <trkpt lat="47.54566" lon="-2.86947">
        <ele>16</ele>
        <time>2023-07-19T06:17:47Z</time>
      </trkpt>
      <trkpt lat="47.54565" lon="-2.86961">
        <ele>15.7</ele>
        <time>2023-07-19T06:17:49Z</time>
      </trkpt>
      <trkpt lat="47.54563" lon="-2.8697">
        <ele>15.5</ele>
        <time>2023-07-19T06:17:50Z</time>
      </trkpt>
      <trkpt lat="47.5456" lon="-2.86978">
        <ele>15.2</ele>
        <time>2023-07-19T06:17:51Z</time>
      </trkpt>
      <trkpt lat="47.54558" lon="-2.86986">
        <ele>15</ele>
        <time>2023-07-19T06:17:52Z</time>
      </trkpt>
      <trkpt lat="47.54555" lon="-2.86993">
        <ele>14.9</ele>
        <time>2023-07-19T06:17:53Z</time>
      </trkpt>
      <trkpt lat="47.54547" lon="-2.87015">
        <ele>14.3</ele>
        <time>2023-07-19T06:17:56Z</time>
      </trkpt>
      <trkpt lat="47.54543" lon="-2.87032">
        <ele>14</ele>
        <time>2023-07-19T06:17:58Z</time>
      </trkpt>
      <trkpt lat="47.54539" lon="-2.87049">
        <ele>13.6</ele>
        <time>2023-07-19T06:18:00Z</time>
      </trkpt>
      <trkpt lat="47.54536" lon="-2.87065">
        <ele>13.2</ele>
        <time>2023-07-19T06:18:02Z</time>
      </trkpt>
      <trkpt lat="47.54534" lon="-2.87074">
        <ele>12.9</ele>
        <time>2023-07-19T06:18:03Z</time>
      </trkpt>
      <trkpt lat="47.54532" lon="-2.87082">
        <ele>12.7</ele>
        <time>2023-07-19T06:18:04Z</time>
      </trkpt>
      <trkpt lat="47.5453" lon="-2.8709">
        <ele>12.4</ele>
        <time>2023-07-19T06:18:05Z</time>
      </trkpt>
      <trkpt lat="47.54523" lon="-2.87107">
        <ele>12</ele>
        <time>2023-07-19T06:18:07Z</time>
      </trkpt>
      <trkpt lat="47.54512" lon="-2.87137">
        <ele>11.8</ele>
        <time>2023-07-19T06:18:11Z</time>
      </trkpt>
      <trkpt lat="47.5451" lon="-2.87144">
        <ele>11.8</ele>
        <time>2023-07-19T06:18:12Z</time>
      </trkpt>
      <trkpt lat="47.54504" lon="-2.87165">
        <ele>11.9</ele>
        <time>2023-07-19T06:18:15Z</time>
      </trkpt>
      <trkpt lat="47.545" lon="-2.87179">
        <ele>12</ele>
        <time>2023-07-19T06:18:17Z</time>
      </trkpt>
      <trkpt lat="47.54498" lon="-2.87186">
        <ele>12</ele>
        <time>2023-07-19T06:18:18Z</time>
      </trkpt>
      <trkpt lat="47.5448" lon="-2.8724">
        <ele>11.7</ele>
        <time>2023-07-19T06:18:27Z</time>
      </trkpt>
      <trkpt lat="47.54478" lon="-2.87253">
        <ele>11.3</ele>
        <time>2023-07-19T06:18:29Z</time>
      </trkpt>
      <trkpt lat="47.54478" lon="-2.8726">
        <ele>11.1</ele>
        <time>2023-07-19T06:18:30Z</time>
      </trkpt>
      <trkpt lat="47.54479" lon="-2.87274">
        <ele>10.9</ele>
        <time>2023-07-19T06:18:32Z</time>
      </trkpt>
      <trkpt lat="47.54479" lon="-2.87287">
        <ele>10.7</ele>
        <time>2023-07-19T06:18:34Z</time>
      </trkpt>
      <trkpt lat="47.54478" lon="-2.87302">
        <ele>10.5</ele>
        <time>2023-07-19T06:18:36Z</time>
      </trkpt>
      <trkpt lat="47.54477" lon="-2.87309">
        <ele>10.3</ele>
        <time>2023-07-19T06:18:37Z</time>
      </trkpt>
      <trkpt lat="47.54472" lon="-2.87325">
        <ele>10</ele>
        <time>2023-07-19T06:18:39Z</time>
      </trkpt>
      <trkpt lat="47.5447" lon="-2.87332">
        <ele>9.9</ele>
        <time>2023-07-19T06:18:40Z</time>
      </trkpt>
      <trkpt lat="47.54467" lon="-2.87339">
        <ele>9.8</ele>
        <time>2023-07-19T06:18:41Z</time>
      </trkpt>
      <trkpt lat="47.5446" lon="-2.87351">
        <ele>9.6</ele>
        <time>2023-07-19T06:18:43Z</time>
      </trkpt>
      <trkpt lat="47.54451" lon="-2.87362">
        <ele>9.4</ele>
        <time>2023-07-19T06:18:45Z</time>
      </trkpt>
      <trkpt lat="47.54435" lon="-2.87383">
        <ele>9.5</ele>
        <time>2023-07-19T06:18:49Z</time>
      </trkpt>
      <trkpt lat="47.54432" lon="-2.87388">
        <ele>9.6</ele>
        <time>2023-07-19T06:18:50Z</time>
      </trkpt>
      <trkpt lat="47.54427" lon="-2.874">
        <ele>10</ele>
        <time>2023-07-19T06:18:52Z</time>
      </trkpt>
      <trkpt lat="47.54398" lon="-2.87468">
        <ele>13.1</ele>
        <time>2023-07-19T06:19:07Z</time>
      </trkpt>
      <trkpt lat="47.54377" lon="-2.87544">
        <ele>14</ele>
        <time>2023-07-19T06:19:24Z</time>
      </trkpt>
      <trkpt lat="47.54371" lon="-2.87569">
        <ele>14.3</ele>
        <time>2023-07-19T06:19:30Z</time>
      </trkpt>
      <trkpt lat="47.54367" lon="-2.8759">
        <ele>14.5</ele>
        <time>2023-07-19T06:19:35Z</time>
      </trkpt>
      <trkpt lat="47.54365" lon="-2.87604">
        <ele>14.6</ele>
        <time>2023-07-19T06:19:38Z</time>
      </trkpt>
      <trkpt lat="47.54361" lon="-2.87624">
        <ele>14.8</ele>
        <time>2023-07-19T06:19:42Z</time>
      </trkpt>
      <trkpt lat="47.54355" lon="-2.87655">
        <ele>15.1</ele>
        <time>2023-07-19T06:19:48Z</time>
      </trkpt>
      <trkpt lat="47.54348" lon="-2.87692">
        <ele>15.4</ele>
        <time>2023-07-19T06:19:55Z</time>
      </trkpt>
      <trkpt lat="47.54347" lon="-2.87717">
        <ele>15.5</ele>
        <time>2023-07-19T06:20:01Z</time>
      </trkpt>
      <trkpt lat="47.54358" lon="-2.87755">
        <ele>15.3</ele>
        <time>2023-07-19T06:20:09Z</time>
      </trkpt>
      <trkpt lat="47.54364" lon="-2.87777">
        <ele>15.2</ele>
        <time>2023-07-19T06:20:13Z</time>
      </trkpt>
      <trkpt lat="47.54367" lon="-2.87789">
        <ele>15.1</ele>
        <time>2023-07-19T06:20:15Z</time>
      </trkpt>
      <trkpt lat="47.54368" lon="-2.87795">
        <ele>15.1</ele>
        <time>2023-07-19T06:20:16Z</time>
      </trkpt>
      <trkpt lat="47.5437" lon="-2.87801">
        <ele>15.1</ele>
        <time>2023-07-19T06:20:17Z</time>
      </trkpt>
      <trkpt lat="47.54371" lon="-2.87807">
        <ele>15.1</ele>
        <time>2023-07-19T06:20:18Z</time>
      </trkpt>
      <trkpt lat="47.54373" lon="-2.87812">
        <ele>15</ele>
        <time>2023-07-19T06:20:19Z</time>
      </trkpt>
      <trkpt lat="47.54379" lon="-2.87842">
        <ele>14.9</ele>
        <time>2023-07-19T06:20:24Z</time>
      </trkpt>
      <trkpt lat="47.54402" lon="-2.87915">
        <ele>14.4</ele>
        <time>2023-07-19T06:20:37Z</time>
      </trkpt>
      <trkpt lat="47.54404" lon="-2.8792">
        <ele>14.3</ele>
        <time>2023-07-19T06:20:38Z</time>
      </trkpt>
      <trkpt lat="47.54421" lon="-2.87941">
        <ele>14</ele>
        <time>2023-07-19T06:20:43Z</time>
      </trkpt>
      <trkpt lat="47.54445" lon="-2.87966">
        <ele>13.5</ele>
        <time>2023-07-19T06:20:49Z</time>
      </trkpt>
      <trkpt lat="47.54452" lon="-2.87979">
        <ele>13.4</ele>
        <time>2023-07-19T06:20:51Z</time>
      </trkpt>
      <trkpt lat="47.54488" lon="-2.8804">
        <ele>13.1</ele>
        <time>2023-07-19T06:21:02Z</time>
      </trkpt>
      <trkpt lat="47.54499" lon="-2.88059">
        <ele>13</ele>
        <time>2023-07-19T06:21:06Z</time>
      </trkpt>
      <trkpt lat="47.54532" lon="-2.88107">
        <ele>12.7</ele>
        <time>2023-07-19T06:21:16Z</time>
      </trkpt>
      <trkpt lat="47.54554" lon="-2.88137">
        <ele>12.2</ele>
        <time>2023-07-19T06:21:22Z</time>
      </trkpt>
      <trkpt lat="47.54562" lon="-2.88145">
        <ele>12</ele>
        <time>2023-07-19T06:21:24Z</time>
      </trkpt>
      <trkpt lat="47.54566" lon="-2.88149">
        <ele>11.9</ele>
        <time>2023-07-19T06:21:25Z</time>
      </trkpt>
      <trkpt lat="47.5457" lon="-2.88154">
        <ele>11.8</ele>
        <time>2023-07-19T06:21:26Z</time>
      </trkpt>
      <trkpt lat="47.54592" lon="-2.88169">
        <ele>11.3</ele>
        <time>2023-07-19T06:21:31Z</time>
      </trkpt>
      <trkpt lat="47.54648" lon="-2.88191">
        <ele>10</ele>
        <time>2023-07-19T06:21:42Z</time>
      </trkpt>
      <trkpt lat="47.54673" lon="-2.88194">
        <ele>9.7</ele>
        <time>2023-07-19T06:21:47Z</time>
      </trkpt>
      <trkpt lat="47.54683" lon="-2.8819">
        <ele>9.8</ele>
        <time>2023-07-19T06:21:49Z</time>
      </trkpt>
      <trkpt lat="47.54716" lon="-2.88159">
        <ele>10.2</ele>
        <time>2023-07-19T06:21:57Z</time>
      </trkpt>
      <trkpt lat="47.54738" lon="-2.88136">
        <ele>10.5</ele>
        <time>2023-07-19T06:22:03Z</time>
      </trkpt>
      <trkpt lat="47.54746" lon="-2.88129">
        <ele>10.5</ele>
        <time>2023-07-19T06:22:05Z</time>
      </trkpt>
      <trkpt lat="47.54749" lon="-2.88126">
        <ele>10.6</ele>
        <time>2023-07-19T06:22:06Z</time>
      </trkpt>
      <trkpt lat="47.54794" lon="-2.88104">
        <ele>11.4</ele>
        <time>2023-07-19T06:22:18Z</time>
      </trkpt>
      <trkpt lat="47.54798" lon="-2.88103">
        <ele>11.5</ele>
        <time>2023-07-19T06:22:19Z</time>
      </trkpt>
      <trkpt lat="47.54801" lon="-2.88103">
        <ele>11.6</ele>
        <time>2023-07-19T06:22:20Z</time>
      </trkpt>
      <trkpt lat="47.54804" lon="-2.88104">
        <ele>11.6</ele>
        <time>2023-07-19T06:22:21Z</time>
      </trkpt>
      <trkpt lat="47.54808" lon="-2.88104">
        <ele>11.7</ele>
        <time>2023-07-19T06:22:22Z</time>
      </trkpt>
      <trkpt lat="47.54816" lon="-2.88106">
        <ele>11.9</ele>
        <time>2023-07-19T06:22:24Z</time>
      </trkpt>
      <trkpt lat="47.54823" lon="-2.88109">
        <ele>12.1</ele>
        <time>2023-07-19T06:22:26Z</time>
      </trkpt>
      <trkpt lat="47.54827" lon="-2.8811">
        <ele>12.2</ele>
        <time>2023-07-19T06:22:27Z</time>
      </trkpt>
      <trkpt lat="47.54838" lon="-2.88113">
        <ele>12.5</ele>
        <time>2023-07-19T06:22:30Z</time>
      </trkpt>
      <trkpt lat="47.54854" lon="-2.88116">
        <ele>13.1</ele>
        <time>2023-07-19T06:22:36Z</time>
      </trkpt>
      <trkpt lat="47.54857" lon="-2.88116">
        <ele>13.2</ele>
        <time>2023-07-19T06:22:37Z</time>
      </trkpt>
      <trkpt lat="47.54867" lon="-2.88122">
        <ele>13.5</ele>
        <time>2023-07-19T06:22:42Z</time>
      </trkpt>
      <trkpt lat="47.5487" lon="-2.88134">
        <ele>13.6</ele>
        <time>2023-07-19T06:22:45Z</time>
      </trkpt>
      <trkpt lat="47.54874" lon="-2.8815">
        <ele>13.7</ele>
        <time>2023-07-19T06:22:48Z</time>
      </trkpt>
      <trkpt lat="47.54884" lon="-2.88193">
        <ele>13.9</ele>
        <time>2023-07-19T06:22:56Z</time>
      </trkpt>
      <trkpt lat="47.54887" lon="-2.88203">
        <ele>13.9</ele>
        <time>2023-07-19T06:22:58Z</time>
      </trkpt>
      <trkpt lat="47.54895" lon="-2.88247">
        <ele>13.8</ele>
        <time>2023-07-19T06:23:06Z</time>
      </trkpt>
      <trkpt lat="47.54904" lon="-2.883">
        <ele>13.4</ele>
        <time>2023-07-19T06:23:15Z</time>
      </trkpt>
      <trkpt lat="47.54913" lon="-2.88339">
        <ele>12.9</ele>
        <time>2023-07-19T06:23:21Z</time>
      </trkpt>
      <trkpt lat="47.54914" lon="-2.88346">
        <ele>12.8</ele>
        <time>2023-07-19T06:23:22Z</time>
      </trkpt>
      <trkpt lat="47.54919" lon="-2.88366">
        <ele>12.6</ele>
        <time>2023-07-19T06:23:25Z</time>
      </trkpt>
      <trkpt lat="47.54922" lon="-2.88379">
        <ele>12.5</ele>
        <time>2023-07-19T06:23:27Z</time>
      </trkpt>
      <trkpt lat="47.54934" lon="-2.88426">
        <ele>12.5</ele>
        <time>2023-07-19T06:23:34Z</time>
      </trkpt>
      <trkpt lat="47.54936" lon="-2.88439">
        <ele>12.5</ele>
        <time>2023-07-19T06:23:36Z</time>
      </trkpt>
      <trkpt lat="47.54938" lon="-2.88445">
        <ele>12.6</ele>
        <time>2023-07-19T06:23:37Z</time>
      </trkpt>
      <trkpt lat="47.54942" lon="-2.88461">
        <ele>12.6</ele>
        <time>2023-07-19T06:23:40Z</time>
      </trkpt>
      <trkpt lat="47.54948" lon="-2.88483">
        <ele>12.7</ele>
        <time>2023-07-19T06:23:44Z</time>
      </trkpt>
      <trkpt lat="47.54949" lon="-2.88488">
        <ele>12.8</ele>
        <time>2023-07-19T06:23:45Z</time>
      </trkpt>
      <trkpt lat="47.5495" lon="-2.88499">
        <ele>12.8</ele>
        <time>2023-07-19T06:23:47Z</time>
      </trkpt>
      <trkpt lat="47.54956" lon="-2.88539">
        <ele>13.3</ele>
        <time>2023-07-19T06:23:55Z</time>
      </trkpt>
      <trkpt lat="47.54957" lon="-2.88548">
        <ele>13.5</ele>
        <time>2023-07-19T06:23:57Z</time>
      </trkpt>
      <trkpt lat="47.54958" lon="-2.88553">
        <ele>13.6</ele>
        <time>2023-07-19T06:23:58Z</time>
      </trkpt>
      <trkpt lat="47.54959" lon="-2.88558">
        <ele>13.7</ele>
        <time>2023-07-19T06:23:59Z</time>
      </trkpt>
      <trkpt lat="47.54962" lon="-2.88573">
        <ele>14</ele>
        <time>2023-07-19T06:24:02Z</time>
      </trkpt>
      <trkpt lat="47.54965" lon="-2.88592">
        <ele>14.4</ele>
        <time>2023-07-19T06:24:06Z</time>
      </trkpt>
      <trkpt lat="47.54972" lon="-2.88618">
        <ele>14.5</ele>
        <time>2023-07-19T06:24:13Z</time>
      </trkpt>
      <trkpt lat="47.5498" lon="-2.88656">
        <ele>14.4</ele>
        <time>2023-07-19T06:24:20Z</time>
      </trkpt>
      <trkpt lat="47.54982" lon="-2.88662">
        <ele>14.4</ele>
        <time>2023-07-19T06:24:21Z</time>
      </trkpt>
      <trkpt lat="47.54984" lon="-2.88674">
        <ele>14.4</ele>
        <time>2023-07-19T06:24:23Z</time>
      </trkpt>
      <trkpt lat="47.54985" lon="-2.8868">
        <ele>14.4</ele>
        <time>2023-07-19T06:24:24Z</time>
      </trkpt>
      <trkpt lat="47.55003" lon="-2.88763">
        <ele>14.6</ele>
        <time>2023-07-19T06:24:37Z</time>
      </trkpt>
      <trkpt lat="47.55006" lon="-2.88776">
        <ele>14.7</ele>
        <time>2023-07-19T06:24:39Z</time>
      </trkpt>
      <trkpt lat="47.5501" lon="-2.88795">
        <ele>14.8</ele>
        <time>2023-07-19T06:24:42Z</time>
      </trkpt>
      <trkpt lat="47.55024" lon="-2.88872">
        <ele>15.1</ele>
        <time>2023-07-19T06:24:54Z</time>
      </trkpt>
      <trkpt lat="47.55039" lon="-2.88922">
        <ele>15.4</ele>
        <time>2023-07-19T06:25:05Z</time>
      </trkpt>
      <trkpt lat="47.55038" lon="-2.88931">
        <ele>15.4</ele>
        <time>2023-07-19T06:25:07Z</time>
      </trkpt>
      <trkpt lat="47.55024" lon="-2.88955">
        <ele>15.1</ele>
        <time>2023-07-19T06:25:13Z</time>
      </trkpt>
      <trkpt lat="47.55021" lon="-2.88966">
        <ele>14.8</ele>
        <time>2023-07-19T06:25:15Z</time>
      </trkpt>
      <trkpt lat="47.55018" lon="-2.89003">
        <ele>14.4</ele>
        <time>2023-07-19T06:25:21Z</time>
      </trkpt>
      <trkpt lat="47.55017" lon="-2.89035">
        <ele>14.1</ele>
        <time>2023-07-19T06:25:26Z</time>
      </trkpt>
      <trkpt lat="47.55017" lon="-2.89042">
        <ele>14.1</ele>
        <time>2023-07-19T06:25:27Z</time>
      </trkpt>
      <trkpt lat="47.55016" lon="-2.89054">
        <ele>14</ele>
        <time>2023-07-19T06:25:29Z</time>
      </trkpt>
      <trkpt lat="47.55015" lon="-2.89073">
        <ele>14</ele>
        <time>2023-07-19T06:25:32Z</time>
      </trkpt>
      <trkpt lat="47.55015" lon="-2.89085">
        <ele>14</ele>
        <time>2023-07-19T06:25:34Z</time>
      </trkpt>
      <trkpt lat="47.55013" lon="-2.89103">
        <ele>13.9</ele>
        <time>2023-07-19T06:25:37Z</time>
      </trkpt>
      <trkpt lat="47.55018" lon="-2.89186">
        <ele>14.1</ele>
        <time>2023-07-19T06:25:51Z</time>
      </trkpt>
      <trkpt lat="47.55047" lon="-2.89252">
        <ele>14.9</ele>
        <time>2023-07-19T06:26:09Z</time>
      </trkpt>
      <trkpt lat="47.55043" lon="-2.89327">
        <ele>13.9</ele>
        <time>2023-07-19T06:26:25Z</time>
      </trkpt>
      <trkpt lat="47.55009" lon="-2.8935">
        <ele>13.1</ele>
        <time>2023-07-19T06:26:40Z</time>
      </trkpt>
      <trkpt lat="47.54999" lon="-2.89346">
        <ele>13</ele>
        <time>2023-07-19T06:26:44Z</time>
      </trkpt>
      <trkpt lat="47.54997" lon="-2.89344">
        <ele>12.9</ele>
        <time>2023-07-19T06:26:45Z</time>
      </trkpt>
      <trkpt lat="47.54995" lon="-2.89342">
        <ele>12.9</ele>
        <time>2023-07-19T06:26:46Z</time>
      </trkpt>
      <trkpt lat="47.54993" lon="-2.8934">
        <ele>12.9</ele>
        <time>2023-07-19T06:26:47Z</time>
      </trkpt>
      <trkpt lat="47.54992" lon="-2.89338">
        <ele>12.8</ele>
        <time>2023-07-19T06:26:48Z</time>
      </trkpt>
      <trkpt lat="47.54991" lon="-2.89335">
        <ele>12.8</ele>
        <time>2023-07-19T06:26:49Z</time>
      </trkpt>
      <trkpt lat="47.5499" lon="-2.89334">
        <ele>12.8</ele>
        <time>2023-07-19T06:26:50Z</time>
      </trkpt>
      <trkpt lat="47.54989" lon="-2.89333">
        <ele>12.7</ele>
        <time>2023-07-19T06:26:51Z</time>
      </trkpt>
      <trkpt lat="47.54986" lon="-2.89333">
        <ele>12.7</ele>
        <time>2023-07-19T06:26:53Z</time>
      </trkpt>
      <trkpt lat="47.54981" lon="-2.89339">
        <ele>12.6</ele>
        <time>2023-07-19T06:26:56Z</time>
      </trkpt>
      <trkpt lat="47.5498" lon="-2.89342">
        <ele>12.6</ele>
        <time>2023-07-19T06:26:57Z</time>
      </trkpt>
      <trkpt lat="47.54972" lon="-2.89351">
        <ele>12.3</ele>
        <time>2023-07-19T06:27:00Z</time>
      </trkpt>
      <trkpt lat="47.5496" lon="-2.89358">
        <ele>11.9</ele>
        <time>2023-07-19T06:27:04Z</time>
      </trkpt>
      <trkpt lat="47.54947" lon="-2.89369">
        <ele>11</ele>
        <time>2023-07-19T06:27:08Z</time>
      </trkpt>
      <trkpt lat="47.54934" lon="-2.8938">
        <ele>9.5</ele>
        <time>2023-07-19T06:27:11Z</time>
      </trkpt>
      <trkpt lat="47.54919" lon="-2.89394">
        <ele>7.7</ele>
        <time>2023-07-19T06:27:14Z</time>
      </trkpt>
      <trkpt lat="47.54901" lon="-2.89408">
        <ele>7</ele>
        <time>2023-07-19T06:27:17Z</time>
      </trkpt>
      <trkpt lat="47.54889" lon="-2.89418">
        <ele>6.4</ele>
        <time>2023-07-19T06:27:19Z</time>
      </trkpt>
      <trkpt lat="47.54844" lon="-2.89462">
        <ele>5.5</ele>
        <time>2023-07-19T06:27:27Z</time>
      </trkpt>
      <trkpt lat="47.5482" lon="-2.89485">
        <ele>5.6</ele>
        <time>2023-07-19T06:27:32Z</time>
      </trkpt>
      <trkpt lat="47.54784" lon="-2.89519">
        <ele>6.1</ele>
        <time>2023-07-19T06:27:41Z</time>
      </trkpt>
      <trkpt lat="47.54781" lon="-2.89523">
        <ele>6.1</ele>
        <time>2023-07-19T06:27:42Z</time>
      </trkpt>
      <trkpt lat="47.5476" lon="-2.89543">
        <ele>6.2</ele>
        <time>2023-07-19T06:27:48Z</time>
      </trkpt>
      <trkpt lat="47.54747" lon="-2.89554">
        <ele>6.1</ele>
        <time>2023-07-19T06:27:52Z</time>
      </trkpt>
      <trkpt lat="47.54714" lon="-2.8958">
        <ele>5.8</ele>
        <time>2023-07-19T06:28:01Z</time>
      </trkpt>
      <trkpt lat="47.54671" lon="-2.89611">
        <ele>5.4</ele>
        <time>2023-07-19T06:28:12Z</time>
      </trkpt>
      <trkpt lat="47.54644" lon="-2.89642">
        <ele>5</ele>
        <time>2023-07-19T06:28:21Z</time>
      </trkpt>
      <trkpt lat="47.54628" lon="-2.8966">
        <ele>4.8</ele>
        <time>2023-07-19T06:28:26Z</time>
      </trkpt>
      <trkpt lat="47.54624" lon="-2.89663">
        <ele>4.8</ele>
        <time>2023-07-19T06:28:27Z</time>
      </trkpt>
      <trkpt lat="47.54608" lon="-2.89702">
        <ele>4.9</ele>
        <time>2023-07-19T06:28:36Z</time>
      </trkpt>
      <trkpt lat="47.54608" lon="-2.89713">
        <ele>4.9</ele>
        <time>2023-07-19T06:28:38Z</time>
      </trkpt>
      <trkpt lat="47.54608" lon="-2.89722">
        <ele>4.9</ele>
        <time>2023-07-19T06:28:40Z</time>
      </trkpt>
      <trkpt lat="47.54604" lon="-2.89734">
        <ele>5</ele>
        <time>2023-07-19T06:28:43Z</time>
      </trkpt>
      <trkpt lat="47.546" lon="-2.89741">
        <ele>5.1</ele>
        <time>2023-07-19T06:28:45Z</time>
      </trkpt>
      <trkpt lat="47.54598" lon="-2.89745">
        <ele>5.1</ele>
        <time>2023-07-19T06:28:46Z</time>
      </trkpt>
      <trkpt lat="47.54597" lon="-2.89749">
        <ele>5.1</ele>
        <time>2023-07-19T06:28:47Z</time>
      </trkpt>
      <trkpt lat="47.54592" lon="-2.89768">
        <ele>5</ele>
        <time>2023-07-19T06:28:52Z</time>
      </trkpt>
      <trkpt lat="47.54596" lon="-2.89771">
        <ele>4.9</ele>
        <time>2023-07-19T06:28:54Z</time>
      </trkpt>
      <trkpt lat="47.54598" lon="-2.89773">
        <ele>4.9</ele>
        <time>2023-07-19T06:28:55Z</time>
      </trkpt>
      <trkpt lat="47.546" lon="-2.89773">
        <ele>4.9</ele>
        <time>2023-07-19T06:28:56Z</time>
      </trkpt>
      <trkpt lat="47.54603" lon="-2.89774">
        <ele>4.9</ele>
        <time>2023-07-19T06:28:57Z</time>
      </trkpt>
      <trkpt lat="47.54605" lon="-2.89775">
        <ele>4.8</ele>
        <time>2023-07-19T06:28:58Z</time>
      </trkpt>
      <trkpt lat="47.5461" lon="-2.8979">
        <ele>4.9</ele>
        <time>2023-07-19T06:29:01Z</time>
      </trkpt>
      <trkpt lat="47.54609" lon="-2.89801">
        <ele>5</ele>
        <time>2023-07-19T06:29:04Z</time>
      </trkpt>
      <trkpt lat="47.54606" lon="-2.89811">
        <ele>5.2</ele>
        <time>2023-07-19T06:29:06Z</time>
      </trkpt>
      <trkpt lat="47.54605" lon="-2.89885">
        <ele>6</ele>
        <time>2023-07-19T06:29:22Z</time>
      </trkpt>
      <trkpt lat="47.54612" lon="-2.89893">
        <ele>5.9</ele>
        <time>2023-07-19T06:29:25Z</time>
      </trkpt>
      <trkpt lat="47.54629" lon="-2.89919">
        <ele>5.8</ele>
        <time>2023-07-19T06:29:37Z</time>
      </trkpt>
      <trkpt lat="47.54629" lon="-2.89919">
        <ele>5.8</ele>
        <time>2023-07-19T06:35:05Z</time>
      </trkpt>
      <trkpt lat="47.54631" lon="-2.89929">
        <ele>5.9</ele>
        <time>2023-07-19T06:35:13Z</time>
      </trkpt>
      <trkpt lat="47.54616" lon="-2.90008">
        <ele>6.6</ele>
        <time>2023-07-19T06:35:32Z</time>
      </trkpt>
      <trkpt lat="47.54617" lon="-2.90045">
        <ele>6.9</ele>
        <time>2023-07-19T06:35:39Z</time>
      </trkpt>
      <trkpt lat="47.54624" lon="-2.90064">
        <ele>7.1</ele>
        <time>2023-07-19T06:35:43Z</time>
      </trkpt>
      <trkpt lat="47.54625" lon="-2.90068">
        <ele>7.2</ele>
        <time>2023-07-19T06:35:44Z</time>
      </trkpt>
      <trkpt lat="47.54626" lon="-2.90073">
        <ele>7.2</ele>
        <time>2023-07-19T06:35:45Z</time>
      </trkpt>
      <trkpt lat="47.54632" lon="-2.90091">
        <ele>7.4</ele>
        <time>2023-07-19T06:35:49Z</time>
      </trkpt>
      <trkpt lat="47.54635" lon="-2.90122">
        <ele>7.6</ele>
        <time>2023-07-19T06:35:55Z</time>
      </trkpt>
      <trkpt lat="47.54635" lon="-2.90127">
        <ele>7.7</ele>
        <time>2023-07-19T06:35:56Z</time>
      </trkpt>
      <trkpt lat="47.54634" lon="-2.90138">
        <ele>7.8</ele>
        <time>2023-07-19T06:35:58Z</time>
      </trkpt>
      <trkpt lat="47.54634" lon="-2.90143">
        <ele>7.8</ele>
        <time>2023-07-19T06:35:59Z</time>
      </trkpt>
      <trkpt lat="47.54634" lon="-2.90149">
        <ele>7.8</ele>
        <time>2023-07-19T06:36:00Z</time>
      </trkpt>
      <trkpt lat="47.54633" lon="-2.90154">
        <ele>7.9</ele>
        <time>2023-07-19T06:36:01Z</time>
      </trkpt>
      <trkpt lat="47.54633" lon="-2.90159">
        <ele>8</ele>
        <time>2023-07-19T06:36:02Z</time>
      </trkpt>
      <trkpt lat="47.54632" lon="-2.9017">
        <ele>8.1</ele>
        <time>2023-07-19T06:36:04Z</time>
      </trkpt>
      <trkpt lat="47.54629" lon="-2.90185">
        <ele>8.3</ele>
        <time>2023-07-19T06:36:07Z</time>
      </trkpt>
      <trkpt lat="47.54627" lon="-2.90198">
        <ele>8.2</ele>
        <time>2023-07-19T06:36:10Z</time>
      </trkpt>
      <trkpt lat="47.54625" lon="-2.90197">
        <ele>8</ele>
        <time>2023-07-19T06:36:12Z</time>
      </trkpt>
      <trkpt lat="47.5463" lon="-2.9019">
        <ele>7.9</ele>
        <time>2023-07-19T06:36:15Z</time>
      </trkpt>
      <trkpt lat="47.54635" lon="-2.90191">
        <ele>7.9</ele>
        <time>2023-07-19T06:36:17Z</time>
      </trkpt>
      <trkpt lat="47.54641" lon="-2.90192">
        <ele>7.8</ele>
        <time>2023-07-19T06:36:19Z</time>
      </trkpt>
      <trkpt lat="47.54651" lon="-2.90196">
        <ele>7.9</ele>
        <time>2023-07-19T06:36:23Z</time>
      </trkpt>
      <trkpt lat="47.54664" lon="-2.90201">
        <ele>8.1</ele>
        <time>2023-07-19T06:36:28Z</time>
      </trkpt>
      <trkpt lat="47.54677" lon="-2.90203">
        <ele>8.4</ele>
        <time>2023-07-19T06:36:33Z</time>
      </trkpt>
      <trkpt lat="47.54682" lon="-2.9021">
        <ele>8.5</ele>
        <time>2023-07-19T06:36:36Z</time>
      </trkpt>
      <trkpt lat="47.54681" lon="-2.90237">
        <ele>8.8</ele>
        <time>2023-07-19T06:36:42Z</time>
      </trkpt>
      <trkpt lat="47.5468" lon="-2.90241">
        <ele>8.9</ele>
        <time>2023-07-19T06:36:43Z</time>
      </trkpt>
      <trkpt lat="47.54673" lon="-2.90279">
        <ele>9.3</ele>
        <time>2023-07-19T06:36:51Z</time>
      </trkpt>
      <trkpt lat="47.54668" lon="-2.90314">
        <ele>9.8</ele>
        <time>2023-07-19T06:36:58Z</time>
      </trkpt>
      <trkpt lat="47.54669" lon="-2.90318">
        <ele>9.9</ele>
        <time>2023-07-19T06:36:59Z</time>
      </trkpt>
      <trkpt lat="47.5467" lon="-2.90322">
        <ele>10</ele>
        <time>2023-07-19T06:37:00Z</time>
      </trkpt>
      <trkpt lat="47.54672" lon="-2.90325">
        <ele>10.1</ele>
        <time>2023-07-19T06:37:01Z</time>
      </trkpt>
      <trkpt lat="47.54677" lon="-2.90326">
        <ele>10.2</ele>
        <time>2023-07-19T06:37:03Z</time>
      </trkpt>
      <trkpt lat="47.5468" lon="-2.90326">
        <ele>10.6</ele>
        <time>2023-07-19T06:37:04Z</time>
      </trkpt>
      <trkpt lat="47.54695" lon="-2.90316">
        <ele>10.9</ele>
        <time>2023-07-19T06:37:09Z</time>
      </trkpt>
      <trkpt lat="47.54702" lon="-2.90305">
        <ele>11.1</ele>
        <time>2023-07-19T06:37:12Z</time>
      </trkpt>
      <trkpt lat="47.54705" lon="-2.90301">
        <ele>11.1</ele>
        <time>2023-07-19T06:37:13Z</time>
      </trkpt>
      <trkpt lat="47.54707" lon="-2.90298">
        <ele>11.2</ele>
        <time>2023-07-19T06:37:14Z</time>
      </trkpt>
      <trkpt lat="47.54718" lon="-2.90283">
        <ele>11.4</ele>
        <time>2023-07-19T06:37:18Z</time>
      </trkpt>
      <trkpt lat="47.54721" lon="-2.9028">
        <ele>11.5</ele>
        <time>2023-07-19T06:37:19Z</time>
      </trkpt>
      <trkpt lat="47.54726" lon="-2.90273">
        <ele>11.6</ele>
        <time>2023-07-19T06:37:21Z</time>
      </trkpt>
      <trkpt lat="47.54735" lon="-2.90262">
        <ele>11.8</ele>
        <time>2023-07-19T06:37:24Z</time>
      </trkpt>
      <trkpt lat="47.54741" lon="-2.90254">
        <ele>11.9</ele>
        <time>2023-07-19T06:37:26Z</time>
      </trkpt>
      <trkpt lat="47.54746" lon="-2.90248">
        <ele>12</ele>
        <time>2023-07-19T06:37:28Z</time>
      </trkpt>
      <trkpt lat="47.54754" lon="-2.90237">
        <ele>12.2</ele>
        <time>2023-07-19T06:37:31Z</time>
      </trkpt>
      <trkpt lat="47.54768" lon="-2.9022">
        <ele>12.5</ele>
        <time>2023-07-19T06:37:36Z</time>
      </trkpt>
      <trkpt lat="47.54781" lon="-2.90204">
        <ele>12.8</ele>
        <time>2023-07-19T06:37:41Z</time>
      </trkpt>
      <trkpt lat="47.54803" lon="-2.90179">
        <ele>13.5</ele>
        <time>2023-07-19T06:37:49Z</time>
      </trkpt>
      <trkpt lat="47.54811" lon="-2.90173">
        <ele>13.7</ele>
        <time>2023-07-19T06:37:52Z</time>
      </trkpt>
      <trkpt lat="47.54814" lon="-2.90172">
        <ele>13.8</ele>
        <time>2023-07-19T06:37:53Z</time>
      </trkpt>
      <trkpt lat="47.54816" lon="-2.9017">
        <ele>13.9</ele>
        <time>2023-07-19T06:37:54Z</time>
      </trkpt>
      <trkpt lat="47.54819" lon="-2.90169">
        <ele>13.9</ele>
        <time>2023-07-19T06:37:55Z</time>
      </trkpt>
      <trkpt lat="47.54825" lon="-2.90171">
        <ele>14.2</ele>
        <time>2023-07-19T06:37:58Z</time>
      </trkpt>
      <trkpt lat="47.54835" lon="-2.90206">
        <ele>14</ele>
        <time>2023-07-19T06:38:06Z</time>
      </trkpt>
      <trkpt lat="47.54832" lon="-2.90284">
        <ele>13</ele>
        <time>2023-07-19T06:38:18Z</time>
      </trkpt>
      <trkpt lat="47.54831" lon="-2.90307">
        <ele>12.9</ele>
        <time>2023-07-19T06:38:22Z</time>
      </trkpt>
      <trkpt lat="47.54825" lon="-2.90314">
        <ele>12.9</ele>
        <time>2023-07-19T06:38:25Z</time>
      </trkpt>
      <trkpt lat="47.54821" lon="-2.90314">
        <ele>12.8</ele>
        <time>2023-07-19T06:38:27Z</time>
      </trkpt>
      <trkpt lat="47.54819" lon="-2.90314">
        <ele>12.8</ele>
        <time>2023-07-19T06:38:28Z</time>
      </trkpt>
      <trkpt lat="47.54817" lon="-2.90315">
        <ele>12.8</ele>
        <time>2023-07-19T06:38:29Z</time>
      </trkpt>
      <trkpt lat="47.54816" lon="-2.90317">
        <ele>12.7</ele>
        <time>2023-07-19T06:38:30Z</time>
      </trkpt>
      <trkpt lat="47.54814" lon="-2.90323">
        <ele>12.6</ele>
        <time>2023-07-19T06:38:32Z</time>
      </trkpt>
      <trkpt lat="47.5481" lon="-2.90371">
        <ele>11</ele>
        <time>2023-07-19T06:38:43Z</time>
      </trkpt>
      <trkpt lat="47.54808" lon="-2.90382">
        <ele>10.7</ele>
        <time>2023-07-19T06:38:45Z</time>
      </trkpt>
      <trkpt lat="47.54809" lon="-2.90423">
        <ele>9.9</ele>
        <time>2023-07-19T06:38:51Z</time>
      </trkpt>
      <trkpt lat="47.54808" lon="-2.90443">
        <ele>9.4</ele>
        <time>2023-07-19T06:38:54Z</time>
      </trkpt>
      <trkpt lat="47.54796" lon="-2.90503">
        <ele>8.2</ele>
        <time>2023-07-19T06:39:03Z</time>
      </trkpt>
      <trkpt lat="47.54794" lon="-2.90511">
        <ele>7.9</ele>
        <time>2023-07-19T06:39:04Z</time>
      </trkpt>
      <trkpt lat="47.54792" lon="-2.90519">
        <ele>7.6</ele>
        <time>2023-07-19T06:39:05Z</time>
      </trkpt>
      <trkpt lat="47.5479" lon="-2.90536">
        <ele>7</ele>
        <time>2023-07-19T06:39:06Z</time>
      </trkpt>
      <trkpt lat="47.5479" lon="-2.90544">
        <ele>6.8</ele>
        <time>2023-07-19T06:39:08Z</time>
      </trkpt>
      <trkpt lat="47.54788" lon="-2.90553">
        <ele>6.7</ele>
        <time>2023-07-19T06:39:09Z</time>
      </trkpt>
      <trkpt lat="47.54786" lon="-2.9057">
        <ele>6.4</ele>
        <time>2023-07-19T06:39:11Z</time>
      </trkpt>
      <trkpt lat="47.54784" lon="-2.90587">
        <ele>6.4</ele>
        <time>2023-07-19T06:39:13Z</time>
      </trkpt>
      <trkpt lat="47.54784" lon="-2.90604">
        <ele>6.3</ele>
        <time>2023-07-19T06:39:15Z</time>
      </trkpt>
      <trkpt lat="47.54784" lon="-2.90612">
        <ele>6.2</ele>
        <time>2023-07-19T06:39:16Z</time>
      </trkpt>
      <trkpt lat="47.54784" lon="-2.90627">
        <ele>6.1</ele>
        <time>2023-07-19T06:39:18Z</time>
      </trkpt>
      <trkpt lat="47.54779" lon="-2.9064">
        <ele>6</ele>
        <time>2023-07-19T06:39:20Z</time>
      </trkpt>
      <trkpt lat="47.54765" lon="-2.9067">
        <ele>5.9</ele>
        <time>2023-07-19T06:39:25Z</time>
      </trkpt>
      <trkpt lat="47.54767" lon="-2.90683">
        <ele>5.9</ele>
        <time>2023-07-19T06:39:27Z</time>
      </trkpt>
      <trkpt lat="47.54778" lon="-2.90695">
        <ele>5.9</ele>
        <time>2023-07-19T06:39:30Z</time>
      </trkpt>
      <trkpt lat="47.54785" lon="-2.90701">
        <ele>5.9</ele>
        <time>2023-07-19T06:39:32Z</time>
      </trkpt>
      <trkpt lat="47.54801" lon="-2.9071">
        <ele>6</ele>
        <time>2023-07-19T06:39:36Z</time>
      </trkpt>
      <trkpt lat="47.54813" lon="-2.90716">
        <ele>6.1</ele>
        <time>2023-07-19T06:39:39Z</time>
      </trkpt>
      <trkpt lat="47.54828" lon="-2.90727">
        <ele>6.2</ele>
        <time>2023-07-19T06:39:43Z</time>
      </trkpt>
      <trkpt lat="47.54845" lon="-2.90745">
        <ele>6</ele>
        <time>2023-07-19T06:39:48Z</time>
      </trkpt>
      <trkpt lat="47.54853" lon="-2.90767">
        <ele>5.9</ele>
        <time>2023-07-19T06:39:53Z</time>
      </trkpt>
      <trkpt lat="47.54846" lon="-2.90799">
        <ele>6.6</ele>
        <time>2023-07-19T06:39:59Z</time>
      </trkpt>
      <trkpt lat="47.54837" lon="-2.90828">
        <ele>7.3</ele>
        <time>2023-07-19T06:40:05Z</time>
      </trkpt>
      <trkpt lat="47.5483" lon="-2.90859">
        <ele>8.1</ele>
        <time>2023-07-19T06:40:12Z</time>
      </trkpt>
      <trkpt lat="47.54829" lon="-2.90863">
        <ele>8.1</ele>
        <time>2023-07-19T06:40:13Z</time>
      </trkpt>
      <trkpt lat="47.54828" lon="-2.90872">
        <ele>8.2</ele>
        <time>2023-07-19T06:40:15Z</time>
      </trkpt>
      <trkpt lat="47.54828" lon="-2.90876">
        <ele>8.2</ele>
        <time>2023-07-19T06:40:16Z</time>
      </trkpt>
      <trkpt lat="47.54832" lon="-2.90905">
        <ele>8</ele>
        <time>2023-07-19T06:40:23Z</time>
      </trkpt>
      <trkpt lat="47.5482" lon="-2.90948">
        <ele>7.9</ele>
        <time>2023-07-19T06:40:37Z</time>
      </trkpt>
      <trkpt lat="47.5482" lon="-2.90969">
        <ele>7.1</ele>
        <time>2023-07-19T06:40:44Z</time>
      </trkpt>
      <trkpt lat="47.54824" lon="-2.90981">
        <ele>6.8</ele>
        <time>2023-07-19T06:40:47Z</time>
      </trkpt>
      <trkpt lat="47.5483" lon="-2.90992">
        <ele>6.6</ele>
        <time>2023-07-19T06:40:52Z</time>
      </trkpt>
      <trkpt lat="47.5483" lon="-2.90992">
        <ele>6.6</ele>
        <time>2023-07-19T07:27:30Z</time>
      </trkpt>
      <trkpt lat="47.5483" lon="-2.90992">
        <ele>6.6</ele>
        <time>2023-07-19T07:27:31Z</time>
      </trkpt>
      <trkpt lat="47.5483" lon="-2.91014">
        <ele>6.7</ele>
        <time>2023-07-19T07:27:33Z</time>
      </trkpt>
      <trkpt lat="47.54826" lon="-2.91016">
        <ele>6.7</ele>
        <time>2023-07-19T07:27:34Z</time>
      </trkpt>
      <trkpt lat="47.54826" lon="-2.91016">
        <ele>6.7</ele>
        <time>2023-07-19T07:27:35Z</time>
      </trkpt>
      <trkpt lat="47.54826" lon="-2.91018">
        <ele>6.7</ele>
        <time>2023-07-19T07:27:37Z</time>
      </trkpt>
      <trkpt lat="47.54828" lon="-2.91022">
        <ele>6.7</ele>
        <time>2023-07-19T07:27:40Z</time>
      </trkpt>
      <trkpt lat="47.54832" lon="-2.91037">
        <ele>6.8</ele>
        <time>2023-07-19T07:27:44Z</time>
      </trkpt>
      <trkpt lat="47.54832" lon="-2.91042">
        <ele>6.9</ele>
        <time>2023-07-19T07:27:45Z</time>
      </trkpt>
      <trkpt lat="47.54834" lon="-2.91053">
        <ele>7</ele>
        <time>2023-07-19T07:27:47Z</time>
      </trkpt>
      <trkpt lat="47.54837" lon="-2.9108">
        <ele>7.3</ele>
        <time>2023-07-19T07:27:52Z</time>
      </trkpt>
      <trkpt lat="47.54835" lon="-2.91101">
        <ele>7.5</ele>
        <time>2023-07-19T07:27:56Z</time>
      </trkpt>
      <trkpt lat="47.5483" lon="-2.91115">
        <ele>7.7</ele>
        <time>2023-07-19T07:27:59Z</time>
      </trkpt>
      <trkpt lat="47.54825" lon="-2.91129">
        <ele>8.3</ele>
        <time>2023-07-19T07:28:02Z</time>
      </trkpt>
      <trkpt lat="47.54818" lon="-2.91147">
        <ele>9.1</ele>
        <time>2023-07-19T07:28:06Z</time>
      </trkpt>
      <trkpt lat="47.54813" lon="-2.91159">
        <ele>9.7</ele>
        <time>2023-07-19T07:28:09Z</time>
      </trkpt>
      <trkpt lat="47.54805" lon="-2.91176">
        <ele>10.6</ele>
        <time>2023-07-19T07:28:14Z</time>
      </trkpt>
      <trkpt lat="47.54801" lon="-2.91186">
        <ele>11.1</ele>
        <time>2023-07-19T07:28:17Z</time>
      </trkpt>
      <trkpt lat="47.54799" lon="-2.91188">
        <ele>11.2</ele>
        <time>2023-07-19T07:28:18Z</time>
      </trkpt>
      <trkpt lat="47.54795" lon="-2.91193">
        <ele>11.5</ele>
        <time>2023-07-19T07:28:20Z</time>
      </trkpt>
      <trkpt lat="47.54793" lon="-2.91196">
        <ele>11.6</ele>
        <time>2023-07-19T07:28:21Z</time>
      </trkpt>
      <trkpt lat="47.54787" lon="-2.91201">
        <ele>11.9</ele>
        <time>2023-07-19T07:28:23Z</time>
      </trkpt>
      <trkpt lat="47.54774" lon="-2.91207">
        <ele>12.1</ele>
        <time>2023-07-19T07:28:27Z</time>
      </trkpt>
      <trkpt lat="47.54747" lon="-2.91234">
        <ele>11.4</ele>
        <time>2023-07-19T07:28:37Z</time>
      </trkpt>
      <trkpt lat="47.54742" lon="-2.91244">
        <ele>11.1</ele>
        <time>2023-07-19T07:28:39Z</time>
      </trkpt>
      <trkpt lat="47.54724" lon="-2.91321">
        <ele>9.5</ele>
        <time>2023-07-19T07:28:49Z</time>
      </trkpt>
      <trkpt lat="47.54708" lon="-2.91398">
        <ele>9.1</ele>
        <time>2023-07-19T07:29:01Z</time>
      </trkpt>
      <trkpt lat="47.547" lon="-2.91476">
        <ele>8.8</ele>
        <time>2023-07-19T07:29:14Z</time>
      </trkpt>
      <trkpt lat="47.54708" lon="-2.9149">
        <ele>8.4</ele>
        <time>2023-07-19T07:29:17Z</time>
      </trkpt>
      <trkpt lat="47.54754" lon="-2.91539">
        <ele>6.4</ele>
        <time>2023-07-19T07:29:29Z</time>
      </trkpt>
      <trkpt lat="47.54796" lon="-2.9158">
        <ele>4.9</ele>
        <time>2023-07-19T07:29:42Z</time>
      </trkpt>
      <trkpt lat="47.54839" lon="-2.91627">
        <ele>4.1</ele>
        <time>2023-07-19T07:29:56Z</time>
      </trkpt>
      <trkpt lat="47.54844" lon="-2.91635">
        <ele>0.7</ele>
        <time>2023-07-19T07:30:02Z</time>
      </trkpt>
      <trkpt lat="47.54843" lon="-2.91636">
        <ele>0.7</ele>
        <time>2023-07-19T07:30:08Z</time>
      </trkpt>
      <trkpt lat="47.54844" lon="-2.91635">
        <ele>0.6</ele>
        <time>2023-07-19T07:30:12Z</time>
      </trkpt>
      <trkpt lat="47.54844" lon="-2.91634">
        <ele>0.6</ele>
        <time>2023-07-19T07:30:15Z</time>
      </trkpt>
      <trkpt lat="47.54848" lon="-2.91629">
        <ele>0.6</ele>
        <time>2023-07-19T07:30:23Z</time>
      </trkpt>
      <trkpt lat="47.54849" lon="-2.91624">
        <ele>0.5</ele>
        <time>2023-07-19T07:30:30Z</time>
      </trkpt>
      <trkpt lat="47.5485" lon="-2.91621">
        <ele>0.5</ele>
        <time>2023-07-19T07:30:36Z</time>
      </trkpt>
      <trkpt lat="47.54851" lon="-2.91619">
        <ele>0.4</ele>
        <time>2023-07-19T07:30:44Z</time>
      </trkpt>
      <trkpt lat="47.54852" lon="-2.91618">
        <ele>0.4</ele>
        <time>2023-07-19T07:30:47Z</time>
      </trkpt>
      <trkpt lat="47.54852" lon="-2.91618">
        <ele>0.4</ele>
        <time>2023-07-19T07:30:50Z</time>
      </trkpt>
      <trkpt lat="47.54852" lon="-2.91617">
        <ele>0.4</ele>
        <time>2023-07-19T07:30:52Z</time>
      </trkpt>
      <trkpt lat="47.54852" lon="-2.91618">
        <ele>0.4</ele>
        <time>2023-07-19T07:30:53Z</time>
      </trkpt>
      <trkpt lat="47.54853" lon="-2.91618">
        <ele>0.4</ele>
        <time>2023-07-19T07:30:59Z</time>
      </trkpt>
      <trkpt lat="47.54853" lon="-2.91618">
        <ele>0.4</ele>
        <time>2023-07-19T08:30:16Z</time>
      </trkpt>
      <trkpt lat="47.56782" lon="-2.93697">
        <ele>2.7</ele>
        <time>2023-07-19T08:30:18Z</time>
      </trkpt>
      <trkpt lat="47.5678" lon="-2.937">
        <ele>2.9</ele>
        <time>2023-07-19T08:30:19Z</time>
      </trkpt>
      <trkpt lat="47.56776" lon="-2.93699">
        <ele>3.1</ele>
        <time>2023-07-19T08:30:22Z</time>
      </trkpt>
      <trkpt lat="47.56744" lon="-2.93714">
        <ele>4.2</ele>
        <time>2023-07-19T08:30:33Z</time>
      </trkpt>
      <trkpt lat="47.56735" lon="-2.93721">
        <ele>4.4</ele>
        <time>2023-07-19T08:30:36Z</time>
      </trkpt>
      <trkpt lat="47.56728" lon="-2.93727">
        <ele>4.4</ele>
        <time>2023-07-19T08:30:39Z</time>
      </trkpt>
      <trkpt lat="47.56725" lon="-2.93728">
        <ele>4.5</ele>
        <time>2023-07-19T08:30:40Z</time>
      </trkpt>
      <trkpt lat="47.56717" lon="-2.93732">
        <ele>4.4</ele>
        <time>2023-07-19T08:30:43Z</time>
      </trkpt>
      <trkpt lat="47.56709" lon="-2.9376">
        <ele>4.4</ele>
        <time>2023-07-19T08:30:48Z</time>
      </trkpt>
      <trkpt lat="47.56708" lon="-2.93766">
        <ele>4.4</ele>
        <time>2023-07-19T08:30:49Z</time>
      </trkpt>
      <trkpt lat="47.56708" lon="-2.93773">
        <ele>4.4</ele>
        <time>2023-07-19T08:30:50Z</time>
      </trkpt>
      <trkpt lat="47.56708" lon="-2.93795">
        <ele>4.4</ele>
        <time>2023-07-19T08:30:53Z</time>
      </trkpt>
      <trkpt lat="47.56709" lon="-2.93802">
        <ele>4.5</ele>
        <time>2023-07-19T08:30:54Z</time>
      </trkpt>
      <trkpt lat="47.5671" lon="-2.93815">
        <ele>4.6</ele>
        <time>2023-07-19T08:30:56Z</time>
      </trkpt>
      <trkpt lat="47.5671" lon="-2.93828">
        <ele>4.8</ele>
        <time>2023-07-19T08:30:58Z</time>
      </trkpt>
      <trkpt lat="47.5671" lon="-2.93835">
        <ele>4.9</ele>
        <time>2023-07-19T08:30:59Z</time>
      </trkpt>
      <trkpt lat="47.5671" lon="-2.93854">
        <ele>5.2</ele>
        <time>2023-07-19T08:31:02Z</time>
      </trkpt>
      <trkpt lat="47.56709" lon="-2.93866">
        <ele>5.4</ele>
        <time>2023-07-19T08:31:04Z</time>
      </trkpt>
      <trkpt lat="47.56708" lon="-2.93877">
        <ele>5.5</ele>
        <time>2023-07-19T08:31:06Z</time>
      </trkpt>
      <trkpt lat="47.56705" lon="-2.93886">
        <ele>5.6</ele>
        <time>2023-07-19T08:31:08Z</time>
      </trkpt>
      <trkpt lat="47.56698" lon="-2.93892">
        <ele>5.7</ele>
        <time>2023-07-19T08:31:10Z</time>
      </trkpt>
      <trkpt lat="47.56667" lon="-2.939">
        <ele>5.7</ele>
        <time>2023-07-19T08:31:17Z</time>
      </trkpt>
      <trkpt lat="47.56658" lon="-2.93907">
        <ele>5.7</ele>
        <time>2023-07-19T08:31:19Z</time>
      </trkpt>
      <trkpt lat="47.56652" lon="-2.93919">
        <ele>5.7</ele>
        <time>2023-07-19T08:31:21Z</time>
      </trkpt>
      <trkpt lat="47.56648" lon="-2.93933">
        <ele>5.8</ele>
        <time>2023-07-19T08:31:23Z</time>
      </trkpt>
      <trkpt lat="47.56646" lon="-2.93955">
        <ele>5.8</ele>
        <time>2023-07-19T08:31:26Z</time>
      </trkpt>
      <trkpt lat="47.56648" lon="-2.93991">
        <ele>6</ele>
        <time>2023-07-19T08:31:31Z</time>
      </trkpt>
      <trkpt lat="47.56648" lon="-2.93998">
        <ele>6</ele>
        <time>2023-07-19T08:31:32Z</time>
      </trkpt>
      <trkpt lat="47.56648" lon="-2.94006">
        <ele>6</ele>
        <time>2023-07-19T08:31:33Z</time>
      </trkpt>
      <trkpt lat="47.5665" lon="-2.94039">
        <ele>6</ele>
        <time>2023-07-19T08:31:37Z</time>
      </trkpt>
      <trkpt lat="47.56651" lon="-2.94056">
        <ele>6.1</ele>
        <time>2023-07-19T08:31:39Z</time>
      </trkpt>
      <trkpt lat="47.56651" lon="-2.94121">
        <ele>6.7</ele>
        <time>2023-07-19T08:31:47Z</time>
      </trkpt>
      <trkpt lat="47.56645" lon="-2.94148">
        <ele>7.2</ele>
        <time>2023-07-19T08:31:51Z</time>
      </trkpt>
      <trkpt lat="47.56641" lon="-2.9416">
        <ele>7.4</ele>
        <time>2023-07-19T08:31:53Z</time>
      </trkpt>
      <trkpt lat="47.56633" lon="-2.94174">
        <ele>7.7</ele>
        <time>2023-07-19T08:31:56Z</time>
      </trkpt>
      <trkpt lat="47.56632" lon="-2.94179">
        <ele>7.8</ele>
        <time>2023-07-19T08:31:57Z</time>
      </trkpt>
      <trkpt lat="47.56625" lon="-2.94193">
        <ele>8</ele>
        <time>2023-07-19T08:32:01Z</time>
      </trkpt>
      <trkpt lat="47.56625" lon="-2.94196">
        <ele>8</ele>
        <time>2023-07-19T08:32:06Z</time>
      </trkpt>
      <trkpt lat="47.56622" lon="-2.94198">
        <ele>8</ele>
        <time>2023-07-19T08:32:10Z</time>
      </trkpt>
      <trkpt lat="47.56617" lon="-2.94199">
        <ele>8</ele>
        <time>2023-07-19T08:32:13Z</time>
      </trkpt>
      <trkpt lat="47.56609" lon="-2.94194">
        <ele>7.9</ele>
        <time>2023-07-19T08:32:16Z</time>
      </trkpt>
      <trkpt lat="47.56605" lon="-2.94198">
        <ele>7.9</ele>
        <time>2023-07-19T08:32:18Z</time>
      </trkpt>
      <trkpt lat="47.5662" lon="-2.94244">
        <ele>8.1</ele>
        <time>2023-07-19T08:32:27Z</time>
      </trkpt>
      <trkpt lat="47.56632" lon="-2.94277">
        <ele>8.2</ele>
        <time>2023-07-19T08:32:32Z</time>
      </trkpt>
      <trkpt lat="47.56655" lon="-2.94342">
        <ele>8.3</ele>
        <time>2023-07-19T08:32:41Z</time>
      </trkpt>
      <trkpt lat="47.56682" lon="-2.94419">
        <ele>8.5</ele>
        <time>2023-07-19T08:32:52Z</time>
      </trkpt>
      <trkpt lat="47.56708" lon="-2.94492">
        <ele>9</ele>
        <time>2023-07-19T08:33:03Z</time>
      </trkpt>
      <trkpt lat="47.56711" lon="-2.94498">
        <ele>9</ele>
        <time>2023-07-19T08:33:04Z</time>
      </trkpt>
      <trkpt lat="47.56717" lon="-2.94509">
        <ele>9.2</ele>
        <time>2023-07-19T08:33:06Z</time>
      </trkpt>
      <trkpt lat="47.56732" lon="-2.94525">
        <ele>9.5</ele>
        <time>2023-07-19T08:33:10Z</time>
      </trkpt>
      <trkpt lat="47.56744" lon="-2.94533">
        <ele>9.8</ele>
        <time>2023-07-19T08:33:13Z</time>
      </trkpt>
      <trkpt lat="47.56752" lon="-2.94567">
        <ele>10.5</ele>
        <time>2023-07-19T08:33:20Z</time>
      </trkpt>
      <trkpt lat="47.56757" lon="-2.94643">
        <ele>10.2</ele>
        <time>2023-07-19T08:33:32Z</time>
      </trkpt>
      <trkpt lat="47.56753" lon="-2.9466">
        <ele>9.9</ele>
        <time>2023-07-19T08:33:34Z</time>
      </trkpt>
      <trkpt lat="47.5673" lon="-2.94716">
        <ele>8.6</ele>
        <time>2023-07-19T08:33:41Z</time>
      </trkpt>
      <trkpt lat="47.5672" lon="-2.94725">
        <ele>8.4</ele>
        <time>2023-07-19T08:33:43Z</time>
      </trkpt>
      <trkpt lat="47.56676" lon="-2.94771">
        <ele>7.8</ele>
        <time>2023-07-19T08:33:52Z</time>
      </trkpt>
      <trkpt lat="47.56647" lon="-2.94821">
        <ele>7.8</ele>
        <time>2023-07-19T08:34:00Z</time>
      </trkpt>
      <trkpt lat="47.56643" lon="-2.94834">
        <ele>7.8</ele>
        <time>2023-07-19T08:34:02Z</time>
      </trkpt>
      <trkpt lat="47.56645" lon="-2.94848">
        <ele>7.8</ele>
        <time>2023-07-19T08:34:04Z</time>
      </trkpt>
      <trkpt lat="47.56673" lon="-2.94903">
        <ele>7.9</ele>
        <time>2023-07-19T08:34:14Z</time>
      </trkpt>
      <trkpt lat="47.56673" lon="-2.94915">
        <ele>8</ele>
        <time>2023-07-19T08:34:17Z</time>
      </trkpt>
      <trkpt lat="47.56674" lon="-2.94917">
        <ele>8</ele>
        <time>2023-07-19T08:34:18Z</time>
      </trkpt>
      <trkpt lat="47.56674" lon="-2.94918">
        <ele>8</ele>
        <time>2023-07-19T08:34:21Z</time>
      </trkpt>
      <trkpt lat="47.56674" lon="-2.94918">
        <ele>8</ele>
        <time>2023-07-19T08:34:22Z</time>
      </trkpt>
      <trkpt lat="47.56675" lon="-2.94922">
        <ele>8</ele>
        <time>2023-07-19T08:34:30Z</time>
      </trkpt>
      <trkpt lat="47.5671" lon="-2.94988">
        <ele>8.4</ele>
        <time>2023-07-19T08:34:45Z</time>
      </trkpt>
      <trkpt lat="47.5675" lon="-2.95043">
        <ele>8.6</ele>
        <time>2023-07-19T08:34:55Z</time>
      </trkpt>
      <trkpt lat="47.56803" lon="-2.95068">
        <ele>8.9</ele>
        <time>2023-07-19T08:35:05Z</time>
      </trkpt>
      <trkpt lat="47.5682" lon="-2.95069">
        <ele>9</ele>
        <time>2023-07-19T08:35:08Z</time>
      </trkpt>
      <trkpt lat="47.56836" lon="-2.9507">
        <ele>9.1</ele>
        <time>2023-07-19T08:35:11Z</time>
      </trkpt>
      <trkpt lat="47.56847" lon="-2.9507">
        <ele>9.1</ele>
        <time>2023-07-19T08:35:13Z</time>
      </trkpt>
      <trkpt lat="47.56859" lon="-2.95071">
        <ele>9.2</ele>
        <time>2023-07-19T08:35:15Z</time>
      </trkpt>
      <trkpt lat="47.56897" lon="-2.95073">
        <ele>9.3</ele>
        <time>2023-07-19T08:35:22Z</time>
      </trkpt>
      <trkpt lat="47.56913" lon="-2.95076">
        <ele>9.3</ele>
        <time>2023-07-19T08:35:25Z</time>
      </trkpt>
      <trkpt lat="47.56966" lon="-2.95104">
        <ele>9.9</ele>
        <time>2023-07-19T08:35:35Z</time>
      </trkpt>
      <trkpt lat="47.57007" lon="-2.95143">
        <ele>10.4</ele>
        <time>2023-07-19T08:35:44Z</time>
      </trkpt>
      <trkpt lat="47.57055" lon="-2.95191">
        <ele>11.2</ele>
        <time>2023-07-19T08:35:55Z</time>
      </trkpt>
      <trkpt lat="47.57102" lon="-2.95237">
        <ele>12</ele>
        <time>2023-07-19T08:36:06Z</time>
      </trkpt>
      <trkpt lat="47.57109" lon="-2.95245">
        <ele>12</ele>
        <time>2023-07-19T08:36:08Z</time>
      </trkpt>
      <trkpt lat="47.57112" lon="-2.95249">
        <ele>12</ele>
        <time>2023-07-19T08:36:09Z</time>
      </trkpt>
      <trkpt lat="47.57117" lon="-2.95257">
        <ele>12</ele>
        <time>2023-07-19T08:36:11Z</time>
      </trkpt>
      <trkpt lat="47.57121" lon="-2.95266">
        <ele>11.9</ele>
        <time>2023-07-19T08:36:13Z</time>
      </trkpt>
      <trkpt lat="47.57122" lon="-2.95271">
        <ele>11.9</ele>
        <time>2023-07-19T08:36:14Z</time>
      </trkpt>
      <trkpt lat="47.57127" lon="-2.95283">
        <ele>11.7</ele>
        <time>2023-07-19T08:36:17Z</time>
      </trkpt>
      <trkpt lat="47.5715" lon="-2.95344">
        <ele>11.7</ele>
        <time>2023-07-19T08:36:28Z</time>
      </trkpt>
      <trkpt lat="47.57157" lon="-2.95363">
        <ele>11.9</ele>
        <time>2023-07-19T08:36:31Z</time>
      </trkpt>
      <trkpt lat="47.57165" lon="-2.9538">
        <ele>12.1</ele>
        <time>2023-07-19T08:36:34Z</time>
      </trkpt>
      <trkpt lat="47.57168" lon="-2.95386">
        <ele>12.2</ele>
        <time>2023-07-19T08:36:35Z</time>
      </trkpt>
      <trkpt lat="47.57205" lon="-2.95451">
        <ele>13.2</ele>
        <time>2023-07-19T08:36:48Z</time>
      </trkpt>
      <trkpt lat="47.5721" lon="-2.95461">
        <ele>13.2</ele>
        <time>2023-07-19T08:36:50Z</time>
      </trkpt>
      <trkpt lat="47.57234" lon="-2.95536">
        <ele>12.2</ele>
        <time>2023-07-19T08:37:01Z</time>
      </trkpt>
      <trkpt lat="47.57255" lon="-2.9561">
        <ele>12.2</ele>
        <time>2023-07-19T08:37:11Z</time>
      </trkpt>
      <trkpt lat="47.57269" lon="-2.9564">
        <ele>12.3</ele>
        <time>2023-07-19T08:37:16Z</time>
      </trkpt>
      <trkpt lat="47.57305" lon="-2.95701">
        <ele>12.8</ele>
        <time>2023-07-19T08:37:28Z</time>
      </trkpt>
      <trkpt lat="47.57319" lon="-2.95728">
        <ele>12.7</ele>
        <time>2023-07-19T08:37:33Z</time>
      </trkpt>
      <trkpt lat="47.57332" lon="-2.95776">
        <ele>12.3</ele>
        <time>2023-07-19T08:37:40Z</time>
      </trkpt>
      <trkpt lat="47.57336" lon="-2.9579">
        <ele>12.2</ele>
        <time>2023-07-19T08:37:42Z</time>
      </trkpt>
      <trkpt lat="47.57342" lon="-2.95811">
        <ele>11.9</ele>
        <time>2023-07-19T08:37:45Z</time>
      </trkpt>
      <trkpt lat="47.57349" lon="-2.95842">
        <ele>11.3</ele>
        <time>2023-07-19T08:37:49Z</time>
      </trkpt>
      <trkpt lat="47.5735" lon="-2.9585">
        <ele>11.2</ele>
        <time>2023-07-19T08:37:50Z</time>
      </trkpt>
      <trkpt lat="47.5735" lon="-2.95868">
        <ele>10.8</ele>
        <time>2023-07-19T08:37:52Z</time>
      </trkpt>
      <trkpt lat="47.57347" lon="-2.95886">
        <ele>10.5</ele>
        <time>2023-07-19T08:37:54Z</time>
      </trkpt>
      <trkpt lat="47.57343" lon="-2.95894">
        <ele>10.4</ele>
        <time>2023-07-19T08:37:55Z</time>
      </trkpt>
      <trkpt lat="47.5734" lon="-2.95902">
        <ele>10.3</ele>
        <time>2023-07-19T08:37:56Z</time>
      </trkpt>
      <trkpt lat="47.57332" lon="-2.95917">
        <ele>10.2</ele>
        <time>2023-07-19T08:37:58Z</time>
      </trkpt>
      <trkpt lat="47.57327" lon="-2.95924">
        <ele>10.2</ele>
        <time>2023-07-19T08:37:59Z</time>
      </trkpt>
      <trkpt lat="47.57315" lon="-2.95948">
        <ele>10.2</ele>
        <time>2023-07-19T08:38:02Z</time>
      </trkpt>
      <trkpt lat="47.57313" lon="-2.95966">
        <ele>10.3</ele>
        <time>2023-07-19T08:38:04Z</time>
      </trkpt>
      <trkpt lat="47.57318" lon="-2.95992">
        <ele>10.4</ele>
        <time>2023-07-19T08:38:07Z</time>
      </trkpt>
      <trkpt lat="47.57322" lon="-2.96008">
        <ele>10.5</ele>
        <time>2023-07-19T08:38:09Z</time>
      </trkpt>
      <trkpt lat="47.57329" lon="-2.9603">
        <ele>10.7</ele>
        <time>2023-07-19T08:38:12Z</time>
      </trkpt>
      <trkpt lat="47.57338" lon="-2.96059">
        <ele>11.1</ele>
        <time>2023-07-19T08:38:16Z</time>
      </trkpt>
      <trkpt lat="47.57344" lon="-2.9608">
        <ele>11.3</ele>
        <time>2023-07-19T08:38:19Z</time>
      </trkpt>
      <trkpt lat="47.5737" lon="-2.96152">
        <ele>11.7</ele>
        <time>2023-07-19T08:38:30Z</time>
      </trkpt>
      <trkpt lat="47.57381" lon="-2.96177">
        <ele>11.6</ele>
        <time>2023-07-19T08:38:34Z</time>
      </trkpt>
      <trkpt lat="47.57393" lon="-2.96204">
        <ele>11.5</ele>
        <time>2023-07-19T08:38:38Z</time>
      </trkpt>
      <trkpt lat="47.57403" lon="-2.96229">
        <ele>11.5</ele>
        <time>2023-07-19T08:38:42Z</time>
      </trkpt>
      <trkpt lat="47.57412" lon="-2.96248">
        <ele>11.5</ele>
        <time>2023-07-19T08:38:45Z</time>
      </trkpt>
      <trkpt lat="47.5742" lon="-2.96267">
        <ele>11.4</ele>
        <time>2023-07-19T08:38:48Z</time>
      </trkpt>
      <trkpt lat="47.57428" lon="-2.96285">
        <ele>11.4</ele>
        <time>2023-07-19T08:38:51Z</time>
      </trkpt>
      <trkpt lat="47.57438" lon="-2.96309">
        <ele>11.3</ele>
        <time>2023-07-19T08:39:02Z</time>
      </trkpt>
      <trkpt lat="47.57436" lon="-2.96302">
        <ele>11.3</ele>
        <time>2023-07-19T08:39:05Z</time>
      </trkpt>
      <trkpt lat="47.57443" lon="-2.96286">
        <ele>11.3</ele>
        <time>2023-07-19T08:39:09Z</time>
      </trkpt>
      <trkpt lat="47.57467" lon="-2.96256">
        <ele>11.6</ele>
        <time>2023-07-19T08:39:16Z</time>
      </trkpt>
      <trkpt lat="47.575" lon="-2.96209">
        <ele>12.4</ele>
        <time>2023-07-19T08:39:26Z</time>
      </trkpt>
      <trkpt lat="47.5751" lon="-2.96178">
        <ele>12.9</ele>
        <time>2023-07-19T08:39:31Z</time>
      </trkpt>
      <trkpt lat="47.57519" lon="-2.9617">
        <ele>13.2</ele>
        <time>2023-07-19T08:39:34Z</time>
      </trkpt>
      <trkpt lat="47.57528" lon="-2.96175">
        <ele>13.4</ele>
        <time>2023-07-19T08:39:36Z</time>
      </trkpt>
      <trkpt lat="47.57539" lon="-2.96188">
        <ele>13.5</ele>
        <time>2023-07-19T08:39:39Z</time>
      </trkpt>
      <trkpt lat="47.57557" lon="-2.96237">
        <ele>13.1</ele>
        <time>2023-07-19T08:39:47Z</time>
      </trkpt>
      <trkpt lat="47.57566" lon="-2.96287">
        <ele>11.9</ele>
        <time>2023-07-19T08:39:54Z</time>
      </trkpt>
      <trkpt lat="47.57565" lon="-2.96301">
        <ele>11.4</ele>
        <time>2023-07-19T08:39:56Z</time>
      </trkpt>
      <trkpt lat="47.57561" lon="-2.96313">
        <ele>11</ele>
        <time>2023-07-19T08:39:58Z</time>
      </trkpt>
      <trkpt lat="47.57558" lon="-2.96325">
        <ele>10.6</ele>
        <time>2023-07-19T08:40:00Z</time>
      </trkpt>
      <trkpt lat="47.57557" lon="-2.96368">
        <ele>9.6</ele>
        <time>2023-07-19T08:40:06Z</time>
      </trkpt>
      <trkpt lat="47.57563" lon="-2.96393">
        <ele>9.5</ele>
        <time>2023-07-19T08:40:14Z</time>
      </trkpt>
      <trkpt lat="47.57584" lon="-2.96444">
        <ele>9.1</ele>
        <time>2023-07-19T08:40:27Z</time>
      </trkpt>
      <trkpt lat="47.57553" lon="-2.96478">
        <ele>9</ele>
        <time>2023-07-19T08:40:39Z</time>
      </trkpt>
      <trkpt lat="47.57505" lon="-2.96514">
        <ele>10</ele>
        <time>2023-07-19T08:40:54Z</time>
      </trkpt>
      <trkpt lat="47.57466" lon="-2.96531">
        <ele>10.7</ele>
        <time>2023-07-19T08:41:05Z</time>
      </trkpt>
      <trkpt lat="47.57469" lon="-2.96541">
        <ele>10.6</ele>
        <time>2023-07-19T08:41:07Z</time>
      </trkpt>
      <trkpt lat="47.57473" lon="-2.96553">
        <ele>10.5</ele>
        <time>2023-07-19T08:41:09Z</time>
      </trkpt>
      <trkpt lat="47.57479" lon="-2.96565">
        <ele>10.2</ele>
        <time>2023-07-19T08:41:11Z</time>
      </trkpt>
      <trkpt lat="47.57492" lon="-2.96584">
        <ele>9.6</ele>
        <time>2023-07-19T08:41:14Z</time>
      </trkpt>
      <trkpt lat="47.57497" lon="-2.96589">
        <ele>9.4</ele>
        <time>2023-07-19T08:41:15Z</time>
      </trkpt>
      <trkpt lat="47.57502" lon="-2.96595">
        <ele>9.2</ele>
        <time>2023-07-19T08:41:16Z</time>
      </trkpt>
      <trkpt lat="47.57518" lon="-2.96615">
        <ele>8.6</ele>
        <time>2023-07-19T08:41:19Z</time>
      </trkpt>
      <trkpt lat="47.57532" lon="-2.96637">
        <ele>8</ele>
        <time>2023-07-19T08:41:22Z</time>
      </trkpt>
      <trkpt lat="47.57563" lon="-2.96707">
        <ele>6.4</ele>
        <time>2023-07-19T08:41:30Z</time>
      </trkpt>
      <trkpt lat="47.57576" lon="-2.96739">
        <ele>6.2</ele>
        <time>2023-07-19T08:41:34Z</time>
      </trkpt>
      <trkpt lat="47.57585" lon="-2.96748">
        <ele>6.2</ele>
        <time>2023-07-19T08:41:36Z</time>
      </trkpt>
      <trkpt lat="47.57597" lon="-2.96745">
        <ele>6.3</ele>
        <time>2023-07-19T08:41:38Z</time>
      </trkpt>
      <trkpt lat="47.57653" lon="-2.96721">
        <ele>6.3</ele>
        <time>2023-07-19T08:41:47Z</time>
      </trkpt>
      <trkpt lat="47.57712" lon="-2.96728">
        <ele>6.7</ele>
        <time>2023-07-19T08:41:56Z</time>
      </trkpt>
      <trkpt lat="47.57749" lon="-2.96748">
        <ele>6.8</ele>
        <time>2023-07-19T08:42:02Z</time>
      </trkpt>
      <trkpt lat="47.57762" lon="-2.96755">
        <ele>6.9</ele>
        <time>2023-07-19T08:42:04Z</time>
      </trkpt>
      <trkpt lat="47.57774" lon="-2.96759">
        <ele>6.9</ele>
        <time>2023-07-19T08:42:06Z</time>
      </trkpt>
      <trkpt lat="47.57787" lon="-2.96761">
        <ele>7</ele>
        <time>2023-07-19T08:42:08Z</time>
      </trkpt>
      <trkpt lat="47.57842" lon="-2.96743">
        <ele>7.3</ele>
        <time>2023-07-19T08:42:17Z</time>
      </trkpt>
      <trkpt lat="47.57885" lon="-2.96724">
        <ele>7.4</ele>
        <time>2023-07-19T08:42:24Z</time>
      </trkpt>
      <trkpt lat="47.57936" lon="-2.96678">
        <ele>7.7</ele>
        <time>2023-07-19T08:42:33Z</time>
      </trkpt>
      <trkpt lat="47.57947" lon="-2.96668">
        <ele>7.7</ele>
        <time>2023-07-19T08:42:35Z</time>
      </trkpt>
      <trkpt lat="47.57952" lon="-2.96663">
        <ele>7.8</ele>
        <time>2023-07-19T08:42:36Z</time>
      </trkpt>
      <trkpt lat="47.57983" lon="-2.96633">
        <ele>8</ele>
        <time>2023-07-19T08:42:42Z</time>
      </trkpt>
      <trkpt lat="47.58035" lon="-2.96588">
        <ele>8.4</ele>
        <time>2023-07-19T08:42:52Z</time>
      </trkpt>
      <trkpt lat="47.5805" lon="-2.96575">
        <ele>8.6</ele>
        <time>2023-07-19T08:42:55Z</time>
      </trkpt>
      <trkpt lat="47.58066" lon="-2.96565">
        <ele>8.8</ele>
        <time>2023-07-19T08:42:58Z</time>
      </trkpt>
      <trkpt lat="47.58084" lon="-2.96556">
        <ele>9.1</ele>
        <time>2023-07-19T08:43:01Z</time>
      </trkpt>
      <trkpt lat="47.58111" lon="-2.96543">
        <ele>9.4</ele>
        <time>2023-07-19T08:43:06Z</time>
      </trkpt>
      <trkpt lat="47.58159" lon="-2.9652">
        <ele>9.7</ele>
        <time>2023-07-19T08:43:15Z</time>
      </trkpt>
      <trkpt lat="47.58212" lon="-2.96495">
        <ele>10.2</ele>
        <time>2023-07-19T08:43:26Z</time>
      </trkpt>
      <trkpt lat="47.58229" lon="-2.96481">
        <ele>10.4</ele>
        <time>2023-07-19T08:43:34Z</time>
      </trkpt>
      <trkpt lat="47.58228" lon="-2.96481">
        <ele>10.5</ele>
        <time>2023-07-19T08:43:38Z</time>
      </trkpt>
      <trkpt lat="47.58228" lon="-2.96481">
        <ele>10.5</ele>
        <time>2023-07-19T08:43:45Z</time>
      </trkpt>
      <trkpt lat="47.58228" lon="-2.96482">
        <ele>10.5</ele>
        <time>2023-07-19T08:43:51Z</time>
      </trkpt>
      <trkpt lat="47.58228" lon="-2.96482">
        <ele>10.5</ele>
        <time>2023-07-19T08:43:56Z</time>
      </trkpt>
      <trkpt lat="47.5823" lon="-2.96479">
        <ele>10.5</ele>
        <time>2023-07-19T08:44:00Z</time>
      </trkpt>
      <trkpt lat="47.58235" lon="-2.96477">
        <ele>10.5</ele>
        <time>2023-07-19T08:44:03Z</time>
      </trkpt>
      <trkpt lat="47.58243" lon="-2.96475">
        <ele>10.6</ele>
        <time>2023-07-19T08:44:06Z</time>
      </trkpt>
      <trkpt lat="47.58264" lon="-2.96464">
        <ele>11</ele>
        <time>2023-07-19T08:44:11Z</time>
      </trkpt>
      <trkpt lat="47.58289" lon="-2.96452">
        <ele>11.6</ele>
        <time>2023-07-19T08:44:16Z</time>
      </trkpt>
      <trkpt lat="47.58343" lon="-2.9643">
        <ele>11.3</ele>
        <time>2023-07-19T08:44:26Z</time>
      </trkpt>
      <trkpt lat="47.58403" lon="-2.96434">
        <ele>10.2</ele>
        <time>2023-07-19T08:44:35Z</time>
      </trkpt>
      <trkpt lat="47.58444" lon="-2.96443">
        <ele>9.5</ele>
        <time>2023-07-19T08:44:41Z</time>
      </trkpt>
      <trkpt lat="47.58451" lon="-2.96444">
        <ele>9.4</ele>
        <time>2023-07-19T08:44:42Z</time>
      </trkpt>
      <trkpt lat="47.58478" lon="-2.96449">
        <ele>8.9</ele>
        <time>2023-07-19T08:44:46Z</time>
      </trkpt>
      <trkpt lat="47.58493" lon="-2.96453">
        <ele>8.6</ele>
        <time>2023-07-19T08:44:48Z</time>
      </trkpt>
      <trkpt lat="47.58501" lon="-2.96454">
        <ele>8.4</ele>
        <time>2023-07-19T08:44:49Z</time>
      </trkpt>
      <trkpt lat="47.58508" lon="-2.96456">
        <ele>8.3</ele>
        <time>2023-07-19T08:44:50Z</time>
      </trkpt>
      <trkpt lat="47.58516" lon="-2.96457">
        <ele>8.2</ele>
        <time>2023-07-19T08:44:51Z</time>
      </trkpt>
      <trkpt lat="47.58546" lon="-2.96462">
        <ele>7.9</ele>
        <time>2023-07-19T08:44:55Z</time>
      </trkpt>
      <trkpt lat="47.58581" lon="-2.96468">
        <ele>7.7</ele>
        <time>2023-07-19T08:45:00Z</time>
      </trkpt>
      <trkpt lat="47.58594" lon="-2.9647">
        <ele>7.6</ele>
        <time>2023-07-19T08:45:02Z</time>
      </trkpt>
      <trkpt lat="47.58601" lon="-2.96471">
        <ele>7.6</ele>
        <time>2023-07-19T08:45:03Z</time>
      </trkpt>
      <trkpt lat="47.58608" lon="-2.96471">
        <ele>7.5</ele>
        <time>2023-07-19T08:45:04Z</time>
      </trkpt>
      <trkpt lat="47.58615" lon="-2.96472">
        <ele>7.4</ele>
        <time>2023-07-19T08:45:05Z</time>
      </trkpt>
      <trkpt lat="47.58621" lon="-2.96473">
        <ele>7.3</ele>
        <time>2023-07-19T08:45:06Z</time>
      </trkpt>
      <trkpt lat="47.58642" lon="-2.96476">
        <ele>6.9</ele>
        <time>2023-07-19T08:45:09Z</time>
      </trkpt>
      <trkpt lat="47.5867" lon="-2.96479">
        <ele>6.5</ele>
        <time>2023-07-19T08:45:13Z</time>
      </trkpt>
      <trkpt lat="47.58711" lon="-2.96483">
        <ele>5.8</ele>
        <time>2023-07-19T08:45:19Z</time>
      </trkpt>
      <trkpt lat="47.58718" lon="-2.96484">
        <ele>5.6</ele>
        <time>2023-07-19T08:45:20Z</time>
      </trkpt>
      <trkpt lat="47.58725" lon="-2.96484">
        <ele>5.5</ele>
        <time>2023-07-19T08:45:21Z</time>
      </trkpt>
      <trkpt lat="47.58733" lon="-2.96485">
        <ele>5.3</ele>
        <time>2023-07-19T08:45:22Z</time>
      </trkpt>
      <trkpt lat="47.58754" lon="-2.96486">
        <ele>4.8</ele>
        <time>2023-07-19T08:45:25Z</time>
      </trkpt>
      <trkpt lat="47.58787" lon="-2.96491">
        <ele>4.4</ele>
        <time>2023-07-19T08:45:30Z</time>
      </trkpt>
      <trkpt lat="47.58796" lon="-2.96493">
        <ele>4.3</ele>
        <time>2023-07-19T08:45:32Z</time>
      </trkpt>
      <trkpt lat="47.58799" lon="-2.96494">
        <ele>4.3</ele>
        <time>2023-07-19T08:45:33Z</time>
      </trkpt>
      <trkpt lat="47.58807" lon="-2.96496">
        <ele>4.3</ele>
        <time>2023-07-19T08:45:36Z</time>
      </trkpt>
      <trkpt lat="47.58821" lon="-2.96499">
        <ele>4.2</ele>
        <time>2023-07-19T08:45:45Z</time>
      </trkpt>
      <trkpt lat="47.58848" lon="-2.96511">
        <ele>4.2</ele>
        <time>2023-07-19T08:45:55Z</time>
      </trkpt>
      <trkpt lat="47.58871" lon="-2.96512">
        <ele>4.3</ele>
        <time>2023-07-19T08:46:39Z</time>
      </trkpt>
      <trkpt lat="47.58873" lon="-2.96512">
        <ele>4.3</ele>
        <time>2023-07-19T08:46:55Z</time>
      </trkpt>
      <trkpt lat="47.58927" lon="-2.96527">
        <ele>5.9</ele>
        <time>2023-07-19T08:47:09Z</time>
      </trkpt>
      <trkpt lat="47.5898" lon="-2.96544">
        <ele>7.5</ele>
        <time>2023-07-19T08:47:20Z</time>
      </trkpt>
      <trkpt lat="47.5902" lon="-2.96551">
        <ele>7.7</ele>
        <time>2023-07-19T08:47:28Z</time>
      </trkpt>
      <trkpt lat="47.59052" lon="-2.9656">
        <ele>7.7</ele>
        <time>2023-07-19T08:47:34Z</time>
      </trkpt>
      <trkpt lat="47.5908" lon="-2.96568">
        <ele>7.7</ele>
        <time>2023-07-19T08:47:39Z</time>
      </trkpt>
      <trkpt lat="47.59085" lon="-2.9657">
        <ele>7.7</ele>
        <time>2023-07-19T08:47:40Z</time>
      </trkpt>
      <trkpt lat="47.59132" lon="-2.96614">
        <ele>8.1</ele>
        <time>2023-07-19T08:47:50Z</time>
      </trkpt>
      <trkpt lat="47.59142" lon="-2.96622">
        <ele>8.1</ele>
        <time>2023-07-19T08:47:52Z</time>
      </trkpt>
      <trkpt lat="47.59179" lon="-2.96637">
        <ele>8.1</ele>
        <time>2023-07-19T08:47:59Z</time>
      </trkpt>
      <trkpt lat="47.59219" lon="-2.96649">
        <ele>8.3</ele>
        <time>2023-07-19T08:48:06Z</time>
      </trkpt>
      <trkpt lat="47.59275" lon="-2.96663">
        <ele>8.8</ele>
        <time>2023-07-19T08:48:16Z</time>
      </trkpt>
      <trkpt lat="47.59295" lon="-2.96666">
        <ele>9.1</ele>
        <time>2023-07-19T08:48:20Z</time>
      </trkpt>
      <trkpt lat="47.59302" lon="-2.96668">
        <ele>9.2</ele>
        <time>2023-07-19T08:48:24Z</time>
      </trkpt>
      <trkpt lat="47.59297" lon="-2.96669">
        <ele>9.3</ele>
        <time>2023-07-19T08:48:26Z</time>
      </trkpt>
      <trkpt lat="47.59292" lon="-2.96672">
        <ele>9.4</ele>
        <time>2023-07-19T08:48:28Z</time>
      </trkpt>
      <trkpt lat="47.59293" lon="-2.96676">
        <ele>9.5</ele>
        <time>2023-07-19T08:48:30Z</time>
      </trkpt>
      <trkpt lat="47.59305" lon="-2.96688">
        <ele>9.8</ele>
        <time>2023-07-19T08:48:35Z</time>
      </trkpt>
      <trkpt lat="47.59323" lon="-2.96711">
        <ele>10.4</ele>
        <time>2023-07-19T08:48:41Z</time>
      </trkpt>
      <trkpt lat="47.59326" lon="-2.96717">
        <ele>10.5</ele>
        <time>2023-07-19T08:48:42Z</time>
      </trkpt>
      <trkpt lat="47.59331" lon="-2.96735">
        <ele>10.8</ele>
        <time>2023-07-19T08:48:45Z</time>
      </trkpt>
      <trkpt lat="47.59332" lon="-2.9675">
        <ele>11.1</ele>
        <time>2023-07-19T08:48:47Z</time>
      </trkpt>
      <trkpt lat="47.59333" lon="-2.96771">
        <ele>11.5</ele>
        <time>2023-07-19T08:48:50Z</time>
      </trkpt>
      <trkpt lat="47.59333" lon="-2.96855">
        <ele>12</ele>
        <time>2023-07-19T08:49:02Z</time>
      </trkpt>
      <trkpt lat="47.59342" lon="-2.9694">
        <ele>10.7</ele>
        <time>2023-07-19T08:49:12Z</time>
      </trkpt>
      <trkpt lat="47.59348" lon="-2.96987">
        <ele>9.9</ele>
        <time>2023-07-19T08:49:17Z</time>
      </trkpt>
      <trkpt lat="47.59352" lon="-2.97005">
        <ele>9.6</ele>
        <time>2023-07-19T08:49:19Z</time>
      </trkpt>
      <trkpt lat="47.59359" lon="-2.97021">
        <ele>9.5</ele>
        <time>2023-07-19T08:49:21Z</time>
      </trkpt>
      <trkpt lat="47.59402" lon="-2.97074">
        <ele>8.9</ele>
        <time>2023-07-19T08:49:30Z</time>
      </trkpt>
      <trkpt lat="47.59412" lon="-2.97086">
        <ele>9</ele>
        <time>2023-07-19T08:49:32Z</time>
      </trkpt>
      <trkpt lat="47.59421" lon="-2.97097">
        <ele>9.1</ele>
        <time>2023-07-19T08:49:34Z</time>
      </trkpt>
      <trkpt lat="47.59426" lon="-2.97103">
        <ele>9.1</ele>
        <time>2023-07-19T08:49:35Z</time>
      </trkpt>
      <trkpt lat="47.5943" lon="-2.97109">
        <ele>9.2</ele>
        <time>2023-07-19T08:49:36Z</time>
      </trkpt>
      <trkpt lat="47.59468" lon="-2.9716">
        <ele>9.5</ele>
        <time>2023-07-19T08:49:45Z</time>
      </trkpt>
      <trkpt lat="47.59506" lon="-2.9722">
        <ele>10.3</ele>
        <time>2023-07-19T08:49:56Z</time>
      </trkpt>
      <trkpt lat="47.59542" lon="-2.97287">
        <ele>11</ele>
        <time>2023-07-19T08:50:08Z</time>
      </trkpt>
      <trkpt lat="47.59558" lon="-2.97311">
        <ele>11.3</ele>
        <time>2023-07-19T08:50:13Z</time>
      </trkpt>
      <trkpt lat="47.59599" lon="-2.97367">
        <ele>11.5</ele>
        <time>2023-07-19T08:50:25Z</time>
      </trkpt>
      <trkpt lat="47.59639" lon="-2.97431">
        <ele>10.7</ele>
        <time>2023-07-19T08:50:36Z</time>
      </trkpt>
      <trkpt lat="47.59661" lon="-2.97471">
        <ele>10.1</ele>
        <time>2023-07-19T08:50:42Z</time>
      </trkpt>
      <trkpt lat="47.59697" lon="-2.97535">
        <ele>9.8</ele>
        <time>2023-07-19T08:50:51Z</time>
      </trkpt>
      <trkpt lat="47.59746" lon="-2.97584">
        <ele>10.4</ele>
        <time>2023-07-19T08:51:01Z</time>
      </trkpt>
      <trkpt lat="47.59781" lon="-2.97613">
        <ele>10.6</ele>
        <time>2023-07-19T08:51:08Z</time>
      </trkpt>
      <trkpt lat="47.59802" lon="-2.97641">
        <ele>10.6</ele>
        <time>2023-07-19T08:51:13Z</time>
      </trkpt>
      <trkpt lat="47.59827" lon="-2.9766">
        <ele>10.8</ele>
        <time>2023-07-19T08:51:18Z</time>
      </trkpt>
      <trkpt lat="47.5985" lon="-2.97673">
        <ele>11.2</ele>
        <time>2023-07-19T08:51:23Z</time>
      </trkpt>
      <trkpt lat="47.59895" lon="-2.97701">
        <ele>12</ele>
        <time>2023-07-19T08:51:33Z</time>
      </trkpt>
      <trkpt lat="47.59909" lon="-2.97704">
        <ele>12.3</ele>
        <time>2023-07-19T08:51:36Z</time>
      </trkpt>
      <trkpt lat="47.59914" lon="-2.97705">
        <ele>12.5</ele>
        <time>2023-07-19T08:51:37Z</time>
      </trkpt>
      <trkpt lat="47.59918" lon="-2.97707">
        <ele>12.6</ele>
        <time>2023-07-19T08:51:38Z</time>
      </trkpt>
      <trkpt lat="47.59931" lon="-2.97709">
        <ele>13</ele>
        <time>2023-07-19T08:51:41Z</time>
      </trkpt>
      <trkpt lat="47.59941" lon="-2.97713">
        <ele>13.3</ele>
        <time>2023-07-19T08:51:43Z</time>
      </trkpt>
      <trkpt lat="47.5995" lon="-2.97715">
        <ele>13.6</ele>
        <time>2023-07-19T08:51:45Z</time>
      </trkpt>
      <trkpt lat="47.60003" lon="-2.97737">
        <ele>14.5</ele>
        <time>2023-07-19T08:51:56Z</time>
      </trkpt>
      <trkpt lat="47.60029" lon="-2.97752">
        <ele>14.6</ele>
        <time>2023-07-19T08:52:02Z</time>
      </trkpt>
      <trkpt lat="47.60083" lon="-2.97781">
        <ele>12.7</ele>
        <time>2023-07-19T08:52:13Z</time>
      </trkpt>
      <trkpt lat="47.60103" lon="-2.97788">
        <ele>11.8</ele>
        <time>2023-07-19T08:52:16Z</time>
      </trkpt>
      <trkpt lat="47.60124" lon="-2.97793">
        <ele>11</ele>
        <time>2023-07-19T08:52:19Z</time>
      </trkpt>
      <trkpt lat="47.60129" lon="-2.97794">
        <ele>10.8</ele>
        <time>2023-07-19T08:52:20Z</time>
      </trkpt>
      <trkpt lat="47.60134" lon="-2.97794">
        <ele>10.7</ele>
        <time>2023-07-19T08:52:21Z</time>
      </trkpt>
      <trkpt lat="47.60139" lon="-2.97797">
        <ele>10.7</ele>
        <time>2023-07-19T08:52:23Z</time>
      </trkpt>
      <trkpt lat="47.60141" lon="-2.97798">
        <ele>10.8</ele>
        <time>2023-07-19T08:52:24Z</time>
      </trkpt>
      <trkpt lat="47.60139" lon="-2.978">
        <ele>10.8</ele>
        <time>2023-07-19T08:52:27Z</time>
      </trkpt>
      <trkpt lat="47.60138" lon="-2.97794">
        <ele>10.9</ele>
        <time>2023-07-19T08:52:29Z</time>
      </trkpt>
      <trkpt lat="47.60135" lon="-2.97763">
        <ele>11.2</ele>
        <time>2023-07-19T08:52:35Z</time>
      </trkpt>
      <trkpt lat="47.60124" lon="-2.97722">
        <ele>11</ele>
        <time>2023-07-19T08:52:41Z</time>
      </trkpt>
      <trkpt lat="47.60116" lon="-2.97691">
        <ele>10.7</ele>
        <time>2023-07-19T08:52:45Z</time>
      </trkpt>
      <trkpt lat="47.60106" lon="-2.97616">
        <ele>9.8</ele>
        <time>2023-07-19T08:52:54Z</time>
      </trkpt>
      <trkpt lat="47.601" lon="-2.97554">
        <ele>9.4</ele>
        <time>2023-07-19T08:53:01Z</time>
      </trkpt>
      <trkpt lat="47.60094" lon="-2.97539">
        <ele>9.5</ele>
        <time>2023-07-19T08:53:03Z</time>
      </trkpt>
      <trkpt lat="47.60086" lon="-2.97528">
        <ele>9.6</ele>
        <time>2023-07-19T08:53:05Z</time>
      </trkpt>
      <trkpt lat="47.60083" lon="-2.97524">
        <ele>9.6</ele>
        <time>2023-07-19T08:53:06Z</time>
      </trkpt>
      <trkpt lat="47.60079" lon="-2.97519">
        <ele>9.6</ele>
        <time>2023-07-19T08:53:07Z</time>
      </trkpt>
      <trkpt lat="47.60074" lon="-2.97508">
        <ele>9.7</ele>
        <time>2023-07-19T08:53:09Z</time>
      </trkpt>
      <trkpt lat="47.60071" lon="-2.97495">
        <ele>9.8</ele>
        <time>2023-07-19T08:53:11Z</time>
      </trkpt>
      <trkpt lat="47.60068" lon="-2.97481">
        <ele>10.1</ele>
        <time>2023-07-19T08:53:13Z</time>
      </trkpt>
      <trkpt lat="47.60066" lon="-2.97474">
        <ele>10.2</ele>
        <time>2023-07-19T08:53:14Z</time>
      </trkpt>
      <trkpt lat="47.60064" lon="-2.97466">
        <ele>10.3</ele>
        <time>2023-07-19T08:53:15Z</time>
      </trkpt>
      <trkpt lat="47.60062" lon="-2.97458">
        <ele>10.5</ele>
        <time>2023-07-19T08:53:16Z</time>
      </trkpt>
      <trkpt lat="47.60059" lon="-2.97451">
        <ele>10.7</ele>
        <time>2023-07-19T08:53:17Z</time>
      </trkpt>
      <trkpt lat="47.60057" lon="-2.97444">
        <ele>10.8</ele>
        <time>2023-07-19T08:53:18Z</time>
      </trkpt>
      <trkpt lat="47.60052" lon="-2.97428">
        <ele>11.2</ele>
        <time>2023-07-19T08:53:20Z</time>
      </trkpt>
      <trkpt lat="47.60046" lon="-2.97405">
        <ele>11.7</ele>
        <time>2023-07-19T08:53:23Z</time>
      </trkpt>
      <trkpt lat="47.60035" lon="-2.97357">
        <ele>12.7</ele>
        <time>2023-07-19T08:53:30Z</time>
      </trkpt>
      <trkpt lat="47.60049" lon="-2.97333">
        <ele>13.1</ele>
        <time>2023-07-19T08:53:36Z</time>
      </trkpt>
      <trkpt lat="47.60063" lon="-2.97322">
        <ele>13.4</ele>
        <time>2023-07-19T08:53:39Z</time>
      </trkpt>
      <trkpt lat="47.60074" lon="-2.97308">
        <ele>13.9</ele>
        <time>2023-07-19T08:53:42Z</time>
      </trkpt>
      <trkpt lat="47.60083" lon="-2.97304">
        <ele>14.1</ele>
        <time>2023-07-19T08:53:44Z</time>
      </trkpt>
      <trkpt lat="47.60118" lon="-2.97311">
        <ele>15.1</ele>
        <time>2023-07-19T08:53:50Z</time>
      </trkpt>
      <trkpt lat="47.60132" lon="-2.97313">
        <ele>15.6</ele>
        <time>2023-07-19T08:53:53Z</time>
      </trkpt>
      <trkpt lat="47.60141" lon="-2.97311">
        <ele>15.9</ele>
        <time>2023-07-19T08:53:55Z</time>
      </trkpt>
      <trkpt lat="47.60148" lon="-2.97301">
        <ele>16.1</ele>
        <time>2023-07-19T08:53:57Z</time>
      </trkpt>
      <trkpt lat="47.60152" lon="-2.97288">
        <ele>16.1</ele>
        <time>2023-07-19T08:53:59Z</time>
      </trkpt>
      <trkpt lat="47.60153" lon="-2.97273">
        <ele>16.1</ele>
        <time>2023-07-19T08:54:01Z</time>
      </trkpt>
      <trkpt lat="47.60151" lon="-2.97242">
        <ele>16</ele>
        <time>2023-07-19T08:54:05Z</time>
      </trkpt>
      <trkpt lat="47.60148" lon="-2.97199">
        <ele>15.7</ele>
        <time>2023-07-19T08:54:10Z</time>
      </trkpt>
      <trkpt lat="47.6015" lon="-2.9716">
        <ele>15.1</ele>
        <time>2023-07-19T08:54:14Z</time>
      </trkpt>
      <trkpt lat="47.60171" lon="-2.9708">
        <ele>12.4</ele>
        <time>2023-07-19T08:54:22Z</time>
      </trkpt>
      <trkpt lat="47.60181" lon="-2.97033">
        <ele>10.6</ele>
        <time>2023-07-19T08:54:26Z</time>
      </trkpt>
      <trkpt lat="47.60182" lon="-2.97007">
        <ele>10</ele>
        <time>2023-07-19T08:54:28Z</time>
      </trkpt>
      <trkpt lat="47.60177" lon="-2.96982">
        <ele>9.9</ele>
        <time>2023-07-19T08:54:30Z</time>
      </trkpt>
      <trkpt lat="47.60171" lon="-2.96972">
        <ele>9.9</ele>
        <time>2023-07-19T08:54:31Z</time>
      </trkpt>
      <trkpt lat="47.60165" lon="-2.96963">
        <ele>10</ele>
        <time>2023-07-19T08:54:32Z</time>
      </trkpt>
      <trkpt lat="47.60158" lon="-2.96956">
        <ele>10</ele>
        <time>2023-07-19T08:54:33Z</time>
      </trkpt>
      <trkpt lat="47.60152" lon="-2.96949">
        <ele>10.1</ele>
        <time>2023-07-19T08:54:34Z</time>
      </trkpt>
      <trkpt lat="47.60145" lon="-2.96943">
        <ele>10.1</ele>
        <time>2023-07-19T08:54:35Z</time>
      </trkpt>
      <trkpt lat="47.60139" lon="-2.96938">
        <ele>10.2</ele>
        <time>2023-07-19T08:54:36Z</time>
      </trkpt>
      <trkpt lat="47.60132" lon="-2.96934">
        <ele>10.2</ele>
        <time>2023-07-19T08:54:37Z</time>
      </trkpt>
      <trkpt lat="47.60103" lon="-2.96925">
        <ele>9.9</ele>
        <time>2023-07-19T08:54:41Z</time>
      </trkpt>
      <trkpt lat="47.6008" lon="-2.96922">
        <ele>9.7</ele>
        <time>2023-07-19T08:54:44Z</time>
      </trkpt>
      <trkpt lat="47.60029" lon="-2.96915">
        <ele>9.7</ele>
        <time>2023-07-19T08:54:51Z</time>
      </trkpt>
      <trkpt lat="47.59975" lon="-2.96907">
        <ele>10.3</ele>
        <time>2023-07-19T08:54:59Z</time>
      </trkpt>
      <trkpt lat="47.59962" lon="-2.96906">
        <ele>10.4</ele>
        <time>2023-07-19T08:55:01Z</time>
      </trkpt>
      <trkpt lat="47.59949" lon="-2.96903">
        <ele>10.6</ele>
        <time>2023-07-19T08:55:03Z</time>
      </trkpt>
      <trkpt lat="47.59924" lon="-2.96899">
        <ele>11.2</ele>
        <time>2023-07-19T08:55:07Z</time>
      </trkpt>
      <trkpt lat="47.59895" lon="-2.9689">
        <ele>11.9</ele>
        <time>2023-07-19T08:55:12Z</time>
      </trkpt>
      <trkpt lat="47.5989" lon="-2.96887">
        <ele>11.9</ele>
        <time>2023-07-19T08:55:13Z</time>
      </trkpt>
      <trkpt lat="47.59869" lon="-2.9687">
        <ele>12</ele>
        <time>2023-07-19T08:55:17Z</time>
      </trkpt>
      <trkpt lat="47.59828" lon="-2.96813">
        <ele>11.5</ele>
        <time>2023-07-19T08:55:26Z</time>
      </trkpt>
      <trkpt lat="47.59809" lon="-2.96784">
        <ele>11.1</ele>
        <time>2023-07-19T08:55:30Z</time>
      </trkpt>
      <trkpt lat="47.598" lon="-2.96769">
        <ele>10.9</ele>
        <time>2023-07-19T08:55:32Z</time>
      </trkpt>
      <trkpt lat="47.59793" lon="-2.96752">
        <ele>10.6</ele>
        <time>2023-07-19T08:55:34Z</time>
      </trkpt>
      <trkpt lat="47.59791" lon="-2.96743">
        <ele>10.6</ele>
        <time>2023-07-19T08:55:35Z</time>
      </trkpt>
      <trkpt lat="47.59785" lon="-2.96727">
        <ele>10.7</ele>
        <time>2023-07-19T08:55:37Z</time>
      </trkpt>
      <trkpt lat="47.59778" lon="-2.96712">
        <ele>10.7</ele>
        <time>2023-07-19T08:55:39Z</time>
      </trkpt>
      <trkpt lat="47.59767" lon="-2.96689">
        <ele>10.6</ele>
        <time>2023-07-19T08:55:42Z</time>
      </trkpt>
      <trkpt lat="47.59752" lon="-2.96657">
        <ele>10.4</ele>
        <time>2023-07-19T08:55:46Z</time>
      </trkpt>
      <trkpt lat="47.59734" lon="-2.96627">
        <ele>10.4</ele>
        <time>2023-07-19T08:55:51Z</time>
      </trkpt>
      <trkpt lat="47.59725" lon="-2.96622">
        <ele>10.4</ele>
        <time>2023-07-19T08:55:55Z</time>
      </trkpt>
      <trkpt lat="47.59726" lon="-2.96624">
        <ele>10.5</ele>
        <time>2023-07-19T08:55:57Z</time>
      </trkpt>
      <trkpt lat="47.59726" lon="-2.96625">
        <ele>10.5</ele>
        <time>2023-07-19T08:55:58Z</time>
      </trkpt>
      <trkpt lat="47.59728" lon="-2.96625">
        <ele>10.5</ele>
        <time>2023-07-19T08:55:59Z</time>
      </trkpt>
      <trkpt lat="47.59744" lon="-2.96642">
        <ele>10.4</ele>
        <time>2023-07-19T08:56:08Z</time>
      </trkpt>
      <trkpt lat="47.59753" lon="-2.96656">
        <ele>10.4</ele>
        <time>2023-07-19T08:56:11Z</time>
      </trkpt>
      <trkpt lat="47.59758" lon="-2.96666">
        <ele>10.4</ele>
        <time>2023-07-19T08:56:13Z</time>
      </trkpt>
      <trkpt lat="47.59776" lon="-2.96706">
        <ele>10.7</ele>
        <time>2023-07-19T08:56:21Z</time>
      </trkpt>
      <trkpt lat="47.59778" lon="-2.9671">
        <ele>10.7</ele>
        <time>2023-07-19T08:56:22Z</time>
      </trkpt>
      <trkpt lat="47.5978" lon="-2.96715">
        <ele>10.7</ele>
        <time>2023-07-19T08:56:23Z</time>
      </trkpt>
      <trkpt lat="47.59784" lon="-2.9672">
        <ele>10.7</ele>
        <time>2023-07-19T08:56:24Z</time>
      </trkpt>
      <trkpt lat="47.59788" lon="-2.9673">
        <ele>10.7</ele>
        <time>2023-07-19T08:56:26Z</time>
      </trkpt>
      <trkpt lat="47.59788" lon="-2.96746">
        <ele>10.6</ele>
        <time>2023-07-19T08:56:29Z</time>
      </trkpt>
      <trkpt lat="47.59776" lon="-2.96753">
        <ele>10.2</ele>
        <time>2023-07-19T08:56:32Z</time>
      </trkpt>
      <trkpt lat="47.59718" lon="-2.96752">
        <ele>8.2</ele>
        <time>2023-07-19T08:56:41Z</time>
      </trkpt>
      <trkpt lat="47.59689" lon="-2.96749">
        <ele>7.7</ele>
        <time>2023-07-19T08:56:45Z</time>
      </trkpt>
      <trkpt lat="47.59633" lon="-2.96735">
        <ele>7.3</ele>
        <time>2023-07-19T08:56:53Z</time>
      </trkpt>
      <trkpt lat="47.59599" lon="-2.96723">
        <ele>7.3</ele>
        <time>2023-07-19T08:56:58Z</time>
      </trkpt>
      <trkpt lat="47.59544" lon="-2.96706">
        <ele>7.4</ele>
        <time>2023-07-19T08:57:07Z</time>
      </trkpt>
      <trkpt lat="47.5952" lon="-2.96701">
        <ele>7.8</ele>
        <time>2023-07-19T08:57:11Z</time>
      </trkpt>
      <trkpt lat="47.59514" lon="-2.96699">
        <ele>7.9</ele>
        <time>2023-07-19T08:57:12Z</time>
      </trkpt>
      <trkpt lat="47.59502" lon="-2.96695">
        <ele>8.1</ele>
        <time>2023-07-19T08:57:14Z</time>
      </trkpt>
      <trkpt lat="47.59497" lon="-2.96693">
        <ele>8.3</ele>
        <time>2023-07-19T08:57:15Z</time>
      </trkpt>
      <trkpt lat="47.59491" lon="-2.96691">
        <ele>8.4</ele>
        <time>2023-07-19T08:57:16Z</time>
      </trkpt>
      <trkpt lat="47.59453" lon="-2.96677">
        <ele>9.3</ele>
        <time>2023-07-19T08:57:23Z</time>
      </trkpt>
      <trkpt lat="47.59437" lon="-2.96672">
        <ele>9.6</ele>
        <time>2023-07-19T08:57:26Z</time>
      </trkpt>
      <trkpt lat="47.59431" lon="-2.96671">
        <ele>9.7</ele>
        <time>2023-07-19T08:57:27Z</time>
      </trkpt>
      <trkpt lat="47.59426" lon="-2.96669">
        <ele>9.8</ele>
        <time>2023-07-19T08:57:28Z</time>
      </trkpt>
      <trkpt lat="47.59421" lon="-2.96668">
        <ele>9.9</ele>
        <time>2023-07-19T08:57:29Z</time>
      </trkpt>
      <trkpt lat="47.59416" lon="-2.96667">
        <ele>10</ele>
        <time>2023-07-19T08:57:30Z</time>
      </trkpt>
      <trkpt lat="47.59411" lon="-2.96667">
        <ele>10.1</ele>
        <time>2023-07-19T08:57:31Z</time>
      </trkpt>
      <trkpt lat="47.5939" lon="-2.96665">
        <ele>10.2</ele>
        <time>2023-07-19T08:57:35Z</time>
      </trkpt>
      <trkpt lat="47.59385" lon="-2.96665">
        <ele>10.2</ele>
        <time>2023-07-19T08:57:36Z</time>
      </trkpt>
      <trkpt lat="47.59379" lon="-2.96665">
        <ele>10.2</ele>
        <time>2023-07-19T08:57:37Z</time>
      </trkpt>
      <trkpt lat="47.59374" lon="-2.96665">
        <ele>10.1</ele>
        <time>2023-07-19T08:57:38Z</time>
      </trkpt>
      <trkpt lat="47.59368" lon="-2.96665">
        <ele>10.1</ele>
        <time>2023-07-19T08:57:39Z</time>
      </trkpt>
      <trkpt lat="47.59309" lon="-2.96666">
        <ele>9.4</ele>
        <time>2023-07-19T08:57:49Z</time>
      </trkpt>
      <trkpt lat="47.59284" lon="-2.96666">
        <ele>8.9</ele>
        <time>2023-07-19T08:57:53Z</time>
      </trkpt>
      <trkpt lat="47.59226" lon="-2.96653">
        <ele>8.3</ele>
        <time>2023-07-19T08:58:02Z</time>
      </trkpt>
      <trkpt lat="47.59169" lon="-2.96636">
        <ele>8.1</ele>
        <time>2023-07-19T08:58:11Z</time>
      </trkpt>
      <trkpt lat="47.59157" lon="-2.96632">
        <ele>8.1</ele>
        <time>2023-07-19T08:58:13Z</time>
      </trkpt>
      <trkpt lat="47.59151" lon="-2.9663">
        <ele>8.1</ele>
        <time>2023-07-19T08:58:14Z</time>
      </trkpt>
      <trkpt lat="47.59122" lon="-2.96613">
        <ele>8.1</ele>
        <time>2023-07-19T08:58:19Z</time>
      </trkpt>
      <trkpt lat="47.59091" lon="-2.96579">
        <ele>7.8</ele>
        <time>2023-07-19T08:58:26Z</time>
      </trkpt>
      <trkpt lat="47.5907" lon="-2.96565">
        <ele>7.7</ele>
        <time>2023-07-19T08:58:30Z</time>
      </trkpt>
      <trkpt lat="47.59053" lon="-2.9656">
        <ele>7.7</ele>
        <time>2023-07-19T08:58:33Z</time>
      </trkpt>
      <trkpt lat="47.59032" lon="-2.96556">
        <ele>7.7</ele>
        <time>2023-07-19T08:58:37Z</time>
      </trkpt>
      <trkpt lat="47.58979" lon="-2.96542">
        <ele>7.5</ele>
        <time>2023-07-19T08:58:49Z</time>
      </trkpt>
      <trkpt lat="47.5898" lon="-2.96541">
        <ele>7.5</ele>
        <time>2023-07-19T08:58:51Z</time>
      </trkpt>
      <trkpt lat="47.58987" lon="-2.96544">
        <ele>7.6</ele>
        <time>2023-07-19T08:58:54Z</time>
      </trkpt>
      <trkpt lat="47.59" lon="-2.96547">
        <ele>7.6</ele>
        <time>2023-07-19T08:58:58Z</time>
      </trkpt>
      <trkpt lat="47.59004" lon="-2.96548">
        <ele>7.7</ele>
        <time>2023-07-19T08:58:59Z</time>
      </trkpt>
      <trkpt lat="47.59061" lon="-2.96563">
        <ele>7.7</ele>
        <time>2023-07-19T08:59:11Z</time>
      </trkpt>
      <trkpt lat="47.59082" lon="-2.96571">
        <ele>7.7</ele>
        <time>2023-07-19T08:59:15Z</time>
      </trkpt>
      <trkpt lat="47.59087" lon="-2.96574">
        <ele>7.7</ele>
        <time>2023-07-19T08:59:16Z</time>
      </trkpt>
      <trkpt lat="47.5911" lon="-2.96599">
        <ele>8</ele>
        <time>2023-07-19T08:59:22Z</time>
      </trkpt>
      <trkpt lat="47.59114" lon="-2.96602">
        <ele>8</ele>
        <time>2023-07-19T08:59:23Z</time>
      </trkpt>
      <trkpt lat="47.59121" lon="-2.96605">
        <ele>8</ele>
        <time>2023-07-19T08:59:25Z</time>
      </trkpt>
      <trkpt lat="47.59125" lon="-2.96602">
        <ele>7.9</ele>
        <time>2023-07-19T08:59:26Z</time>
      </trkpt>
      <trkpt lat="47.59127" lon="-2.96598">
        <ele>7.9</ele>
        <time>2023-07-19T08:59:27Z</time>
      </trkpt>
      <trkpt lat="47.59129" lon="-2.96592">
        <ele>7.9</ele>
        <time>2023-07-19T08:59:28Z</time>
      </trkpt>
      <trkpt lat="47.59132" lon="-2.96587">
        <ele>7.8</ele>
        <time>2023-07-19T08:59:29Z</time>
      </trkpt>
      <trkpt lat="47.59151" lon="-2.96546">
        <ele>7.5</ele>
        <time>2023-07-19T08:59:36Z</time>
      </trkpt>
      <trkpt lat="47.59157" lon="-2.96534">
        <ele>7.4</ele>
        <time>2023-07-19T08:59:38Z</time>
      </trkpt>
      <trkpt lat="47.59161" lon="-2.96529">
        <ele>7.4</ele>
        <time>2023-07-19T08:59:39Z</time>
      </trkpt>
      <trkpt lat="47.59183" lon="-2.96526">
        <ele>7.3</ele>
        <time>2023-07-19T08:59:45Z</time>
      </trkpt>
      <trkpt lat="47.59211" lon="-2.96557">
        <ele>7.4</ele>
        <time>2023-07-19T08:59:53Z</time>
      </trkpt>
      <trkpt lat="47.5922" lon="-2.9657">
        <ele>7.6</ele>
        <time>2023-07-19T08:59:56Z</time>
      </trkpt>
      <trkpt lat="47.59231" lon="-2.96586">
        <ele>7.7</ele>
        <time>2023-07-19T09:00:00Z</time>
      </trkpt>
      <trkpt lat="47.59237" lon="-2.96595">
        <ele>7.8</ele>
        <time>2023-07-19T09:00:02Z</time>
      </trkpt>
      <trkpt lat="47.59246" lon="-2.96607">
        <ele>8</ele>
        <time>2023-07-19T09:00:05Z</time>
      </trkpt>
      <trkpt lat="47.59249" lon="-2.96612">
        <ele>8</ele>
        <time>2023-07-19T09:00:06Z</time>
      </trkpt>
      <trkpt lat="47.59253" lon="-2.96617">
        <ele>8.1</ele>
        <time>2023-07-19T09:00:07Z</time>
      </trkpt>
      <trkpt lat="47.5927" lon="-2.96645">
        <ele>8.5</ele>
        <time>2023-07-19T09:00:13Z</time>
      </trkpt>
      <trkpt lat="47.59279" lon="-2.96659">
        <ele>8.8</ele>
        <time>2023-07-19T09:00:16Z</time>
      </trkpt>
      <trkpt lat="47.59286" lon="-2.96664">
        <ele>8.9</ele>
        <time>2023-07-19T09:00:18Z</time>
      </trkpt>
      <trkpt lat="47.59322" lon="-2.96665">
        <ele>9.6</ele>
        <time>2023-07-19T09:00:26Z</time>
      </trkpt>
      <trkpt lat="47.59328" lon="-2.96665">
        <ele>9.7</ele>
        <time>2023-07-19T09:00:27Z</time>
      </trkpt>
      <trkpt lat="47.59383" lon="-2.96663">
        <ele>10.2</ele>
        <time>2023-07-19T09:00:37Z</time>
      </trkpt>
      <trkpt lat="47.59439" lon="-2.96669">
        <ele>9.5</ele>
        <time>2023-07-19T09:00:47Z</time>
      </trkpt>
      <trkpt lat="47.59484" lon="-2.96685">
        <ele>8.6</ele>
        <time>2023-07-19T09:00:54Z</time>
      </trkpt>
      <trkpt lat="47.59491" lon="-2.96687">
        <ele>8.4</ele>
        <time>2023-07-19T09:00:55Z</time>
      </trkpt>
      <trkpt lat="47.59545" lon="-2.96707">
        <ele>7.4</ele>
        <time>2023-07-19T09:01:03Z</time>
      </trkpt>
      <trkpt lat="47.59573" lon="-2.96716">
        <ele>7.2</ele>
        <time>2023-07-19T09:01:07Z</time>
      </trkpt>
      <trkpt lat="47.59628" lon="-2.96734">
        <ele>7.3</ele>
        <time>2023-07-19T09:01:15Z</time>
      </trkpt>
      <trkpt lat="47.59686" lon="-2.96747">
        <ele>7.6</ele>
        <time>2023-07-19T09:01:24Z</time>
      </trkpt>
      <trkpt lat="47.59705" lon="-2.9675">
        <ele>7.9</ele>
        <time>2023-07-19T09:01:27Z</time>
      </trkpt>
      <trkpt lat="47.59716" lon="-2.96751">
        <ele>8.2</ele>
        <time>2023-07-19T09:01:29Z</time>
      </trkpt>
      <trkpt lat="47.5975" lon="-2.96752">
        <ele>9.2</ele>
        <time>2023-07-19T09:01:35Z</time>
      </trkpt>
      <trkpt lat="47.59755" lon="-2.96753">
        <ele>9.4</ele>
        <time>2023-07-19T09:01:36Z</time>
      </trkpt>
      <trkpt lat="47.59761" lon="-2.96753">
        <ele>9.6</ele>
        <time>2023-07-19T09:01:37Z</time>
      </trkpt>
      <trkpt lat="47.59767" lon="-2.96754">
        <ele>9.8</ele>
        <time>2023-07-19T09:01:38Z</time>
      </trkpt>
      <trkpt lat="47.59772" lon="-2.96755">
        <ele>10</ele>
        <time>2023-07-19T09:01:39Z</time>
      </trkpt>
      <trkpt lat="47.59793" lon="-2.96763">
        <ele>10.7</ele>
        <time>2023-07-19T09:01:43Z</time>
      </trkpt>
      <trkpt lat="47.59802" lon="-2.96771">
        <ele>10.9</ele>
        <time>2023-07-19T09:01:45Z</time>
      </trkpt>
      <trkpt lat="47.5984" lon="-2.96827">
        <ele>11.8</ele>
        <time>2023-07-19T09:01:56Z</time>
      </trkpt>
      <trkpt lat="47.59864" lon="-2.96863">
        <ele>12</ele>
        <time>2023-07-19T09:02:03Z</time>
      </trkpt>
      <trkpt lat="47.59908" lon="-2.96896">
        <ele>11.6</ele>
        <time>2023-07-19T09:02:12Z</time>
      </trkpt>
      <trkpt lat="47.59952" lon="-2.96907">
        <ele>10.6</ele>
        <time>2023-07-19T09:02:19Z</time>
      </trkpt>
      <trkpt lat="47.60007" lon="-2.96914">
        <ele>9.9</ele>
        <time>2023-07-19T09:02:27Z</time>
      </trkpt>
      <trkpt lat="47.60062" lon="-2.96922">
        <ele>9.5</ele>
        <time>2023-07-19T09:02:35Z</time>
      </trkpt>
      <trkpt lat="47.60082" lon="-2.96924">
        <ele>9.7</ele>
        <time>2023-07-19T09:02:38Z</time>
      </trkpt>
      <trkpt lat="47.60138" lon="-2.96942">
        <ele>10.2</ele>
        <time>2023-07-19T09:02:47Z</time>
      </trkpt>
      <trkpt lat="47.60159" lon="-2.96961">
        <ele>10</ele>
        <time>2023-07-19T09:02:51Z</time>
      </trkpt>
      <trkpt lat="47.60181" lon="-2.96991">
        <ele>9.9</ele>
        <time>2023-07-19T09:02:56Z</time>
      </trkpt>
      <trkpt lat="47.60188" lon="-2.97006">
        <ele>9.9</ele>
        <time>2023-07-19T09:02:58Z</time>
      </trkpt>
      <trkpt lat="47.60197" lon="-2.97017">
        <ele>9.9</ele>
        <time>2023-07-19T09:03:00Z</time>
      </trkpt>
      <trkpt lat="47.60243" lon="-2.9706">
        <ele>10</ele>
        <time>2023-07-19T09:03:09Z</time>
      </trkpt>
      <trkpt lat="47.60255" lon="-2.97064">
        <ele>9.9</ele>
        <time>2023-07-19T09:03:11Z</time>
      </trkpt>
      <trkpt lat="47.60267" lon="-2.97066">
        <ele>9.7</ele>
        <time>2023-07-19T09:03:13Z</time>
      </trkpt>
      <trkpt lat="47.60314" lon="-2.97058">
        <ele>8.9</ele>
        <time>2023-07-19T09:03:20Z</time>
      </trkpt>
      <trkpt lat="47.60321" lon="-2.97056">
        <ele>8.9</ele>
        <time>2023-07-19T09:03:21Z</time>
      </trkpt>
      <trkpt lat="47.60328" lon="-2.97055">
        <ele>8.8</ele>
        <time>2023-07-19T09:03:22Z</time>
      </trkpt>
      <trkpt lat="47.60347" lon="-2.97048">
        <ele>8.8</ele>
        <time>2023-07-19T09:03:25Z</time>
      </trkpt>
      <trkpt lat="47.60353" lon="-2.97046">
        <ele>8.8</ele>
        <time>2023-07-19T09:03:26Z</time>
      </trkpt>
      <trkpt lat="47.60365" lon="-2.97042">
        <ele>8.8</ele>
        <time>2023-07-19T09:03:28Z</time>
      </trkpt>
      <trkpt lat="47.60372" lon="-2.9704">
        <ele>8.8</ele>
        <time>2023-07-19T09:03:29Z</time>
      </trkpt>
      <trkpt lat="47.60419" lon="-2.97029">
        <ele>9</ele>
        <time>2023-07-19T09:03:36Z</time>
      </trkpt>
      <trkpt lat="47.60433" lon="-2.97027">
        <ele>9.2</ele>
        <time>2023-07-19T09:03:38Z</time>
      </trkpt>
      <trkpt lat="47.60446" lon="-2.97024">
        <ele>9.5</ele>
        <time>2023-07-19T09:03:40Z</time>
      </trkpt>
      <trkpt lat="47.60452" lon="-2.97022">
        <ele>9.7</ele>
        <time>2023-07-19T09:03:41Z</time>
      </trkpt>
      <trkpt lat="47.60481" lon="-2.97024">
        <ele>10.3</ele>
        <time>2023-07-19T09:03:46Z</time>
      </trkpt>
      <trkpt lat="47.6053" lon="-2.97064">
        <ele>12.2</ele>
        <time>2023-07-19T09:03:56Z</time>
      </trkpt>
      <trkpt lat="47.60576" lon="-2.97113">
        <ele>9.8</ele>
        <time>2023-07-19T09:04:08Z</time>
      </trkpt>
      <trkpt lat="47.60584" lon="-2.97122">
        <ele>9.1</ele>
        <time>2023-07-19T09:04:10Z</time>
      </trkpt>
      <trkpt lat="47.60614" lon="-2.97151">
        <ele>6.3</ele>
        <time>2023-07-19T09:04:16Z</time>
      </trkpt>
      <trkpt lat="47.60657" lon="-2.97191">
        <ele>2.6</ele>
        <time>2023-07-19T09:04:27Z</time>
      </trkpt>
      <trkpt lat="47.6066" lon="-2.97198">
        <ele>2.5</ele>
        <time>2023-07-19T09:04:30Z</time>
      </trkpt>
      <trkpt lat="47.60658" lon="-2.97204">
        <ele>2.3</ele>
        <time>2023-07-19T09:04:33Z</time>
      </trkpt>
      <trkpt lat="47.60657" lon="-2.97205">
        <ele>2.3</ele>
        <time>2023-07-19T09:04:34Z</time>
      </trkpt>
      <trkpt lat="47.60657" lon="-2.97205">
        <ele>2.3</ele>
        <time>2023-07-19T09:04:35Z</time>
      </trkpt>
      <trkpt lat="47.60654" lon="-2.97203">
        <ele>2.4</ele>
        <time>2023-07-19T09:04:47Z</time>
      </trkpt>
      <trkpt lat="47.60652" lon="-2.97196">
        <ele>2.6</ele>
        <time>2023-07-19T09:04:57Z</time>
      </trkpt>
      <trkpt lat="47.6065" lon="-2.97196">
        <ele>2.6</ele>
        <time>2023-07-19T09:05:07Z</time>
      </trkpt>
      <trkpt lat="47.60647" lon="-2.97185">
        <ele>3</ele>
        <time>2023-07-19T09:05:33Z</time>
      </trkpt>
      <trkpt lat="47.60645" lon="-2.97183">
        <ele>3.2</ele>
        <time>2023-07-19T09:05:36Z</time>
      </trkpt>
      <trkpt lat="47.60599" lon="-2.97139">
        <ele>7.8</ele>
        <time>2023-07-19T09:05:57Z</time>
      </trkpt>
      <trkpt lat="47.60584" lon="-2.97124">
        <ele>9.2</ele>
        <time>2023-07-19T09:06:02Z</time>
      </trkpt>
      <trkpt lat="47.60539" lon="-2.97075">
        <ele>12.4</ele>
        <time>2023-07-19T09:06:16Z</time>
      </trkpt>
      <trkpt lat="47.60518" lon="-2.97054">
        <ele>11.9</ele>
        <time>2023-07-19T09:06:21Z</time>
      </trkpt>
      <trkpt lat="47.60491" lon="-2.97033">
        <ele>10.8</ele>
        <time>2023-07-19T09:06:26Z</time>
      </trkpt>
      <trkpt lat="47.60477" lon="-2.97028">
        <ele>10.1</ele>
        <time>2023-07-19T09:06:28Z</time>
      </trkpt>
      <trkpt lat="47.60429" lon="-2.97032">
        <ele>9.1</ele>
        <time>2023-07-19T09:06:34Z</time>
      </trkpt>
      <trkpt lat="47.60372" lon="-2.97047">
        <ele>8.8</ele>
        <time>2023-07-19T09:06:42Z</time>
      </trkpt>
      <trkpt lat="47.60314" lon="-2.97057">
        <ele>8.9</ele>
        <time>2023-07-19T09:06:51Z</time>
      </trkpt>
      <trkpt lat="47.60296" lon="-2.97061">
        <ele>9.1</ele>
        <time>2023-07-19T09:06:54Z</time>
      </trkpt>
      <trkpt lat="47.6029" lon="-2.97063">
        <ele>9.3</ele>
        <time>2023-07-19T09:06:55Z</time>
      </trkpt>
      <trkpt lat="47.60249" lon="-2.97064">
        <ele>10</ele>
        <time>2023-07-19T09:07:03Z</time>
      </trkpt>
      <trkpt lat="47.60218" lon="-2.97045">
        <ele>10</ele>
        <time>2023-07-19T09:07:10Z</time>
      </trkpt>
      <trkpt lat="47.60195" lon="-2.97021">
        <ele>9.9</ele>
        <time>2023-07-19T09:07:16Z</time>
      </trkpt>
      <trkpt lat="47.60185" lon="-2.97022">
        <ele>10.3</ele>
        <time>2023-07-19T09:07:19Z</time>
      </trkpt>
      <trkpt lat="47.6017" lon="-2.97093">
        <ele>12.8</ele>
        <time>2023-07-19T09:07:35Z</time>
      </trkpt>
      <trkpt lat="47.60167" lon="-2.97103">
        <ele>13.2</ele>
        <time>2023-07-19T09:07:37Z</time>
      </trkpt>
      <trkpt lat="47.60149" lon="-2.97165">
        <ele>15.2</ele>
        <time>2023-07-19T09:07:49Z</time>
      </trkpt>
      <trkpt lat="47.60147" lon="-2.97182">
        <ele>15.5</ele>
        <time>2023-07-19T09:07:52Z</time>
      </trkpt>
      <trkpt lat="47.60148" lon="-2.97265">
        <ele>16.1</ele>
        <time>2023-07-19T09:08:06Z</time>
      </trkpt>
      <trkpt lat="47.60149" lon="-2.97284">
        <ele>16.1</ele>
        <time>2023-07-19T09:08:09Z</time>
      </trkpt>
      <trkpt lat="47.60129" lon="-2.97319">
        <ele>15.5</ele>
        <time>2023-07-19T09:08:18Z</time>
      </trkpt>
      <trkpt lat="47.60103" lon="-2.97314">
        <ele>14.7</ele>
        <time>2023-07-19T09:08:23Z</time>
      </trkpt>
      <trkpt lat="47.60079" lon="-2.97311">
        <ele>14</ele>
        <time>2023-07-19T09:08:28Z</time>
      </trkpt>
      <trkpt lat="47.60072" lon="-2.9732">
        <ele>13.7</ele>
        <time>2023-07-19T09:08:30Z</time>
      </trkpt>
      <trkpt lat="47.60062" lon="-2.97333">
        <ele>13.4</ele>
        <time>2023-07-19T09:08:33Z</time>
      </trkpt>
      <trkpt lat="47.60044" lon="-2.97343">
        <ele>13</ele>
        <time>2023-07-19T09:08:37Z</time>
      </trkpt>
      <trkpt lat="47.6004" lon="-2.97345">
        <ele>12.9</ele>
        <time>2023-07-19T09:08:38Z</time>
      </trkpt>
      <trkpt lat="47.60033" lon="-2.97355">
        <ele>12.7</ele>
        <time>2023-07-19T09:08:40Z</time>
      </trkpt>
      <trkpt lat="47.60031" lon="-2.97367">
        <ele>12.5</ele>
        <time>2023-07-19T09:08:42Z</time>
      </trkpt>
      <trkpt lat="47.60034" lon="-2.9738">
        <ele>12.2</ele>
        <time>2023-07-19T09:08:44Z</time>
      </trkpt>
      <trkpt lat="47.6006" lon="-2.97457">
        <ele>10.4</ele>
        <time>2023-07-19T09:08:54Z</time>
      </trkpt>
      <trkpt lat="47.60073" lon="-2.975">
        <ele>9.7</ele>
        <time>2023-07-19T09:08:59Z</time>
      </trkpt>
      <trkpt lat="47.6008" lon="-2.97516">
        <ele>9.6</ele>
        <time>2023-07-19T09:09:01Z</time>
      </trkpt>
      <trkpt lat="47.6009" lon="-2.97528">
        <ele>9.5</ele>
        <time>2023-07-19T09:09:03Z</time>
      </trkpt>
      <trkpt lat="47.601" lon="-2.9754">
        <ele>9.4</ele>
        <time>2023-07-19T09:09:05Z</time>
      </trkpt>
      <trkpt lat="47.60107" lon="-2.97556">
        <ele>9.5</ele>
        <time>2023-07-19T09:09:07Z</time>
      </trkpt>
      <trkpt lat="47.60113" lon="-2.97587">
        <ele>9.6</ele>
        <time>2023-07-19T09:09:11Z</time>
      </trkpt>
      <trkpt lat="47.60114" lon="-2.97603">
        <ele>9.8</ele>
        <time>2023-07-19T09:09:13Z</time>
      </trkpt>
      <trkpt lat="47.60118" lon="-2.97688">
        <ele>10.8</ele>
        <time>2023-07-19T09:09:23Z</time>
      </trkpt>
      <trkpt lat="47.60131" lon="-2.97755">
        <ele>11.2</ele>
        <time>2023-07-19T09:09:32Z</time>
      </trkpt>
      <trkpt lat="47.60132" lon="-2.97771">
        <ele>11.1</ele>
        <time>2023-07-19T09:09:34Z</time>
      </trkpt>
      <trkpt lat="47.60134" lon="-2.97796">
        <ele>10.7</ele>
        <time>2023-07-19T09:09:37Z</time>
      </trkpt>
      <trkpt lat="47.60165" lon="-2.97866">
        <ele>12.2</ele>
        <time>2023-07-19T09:09:47Z</time>
      </trkpt>
      <trkpt lat="47.60171" lon="-2.97876">
        <ele>12.7</ele>
        <time>2023-07-19T09:09:49Z</time>
      </trkpt>
      <trkpt lat="47.60183" lon="-2.97904">
        <ele>13.2</ele>
        <time>2023-07-19T09:09:54Z</time>
      </trkpt>
      <trkpt lat="47.60185" lon="-2.9791">
        <ele>13.1</ele>
        <time>2023-07-19T09:09:55Z</time>
      </trkpt>
      <trkpt lat="47.60195" lon="-2.97946">
        <ele>12.6</ele>
        <time>2023-07-19T09:10:00Z</time>
      </trkpt>
      <trkpt lat="47.60204" lon="-2.97965">
        <ele>12.2</ele>
        <time>2023-07-19T09:10:03Z</time>
      </trkpt>
      <trkpt lat="47.60207" lon="-2.97972">
        <ele>12.1</ele>
        <time>2023-07-19T09:10:04Z</time>
      </trkpt>
      <trkpt lat="47.60211" lon="-2.97979">
        <ele>12</ele>
        <time>2023-07-19T09:10:05Z</time>
      </trkpt>
      <trkpt lat="47.60227" lon="-2.98007">
        <ele>11.5</ele>
        <time>2023-07-19T09:10:09Z</time>
      </trkpt>
      <trkpt lat="47.60241" lon="-2.98028">
        <ele>11.2</ele>
        <time>2023-07-19T09:10:12Z</time>
      </trkpt>
      <trkpt lat="47.60259" lon="-2.98052">
        <ele>11</ele>
        <time>2023-07-19T09:10:16Z</time>
      </trkpt>
      <trkpt lat="47.60269" lon="-2.98062">
        <ele>11</ele>
        <time>2023-07-19T09:10:18Z</time>
      </trkpt>
      <trkpt lat="47.60282" lon="-2.98075">
        <ele>10.6</ele>
        <time>2023-07-19T09:10:21Z</time>
      </trkpt>
      <trkpt lat="47.60289" lon="-2.98087">
        <ele>10.2</ele>
        <time>2023-07-19T09:10:23Z</time>
      </trkpt>
      <trkpt lat="47.60302" lon="-2.98121">
        <ele>9.1</ele>
        <time>2023-07-19T09:10:27Z</time>
      </trkpt>
      <trkpt lat="47.60312" lon="-2.98181">
        <ele>8.9</ele>
        <time>2023-07-19T09:10:34Z</time>
      </trkpt>
      <trkpt lat="47.60314" lon="-2.98187">
        <ele>9.1</ele>
        <time>2023-07-19T09:10:35Z</time>
      </trkpt>
      <trkpt lat="47.60317" lon="-2.98193">
        <ele>9.4</ele>
        <time>2023-07-19T09:10:36Z</time>
      </trkpt>
      <trkpt lat="47.60325" lon="-2.9821">
        <ele>10.4</ele>
        <time>2023-07-19T09:10:39Z</time>
      </trkpt>
      <trkpt lat="47.60327" lon="-2.98216">
        <ele>10.7</ele>
        <time>2023-07-19T09:10:40Z</time>
      </trkpt>
      <trkpt lat="47.60329" lon="-2.98222">
        <ele>10.9</ele>
        <time>2023-07-19T09:10:41Z</time>
      </trkpt>
      <trkpt lat="47.60332" lon="-2.98228">
        <ele>11.1</ele>
        <time>2023-07-19T09:10:42Z</time>
      </trkpt>
      <trkpt lat="47.60334" lon="-2.98234">
        <ele>11.3</ele>
        <time>2023-07-19T09:10:43Z</time>
      </trkpt>
      <trkpt lat="47.60342" lon="-2.98241">
        <ele>11.7</ele>
        <time>2023-07-19T09:10:45Z</time>
      </trkpt>
      <trkpt lat="47.60388" lon="-2.9827">
        <ele>12.9</ele>
        <time>2023-07-19T09:10:57Z</time>
      </trkpt>
      <trkpt lat="47.60438" lon="-2.98295">
        <ele>14</ele>
        <time>2023-07-19T09:11:09Z</time>
      </trkpt>
      <trkpt lat="47.60484" lon="-2.98333">
        <ele>14.2</ele>
        <time>2023-07-19T09:11:20Z</time>
      </trkpt>
      <trkpt lat="47.60534" lon="-2.98364">
        <ele>13.1</ele>
        <time>2023-07-19T09:11:30Z</time>
      </trkpt>
      <trkpt lat="47.60581" lon="-2.98366">
        <ele>12.1</ele>
        <time>2023-07-19T09:11:38Z</time>
      </trkpt>
      <trkpt lat="47.60587" lon="-2.98367">
        <ele>11.9</ele>
        <time>2023-07-19T09:11:39Z</time>
      </trkpt>
      <trkpt lat="47.60595" lon="-2.98373">
        <ele>11.7</ele>
        <time>2023-07-19T09:11:41Z</time>
      </trkpt>
      <trkpt lat="47.60605" lon="-2.98392">
        <ele>11.1</ele>
        <time>2023-07-19T09:11:44Z</time>
      </trkpt>
      <trkpt lat="47.6061" lon="-2.98399">
        <ele>10.9</ele>
        <time>2023-07-19T09:11:45Z</time>
      </trkpt>
      <trkpt lat="47.60614" lon="-2.98406">
        <ele>10.7</ele>
        <time>2023-07-19T09:11:46Z</time>
      </trkpt>
      <trkpt lat="47.60634" lon="-2.98454">
        <ele>10.1</ele>
        <time>2023-07-19T09:11:52Z</time>
      </trkpt>
      <trkpt lat="47.60633" lon="-2.98469">
        <ele>10.1</ele>
        <time>2023-07-19T09:11:54Z</time>
      </trkpt>
      <trkpt lat="47.60625" lon="-2.98484">
        <ele>10.1</ele>
        <time>2023-07-19T09:11:56Z</time>
      </trkpt>
      <trkpt lat="47.60622" lon="-2.98499">
        <ele>10</ele>
        <time>2023-07-19T09:11:58Z</time>
      </trkpt>
      <trkpt lat="47.60627" lon="-2.98517">
        <ele>10</ele>
        <time>2023-07-19T09:12:01Z</time>
      </trkpt>
      <trkpt lat="47.60639" lon="-2.98534">
        <ele>10.1</ele>
        <time>2023-07-19T09:12:04Z</time>
      </trkpt>
      <trkpt lat="47.60648" lon="-2.98546">
        <ele>10.4</ele>
        <time>2023-07-19T09:12:06Z</time>
      </trkpt>
      <trkpt lat="47.60674" lon="-2.98586">
        <ele>12.2</ele>
        <time>2023-07-19T09:12:13Z</time>
      </trkpt>
      <trkpt lat="47.60715" lon="-2.98639">
        <ele>15.1</ele>
        <time>2023-07-19T09:12:25Z</time>
      </trkpt>
      <trkpt lat="47.60721" lon="-2.98646">
        <ele>15.4</ele>
        <time>2023-07-19T09:12:27Z</time>
      </trkpt>
      <trkpt lat="47.60733" lon="-2.98666">
        <ele>15.9</ele>
        <time>2023-07-19T09:12:32Z</time>
      </trkpt>
      <trkpt lat="47.60744" lon="-2.98685">
        <ele>16.2</ele>
        <time>2023-07-19T09:12:37Z</time>
      </trkpt>
      <trkpt lat="47.60752" lon="-2.98754">
        <ele>16.1</ele>
        <time>2023-07-19T09:12:50Z</time>
      </trkpt>
      <trkpt lat="47.60768" lon="-2.9882">
        <ele>15.5</ele>
        <time>2023-07-19T09:13:01Z</time>
      </trkpt>
      <trkpt lat="47.60779" lon="-2.98837">
        <ele>15.3</ele>
        <time>2023-07-19T09:13:04Z</time>
      </trkpt>
      <trkpt lat="47.60783" lon="-2.98842">
        <ele>15.2</ele>
        <time>2023-07-19T09:13:05Z</time>
      </trkpt>
      <trkpt lat="47.60792" lon="-2.98852">
        <ele>15.2</ele>
        <time>2023-07-19T09:13:07Z</time>
      </trkpt>
      <trkpt lat="47.60809" lon="-2.98873">
        <ele>15.1</ele>
        <time>2023-07-19T09:13:11Z</time>
      </trkpt>
      <trkpt lat="47.60826" lon="-2.98897">
        <ele>15</ele>
        <time>2023-07-19T09:13:15Z</time>
      </trkpt>
      <trkpt lat="47.60837" lon="-2.98915">
        <ele>15</ele>
        <time>2023-07-19T09:13:18Z</time>
      </trkpt>
      <trkpt lat="47.60839" lon="-2.98922">
        <ele>15</ele>
        <time>2023-07-19T09:13:19Z</time>
      </trkpt>
      <trkpt lat="47.60845" lon="-2.98938">
        <ele>15</ele>
        <time>2023-07-19T09:13:22Z</time>
      </trkpt>
      <trkpt lat="47.60875" lon="-2.98979">
        <ele>14.9</ele>
        <time>2023-07-19T09:13:31Z</time>
      </trkpt>
      <trkpt lat="47.60885" lon="-2.98996">
        <ele>14.8</ele>
        <time>2023-07-19T09:13:34Z</time>
      </trkpt>
      <trkpt lat="47.60895" lon="-2.99012">
        <ele>14.8</ele>
        <time>2023-07-19T09:13:37Z</time>
      </trkpt>
      <trkpt lat="47.60902" lon="-2.99022">
        <ele>14.8</ele>
        <time>2023-07-19T09:13:39Z</time>
      </trkpt>
      <trkpt lat="47.60912" lon="-2.99037">
        <ele>14.9</ele>
        <time>2023-07-19T09:13:42Z</time>
      </trkpt>
      <trkpt lat="47.60935" lon="-2.99076">
        <ele>14.9</ele>
        <time>2023-07-19T09:13:51Z</time>
      </trkpt>
      <trkpt lat="47.60938" lon="-2.9908">
        <ele>15</ele>
        <time>2023-07-19T09:13:52Z</time>
      </trkpt>
      <trkpt lat="47.60941" lon="-2.99085">
        <ele>15</ele>
        <time>2023-07-19T09:13:53Z</time>
      </trkpt>
      <trkpt lat="47.60944" lon="-2.99091">
        <ele>15</ele>
        <time>2023-07-19T09:13:54Z</time>
      </trkpt>
      <trkpt lat="47.60947" lon="-2.99096">
        <ele>15.1</ele>
        <time>2023-07-19T09:13:55Z</time>
      </trkpt>
      <trkpt lat="47.6095" lon="-2.99102">
        <ele>15.1</ele>
        <time>2023-07-19T09:13:56Z</time>
      </trkpt>
      <trkpt lat="47.6098" lon="-2.99168">
        <ele>15.9</ele>
        <time>2023-07-19T09:14:07Z</time>
      </trkpt>
      <trkpt lat="47.60995" lon="-2.99196">
        <ele>16.4</ele>
        <time>2023-07-19T09:14:12Z</time>
      </trkpt>
      <trkpt lat="47.61034" lon="-2.9926">
        <ele>17.3</ele>
        <time>2023-07-19T09:14:23Z</time>
      </trkpt>
      <trkpt lat="47.61042" lon="-2.99272">
        <ele>17.5</ele>
        <time>2023-07-19T09:14:25Z</time>
      </trkpt>
      <trkpt lat="47.61078" lon="-2.99335">
        <ele>17.9</ele>
        <time>2023-07-19T09:14:35Z</time>
      </trkpt>
      <trkpt lat="47.61098" lon="-2.99385">
        <ele>17.9</ele>
        <time>2023-07-19T09:14:42Z</time>
      </trkpt>
      <trkpt lat="47.611" lon="-2.99392">
        <ele>17.9</ele>
        <time>2023-07-19T09:14:43Z</time>
      </trkpt>
      <trkpt lat="47.61131" lon="-2.99466">
        <ele>17.6</ele>
        <time>2023-07-19T09:14:53Z</time>
      </trkpt>
      <trkpt lat="47.61143" lon="-2.99485">
        <ele>17.5</ele>
        <time>2023-07-19T09:14:56Z</time>
      </trkpt>
      <trkpt lat="47.61173" lon="-2.99533">
        <ele>16.8</ele>
        <time>2023-07-19T09:15:04Z</time>
      </trkpt>
      <trkpt lat="47.6118" lon="-2.99547">
        <ele>16.5</ele>
        <time>2023-07-19T09:15:06Z</time>
      </trkpt>
      <trkpt lat="47.61183" lon="-2.99556">
        <ele>16.3</ele>
        <time>2023-07-19T09:15:07Z</time>
      </trkpt>
      <trkpt lat="47.61186" lon="-2.99564">
        <ele>16</ele>
        <time>2023-07-19T09:15:08Z</time>
      </trkpt>
      <trkpt lat="47.612" lon="-2.99596">
        <ele>15.3</ele>
        <time>2023-07-19T09:15:12Z</time>
      </trkpt>
      <trkpt lat="47.61211" lon="-2.99628">
        <ele>15.3</ele>
        <time>2023-07-19T09:15:16Z</time>
      </trkpt>
      <trkpt lat="47.61218" lon="-2.99639">
        <ele>15.3</ele>
        <time>2023-07-19T09:15:18Z</time>
      </trkpt>
      <trkpt lat="47.61249" lon="-2.99667">
        <ele>15.3</ele>
        <time>2023-07-19T09:15:25Z</time>
      </trkpt>
      <trkpt lat="47.61252" lon="-2.99671">
        <ele>15.4</ele>
        <time>2023-07-19T09:15:26Z</time>
      </trkpt>
      <trkpt lat="47.61253" lon="-2.99687">
        <ele>15.4</ele>
        <time>2023-07-19T09:15:29Z</time>
      </trkpt>
      <trkpt lat="47.61251" lon="-2.99693">
        <ele>15.4</ele>
        <time>2023-07-19T09:15:30Z</time>
      </trkpt>
      <trkpt lat="47.61245" lon="-2.99715">
        <ele>15.3</ele>
        <time>2023-07-19T09:15:33Z</time>
      </trkpt>
      <trkpt lat="47.61244" lon="-2.99722">
        <ele>15.3</ele>
        <time>2023-07-19T09:15:34Z</time>
      </trkpt>
      <trkpt lat="47.61242" lon="-2.99737">
        <ele>15.3</ele>
        <time>2023-07-19T09:15:36Z</time>
      </trkpt>
      <trkpt lat="47.61241" lon="-2.99745">
        <ele>15.3</ele>
        <time>2023-07-19T09:15:37Z</time>
      </trkpt>
      <trkpt lat="47.6124" lon="-2.99752">
        <ele>15.3</ele>
        <time>2023-07-19T09:15:38Z</time>
      </trkpt>
      <trkpt lat="47.6124" lon="-2.99759">
        <ele>15.4</ele>
        <time>2023-07-19T09:15:39Z</time>
      </trkpt>
      <trkpt lat="47.61241" lon="-2.99766">
        <ele>15.4</ele>
        <time>2023-07-19T09:15:40Z</time>
      </trkpt>
      <trkpt lat="47.61243" lon="-2.99779">
        <ele>15.6</ele>
        <time>2023-07-19T09:15:42Z</time>
      </trkpt>
      <trkpt lat="47.61245" lon="-2.99786">
        <ele>15.8</ele>
        <time>2023-07-19T09:15:43Z</time>
      </trkpt>
      <trkpt lat="47.6128" lon="-2.9984">
        <ele>19.1</ele>
        <time>2023-07-19T09:15:56Z</time>
      </trkpt>
      <trkpt lat="47.61309" lon="-2.99908">
        <ele>20.9</ele>
        <time>2023-07-19T09:16:16Z</time>
      </trkpt>
      <trkpt lat="47.61322" lon="-2.9995">
        <ele>20.5</ele>
        <time>2023-07-19T09:16:22Z</time>
      </trkpt>
      <trkpt lat="47.61328" lon="-2.99966">
        <ele>20.4</ele>
        <time>2023-07-19T09:16:24Z</time>
      </trkpt>
      <trkpt lat="47.61337" lon="-2.99989">
        <ele>20.2</ele>
        <time>2023-07-19T09:16:27Z</time>
      </trkpt>
      <trkpt lat="47.61345" lon="-3.00012">
        <ele>20.2</ele>
        <time>2023-07-19T09:16:30Z</time>
      </trkpt>
      <trkpt lat="47.61364" lon="-3.00056">
        <ele>20.3</ele>
        <time>2023-07-19T09:16:36Z</time>
      </trkpt>
      <trkpt lat="47.61381" lon="-3.0009">
        <ele>20.5</ele>
        <time>2023-07-19T09:16:41Z</time>
      </trkpt>
      <trkpt lat="47.61401" lon="-3.00137">
        <ele>21</ele>
        <time>2023-07-19T09:16:51Z</time>
      </trkpt>
      <trkpt lat="47.614" lon="-3.0014">
        <ele>21</ele>
        <time>2023-07-19T09:16:56Z</time>
      </trkpt>
      <trkpt lat="47.61403" lon="-3.0014">
        <ele>21.2</ele>
        <time>2023-07-19T09:17:00Z</time>
      </trkpt>
      <trkpt lat="47.61406" lon="-3.00137">
        <ele>21.3</ele>
        <time>2023-07-19T09:17:04Z</time>
      </trkpt>
      <trkpt lat="47.61408" lon="-3.00136">
        <ele>21.4</ele>
        <time>2023-07-19T09:17:06Z</time>
      </trkpt>
      <trkpt lat="47.61422" lon="-3.00128">
        <ele>22</ele>
        <time>2023-07-19T09:17:12Z</time>
      </trkpt>
      <trkpt lat="47.61443" lon="-3.00118">
        <ele>22.7</ele>
        <time>2023-07-19T09:17:18Z</time>
      </trkpt>
      <trkpt lat="47.6148" lon="-3.00103">
        <ele>23.9</ele>
        <time>2023-07-19T09:17:27Z</time>
      </trkpt>
      <trkpt lat="47.61515" lon="-3.00092">
        <ele>25.4</ele>
        <time>2023-07-19T09:17:37Z</time>
      </trkpt>
      <trkpt lat="47.61526" lon="-3.0009">
        <ele>25.9</ele>
        <time>2023-07-19T09:17:40Z</time>
      </trkpt>
      <trkpt lat="47.6154" lon="-3.00092">
        <ele>26.6</ele>
        <time>2023-07-19T09:17:44Z</time>
      </trkpt>
      <trkpt lat="47.61557" lon="-3.00094">
        <ele>27.7</ele>
        <time>2023-07-19T09:17:48Z</time>
      </trkpt>
      <trkpt lat="47.61574" lon="-3.00097">
        <ele>28.5</ele>
        <time>2023-07-19T09:17:52Z</time>
      </trkpt>
      <trkpt lat="47.61588" lon="-3.00098">
        <ele>28.9</ele>
        <time>2023-07-19T09:17:56Z</time>
      </trkpt>
      <trkpt lat="47.61632" lon="-3.00093">
        <ele>29.3</ele>
        <time>2023-07-19T09:18:10Z</time>
      </trkpt>
      <trkpt lat="47.61662" lon="-3.00086">
        <ele>28.4</ele>
        <time>2023-07-19T09:18:18Z</time>
      </trkpt>
      <trkpt lat="47.61673" lon="-3.00071">
        <ele>27.9</ele>
        <time>2023-07-19T09:18:22Z</time>
      </trkpt>
      <trkpt lat="47.61684" lon="-3.00055">
        <ele>27.5</ele>
        <time>2023-07-19T09:18:26Z</time>
      </trkpt>
      <trkpt lat="47.61693" lon="-3.00043">
        <ele>27.2</ele>
        <time>2023-07-19T09:18:29Z</time>
      </trkpt>
      <trkpt lat="47.61701" lon="-3.00029">
        <ele>26.8</ele>
        <time>2023-07-19T09:18:32Z</time>
      </trkpt>
      <trkpt lat="47.61707" lon="-3.00023">
        <ele>26.5</ele>
        <time>2023-07-19T09:18:34Z</time>
      </trkpt>
      <trkpt lat="47.61717" lon="-3.00028">
        <ele>26.3</ele>
        <time>2023-07-19T09:18:37Z</time>
      </trkpt>
      <trkpt lat="47.61727" lon="-3.00043">
        <ele>26</ele>
        <time>2023-07-19T09:18:41Z</time>
      </trkpt>
      <trkpt lat="47.61729" lon="-3.00047">
        <ele>25.9</ele>
        <time>2023-07-19T09:18:42Z</time>
      </trkpt>
      <trkpt lat="47.6174" lon="-3.0006">
        <ele>25.6</ele>
        <time>2023-07-19T09:18:46Z</time>
      </trkpt>
      <trkpt lat="47.61744" lon="-3.00063">
        <ele>25</ele>
        <time>2023-07-19T09:18:47Z</time>
      </trkpt>
      <trkpt lat="47.61748" lon="-3.00065">
        <ele>24.8</ele>
        <time>2023-07-19T09:18:48Z</time>
      </trkpt>
      <trkpt lat="47.61761" lon="-3.00075">
        <ele>24</ele>
        <time>2023-07-19T09:18:51Z</time>
      </trkpt>
      <trkpt lat="47.61766" lon="-3.00078">
        <ele>23.7</ele>
        <time>2023-07-19T09:18:52Z</time>
      </trkpt>
      <trkpt lat="47.61771" lon="-3.00081">
        <ele>23.4</ele>
        <time>2023-07-19T09:18:53Z</time>
      </trkpt>
      <trkpt lat="47.61781" lon="-3.00088">
        <ele>22.9</ele>
        <time>2023-07-19T09:18:55Z</time>
      </trkpt>
      <trkpt lat="47.61792" lon="-3.00095">
        <ele>22.3</ele>
        <time>2023-07-19T09:18:57Z</time>
      </trkpt>
      <trkpt lat="47.6185" lon="-3.00116">
        <ele>20.2</ele>
        <time>2023-07-19T09:19:06Z</time>
      </trkpt>
      <trkpt lat="47.61857" lon="-3.00118">
        <ele>20</ele>
        <time>2023-07-19T09:19:07Z</time>
      </trkpt>
      <trkpt lat="47.61863" lon="-3.0012">
        <ele>19.9</ele>
        <time>2023-07-19T09:19:08Z</time>
      </trkpt>
      <trkpt lat="47.6187" lon="-3.00121">
        <ele>19.8</ele>
        <time>2023-07-19T09:19:09Z</time>
      </trkpt>
      <trkpt lat="47.61877" lon="-3.00123">
        <ele>19.7</ele>
        <time>2023-07-19T09:19:10Z</time>
      </trkpt>
      <trkpt lat="47.61889" lon="-3.00127">
        <ele>19.5</ele>
        <time>2023-07-19T09:19:12Z</time>
      </trkpt>
      <trkpt lat="47.61896" lon="-3.00129">
        <ele>19.4</ele>
        <time>2023-07-19T09:19:13Z</time>
      </trkpt>
      <trkpt lat="47.61902" lon="-3.00132">
        <ele>19.4</ele>
        <time>2023-07-19T09:19:14Z</time>
      </trkpt>
      <trkpt lat="47.61924" lon="-3.00138">
        <ele>19.3</ele>
        <time>2023-07-19T09:19:18Z</time>
      </trkpt>
      <trkpt lat="47.6194" lon="-3.00143">
        <ele>19.3</ele>
        <time>2023-07-19T09:19:22Z</time>
      </trkpt>
      <trkpt lat="47.61948" lon="-3.00148">
        <ele>19.2</ele>
        <time>2023-07-19T09:19:24Z</time>
      </trkpt>
      <trkpt lat="47.61963" lon="-3.00154">
        <ele>19.1</ele>
        <time>2023-07-19T09:19:27Z</time>
      </trkpt>
      <trkpt lat="47.62016" lon="-3.00155">
        <ele>19</ele>
        <time>2023-07-19T09:19:37Z</time>
      </trkpt>
      <trkpt lat="47.62022" lon="-3.00154">
        <ele>19</ele>
        <time>2023-07-19T09:19:38Z</time>
      </trkpt>
      <trkpt lat="47.62038" lon="-3.00149">
        <ele>19.1</ele>
        <time>2023-07-19T09:19:41Z</time>
      </trkpt>
      <trkpt lat="47.62072" lon="-3.00138">
        <ele>19.7</ele>
        <time>2023-07-19T09:19:48Z</time>
      </trkpt>
      <trkpt lat="47.62104" lon="-3.00138">
        <ele>20.7</ele>
        <time>2023-07-19T09:19:54Z</time>
      </trkpt>
      <trkpt lat="47.62128" lon="-3.00149">
        <ele>21.3</ele>
        <time>2023-07-19T09:19:59Z</time>
      </trkpt>
      <trkpt lat="47.62132" lon="-3.0015">
        <ele>21.3</ele>
        <time>2023-07-19T09:20:00Z</time>
      </trkpt>
      <trkpt lat="47.62137" lon="-3.0015">
        <ele>21.4</ele>
        <time>2023-07-19T09:20:01Z</time>
      </trkpt>
      <trkpt lat="47.62147" lon="-3.00151">
        <ele>21.6</ele>
        <time>2023-07-19T09:20:03Z</time>
      </trkpt>
      <trkpt lat="47.62152" lon="-3.00151">
        <ele>21.6</ele>
        <time>2023-07-19T09:20:04Z</time>
      </trkpt>
      <trkpt lat="47.62157" lon="-3.00151">
        <ele>21.7</ele>
        <time>2023-07-19T09:20:05Z</time>
      </trkpt>
      <trkpt lat="47.6217" lon="-3.00149">
        <ele>21.7</ele>
        <time>2023-07-19T09:20:08Z</time>
      </trkpt>
      <trkpt lat="47.6218" lon="-3.00148">
        <ele>21.7</ele>
        <time>2023-07-19T09:20:10Z</time>
      </trkpt>
      <trkpt lat="47.62188" lon="-3.00145">
        <ele>21.6</ele>
        <time>2023-07-19T09:20:12Z</time>
      </trkpt>
      <trkpt lat="47.62209" lon="-3.00134">
        <ele>21.5</ele>
        <time>2023-07-19T09:20:17Z</time>
      </trkpt>
      <trkpt lat="47.62261" lon="-3.00106">
        <ele>21.6</ele>
        <time>2023-07-19T09:20:28Z</time>
      </trkpt>
      <trkpt lat="47.62314" lon="-3.00082">
        <ele>22.7</ele>
        <time>2023-07-19T09:20:40Z</time>
      </trkpt>
      <trkpt lat="47.62332" lon="-3.0008">
        <ele>23.2</ele>
        <time>2023-07-19T09:20:44Z</time>
      </trkpt>
      <trkpt lat="47.62349" lon="-3.00081">
        <ele>23.6</ele>
        <time>2023-07-19T09:20:48Z</time>
      </trkpt>
      <trkpt lat="47.62361" lon="-3.00084">
        <ele>23.8</ele>
        <time>2023-07-19T09:20:51Z</time>
      </trkpt>
      <trkpt lat="47.62365" lon="-3.00085">
        <ele>23.9</ele>
        <time>2023-07-19T09:20:52Z</time>
      </trkpt>
      <trkpt lat="47.62369" lon="-3.00085">
        <ele>23.9</ele>
        <time>2023-07-19T09:20:53Z</time>
      </trkpt>
      <trkpt lat="47.62395" lon="-3.00089">
        <ele>24.3</ele>
        <time>2023-07-19T09:20:59Z</time>
      </trkpt>
      <trkpt lat="47.62401" lon="-3.00085">
        <ele>24.4</ele>
        <time>2023-07-19T09:21:05Z</time>
      </trkpt>
      <trkpt lat="47.62403" lon="-3.00082">
        <ele>24.4</ele>
        <time>2023-07-19T09:21:09Z</time>
      </trkpt>
      <trkpt lat="47.62404" lon="-3.00081">
        <ele>24.4</ele>
        <time>2023-07-19T09:21:10Z</time>
      </trkpt>
      <trkpt lat="47.62405" lon="-3.0008">
        <ele>24.4</ele>
        <time>2023-07-19T09:21:11Z</time>
      </trkpt>
      <trkpt lat="47.62411" lon="-3.0008">
        <ele>24.4</ele>
        <time>2023-07-19T09:21:13Z</time>
      </trkpt>
      <trkpt lat="47.62414" lon="-3.00081">
        <ele>24.4</ele>
        <time>2023-07-19T09:21:14Z</time>
      </trkpt>
      <trkpt lat="47.62468" lon="-3.00056">
        <ele>23.8</ele>
        <time>2023-07-19T09:21:29Z</time>
      </trkpt>
      <trkpt lat="47.62519" lon="-3.00025">
        <ele>23.6</ele>
        <time>2023-07-19T09:21:39Z</time>
      </trkpt>
      <trkpt lat="47.62556" lon="-2.99992">
        <ele>23.9</ele>
        <time>2023-07-19T09:21:47Z</time>
      </trkpt>
      <trkpt lat="47.6257" lon="-2.99979">
        <ele>23.9</ele>
        <time>2023-07-19T09:21:50Z</time>
      </trkpt>
      <trkpt lat="47.6258" lon="-2.99976">
        <ele>23.9</ele>
        <time>2023-07-19T09:21:52Z</time>
      </trkpt>
      <trkpt lat="47.62595" lon="-2.99977">
        <ele>24.1</ele>
        <time>2023-07-19T09:21:55Z</time>
      </trkpt>
      <trkpt lat="47.62603" lon="-2.99974">
        <ele>24.2</ele>
        <time>2023-07-19T09:21:57Z</time>
      </trkpt>
      <trkpt lat="47.62649" lon="-2.99951">
        <ele>25.2</ele>
        <time>2023-07-19T09:22:07Z</time>
      </trkpt>
      <trkpt lat="47.62658" lon="-2.99947">
        <ele>25.3</ele>
        <time>2023-07-19T09:22:09Z</time>
      </trkpt>
      <trkpt lat="47.62716" lon="-2.99942">
        <ele>26.3</ele>
        <time>2023-07-19T09:22:20Z</time>
      </trkpt>
      <trkpt lat="47.62735" lon="-2.99942">
        <ele>26.6</ele>
        <time>2023-07-19T09:22:24Z</time>
      </trkpt>
      <trkpt lat="47.62792" lon="-2.99947">
        <ele>27.9</ele>
        <time>2023-07-19T09:22:36Z</time>
      </trkpt>
      <trkpt lat="47.62848" lon="-2.99948">
        <ele>29.6</ele>
        <time>2023-07-19T09:22:49Z</time>
      </trkpt>
      <trkpt lat="47.62888" lon="-2.99942">
        <ele>31.4</ele>
        <time>2023-07-19T09:22:57Z</time>
      </trkpt>
      <trkpt lat="47.629" lon="-2.99942">
        <ele>31.7</ele>
        <time>2023-07-19T09:23:00Z</time>
      </trkpt>
      <trkpt lat="47.62922" lon="-2.99946">
        <ele>32.2</ele>
        <time>2023-07-19T09:23:05Z</time>
      </trkpt>
      <trkpt lat="47.62953" lon="-2.99954">
        <ele>32.6</ele>
        <time>2023-07-19T09:23:12Z</time>
      </trkpt>
      <trkpt lat="47.62961" lon="-2.99956">
        <ele>32.6</ele>
        <time>2023-07-19T09:23:14Z</time>
      </trkpt>
      <trkpt lat="47.63004" lon="-2.99958">
        <ele>32.3</ele>
        <time>2023-07-19T09:23:23Z</time>
      </trkpt>
      <trkpt lat="47.6306" lon="-2.99947">
        <ele>32.2</ele>
        <time>2023-07-19T09:23:34Z</time>
      </trkpt>
      <trkpt lat="47.63081" lon="-2.99952">
        <ele>32.2</ele>
        <time>2023-07-19T09:23:38Z</time>
      </trkpt>
      <trkpt lat="47.63135" lon="-2.99975">
        <ele>32.4</ele>
        <time>2023-07-19T09:23:47Z</time>
      </trkpt>
      <trkpt lat="47.63183" lon="-3">
        <ele>32.9</ele>
        <time>2023-07-19T09:23:56Z</time>
      </trkpt>
      <trkpt lat="47.63189" lon="-3.00004">
        <ele>32.9</ele>
        <time>2023-07-19T09:23:57Z</time>
      </trkpt>
      <trkpt lat="47.63205" lon="-3.00014">
        <ele>33.1</ele>
        <time>2023-07-19T09:24:00Z</time>
      </trkpt>
      <trkpt lat="47.63252" lon="-3.00054">
        <ele>33.4</ele>
        <time>2023-07-19T09:24:10Z</time>
      </trkpt>
      <trkpt lat="47.63269" lon="-3.00059">
        <ele>33.5</ele>
        <time>2023-07-19T09:24:15Z</time>
      </trkpt>
      <trkpt lat="47.63274" lon="-3.00058">
        <ele>33.6</ele>
        <time>2023-07-19T09:24:17Z</time>
      </trkpt>
      <trkpt lat="47.63275" lon="-3.0006">
        <ele>33.6</ele>
        <time>2023-07-19T09:24:18Z</time>
      </trkpt>
      <trkpt lat="47.63276" lon="-3.00063">
        <ele>33.6</ele>
        <time>2023-07-19T09:24:19Z</time>
      </trkpt>
      <trkpt lat="47.6328" lon="-3.00069">
        <ele>33.6</ele>
        <time>2023-07-19T09:24:22Z</time>
      </trkpt>
      <trkpt lat="47.63282" lon="-3.00069">
        <ele>33.7</ele>
        <time>2023-07-19T09:24:23Z</time>
      </trkpt>
      <trkpt lat="47.63317" lon="-3.00116">
        <ele>34.2</ele>
        <time>2023-07-19T09:24:36Z</time>
      </trkpt>
      <trkpt lat="47.63314" lon="-3.00136">
        <ele>34.3</ele>
        <time>2023-07-19T09:24:39Z</time>
      </trkpt>
      <trkpt lat="47.63313" lon="-3.0015">
        <ele>34.4</ele>
        <time>2023-07-19T09:24:41Z</time>
      </trkpt>
      <trkpt lat="47.6331" lon="-3.00164">
        <ele>34.5</ele>
        <time>2023-07-19T09:24:43Z</time>
      </trkpt>
      <trkpt lat="47.63308" lon="-3.0017">
        <ele>34.5</ele>
        <time>2023-07-19T09:24:44Z</time>
      </trkpt>
      <trkpt lat="47.63293" lon="-3.0021">
        <ele>34.7</ele>
        <time>2023-07-19T09:24:51Z</time>
      </trkpt>
      <trkpt lat="47.63263" lon="-3.00281">
        <ele>35.1</ele>
        <time>2023-07-19T09:25:04Z</time>
      </trkpt>
      <trkpt lat="47.63247" lon="-3.00355">
        <ele>36.3</ele>
        <time>2023-07-19T09:25:18Z</time>
      </trkpt>
      <trkpt lat="47.63234" lon="-3.00436">
        <ele>35.9</ele>
        <time>2023-07-19T09:25:32Z</time>
      </trkpt>
      <trkpt lat="47.63233" lon="-3.00443">
        <ele>35.8</ele>
        <time>2023-07-19T09:25:36Z</time>
      </trkpt>
      <trkpt lat="47.63232" lon="-3.00444">
        <ele>35.8</ele>
        <time>2023-07-19T09:25:39Z</time>
      </trkpt>
      <trkpt lat="47.63232" lon="-3.00446">
        <ele>35.8</ele>
        <time>2023-07-19T09:25:40Z</time>
      </trkpt>
      <trkpt lat="47.63228" lon="-3.0046">
        <ele>35.5</ele>
        <time>2023-07-19T09:25:44Z</time>
      </trkpt>
      <trkpt lat="47.63227" lon="-3.0048">
        <ele>35</ele>
        <time>2023-07-19T09:25:48Z</time>
      </trkpt>
      <trkpt lat="47.6325" lon="-3.00501">
        <ele>34.3</ele>
        <time>2023-07-19T09:25:55Z</time>
      </trkpt>
      <trkpt lat="47.6327" lon="-3.00514">
        <ele>33.9</ele>
        <time>2023-07-19T09:25:59Z</time>
      </trkpt>
      <trkpt lat="47.63298" lon="-3.00529">
        <ele>33.2</ele>
        <time>2023-07-19T09:26:04Z</time>
      </trkpt>
      <trkpt lat="47.63309" lon="-3.00535">
        <ele>32.8</ele>
        <time>2023-07-19T09:26:06Z</time>
      </trkpt>
      <trkpt lat="47.63334" lon="-3.00549">
        <ele>32.1</ele>
        <time>2023-07-19T09:26:10Z</time>
      </trkpt>
      <trkpt lat="47.6334" lon="-3.00552">
        <ele>31.9</ele>
        <time>2023-07-19T09:26:11Z</time>
      </trkpt>
      <trkpt lat="47.63347" lon="-3.00555">
        <ele>31.8</ele>
        <time>2023-07-19T09:26:12Z</time>
      </trkpt>
      <trkpt lat="47.63359" lon="-3.00562">
        <ele>31.5</ele>
        <time>2023-07-19T09:26:14Z</time>
      </trkpt>
      <trkpt lat="47.63393" lon="-3.00586">
        <ele>30.9</ele>
        <time>2023-07-19T09:26:19Z</time>
      </trkpt>
      <trkpt lat="47.63435" lon="-3.00637">
        <ele>30.6</ele>
        <time>2023-07-19T09:26:26Z</time>
      </trkpt>
      <trkpt lat="47.63481" lon="-3.00684">
        <ele>30.3</ele>
        <time>2023-07-19T09:26:35Z</time>
      </trkpt>
      <trkpt lat="47.63534" lon="-3.00706">
        <ele>29.9</ele>
        <time>2023-07-19T09:26:44Z</time>
      </trkpt>
      <trkpt lat="47.6354" lon="-3.00715">
        <ele>29.9</ele>
        <time>2023-07-19T09:26:46Z</time>
      </trkpt>
      <trkpt lat="47.63542" lon="-3.0073">
        <ele>29.7</ele>
        <time>2023-07-19T09:26:48Z</time>
      </trkpt>
      <trkpt lat="47.63547" lon="-3.00802">
        <ele>28.9</ele>
        <time>2023-07-19T09:26:56Z</time>
      </trkpt>
      <trkpt lat="47.63552" lon="-3.00819">
        <ele>29</ele>
        <time>2023-07-19T09:26:58Z</time>
      </trkpt>
      <trkpt lat="47.63562" lon="-3.00827">
        <ele>29.1</ele>
        <time>2023-07-19T09:27:00Z</time>
      </trkpt>
      <trkpt lat="47.63592" lon="-3.00834">
        <ele>29.5</ele>
        <time>2023-07-19T09:27:05Z</time>
      </trkpt>
      <trkpt lat="47.63633" lon="-3.00845">
        <ele>30.5</ele>
        <time>2023-07-19T09:27:12Z</time>
      </trkpt>
      <trkpt lat="47.63688" lon="-3.00851">
        <ele>31.7</ele>
        <time>2023-07-19T09:27:22Z</time>
      </trkpt>
      <trkpt lat="47.63744" lon="-3.00866">
        <ele>32.9</ele>
        <time>2023-07-19T09:27:33Z</time>
      </trkpt>
      <trkpt lat="47.63761" lon="-3.00873">
        <ele>33.2</ele>
        <time>2023-07-19T09:27:37Z</time>
      </trkpt>
      <trkpt lat="47.63767" lon="-3.0088">
        <ele>33.3</ele>
        <time>2023-07-19T09:27:39Z</time>
      </trkpt>
      <trkpt lat="47.63768" lon="-3.00893">
        <ele>33.2</ele>
        <time>2023-07-19T09:27:41Z</time>
      </trkpt>
      <trkpt lat="47.63765" lon="-3.00907">
        <ele>33.2</ele>
        <time>2023-07-19T09:27:43Z</time>
      </trkpt>
      <trkpt lat="47.63745" lon="-3.00984">
        <ele>32.9</ele>
        <time>2023-07-19T09:27:53Z</time>
      </trkpt>
      <trkpt lat="47.63739" lon="-3.01015">
        <ele>32.7</ele>
        <time>2023-07-19T09:27:57Z</time>
      </trkpt>
      <trkpt lat="47.63737" lon="-3.01053">
        <ele>32.5</ele>
        <time>2023-07-19T09:28:02Z</time>
      </trkpt>
      <trkpt lat="47.63758" lon="-3.0113">
        <ele>31.6</ele>
        <time>2023-07-19T09:28:12Z</time>
      </trkpt>
      <trkpt lat="47.63782" lon="-3.01208">
        <ele>30.6</ele>
        <time>2023-07-19T09:28:22Z</time>
      </trkpt>
      <trkpt lat="47.63785" lon="-3.01215">
        <ele>30.5</ele>
        <time>2023-07-19T09:28:23Z</time>
      </trkpt>
      <trkpt lat="47.63791" lon="-3.01229">
        <ele>30.2</ele>
        <time>2023-07-19T09:28:25Z</time>
      </trkpt>
      <trkpt lat="47.63803" lon="-3.01242">
        <ele>29.8</ele>
        <time>2023-07-19T09:28:28Z</time>
      </trkpt>
      <trkpt lat="47.63832" lon="-3.01213">
        <ele>30.1</ele>
        <time>2023-07-19T09:28:35Z</time>
      </trkpt>
      <trkpt lat="47.63852" lon="-3.01195">
        <ele>30.3</ele>
        <time>2023-07-19T09:28:40Z</time>
      </trkpt>
      <trkpt lat="47.63857" lon="-3.01192">
        <ele>30.3</ele>
        <time>2023-07-19T09:28:41Z</time>
      </trkpt>
      <trkpt lat="47.63865" lon="-3.01185">
        <ele>30.4</ele>
        <time>2023-07-19T09:28:43Z</time>
      </trkpt>
      <trkpt lat="47.63915" lon="-3.01156">
        <ele>30.7</ele>
        <time>2023-07-19T09:28:53Z</time>
      </trkpt>
      <trkpt lat="47.63967" lon="-3.01125">
        <ele>31.4</ele>
        <time>2023-07-19T09:29:03Z</time>
      </trkpt>
      <trkpt lat="47.63994" lon="-3.01109">
        <ele>31.6</ele>
        <time>2023-07-19T09:29:08Z</time>
      </trkpt>
      <trkpt lat="47.64046" lon="-3.0108">
        <ele>31.8</ele>
        <time>2023-07-19T09:29:17Z</time>
      </trkpt>
      <trkpt lat="47.64068" lon="-3.01067">
        <ele>32</ele>
        <time>2023-07-19T09:29:21Z</time>
      </trkpt>
      <trkpt lat="47.64121" lon="-3.01035">
        <ele>33</ele>
        <time>2023-07-19T09:29:31Z</time>
      </trkpt>
      <trkpt lat="47.64142" lon="-3.01023">
        <ele>33.5</ele>
        <time>2023-07-19T09:29:35Z</time>
      </trkpt>
      <trkpt lat="47.64171" lon="-3.01007">
        <ele>34.5</ele>
        <time>2023-07-19T09:29:41Z</time>
      </trkpt>
      <trkpt lat="47.64179" lon="-3.01002">
        <ele>34.8</ele>
        <time>2023-07-19T09:29:43Z</time>
      </trkpt>
      <trkpt lat="47.64187" lon="-3.00998">
        <ele>35</ele>
        <time>2023-07-19T09:29:45Z</time>
      </trkpt>
      <trkpt lat="47.64191" lon="-3.00994">
        <ele>34.9</ele>
        <time>2023-07-19T09:29:47Z</time>
      </trkpt>
      <trkpt lat="47.64197" lon="-3.00998">
        <ele>34.9</ele>
        <time>2023-07-19T09:29:49Z</time>
      </trkpt>
      <trkpt lat="47.64199" lon="-3.01015">
        <ele>34.8</ele>
        <time>2023-07-19T09:29:52Z</time>
      </trkpt>
      <trkpt lat="47.642" lon="-3.0103">
        <ele>34.6</ele>
        <time>2023-07-19T09:29:54Z</time>
      </trkpt>
      <trkpt lat="47.64204" lon="-3.01054">
        <ele>34.3</ele>
        <time>2023-07-19T09:29:57Z</time>
      </trkpt>
      <trkpt lat="47.64223" lon="-3.01136">
        <ele>33.3</ele>
        <time>2023-07-19T09:30:07Z</time>
      </trkpt>
      <trkpt lat="47.64244" lon="-3.01212">
        <ele>32.6</ele>
        <time>2023-07-19T09:30:16Z</time>
      </trkpt>
      <trkpt lat="47.64252" lon="-3.01237">
        <ele>32.3</ele>
        <time>2023-07-19T09:30:19Z</time>
      </trkpt>
      <trkpt lat="47.64255" lon="-3.01246">
        <ele>32.2</ele>
        <time>2023-07-19T09:30:20Z</time>
      </trkpt>
      <trkpt lat="47.6426" lon="-3.01262">
        <ele>32</ele>
        <time>2023-07-19T09:30:22Z</time>
      </trkpt>
      <trkpt lat="47.64263" lon="-3.0127">
        <ele>31.9</ele>
        <time>2023-07-19T09:30:23Z</time>
      </trkpt>
      <trkpt lat="47.64265" lon="-3.01279">
        <ele>31.8</ele>
        <time>2023-07-19T09:30:24Z</time>
      </trkpt>
      <trkpt lat="47.64268" lon="-3.01287">
        <ele>31.7</ele>
        <time>2023-07-19T09:30:25Z</time>
      </trkpt>
      <trkpt lat="47.6427" lon="-3.01295">
        <ele>31.6</ele>
        <time>2023-07-19T09:30:26Z</time>
      </trkpt>
      <trkpt lat="47.64273" lon="-3.01303">
        <ele>31.5</ele>
        <time>2023-07-19T09:30:27Z</time>
      </trkpt>
      <trkpt lat="47.64278" lon="-3.0132">
        <ele>31.2</ele>
        <time>2023-07-19T09:30:29Z</time>
      </trkpt>
      <trkpt lat="47.64283" lon="-3.01329">
        <ele>30.8</ele>
        <time>2023-07-19T09:30:31Z</time>
      </trkpt>
      <trkpt lat="47.6429" lon="-3.01328">
        <ele>30.5</ele>
        <time>2023-07-19T09:30:33Z</time>
      </trkpt>
      <trkpt lat="47.64304" lon="-3.01321">
        <ele>30.1</ele>
        <time>2023-07-19T09:30:36Z</time>
      </trkpt>
      <trkpt lat="47.64323" lon="-3.01308">
        <ele>29.7</ele>
        <time>2023-07-19T09:30:40Z</time>
      </trkpt>
      <trkpt lat="47.64349" lon="-3.01288">
        <ele>29.2</ele>
        <time>2023-07-19T09:30:45Z</time>
      </trkpt>
      <trkpt lat="47.64382" lon="-3.01258">
        <ele>29</ele>
        <time>2023-07-19T09:30:51Z</time>
      </trkpt>
      <trkpt lat="47.64395" lon="-3.0124">
        <ele>28.7</ele>
        <time>2023-07-19T09:30:54Z</time>
      </trkpt>
      <trkpt lat="47.6443" lon="-3.01174">
        <ele>28.2</ele>
        <time>2023-07-19T09:31:03Z</time>
      </trkpt>
      <trkpt lat="47.64462" lon="-3.01126">
        <ele>28.7</ele>
        <time>2023-07-19T09:31:10Z</time>
      </trkpt>
      <trkpt lat="47.64486" lon="-3.01089">
        <ele>29</ele>
        <time>2023-07-19T09:31:16Z</time>
      </trkpt>
      <trkpt lat="47.64518" lon="-3.01029">
        <ele>28.8</ele>
        <time>2023-07-19T09:31:25Z</time>
      </trkpt>
      <trkpt lat="47.64569" lon="-3.01058">
        <ele>27.2</ele>
        <time>2023-07-19T09:31:35Z</time>
      </trkpt>
      <trkpt lat="47.6462" lon="-3.01098">
        <ele>22</ele>
        <time>2023-07-19T09:31:43Z</time>
      </trkpt>
      <trkpt lat="47.64676" lon="-3.01116">
        <ele>17.9</ele>
        <time>2023-07-19T09:31:49Z</time>
      </trkpt>
      <trkpt lat="47.64731" lon="-3.01119">
        <ele>17.5</ele>
        <time>2023-07-19T09:31:55Z</time>
      </trkpt>
      <trkpt lat="47.64785" lon="-3.01125">
        <ele>19.1</ele>
        <time>2023-07-19T09:32:04Z</time>
      </trkpt>
      <trkpt lat="47.648" lon="-3.01129">
        <ele>19.2</ele>
        <time>2023-07-19T09:32:07Z</time>
      </trkpt>
      <trkpt lat="47.64812" lon="-3.01128">
        <ele>19.3</ele>
        <time>2023-07-19T09:32:09Z</time>
      </trkpt>
      <trkpt lat="47.6487" lon="-3.01112">
        <ele>20.4</ele>
        <time>2023-07-19T09:32:20Z</time>
      </trkpt>
      <trkpt lat="47.64888" lon="-3.01108">
        <ele>20.7</ele>
        <time>2023-07-19T09:32:26Z</time>
      </trkpt>
      <trkpt lat="47.64885" lon="-3.011">
        <ele>20.7</ele>
        <time>2023-07-19T09:32:35Z</time>
      </trkpt>
      <trkpt lat="47.64888" lon="-3.01049">
        <ele>21</ele>
        <time>2023-07-19T09:32:45Z</time>
      </trkpt>
      <trkpt lat="47.64887" lon="-3.01031">
        <ele>21</ele>
        <time>2023-07-19T09:32:48Z</time>
      </trkpt>
      <trkpt lat="47.64885" lon="-3.01019">
        <ele>20.9</ele>
        <time>2023-07-19T09:32:50Z</time>
      </trkpt>
      <trkpt lat="47.64879" lon="-3.00994">
        <ele>20.9</ele>
        <time>2023-07-19T09:32:54Z</time>
      </trkpt>
      <trkpt lat="47.64857" lon="-3.00939">
        <ele>21</ele>
        <time>2023-07-19T09:33:03Z</time>
      </trkpt>
      <trkpt lat="47.64855" lon="-3.00923">
        <ele>21</ele>
        <time>2023-07-19T09:33:05Z</time>
      </trkpt>
      <trkpt lat="47.64856" lon="-3.00888">
        <ele>20.9</ele>
        <time>2023-07-19T09:33:09Z</time>
      </trkpt>
      <trkpt lat="47.64876" lon="-3.00809">
        <ele>20.8</ele>
        <time>2023-07-19T09:33:19Z</time>
      </trkpt>
      <trkpt lat="47.64899" lon="-3.00754">
        <ele>21.3</ele>
        <time>2023-07-19T09:33:26Z</time>
      </trkpt>
      <trkpt lat="47.64909" lon="-3.00733">
        <ele>21.9</ele>
        <time>2023-07-19T09:33:29Z</time>
      </trkpt>
      <trkpt lat="47.64925" lon="-3.00705">
        <ele>22.8</ele>
        <time>2023-07-19T09:33:34Z</time>
      </trkpt>
      <trkpt lat="47.64944" lon="-3.00675">
        <ele>23.5</ele>
        <time>2023-07-19T09:33:40Z</time>
      </trkpt>
      <trkpt lat="47.64956" lon="-3.00654">
        <ele>23.8</ele>
        <time>2023-07-19T09:33:44Z</time>
      </trkpt>
      <trkpt lat="47.64964" lon="-3.0064">
        <ele>24.3</ele>
        <time>2023-07-19T09:33:47Z</time>
      </trkpt>
      <trkpt lat="47.65011" lon="-3.00598">
        <ele>28.8</ele>
        <time>2023-07-19T09:34:04Z</time>
      </trkpt>
      <trkpt lat="47.65054" lon="-3.00552">
        <ele>30</ele>
        <time>2023-07-19T09:34:18Z</time>
      </trkpt>
      <trkpt lat="47.65073" lon="-3.00548">
        <ele>30.4</ele>
        <time>2023-07-19T09:34:23Z</time>
      </trkpt>
      <trkpt lat="47.65112" lon="-3.00538">
        <ele>30.8</ele>
        <time>2023-07-19T09:34:33Z</time>
      </trkpt>
      <trkpt lat="47.65117" lon="-3.00522">
        <ele>31</ele>
        <time>2023-07-19T09:34:36Z</time>
      </trkpt>
      <trkpt lat="47.65121" lon="-3.005">
        <ele>31.3</ele>
        <time>2023-07-19T09:34:40Z</time>
      </trkpt>
      <trkpt lat="47.65126" lon="-3.00477">
        <ele>31.6</ele>
        <time>2023-07-19T09:34:44Z</time>
      </trkpt>
      <trkpt lat="47.65129" lon="-3.00456">
        <ele>31.9</ele>
        <time>2023-07-19T09:34:48Z</time>
      </trkpt>
      <trkpt lat="47.65133" lon="-3.00443">
        <ele>32</ele>
        <time>2023-07-19T09:34:51Z</time>
      </trkpt>
      <trkpt lat="47.65144" lon="-3.0043">
        <ele>32.1</ele>
        <time>2023-07-19T09:34:55Z</time>
      </trkpt>
      <trkpt lat="47.65147" lon="-3.00427">
        <ele>32.1</ele>
        <time>2023-07-19T09:34:56Z</time>
      </trkpt>
      <trkpt lat="47.65154" lon="-3.00421">
        <ele>32.1</ele>
        <time>2023-07-19T09:34:58Z</time>
      </trkpt>
      <trkpt lat="47.65157" lon="-3.00418">
        <ele>32.1</ele>
        <time>2023-07-19T09:34:59Z</time>
      </trkpt>
      <trkpt lat="47.65161" lon="-3.00415">
        <ele>32.1</ele>
        <time>2023-07-19T09:35:00Z</time>
      </trkpt>
      <trkpt lat="47.65165" lon="-3.00412">
        <ele>32.1</ele>
        <time>2023-07-19T09:35:01Z</time>
      </trkpt>
      <trkpt lat="47.6518" lon="-3.00395">
        <ele>32.1</ele>
        <time>2023-07-19T09:35:06Z</time>
      </trkpt>
      <trkpt lat="47.6518" lon="-3.00391">
        <ele>32.2</ele>
        <time>2023-07-19T09:35:07Z</time>
      </trkpt>
      <trkpt lat="47.65179" lon="-3.00383">
        <ele>32.2</ele>
        <time>2023-07-19T09:35:10Z</time>
      </trkpt>
      <trkpt lat="47.65192" lon="-3.00363">
        <ele>32.2</ele>
        <time>2023-07-19T09:35:15Z</time>
      </trkpt>
      <trkpt lat="47.65211" lon="-3.00336">
        <ele>32.1</ele>
        <time>2023-07-19T09:35:20Z</time>
      </trkpt>
      <trkpt lat="47.65222" lon="-3.00318">
        <ele>32</ele>
        <time>2023-07-19T09:35:23Z</time>
      </trkpt>
      <trkpt lat="47.6523" lon="-3.00308">
        <ele>31.9</ele>
        <time>2023-07-19T09:35:25Z</time>
      </trkpt>
      <trkpt lat="47.65242" lon="-3.00289">
        <ele>31.8</ele>
        <time>2023-07-19T09:35:28Z</time>
      </trkpt>
      <trkpt lat="47.65255" lon="-3.0027">
        <ele>31.6</ele>
        <time>2023-07-19T09:35:31Z</time>
      </trkpt>
      <trkpt lat="47.65281" lon="-3.00234">
        <ele>31.4</ele>
        <time>2023-07-19T09:35:37Z</time>
      </trkpt>
      <trkpt lat="47.65296" lon="-3.00216">
        <ele>31.2</ele>
        <time>2023-07-19T09:35:40Z</time>
      </trkpt>
      <trkpt lat="47.65318" lon="-3.00189">
        <ele>31</ele>
        <time>2023-07-19T09:35:45Z</time>
      </trkpt>
      <trkpt lat="47.65322" lon="-3.00184">
        <ele>31</ele>
        <time>2023-07-19T09:35:46Z</time>
      </trkpt>
      <trkpt lat="47.65329" lon="-3.00173">
        <ele>31</ele>
        <time>2023-07-19T09:35:48Z</time>
      </trkpt>
      <trkpt lat="47.65358" lon="-3.00135">
        <ele>30.9</ele>
        <time>2023-07-19T09:35:55Z</time>
      </trkpt>
      <trkpt lat="47.65401" lon="-3.00076">
        <ele>30.6</ele>
        <time>2023-07-19T09:36:05Z</time>
      </trkpt>
      <trkpt lat="47.65412" lon="-3.00059">
        <ele>30.6</ele>
        <time>2023-07-19T09:36:08Z</time>
      </trkpt>
      <trkpt lat="47.65412" lon="-3.00045">
        <ele>30.7</ele>
        <time>2023-07-19T09:36:10Z</time>
      </trkpt>
      <trkpt lat="47.65411" lon="-3.00032">
        <ele>30.8</ele>
        <time>2023-07-19T09:36:12Z</time>
      </trkpt>
      <trkpt lat="47.65406" lon="-3.00021">
        <ele>31.1</ele>
        <time>2023-07-19T09:36:14Z</time>
      </trkpt>
      <trkpt lat="47.65362" lon="-2.99978">
        <ele>31.9</ele>
        <time>2023-07-19T09:36:24Z</time>
      </trkpt>
      <trkpt lat="47.65361" lon="-2.99965">
        <ele>31.7</ele>
        <time>2023-07-19T09:36:26Z</time>
      </trkpt>
      <trkpt lat="47.65366" lon="-2.99951">
        <ele>31.5</ele>
        <time>2023-07-19T09:36:28Z</time>
      </trkpt>
      <trkpt lat="47.65401" lon="-2.99883">
        <ele>30.2</ele>
        <time>2023-07-19T09:36:37Z</time>
      </trkpt>
      <trkpt lat="47.65411" lon="-2.99858">
        <ele>29.8</ele>
        <time>2023-07-19T09:36:40Z</time>
      </trkpt>
      <trkpt lat="47.65419" lon="-2.9984">
        <ele>29.6</ele>
        <time>2023-07-19T09:36:42Z</time>
      </trkpt>
      <trkpt lat="47.65422" lon="-2.99831">
        <ele>29.6</ele>
        <time>2023-07-19T09:36:43Z</time>
      </trkpt>
      <trkpt lat="47.65425" lon="-2.99822">
        <ele>29.5</ele>
        <time>2023-07-19T09:36:44Z</time>
      </trkpt>
      <trkpt lat="47.65431" lon="-2.99803">
        <ele>29.4</ele>
        <time>2023-07-19T09:36:46Z</time>
      </trkpt>
      <trkpt lat="47.65435" lon="-2.99794">
        <ele>29.4</ele>
        <time>2023-07-19T09:36:47Z</time>
      </trkpt>
      <trkpt lat="47.65438" lon="-2.99785">
        <ele>29.4</ele>
        <time>2023-07-19T09:36:48Z</time>
      </trkpt>
      <trkpt lat="47.65468" lon="-2.99715">
        <ele>30.6</ele>
        <time>2023-07-19T09:36:56Z</time>
      </trkpt>
      <trkpt lat="47.65494" lon="-2.99646">
        <ele>31.8</ele>
        <time>2023-07-19T09:37:06Z</time>
      </trkpt>
      <trkpt lat="47.6552" lon="-2.99579">
        <ele>32.4</ele>
        <time>2023-07-19T09:37:17Z</time>
      </trkpt>
      <trkpt lat="47.65536" lon="-2.99548">
        <ele>33.3</ele>
        <time>2023-07-19T09:37:23Z</time>
      </trkpt>
      <trkpt lat="47.65544" lon="-2.99532">
        <ele>33.7</ele>
        <time>2023-07-19T09:37:26Z</time>
      </trkpt>
      <trkpt lat="47.65553" lon="-2.99509">
        <ele>34.1</ele>
        <time>2023-07-19T09:37:30Z</time>
      </trkpt>
      <trkpt lat="47.65574" lon="-2.99451">
        <ele>34.7</ele>
        <time>2023-07-19T09:37:40Z</time>
      </trkpt>
      <trkpt lat="47.65604" lon="-2.99382">
        <ele>34.8</ele>
        <time>2023-07-19T09:37:50Z</time>
      </trkpt>
      <trkpt lat="47.65612" lon="-2.99351">
        <ele>34.7</ele>
        <time>2023-07-19T09:37:54Z</time>
      </trkpt>
      <trkpt lat="47.65617" lon="-2.99319">
        <ele>34.3</ele>
        <time>2023-07-19T09:37:58Z</time>
      </trkpt>
      <trkpt lat="47.65618" lon="-2.99313">
        <ele>34.1</ele>
        <time>2023-07-19T09:37:59Z</time>
      </trkpt>
      <trkpt lat="47.65618" lon="-2.99308">
        <ele>34</ele>
        <time>2023-07-19T09:38:00Z</time>
      </trkpt>
      <trkpt lat="47.65619" lon="-2.99306">
        <ele>34</ele>
        <time>2023-07-19T09:38:01Z</time>
      </trkpt>
      <trkpt lat="47.65626" lon="-2.99306">
        <ele>33.8</ele>
        <time>2023-07-19T09:38:08Z</time>
      </trkpt>
      <trkpt lat="47.65638" lon="-2.99312">
        <ele>33.2</ele>
        <time>2023-07-19T09:38:14Z</time>
      </trkpt>
      <trkpt lat="47.65651" lon="-2.99364">
        <ele>32.5</ele>
        <time>2023-07-19T09:38:24Z</time>
      </trkpt>
      <trkpt lat="47.65655" lon="-2.99379">
        <ele>32.7</ele>
        <time>2023-07-19T09:38:26Z</time>
      </trkpt>
      <trkpt lat="47.65658" lon="-2.994">
        <ele>33</ele>
        <time>2023-07-19T09:38:29Z</time>
      </trkpt>
      <trkpt lat="47.65659" lon="-2.99408">
        <ele>33.1</ele>
        <time>2023-07-19T09:38:30Z</time>
      </trkpt>
      <trkpt lat="47.65665" lon="-2.99449">
        <ele>33.6</ele>
        <time>2023-07-19T09:38:35Z</time>
      </trkpt>
      <trkpt lat="47.6567" lon="-2.99504">
        <ele>34.2</ele>
        <time>2023-07-19T09:38:43Z</time>
      </trkpt>
      <trkpt lat="47.65681" lon="-2.99589">
        <ele>34.3</ele>
        <time>2023-07-19T09:38:55Z</time>
      </trkpt>
      <trkpt lat="47.65694" lon="-2.99671">
        <ele>33.7</ele>
        <time>2023-07-19T09:39:06Z</time>
      </trkpt>
      <trkpt lat="47.65701" lon="-2.99737">
        <ele>33.2</ele>
        <time>2023-07-19T09:39:14Z</time>
      </trkpt>
      <trkpt lat="47.65698" lon="-2.99789">
        <ele>33.3</ele>
        <time>2023-07-19T09:39:20Z</time>
      </trkpt>
      <trkpt lat="47.65704" lon="-2.99802">
        <ele>33.5</ele>
        <time>2023-07-19T09:39:22Z</time>
      </trkpt>
      <trkpt lat="47.65717" lon="-2.99813">
        <ele>33.8</ele>
        <time>2023-07-19T09:39:26Z</time>
      </trkpt>
      <trkpt lat="47.65766" lon="-2.99771">
        <ele>34.5</ele>
        <time>2023-07-19T09:39:39Z</time>
      </trkpt>
      <trkpt lat="47.65795" lon="-2.9975">
        <ele>34.4</ele>
        <time>2023-07-19T09:39:45Z</time>
      </trkpt>
      <trkpt lat="47.65804" lon="-2.99741">
        <ele>34.4</ele>
        <time>2023-07-19T09:39:47Z</time>
      </trkpt>
      <trkpt lat="47.65812" lon="-2.99729">
        <ele>34.3</ele>
        <time>2023-07-19T09:39:49Z</time>
      </trkpt>
      <trkpt lat="47.65813" lon="-2.99712">
        <ele>34</ele>
        <time>2023-07-19T09:39:51Z</time>
      </trkpt>
      <trkpt lat="47.65804" lon="-2.99622">
        <ele>31.5</ele>
        <time>2023-07-19T09:40:00Z</time>
      </trkpt>
      <trkpt lat="47.65795" lon="-2.99559">
        <ele>29.5</ele>
        <time>2023-07-19T09:40:05Z</time>
      </trkpt>
      <trkpt lat="47.65781" lon="-2.99469">
        <ele>28.5</ele>
        <time>2023-07-19T09:40:12Z</time>
      </trkpt>
      <trkpt lat="47.65775" lon="-2.99433">
        <ele>28.5</ele>
        <time>2023-07-19T09:40:15Z</time>
      </trkpt>
      <trkpt lat="47.65766" lon="-2.99375">
        <ele>27.3</ele>
        <time>2023-07-19T09:40:20Z</time>
      </trkpt>
      <trkpt lat="47.65765" lon="-2.99363">
        <ele>26.8</ele>
        <time>2023-07-19T09:40:21Z</time>
      </trkpt>
      <trkpt lat="47.65764" lon="-2.9935">
        <ele>26.1</ele>
        <time>2023-07-19T09:40:22Z</time>
      </trkpt>
      <trkpt lat="47.65754" lon="-2.99267">
        <ele>24</ele>
        <time>2023-07-19T09:40:28Z</time>
      </trkpt>
      <trkpt lat="47.65749" lon="-2.99232">
        <ele>23.6</ele>
        <time>2023-07-19T09:40:35Z</time>
      </trkpt>
      <trkpt lat="47.6575" lon="-2.99235">
        <ele>23.5</ele>
        <time>2023-07-19T09:40:36Z</time>
      </trkpt>
      <trkpt lat="47.65751" lon="-2.99241">
        <ele>23.5</ele>
        <time>2023-07-19T09:40:37Z</time>
      </trkpt>
      <trkpt lat="47.65752" lon="-2.99247">
        <ele>23.6</ele>
        <time>2023-07-19T09:40:38Z</time>
      </trkpt>
      <trkpt lat="47.65759" lon="-2.99293">
        <ele>24.3</ele>
        <time>2023-07-19T09:40:44Z</time>
      </trkpt>
      <trkpt lat="47.6576" lon="-2.993">
        <ele>24.3</ele>
        <time>2023-07-19T09:40:45Z</time>
      </trkpt>
      <trkpt lat="47.65762" lon="-2.99307">
        <ele>24.3</ele>
        <time>2023-07-19T09:40:46Z</time>
      </trkpt>
      <trkpt lat="47.65763" lon="-2.99313">
        <ele>24</ele>
        <time>2023-07-19T09:40:47Z</time>
      </trkpt>
      <trkpt lat="47.65765" lon="-2.99319">
        <ele>23.7</ele>
        <time>2023-07-19T09:40:48Z</time>
      </trkpt>
      <trkpt lat="47.65768" lon="-2.99322">
        <ele>23.6</ele>
        <time>2023-07-19T09:40:49Z</time>
      </trkpt>
      <trkpt lat="47.6577" lon="-2.99324">
        <ele>23.5</ele>
        <time>2023-07-19T09:40:50Z</time>
      </trkpt>
      <trkpt lat="47.65774" lon="-2.99325">
        <ele>23.3</ele>
        <time>2023-07-19T09:40:51Z</time>
      </trkpt>
      <trkpt lat="47.65784" lon="-2.99323">
        <ele>23.1</ele>
        <time>2023-07-19T09:40:53Z</time>
      </trkpt>
      <trkpt lat="47.65788" lon="-2.99323">
        <ele>23.1</ele>
        <time>2023-07-19T09:40:54Z</time>
      </trkpt>
      <trkpt lat="47.65793" lon="-2.99323">
        <ele>23</ele>
        <time>2023-07-19T09:40:55Z</time>
      </trkpt>
      <trkpt lat="47.65797" lon="-2.99325">
        <ele>23</ele>
        <time>2023-07-19T09:40:56Z</time>
      </trkpt>
      <trkpt lat="47.65801" lon="-2.99329">
        <ele>23</ele>
        <time>2023-07-19T09:40:57Z</time>
      </trkpt>
      <trkpt lat="47.6581" lon="-2.99338">
        <ele>22.9</ele>
        <time>2023-07-19T09:40:59Z</time>
      </trkpt>
      <trkpt lat="47.65814" lon="-2.99341">
        <ele>22.9</ele>
        <time>2023-07-19T09:41:00Z</time>
      </trkpt>
      <trkpt lat="47.65817" lon="-2.99344">
        <ele>22.9</ele>
        <time>2023-07-19T09:41:01Z</time>
      </trkpt>
      <trkpt lat="47.65825" lon="-2.99349">
        <ele>22.9</ele>
        <time>2023-07-19T09:41:03Z</time>
      </trkpt>
      <trkpt lat="47.65834" lon="-2.9935">
        <ele>23</ele>
        <time>2023-07-19T09:41:05Z</time>
      </trkpt>
      <trkpt lat="47.65851" lon="-2.9935">
        <ele>23.6</ele>
        <time>2023-07-19T09:41:09Z</time>
      </trkpt>
      <trkpt lat="47.65856" lon="-2.99349">
        <ele>23.8</ele>
        <time>2023-07-19T09:41:10Z</time>
      </trkpt>
      <trkpt lat="47.65859" lon="-2.99347">
        <ele>23.9</ele>
        <time>2023-07-19T09:41:11Z</time>
      </trkpt>
      <trkpt lat="47.65865" lon="-2.99344">
        <ele>24.2</ele>
        <time>2023-07-19T09:41:13Z</time>
      </trkpt>
      <trkpt lat="47.65868" lon="-2.99344">
        <ele>24.3</ele>
        <time>2023-07-19T09:41:14Z</time>
      </trkpt>
      <trkpt lat="47.65923" lon="-2.99349">
        <ele>26.2</ele>
        <time>2023-07-19T09:41:30Z</time>
      </trkpt>
      <trkpt lat="47.65931" lon="-2.99349">
        <ele>26.6</ele>
        <time>2023-07-19T09:41:32Z</time>
      </trkpt>
      <trkpt lat="47.65973" lon="-2.99346">
        <ele>28.5</ele>
        <time>2023-07-19T09:41:42Z</time>
      </trkpt>
      <trkpt lat="47.66023" lon="-2.99353">
        <ele>30.5</ele>
        <time>2023-07-19T09:41:56Z</time>
      </trkpt>
      <trkpt lat="47.66025" lon="-2.99355">
        <ele>30.5</ele>
        <time>2023-07-19T09:41:57Z</time>
      </trkpt>
      <trkpt lat="47.66026" lon="-2.99359">
        <ele>30.5</ele>
        <time>2023-07-19T09:41:58Z</time>
      </trkpt>
      <trkpt lat="47.66031" lon="-2.99397">
        <ele>30.7</ele>
        <time>2023-07-19T09:42:05Z</time>
      </trkpt>
      <trkpt lat="47.66032" lon="-2.99411">
        <ele>31</ele>
        <time>2023-07-19T09:42:09Z</time>
      </trkpt>
      <trkpt lat="47.66036" lon="-2.99411">
        <ele>31.1</ele>
        <time>2023-07-19T09:42:11Z</time>
      </trkpt>
      <trkpt lat="47.66052" lon="-2.99413">
        <ele>31.7</ele>
        <time>2023-07-19T09:42:18Z</time>
      </trkpt>
      <trkpt lat="47.66078" lon="-2.99426">
        <ele>32.8</ele>
        <time>2023-07-19T09:42:26Z</time>
      </trkpt>
      <trkpt lat="47.66086" lon="-2.99433">
        <ele>33.2</ele>
        <time>2023-07-19T09:42:29Z</time>
      </trkpt>
      <trkpt lat="47.66131" lon="-2.99479">
        <ele>35.5</ele>
        <time>2023-07-19T09:42:44Z</time>
      </trkpt>
      <trkpt lat="47.66158" lon="-2.99457">
        <ele>36.2</ele>
        <time>2023-07-19T09:42:58Z</time>
      </trkpt>
      <trkpt lat="47.66162" lon="-2.99445">
        <ele>36</ele>
        <time>2023-07-19T09:43:01Z</time>
      </trkpt>
      <trkpt lat="47.66174" lon="-2.99427">
        <ele>35.8</ele>
        <time>2023-07-19T09:43:06Z</time>
      </trkpt>
      <trkpt lat="47.66183" lon="-2.99417">
        <ele>35.5</ele>
        <time>2023-07-19T09:43:11Z</time>
      </trkpt>
      <trkpt lat="47.66185" lon="-2.99408">
        <ele>35.5</ele>
        <time>2023-07-19T09:43:15Z</time>
      </trkpt>
      <trkpt lat="47.66185" lon="-2.99409">
        <ele>35.4</ele>
        <time>2023-07-19T09:43:24Z</time>
      </trkpt>
      <trkpt lat="47.66186" lon="-2.9941">
        <ele>35.4</ele>
        <time>2023-07-19T09:43:39Z</time>
      </trkpt>
      <trkpt lat="47.66192" lon="-2.99413">
        <ele>35.3</ele>
        <time>2023-07-19T09:43:46Z</time>
      </trkpt>
      <trkpt lat="47.66194" lon="-2.99416">
        <ele>35.3</ele>
        <time>2023-07-19T09:43:49Z</time>
      </trkpt>
      <trkpt lat="47.66195" lon="-2.99417">
        <ele>35.3</ele>
        <time>2023-07-19T09:43:56Z</time>
      </trkpt>
      <trkpt lat="47.66195" lon="-2.99416">
        <ele>35.2</ele>
        <time>2023-07-19T09:43:58Z</time>
      </trkpt>
      <trkpt lat="47.66197" lon="-2.99417">
        <ele>35.2</ele>
        <time>2023-07-19T09:44:09Z</time>
      </trkpt>
      <trkpt lat="47.66202" lon="-2.99414">
        <ele>35.1</ele>
        <time>2023-07-19T09:44:12Z</time>
      </trkpt>
      <trkpt lat="47.66205" lon="-2.99394">
        <ele>34.2</ele>
        <time>2023-07-19T09:44:16Z</time>
      </trkpt>
      <trkpt lat="47.66203" lon="-2.99333">
        <ele>32.4</ele>
        <time>2023-07-19T09:44:24Z</time>
      </trkpt>
      <trkpt lat="47.66197" lon="-2.9928">
        <ele>31.3</ele>
        <time>2023-07-19T09:44:30Z</time>
      </trkpt>
      <trkpt lat="47.66191" lon="-2.99266">
        <ele>31</ele>
        <time>2023-07-19T09:44:32Z</time>
      </trkpt>
      <trkpt lat="47.66184" lon="-2.99256">
        <ele>30.6</ele>
        <time>2023-07-19T09:44:34Z</time>
      </trkpt>
      <trkpt lat="47.66176" lon="-2.99253">
        <ele>30.7</ele>
        <time>2023-07-19T09:44:36Z</time>
      </trkpt>
      <trkpt lat="47.66166" lon="-2.99256">
        <ele>31.1</ele>
        <time>2023-07-19T09:44:38Z</time>
      </trkpt>
      <trkpt lat="47.66119" lon="-2.9928">
        <ele>32.1</ele>
        <time>2023-07-19T09:44:48Z</time>
      </trkpt>
      <trkpt lat="47.66115" lon="-2.99282">
        <ele>32.2</ele>
        <time>2023-07-19T09:44:49Z</time>
      </trkpt>
      <trkpt lat="47.66112" lon="-2.99284">
        <ele>32.2</ele>
        <time>2023-07-19T09:44:50Z</time>
      </trkpt>
      <trkpt lat="47.66109" lon="-2.99287">
        <ele>32.3</ele>
        <time>2023-07-19T09:44:51Z</time>
      </trkpt>
      <trkpt lat="47.66101" lon="-2.99291">
        <ele>32.4</ele>
        <time>2023-07-19T09:44:53Z</time>
      </trkpt>
      <trkpt lat="47.66093" lon="-2.99289">
        <ele>32.5</ele>
        <time>2023-07-19T09:44:56Z</time>
      </trkpt>
      <trkpt lat="47.6609" lon="-2.99287">
        <ele>32.5</ele>
        <time>2023-07-19T09:44:57Z</time>
      </trkpt>
      <trkpt lat="47.66087" lon="-2.99286">
        <ele>32.5</ele>
        <time>2023-07-19T09:44:58Z</time>
      </trkpt>
      <trkpt lat="47.66083" lon="-2.99286">
        <ele>32.5</ele>
        <time>2023-07-19T09:44:59Z</time>
      </trkpt>
      <trkpt lat="47.6608" lon="-2.99287">
        <ele>32.6</ele>
        <time>2023-07-19T09:45:00Z</time>
      </trkpt>
      <trkpt lat="47.66077" lon="-2.99289">
        <ele>32.6</ele>
        <time>2023-07-19T09:45:01Z</time>
      </trkpt>
      <trkpt lat="47.66054" lon="-2.99293">
        <ele>32</ele>
        <time>2023-07-19T09:45:07Z</time>
      </trkpt>
      <trkpt lat="47.66049" lon="-2.99294">
        <ele>31.9</ele>
        <time>2023-07-19T09:45:08Z</time>
      </trkpt>
      <trkpt lat="47.66046" lon="-2.99295">
        <ele>31.8</ele>
        <time>2023-07-19T09:45:09Z</time>
      </trkpt>
      <trkpt lat="47.66027" lon="-2.99293">
        <ele>31.3</ele>
        <time>2023-07-19T09:45:16Z</time>
      </trkpt>
      <trkpt lat="47.66025" lon="-2.99283">
        <ele>31.4</ele>
        <time>2023-07-19T09:45:18Z</time>
      </trkpt>
      <trkpt lat="47.66025" lon="-2.99277">
        <ele>31.4</ele>
        <time>2023-07-19T09:45:19Z</time>
      </trkpt>
      <trkpt lat="47.66024" lon="-2.99271">
        <ele>31.5</ele>
        <time>2023-07-19T09:45:20Z</time>
      </trkpt>
      <trkpt lat="47.66022" lon="-2.99249">
        <ele>31.4</ele>
        <time>2023-07-19T09:45:23Z</time>
      </trkpt>
      <trkpt lat="47.66021" lon="-2.99233">
        <ele>31.2</ele>
        <time>2023-07-19T09:45:25Z</time>
      </trkpt>
      <trkpt lat="47.66019" lon="-2.99218">
        <ele>30.9</ele>
        <time>2023-07-19T09:45:27Z</time>
      </trkpt>
      <trkpt lat="47.66018" lon="-2.9921">
        <ele>30.7</ele>
        <time>2023-07-19T09:45:28Z</time>
      </trkpt>
      <trkpt lat="47.66016" lon="-2.99202">
        <ele>30.5</ele>
        <time>2023-07-19T09:45:29Z</time>
      </trkpt>
      <trkpt lat="47.66014" lon="-2.99185">
        <ele>30</ele>
        <time>2023-07-19T09:45:31Z</time>
      </trkpt>
      <trkpt lat="47.66012" lon="-2.99177">
        <ele>29.7</ele>
        <time>2023-07-19T09:45:32Z</time>
      </trkpt>
      <trkpt lat="47.66011" lon="-2.99168">
        <ele>29.4</ele>
        <time>2023-07-19T09:45:33Z</time>
      </trkpt>
      <trkpt lat="47.66007" lon="-2.9914">
        <ele>28.1</ele>
        <time>2023-07-19T09:45:36Z</time>
      </trkpt>
      <trkpt lat="47.66007" lon="-2.9913">
        <ele>27.6</ele>
        <time>2023-07-19T09:45:37Z</time>
      </trkpt>
      <trkpt lat="47.66007" lon="-2.99107">
        <ele>26.5</ele>
        <time>2023-07-19T09:45:39Z</time>
      </trkpt>
      <trkpt lat="47.66007" lon="-2.99071">
        <ele>24.5</ele>
        <time>2023-07-19T09:45:42Z</time>
      </trkpt>
      <trkpt lat="47.66007" lon="-2.99045">
        <ele>23.1</ele>
        <time>2023-07-19T09:45:44Z</time>
      </trkpt>
      <trkpt lat="47.66007" lon="-2.99006">
        <ele>21.1</ele>
        <time>2023-07-19T09:45:47Z</time>
      </trkpt>
      <trkpt lat="47.66006" lon="-2.98951">
        <ele>19.1</ele>
        <time>2023-07-19T09:45:53Z</time>
      </trkpt>
      <trkpt lat="47.66011" lon="-2.98947">
        <ele>18.8</ele>
        <time>2023-07-19T09:45:55Z</time>
      </trkpt>
      <trkpt lat="47.66023" lon="-2.98953">
        <ele>18.2</ele>
        <time>2023-07-19T09:45:58Z</time>
      </trkpt>
      <trkpt lat="47.66039" lon="-2.98956">
        <ele>16.8</ele>
        <time>2023-07-19T09:46:01Z</time>
      </trkpt>
      <trkpt lat="47.66051" lon="-2.98952">
        <ele>15.7</ele>
        <time>2023-07-19T09:46:03Z</time>
      </trkpt>
      <trkpt lat="47.66087" lon="-2.98935">
        <ele>12.2</ele>
        <time>2023-07-19T09:46:08Z</time>
      </trkpt>
      <trkpt lat="47.66141" lon="-2.989">
        <ele>8.5</ele>
        <time>2023-07-19T09:46:17Z</time>
      </trkpt>
      <trkpt lat="47.66161" lon="-2.9888">
        <ele>8.3</ele>
        <time>2023-07-19T09:46:21Z</time>
      </trkpt>
      <trkpt lat="47.66188" lon="-2.98855">
        <ele>9.3</ele>
        <time>2023-07-19T09:46:28Z</time>
      </trkpt>
      <trkpt lat="47.66233" lon="-2.98813">
        <ele>14.3</ele>
        <time>2023-07-19T09:46:49Z</time>
      </trkpt>
      <trkpt lat="47.66255" lon="-2.98813">
        <ele>16.8</ele>
        <time>2023-07-19T09:46:56Z</time>
      </trkpt>
      <trkpt lat="47.66269" lon="-2.98812">
        <ele>17.2</ele>
        <time>2023-07-19T09:47:01Z</time>
      </trkpt>
      <trkpt lat="47.66281" lon="-2.98807">
        <ele>18.5</ele>
        <time>2023-07-19T09:47:06Z</time>
      </trkpt>
      <trkpt lat="47.66299" lon="-2.98801">
        <ele>20.3</ele>
        <time>2023-07-19T09:47:14Z</time>
      </trkpt>
      <trkpt lat="47.66302" lon="-2.98801">
        <ele>20.5</ele>
        <time>2023-07-19T09:47:15Z</time>
      </trkpt>
      <trkpt lat="47.66307" lon="-2.988">
        <ele>20.9</ele>
        <time>2023-07-19T09:47:17Z</time>
      </trkpt>
      <trkpt lat="47.66343" lon="-2.98787">
        <ele>23.3</ele>
        <time>2023-07-19T09:47:32Z</time>
      </trkpt>
      <trkpt lat="47.66347" lon="-2.98776">
        <ele>24.1</ele>
        <time>2023-07-19T09:47:36Z</time>
      </trkpt>
      <trkpt lat="47.66347" lon="-2.98772">
        <ele>24.2</ele>
        <time>2023-07-19T09:47:37Z</time>
      </trkpt>
      <trkpt lat="47.66346" lon="-2.98766">
        <ele>24.4</ele>
        <time>2023-07-19T09:47:39Z</time>
      </trkpt>
      <trkpt lat="47.66345" lon="-2.98762">
        <ele>24.4</ele>
        <time>2023-07-19T09:47:40Z</time>
      </trkpt>
      <trkpt lat="47.66342" lon="-2.9874">
        <ele>25.2</ele>
        <time>2023-07-19T09:47:46Z</time>
      </trkpt>
      <trkpt lat="47.66338" lon="-2.98691">
        <ele>27.5</ele>
        <time>2023-07-19T09:47:58Z</time>
      </trkpt>
      <trkpt lat="47.66337" lon="-2.98637">
        <ele>29.9</ele>
        <time>2023-07-19T09:48:11Z</time>
      </trkpt>
      <trkpt lat="47.66345" lon="-2.98603">
        <ele>31.3</ele>
        <time>2023-07-19T09:48:20Z</time>
      </trkpt>
      <trkpt lat="47.66362" lon="-2.98551">
        <ele>33.7</ele>
        <time>2023-07-19T09:48:33Z</time>
      </trkpt>
      <trkpt lat="47.66369" lon="-2.98537">
        <ele>34.4</ele>
        <time>2023-07-19T09:48:37Z</time>
      </trkpt>
      <trkpt lat="47.66378" lon="-2.98518">
        <ele>35.3</ele>
        <time>2023-07-19T09:48:42Z</time>
      </trkpt>
      <trkpt lat="47.66388" lon="-2.98479">
        <ele>36.4</ele>
        <time>2023-07-19T09:48:52Z</time>
      </trkpt>
      <trkpt lat="47.66387" lon="-2.9845">
        <ele>37</ele>
        <time>2023-07-19T09:48:58Z</time>
      </trkpt>
      <trkpt lat="47.66396" lon="-2.98406">
        <ele>37.9</ele>
        <time>2023-07-19T09:49:08Z</time>
      </trkpt>
      <trkpt lat="47.66396" lon="-2.98401">
        <ele>38</ele>
        <time>2023-07-19T09:49:10Z</time>
      </trkpt>
      <trkpt lat="47.66394" lon="-2.98396">
        <ele>38.1</ele>
        <time>2023-07-19T09:49:17Z</time>
      </trkpt>
      <trkpt lat="47.66394" lon="-2.98395">
        <ele>38.1</ele>
        <time>2023-07-19T09:49:19Z</time>
      </trkpt>
      <trkpt lat="47.66394" lon="-2.98395">
        <ele>38.1</ele>
        <time>2023-07-19T09:49:27Z</time>
      </trkpt>
      <trkpt lat="47.66393" lon="-2.98396">
        <ele>38.1</ele>
        <time>2023-07-19T09:49:30Z</time>
      </trkpt>
      <trkpt lat="47.66386" lon="-2.98395">
        <ele>38.3</ele>
        <time>2023-07-19T09:49:33Z</time>
      </trkpt>
      <trkpt lat="47.6638" lon="-2.98395">
        <ele>38.4</ele>
        <time>2023-07-19T09:49:35Z</time>
      </trkpt>
      <trkpt lat="47.66362" lon="-2.98383">
        <ele>38.5</ele>
        <time>2023-07-19T09:49:40Z</time>
      </trkpt>
      <trkpt lat="47.66346" lon="-2.98366">
        <ele>40.7</ele>
        <time>2023-07-19T09:49:45Z</time>
      </trkpt>
      <trkpt lat="47.66325" lon="-2.98315">
        <ele>44.2</ele>
        <time>2023-07-19T09:49:53Z</time>
      </trkpt>
      <trkpt lat="47.66325" lon="-2.98299">
        <ele>44.8</ele>
        <time>2023-07-19T09:49:55Z</time>
      </trkpt>
      <trkpt lat="47.6634" lon="-2.98266">
        <ele>44.2</ele>
        <time>2023-07-19T09:50:02Z</time>
      </trkpt>
      <trkpt lat="47.66366" lon="-2.98299">
        <ele>42.2</ele>
        <time>2023-07-19T09:50:11Z</time>
      </trkpt>
      <trkpt lat="47.6638" lon="-2.9833">
        <ele>40.3</ele>
        <time>2023-07-19T09:50:17Z</time>
      </trkpt>
      <trkpt lat="47.66398" lon="-2.9834">
        <ele>39.8</ele>
        <time>2023-07-19T09:50:21Z</time>
      </trkpt>
      <trkpt lat="47.66399" lon="-2.98385">
        <ele>38</ele>
        <time>2023-07-19T09:50:29Z</time>
      </trkpt>
      <trkpt lat="47.664" lon="-2.98389">
        <ele>38</ele>
        <time>2023-07-19T09:50:30Z</time>
      </trkpt>
      <trkpt lat="47.66404" lon="-2.98392">
        <ele>37.8</ele>
        <time>2023-07-19T09:50:32Z</time>
      </trkpt>
      <trkpt lat="47.66414" lon="-2.98387">
        <ele>37.8</ele>
        <time>2023-07-19T09:50:35Z</time>
      </trkpt>
      <trkpt lat="47.66422" lon="-2.98379">
        <ele>37.9</ele>
        <time>2023-07-19T09:50:37Z</time>
      </trkpt>
      <trkpt lat="47.66456" lon="-2.98326">
        <ele>37.6</ele>
        <time>2023-07-19T09:50:47Z</time>
      </trkpt>
      <trkpt lat="47.66495" lon="-2.98261">
        <ele>35.2</ele>
        <time>2023-07-19T09:50:59Z</time>
      </trkpt>
      <trkpt lat="47.66549" lon="-2.98233">
        <ele>32.3</ele>
        <time>2023-07-19T09:51:11Z</time>
      </trkpt>
      <trkpt lat="47.66599" lon="-2.98233">
        <ele>29.8</ele>
        <time>2023-07-19T09:51:18Z</time>
      </trkpt>
      <trkpt lat="47.66605" lon="-2.98235">
        <ele>29.6</ele>
        <time>2023-07-19T09:51:19Z</time>
      </trkpt>
      <trkpt lat="47.66611" lon="-2.98238">
        <ele>29.4</ele>
        <time>2023-07-19T09:51:20Z</time>
      </trkpt>
      <trkpt lat="47.66621" lon="-2.98251">
        <ele>29.3</ele>
        <time>2023-07-19T09:51:22Z</time>
      </trkpt>
      <trkpt lat="47.66633" lon="-2.98265">
        <ele>29.1</ele>
        <time>2023-07-19T09:51:25Z</time>
      </trkpt>
      <trkpt lat="47.66642" lon="-2.98259">
        <ele>28.8</ele>
        <time>2023-07-19T09:51:27Z</time>
      </trkpt>
      <trkpt lat="47.66654" lon="-2.98238">
        <ele>28.1</ele>
        <time>2023-07-19T09:51:30Z</time>
      </trkpt>
      <trkpt lat="47.66657" lon="-2.98231">
        <ele>27.9</ele>
        <time>2023-07-19T09:51:31Z</time>
      </trkpt>
      <trkpt lat="47.66661" lon="-2.98223">
        <ele>27.6</ele>
        <time>2023-07-19T09:51:32Z</time>
      </trkpt>
      <trkpt lat="47.66673" lon="-2.98197">
        <ele>26.7</ele>
        <time>2023-07-19T09:51:35Z</time>
      </trkpt>
      <trkpt lat="47.66677" lon="-2.98188">
        <ele>26.4</ele>
        <time>2023-07-19T09:51:36Z</time>
      </trkpt>
      <trkpt lat="47.66681" lon="-2.98179">
        <ele>26</ele>
        <time>2023-07-19T09:51:37Z</time>
      </trkpt>
      <trkpt lat="47.66689" lon="-2.9816">
        <ele>25.4</ele>
        <time>2023-07-19T09:51:39Z</time>
      </trkpt>
      <trkpt lat="47.66694" lon="-2.98151">
        <ele>25</ele>
        <time>2023-07-19T09:51:40Z</time>
      </trkpt>
      <trkpt lat="47.66698" lon="-2.98141">
        <ele>24.7</ele>
        <time>2023-07-19T09:51:41Z</time>
      </trkpt>
      <trkpt lat="47.66703" lon="-2.98131">
        <ele>24.3</ele>
        <time>2023-07-19T09:51:42Z</time>
      </trkpt>
      <trkpt lat="47.66714" lon="-2.98111">
        <ele>23.7</ele>
        <time>2023-07-19T09:51:44Z</time>
      </trkpt>
      <trkpt lat="47.6672" lon="-2.98102">
        <ele>23.3</ele>
        <time>2023-07-19T09:51:45Z</time>
      </trkpt>
      <trkpt lat="47.66746" lon="-2.98052">
        <ele>21.7</ele>
        <time>2023-07-19T09:51:50Z</time>
      </trkpt>
      <trkpt lat="47.66751" lon="-2.98042">
        <ele>21.4</ele>
        <time>2023-07-19T09:51:51Z</time>
      </trkpt>
      <trkpt lat="47.66765" lon="-2.98013">
        <ele>20.9</ele>
        <time>2023-07-19T09:51:54Z</time>
      </trkpt>
      <trkpt lat="47.6677" lon="-2.98003">
        <ele>20.7</ele>
        <time>2023-07-19T09:51:55Z</time>
      </trkpt>
      <trkpt lat="47.66775" lon="-2.97993">
        <ele>20.5</ele>
        <time>2023-07-19T09:51:56Z</time>
      </trkpt>
      <trkpt lat="47.66784" lon="-2.97973">
        <ele>20.1</ele>
        <time>2023-07-19T09:51:58Z</time>
      </trkpt>
      <trkpt lat="47.66817" lon="-2.97901">
        <ele>17.8</ele>
        <time>2023-07-19T09:52:05Z</time>
      </trkpt>
      <trkpt lat="47.66821" lon="-2.9789">
        <ele>17.5</ele>
        <time>2023-07-19T09:52:06Z</time>
      </trkpt>
      <trkpt lat="47.6683" lon="-2.97868">
        <ele>16.8</ele>
        <time>2023-07-19T09:52:08Z</time>
      </trkpt>
      <trkpt lat="47.66835" lon="-2.97857">
        <ele>16.5</ele>
        <time>2023-07-19T09:52:09Z</time>
      </trkpt>
      <trkpt lat="47.66839" lon="-2.97846">
        <ele>16.1</ele>
        <time>2023-07-19T09:52:10Z</time>
      </trkpt>
      <trkpt lat="47.66843" lon="-2.97835">
        <ele>15.7</ele>
        <time>2023-07-19T09:52:11Z</time>
      </trkpt>
      <trkpt lat="47.66847" lon="-2.97823">
        <ele>15.4</ele>
        <time>2023-07-19T09:52:12Z</time>
      </trkpt>
      <trkpt lat="47.66852" lon="-2.97813">
        <ele>15</ele>
        <time>2023-07-19T09:52:13Z</time>
      </trkpt>
      <trkpt lat="47.66855" lon="-2.97801">
        <ele>14.6</ele>
        <time>2023-07-19T09:52:14Z</time>
      </trkpt>
      <trkpt lat="47.66865" lon="-2.97767">
        <ele>13.7</ele>
        <time>2023-07-19T09:52:17Z</time>
      </trkpt>
      <trkpt lat="47.66878" lon="-2.97677">
        <ele>11.4</ele>
        <time>2023-07-19T09:52:24Z</time>
      </trkpt>
      <trkpt lat="47.66878" lon="-2.97664">
        <ele>11.2</ele>
        <time>2023-07-19T09:52:25Z</time>
      </trkpt>
      <trkpt lat="47.66878" lon="-2.97575">
        <ele>9.4</ele>
        <time>2023-07-19T09:52:32Z</time>
      </trkpt>
      <trkpt lat="47.66873" lon="-2.97525">
        <ele>8.8</ele>
        <time>2023-07-19T09:52:36Z</time>
      </trkpt>
      <trkpt lat="47.66858" lon="-2.97475">
        <ele>7.9</ele>
        <time>2023-07-19T09:52:41Z</time>
      </trkpt>
      <trkpt lat="47.66858" lon="-2.97461">
        <ele>7.8</ele>
        <time>2023-07-19T09:52:43Z</time>
      </trkpt>
      <trkpt lat="47.66867" lon="-2.97434">
        <ele>7.6</ele>
        <time>2023-07-19T09:52:47Z</time>
      </trkpt>
      <trkpt lat="47.66864" lon="-2.97419">
        <ele>7.5</ele>
        <time>2023-07-19T09:52:49Z</time>
      </trkpt>
      <trkpt lat="47.66848" lon="-2.97357">
        <ele>6.8</ele>
        <time>2023-07-19T09:52:56Z</time>
      </trkpt>
      <trkpt lat="47.66834" lon="-2.97323">
        <ele>7</ele>
        <time>2023-07-19T09:53:00Z</time>
      </trkpt>
      <trkpt lat="47.66799" lon="-2.9725">
        <ele>7.1</ele>
        <time>2023-07-19T09:53:09Z</time>
      </trkpt>
      <trkpt lat="47.66762" lon="-2.97192">
        <ele>7.4</ele>
        <time>2023-07-19T09:53:17Z</time>
      </trkpt>
      <trkpt lat="47.66758" lon="-2.97185">
        <ele>7.4</ele>
        <time>2023-07-19T09:53:18Z</time>
      </trkpt>
      <trkpt lat="47.66754" lon="-2.97177">
        <ele>7.5</ele>
        <time>2023-07-19T09:53:19Z</time>
      </trkpt>
      <trkpt lat="47.6675" lon="-2.9717">
        <ele>7.6</ele>
        <time>2023-07-19T09:53:20Z</time>
      </trkpt>
      <trkpt lat="47.66747" lon="-2.97162">
        <ele>7.7</ele>
        <time>2023-07-19T09:53:21Z</time>
      </trkpt>
      <trkpt lat="47.66732" lon="-2.97133">
        <ele>7.8</ele>
        <time>2023-07-19T09:53:25Z</time>
      </trkpt>
      <trkpt lat="47.66708" lon="-2.97084">
        <ele>8</ele>
        <time>2023-07-19T09:53:31Z</time>
      </trkpt>
      <trkpt lat="47.66688" lon="-2.97036">
        <ele>8.5</ele>
        <time>2023-07-19T09:53:37Z</time>
      </trkpt>
      <trkpt lat="47.66673" lon="-2.96978">
        <ele>9.5</ele>
        <time>2023-07-19T09:53:46Z</time>
      </trkpt>
      <trkpt lat="47.66673" lon="-2.9697">
        <ele>9.7</ele>
        <time>2023-07-19T09:53:48Z</time>
      </trkpt>
      <trkpt lat="47.66668" lon="-2.96961">
        <ele>9.9</ele>
        <time>2023-07-19T09:53:52Z</time>
      </trkpt>
      <trkpt lat="47.66666" lon="-2.96957">
        <ele>9.9</ele>
        <time>2023-07-19T09:53:53Z</time>
      </trkpt>
      <trkpt lat="47.66662" lon="-2.96957">
        <ele>9.8</ele>
        <time>2023-07-19T09:53:54Z</time>
      </trkpt>
      <trkpt lat="47.66652" lon="-2.96953">
        <ele>10.1</ele>
        <time>2023-07-19T09:53:57Z</time>
      </trkpt>
      <trkpt lat="47.66647" lon="-2.96935">
        <ele>10.5</ele>
        <time>2023-07-19T09:54:00Z</time>
      </trkpt>
      <trkpt lat="47.66643" lon="-2.96916">
        <ele>11</ele>
        <time>2023-07-19T09:54:03Z</time>
      </trkpt>
      <trkpt lat="47.66637" lon="-2.96895">
        <ele>11.5</ele>
        <time>2023-07-19T09:54:06Z</time>
      </trkpt>
      <trkpt lat="47.66628" lon="-2.96838">
        <ele>13.5</ele>
        <time>2023-07-19T09:54:14Z</time>
      </trkpt>
      <trkpt lat="47.66626" lon="-2.96806">
        <ele>14.6</ele>
        <time>2023-07-19T09:54:19Z</time>
      </trkpt>
      <trkpt lat="47.66604" lon="-2.96734">
        <ele>16.1</ele>
        <time>2023-07-19T09:54:32Z</time>
      </trkpt>
      <trkpt lat="47.66596" lon="-2.9673">
        <ele>16</ele>
        <time>2023-07-19T09:54:34Z</time>
      </trkpt>
      <trkpt lat="47.66585" lon="-2.9673">
        <ele>15.9</ele>
        <time>2023-07-19T09:54:36Z</time>
      </trkpt>
      <trkpt lat="47.6658" lon="-2.96731">
        <ele>15.8</ele>
        <time>2023-07-19T09:54:37Z</time>
      </trkpt>
      <trkpt lat="47.66574" lon="-2.96731">
        <ele>15.8</ele>
        <time>2023-07-19T09:54:38Z</time>
      </trkpt>
      <trkpt lat="47.66519" lon="-2.96734">
        <ele>15.5</ele>
        <time>2023-07-19T09:54:47Z</time>
      </trkpt>
      <trkpt lat="47.66465" lon="-2.9672">
        <ele>15.9</ele>
        <time>2023-07-19T09:54:56Z</time>
      </trkpt>
      <trkpt lat="47.66427" lon="-2.96706">
        <ele>16.5</ele>
        <time>2023-07-19T09:55:03Z</time>
      </trkpt>
      <trkpt lat="47.66416" lon="-2.96703">
        <ele>16.7</ele>
        <time>2023-07-19T09:55:05Z</time>
      </trkpt>
      <trkpt lat="47.66405" lon="-2.96698">
        <ele>16.9</ele>
        <time>2023-07-19T09:55:07Z</time>
      </trkpt>
      <trkpt lat="47.66388" lon="-2.96692">
        <ele>17.2</ele>
        <time>2023-07-19T09:55:10Z</time>
      </trkpt>
      <trkpt lat="47.66378" lon="-2.96688">
        <ele>17.4</ele>
        <time>2023-07-19T09:55:12Z</time>
      </trkpt>
      <trkpt lat="47.66362" lon="-2.96683">
        <ele>17.7</ele>
        <time>2023-07-19T09:55:15Z</time>
      </trkpt>
      <trkpt lat="47.66357" lon="-2.96681">
        <ele>17.8</ele>
        <time>2023-07-19T09:55:16Z</time>
      </trkpt>
      <trkpt lat="47.66352" lon="-2.96678">
        <ele>18</ele>
        <time>2023-07-19T09:55:17Z</time>
      </trkpt>
      <trkpt lat="47.66347" lon="-2.96676">
        <ele>18.1</ele>
        <time>2023-07-19T09:55:18Z</time>
      </trkpt>
      <trkpt lat="47.66342" lon="-2.96674">
        <ele>18.2</ele>
        <time>2023-07-19T09:55:19Z</time>
      </trkpt>
      <trkpt lat="47.66305" lon="-2.96656">
        <ele>19</ele>
        <time>2023-07-19T09:55:26Z</time>
      </trkpt>
      <trkpt lat="47.66295" lon="-2.96651">
        <ele>19.2</ele>
        <time>2023-07-19T09:55:28Z</time>
      </trkpt>
      <trkpt lat="47.6624" lon="-2.96624">
        <ele>21.3</ele>
        <time>2023-07-19T09:55:40Z</time>
      </trkpt>
      <trkpt lat="47.66185" lon="-2.96597">
        <ele>23.8</ele>
        <time>2023-07-19T09:55:53Z</time>
      </trkpt>
      <trkpt lat="47.66155" lon="-2.96581">
        <ele>25.1</ele>
        <time>2023-07-19T09:56:01Z</time>
      </trkpt>
      <trkpt lat="47.66101" lon="-2.96556">
        <ele>27.2</ele>
        <time>2023-07-19T09:56:15Z</time>
      </trkpt>
      <trkpt lat="47.66089" lon="-2.96551">
        <ele>27.7</ele>
        <time>2023-07-19T09:56:18Z</time>
      </trkpt>
      <trkpt lat="47.66086" lon="-2.96549">
        <ele>27.8</ele>
        <time>2023-07-19T09:56:19Z</time>
      </trkpt>
      <trkpt lat="47.66075" lon="-2.96544">
        <ele>28.3</ele>
        <time>2023-07-19T09:56:22Z</time>
      </trkpt>
      <trkpt lat="47.6606" lon="-2.96535">
        <ele>28.9</ele>
        <time>2023-07-19T09:56:26Z</time>
      </trkpt>
      <trkpt lat="47.66009" lon="-2.96537">
        <ele>31.1</ele>
        <time>2023-07-19T09:56:40Z</time>
      </trkpt>
      <trkpt lat="47.65998" lon="-2.96521">
        <ele>31.3</ele>
        <time>2023-07-19T09:56:45Z</time>
      </trkpt>
      <trkpt lat="47.65987" lon="-2.96513">
        <ele>31.3</ele>
        <time>2023-07-19T09:56:48Z</time>
      </trkpt>
      <trkpt lat="47.65974" lon="-2.96504">
        <ele>31.3</ele>
        <time>2023-07-19T09:56:51Z</time>
      </trkpt>
      <trkpt lat="47.65926" lon="-2.96464">
        <ele>30.9</ele>
        <time>2023-07-19T09:57:01Z</time>
      </trkpt>
      <trkpt lat="47.65875" lon="-2.96427">
        <ele>29.8</ele>
        <time>2023-07-19T09:57:10Z</time>
      </trkpt>
      <trkpt lat="47.65846" lon="-2.96405">
        <ele>29.3</ele>
        <time>2023-07-19T09:57:15Z</time>
      </trkpt>
      <trkpt lat="47.6584" lon="-2.96403">
        <ele>29.2</ele>
        <time>2023-07-19T09:57:16Z</time>
      </trkpt>
      <trkpt lat="47.65829" lon="-2.96403">
        <ele>29.2</ele>
        <time>2023-07-19T09:57:18Z</time>
      </trkpt>
      <trkpt lat="47.65819" lon="-2.96396">
        <ele>29.1</ele>
        <time>2023-07-19T09:57:20Z</time>
      </trkpt>
      <trkpt lat="47.65813" lon="-2.96383">
        <ele>29.1</ele>
        <time>2023-07-19T09:57:22Z</time>
      </trkpt>
      <trkpt lat="47.65808" lon="-2.96378">
        <ele>29.1</ele>
        <time>2023-07-19T09:57:23Z</time>
      </trkpt>
      <trkpt lat="47.65792" lon="-2.96366">
        <ele>29.1</ele>
        <time>2023-07-19T09:57:26Z</time>
      </trkpt>
      <trkpt lat="47.65787" lon="-2.96362">
        <ele>29.1</ele>
        <time>2023-07-19T09:57:27Z</time>
      </trkpt>
      <trkpt lat="47.6575" lon="-2.96334">
        <ele>29.5</ele>
        <time>2023-07-19T09:57:34Z</time>
      </trkpt>
      <trkpt lat="47.65745" lon="-2.9633">
        <ele>29.6</ele>
        <time>2023-07-19T09:57:35Z</time>
      </trkpt>
      <trkpt lat="47.65739" lon="-2.96326">
        <ele>29.6</ele>
        <time>2023-07-19T09:57:36Z</time>
      </trkpt>
      <trkpt lat="47.65729" lon="-2.96319">
        <ele>29.8</ele>
        <time>2023-07-19T09:57:38Z</time>
      </trkpt>
      <trkpt lat="47.65714" lon="-2.96308">
        <ele>30</ele>
        <time>2023-07-19T09:57:41Z</time>
      </trkpt>
      <trkpt lat="47.65708" lon="-2.96304">
        <ele>30.1</ele>
        <time>2023-07-19T09:57:42Z</time>
      </trkpt>
      <trkpt lat="47.65689" lon="-2.96289">
        <ele>30.5</ele>
        <time>2023-07-19T09:57:46Z</time>
      </trkpt>
      <trkpt lat="47.65684" lon="-2.96285">
        <ele>30.6</ele>
        <time>2023-07-19T09:57:47Z</time>
      </trkpt>
      <trkpt lat="47.65679" lon="-2.96281">
        <ele>30.7</ele>
        <time>2023-07-19T09:57:48Z</time>
      </trkpt>
      <trkpt lat="47.65674" lon="-2.96277">
        <ele>30.8</ele>
        <time>2023-07-19T09:57:49Z</time>
      </trkpt>
      <trkpt lat="47.6567" lon="-2.96274">
        <ele>30.9</ele>
        <time>2023-07-19T09:57:50Z</time>
      </trkpt>
      <trkpt lat="47.65665" lon="-2.9627">
        <ele>31</ele>
        <time>2023-07-19T09:57:51Z</time>
      </trkpt>
      <trkpt lat="47.65642" lon="-2.96253">
        <ele>31.5</ele>
        <time>2023-07-19T09:57:56Z</time>
      </trkpt>
      <trkpt lat="47.65614" lon="-2.96233">
        <ele>31.9</ele>
        <time>2023-07-19T09:58:02Z</time>
      </trkpt>
      <trkpt lat="47.65562" lon="-2.962">
        <ele>32.7</ele>
        <time>2023-07-19T09:58:13Z</time>
      </trkpt>
      <trkpt lat="47.65506" lon="-2.96178">
        <ele>33.5</ele>
        <time>2023-07-19T09:58:24Z</time>
      </trkpt>
      <trkpt lat="47.65501" lon="-2.96177">
        <ele>33.5</ele>
        <time>2023-07-19T09:58:25Z</time>
      </trkpt>
      <trkpt lat="47.65451" lon="-2.96166">
        <ele>33.7</ele>
        <time>2023-07-19T09:58:34Z</time>
      </trkpt>
      <trkpt lat="47.65393" lon="-2.96167">
        <ele>33.6</ele>
        <time>2023-07-19T09:58:44Z</time>
      </trkpt>
      <trkpt lat="47.65349" lon="-2.96168">
        <ele>33.3</ele>
        <time>2023-07-19T09:58:51Z</time>
      </trkpt>
      <trkpt lat="47.65336" lon="-2.96169">
        <ele>33.2</ele>
        <time>2023-07-19T09:58:53Z</time>
      </trkpt>
      <trkpt lat="47.65329" lon="-2.96169">
        <ele>33.1</ele>
        <time>2023-07-19T09:58:54Z</time>
      </trkpt>
      <trkpt lat="47.65323" lon="-2.96169">
        <ele>33.1</ele>
        <time>2023-07-19T09:58:55Z</time>
      </trkpt>
      <trkpt lat="47.65316" lon="-2.96168">
        <ele>33</ele>
        <time>2023-07-19T09:58:56Z</time>
      </trkpt>
      <trkpt lat="47.65309" lon="-2.96169">
        <ele>33</ele>
        <time>2023-07-19T09:58:57Z</time>
      </trkpt>
      <trkpt lat="47.65303" lon="-2.96169">
        <ele>32.9</ele>
        <time>2023-07-19T09:58:58Z</time>
      </trkpt>
      <trkpt lat="47.65276" lon="-2.9617">
        <ele>32.7</ele>
        <time>2023-07-19T09:59:02Z</time>
      </trkpt>
      <trkpt lat="47.65248" lon="-2.96171">
        <ele>32.3</ele>
        <time>2023-07-19T09:59:06Z</time>
      </trkpt>
      <trkpt lat="47.65229" lon="-2.96171">
        <ele>32.1</ele>
        <time>2023-07-19T09:59:09Z</time>
      </trkpt>
      <trkpt lat="47.65175" lon="-2.96172">
        <ele>31.6</ele>
        <time>2023-07-19T09:59:17Z</time>
      </trkpt>
      <trkpt lat="47.65135" lon="-2.96173">
        <ele>31.3</ele>
        <time>2023-07-19T09:59:23Z</time>
      </trkpt>
      <trkpt lat="47.65128" lon="-2.96173">
        <ele>31.3</ele>
        <time>2023-07-19T09:59:24Z</time>
      </trkpt>
      <trkpt lat="47.65108" lon="-2.96172">
        <ele>31.1</ele>
        <time>2023-07-19T09:59:27Z</time>
      </trkpt>
      <trkpt lat="47.65101" lon="-2.96172">
        <ele>31</ele>
        <time>2023-07-19T09:59:28Z</time>
      </trkpt>
      <trkpt lat="47.65087" lon="-2.96171">
        <ele>30.9</ele>
        <time>2023-07-19T09:59:30Z</time>
      </trkpt>
      <trkpt lat="47.65034" lon="-2.96162">
        <ele>30.1</ele>
        <time>2023-07-19T09:59:38Z</time>
      </trkpt>
      <trkpt lat="47.64974" lon="-2.96152">
        <ele>29.1</ele>
        <time>2023-07-19T09:59:47Z</time>
      </trkpt>
      <trkpt lat="47.64919" lon="-2.96141">
        <ele>28</ele>
        <time>2023-07-19T09:59:55Z</time>
      </trkpt>
      <trkpt lat="47.64862" lon="-2.96129">
        <ele>26.6</ele>
        <time>2023-07-19T10:00:03Z</time>
      </trkpt>
      <trkpt lat="47.64805" lon="-2.96126">
        <ele>25.4</ele>
        <time>2023-07-19T10:00:11Z</time>
      </trkpt>
      <trkpt lat="47.64776" lon="-2.96129">
        <ele>24.7</ele>
        <time>2023-07-19T10:00:15Z</time>
      </trkpt>
      <trkpt lat="47.64718" lon="-2.96142">
        <ele>23.5</ele>
        <time>2023-07-19T10:00:23Z</time>
      </trkpt>
      <trkpt lat="47.64659" lon="-2.96164">
        <ele>22.3</ele>
        <time>2023-07-19T10:00:31Z</time>
      </trkpt>
      <trkpt lat="47.64601" lon="-2.96187">
        <ele>21.6</ele>
        <time>2023-07-19T10:00:39Z</time>
      </trkpt>
      <trkpt lat="47.64544" lon="-2.96208">
        <ele>21.2</ele>
        <time>2023-07-19T10:00:47Z</time>
      </trkpt>
      <trkpt lat="47.64485" lon="-2.96226">
        <ele>21.2</ele>
        <time>2023-07-19T10:00:56Z</time>
      </trkpt>
      <trkpt lat="47.64435" lon="-2.9623">
        <ele>21.6</ele>
        <time>2023-07-19T10:01:04Z</time>
      </trkpt>
      <trkpt lat="47.64377" lon="-2.9622">
        <ele>22.2</ele>
        <time>2023-07-19T10:01:14Z</time>
      </trkpt>
      <trkpt lat="47.64355" lon="-2.96214">
        <ele>22.5</ele>
        <time>2023-07-19T10:01:18Z</time>
      </trkpt>
      <trkpt lat="47.64324" lon="-2.96205">
        <ele>22.8</ele>
        <time>2023-07-19T10:01:24Z</time>
      </trkpt>
      <trkpt lat="47.64286" lon="-2.96178">
        <ele>23.1</ele>
        <time>2023-07-19T10:01:32Z</time>
      </trkpt>
      <trkpt lat="47.64237" lon="-2.96135">
        <ele>23.8</ele>
        <time>2023-07-19T10:01:42Z</time>
      </trkpt>
      <trkpt lat="47.642" lon="-2.96095">
        <ele>24.3</ele>
        <time>2023-07-19T10:01:50Z</time>
      </trkpt>
      <trkpt lat="47.64154" lon="-2.96042">
        <ele>24.8</ele>
        <time>2023-07-19T10:02:00Z</time>
      </trkpt>
      <trkpt lat="47.64107" lon="-2.95987">
        <ele>25.3</ele>
        <time>2023-07-19T10:02:11Z</time>
      </trkpt>
      <trkpt lat="47.64062" lon="-2.95933">
        <ele>26.1</ele>
        <time>2023-07-19T10:02:22Z</time>
      </trkpt>
      <trkpt lat="47.64012" lon="-2.95899">
        <ele>25.9</ele>
        <time>2023-07-19T10:02:34Z</time>
      </trkpt>
      <trkpt lat="47.63993" lon="-2.95892">
        <ele>25.3</ele>
        <time>2023-07-19T10:02:38Z</time>
      </trkpt>
      <trkpt lat="47.63985" lon="-2.95884">
        <ele>24.9</ele>
        <time>2023-07-19T10:02:40Z</time>
      </trkpt>
      <trkpt lat="47.63977" lon="-2.95872">
        <ele>24.4</ele>
        <time>2023-07-19T10:02:42Z</time>
      </trkpt>
      <trkpt lat="47.63968" lon="-2.95856">
        <ele>23.7</ele>
        <time>2023-07-19T10:02:44Z</time>
      </trkpt>
      <trkpt lat="47.63959" lon="-2.95829">
        <ele>22.8</ele>
        <time>2023-07-19T10:02:47Z</time>
      </trkpt>
      <trkpt lat="47.63956" lon="-2.95809">
        <ele>22</ele>
        <time>2023-07-19T10:02:49Z</time>
      </trkpt>
      <trkpt lat="47.63958" lon="-2.95787">
        <ele>21.3</ele>
        <time>2023-07-19T10:02:51Z</time>
      </trkpt>
      <trkpt lat="47.63964" lon="-2.95745">
        <ele>20.3</ele>
        <time>2023-07-19T10:02:55Z</time>
      </trkpt>
      <trkpt lat="47.6397" lon="-2.95708">
        <ele>19.3</ele>
        <time>2023-07-19T10:02:59Z</time>
      </trkpt>
      <trkpt lat="47.63985" lon="-2.95656">
        <ele>17.6</ele>
        <time>2023-07-19T10:03:04Z</time>
      </trkpt>
      <trkpt lat="47.63995" lon="-2.95622">
        <ele>16.5</ele>
        <time>2023-07-19T10:03:07Z</time>
      </trkpt>
      <trkpt lat="47.64018" lon="-2.95534">
        <ele>13.8</ele>
        <time>2023-07-19T10:03:14Z</time>
      </trkpt>
      <trkpt lat="47.64022" lon="-2.95522">
        <ele>13.6</ele>
        <time>2023-07-19T10:03:15Z</time>
      </trkpt>
      <trkpt lat="47.64035" lon="-2.95495">
        <ele>13.2</ele>
        <time>2023-07-19T10:03:18Z</time>
      </trkpt>
      <trkpt lat="47.64079" lon="-2.95443">
        <ele>12.3</ele>
        <time>2023-07-19T10:03:27Z</time>
      </trkpt>
      <trkpt lat="47.64091" lon="-2.95362">
        <ele>12</ele>
        <time>2023-07-19T10:03:45Z</time>
      </trkpt>
      <trkpt lat="47.6409" lon="-2.95353">
        <ele>12</ele>
        <time>2023-07-19T10:04:17Z</time>
      </trkpt>
      <trkpt lat="47.6409" lon="-2.95353">
        <ele>12</ele>
        <time>2023-07-19T10:04:40Z</time>
      </trkpt>
      <trkpt lat="47.6409" lon="-2.95353">
        <ele>12</ele>
        <time>2023-07-19T10:04:45Z</time>
      </trkpt>
      <trkpt lat="47.6409" lon="-2.95353">
        <ele>12</ele>
        <time>2023-07-19T10:04:51Z</time>
      </trkpt>
      <trkpt lat="47.6409" lon="-2.95353">
        <ele>12</ele>
        <time>2023-07-19T10:04:53Z</time>
      </trkpt>
      <trkpt lat="47.64091" lon="-2.95346">
        <ele>12</ele>
        <time>2023-07-19T10:05:27Z</time>
      </trkpt>
      <trkpt lat="47.64092" lon="-2.95343">
        <ele>12</ele>
        <time>2023-07-19T10:05:31Z</time>
      </trkpt>
      <trkpt lat="47.64092" lon="-2.9534">
        <ele>12</ele>
        <time>2023-07-19T10:05:38Z</time>
      </trkpt>
      <trkpt lat="47.64092" lon="-2.95339">
        <ele>12</ele>
        <time>2023-07-19T10:05:47Z</time>
      </trkpt>
      <trkpt lat="47.64092" lon="-2.95334">
        <ele>12</ele>
        <time>2023-07-19T10:05:51Z</time>
      </trkpt>
      <trkpt lat="47.64097" lon="-2.953">
        <ele>11.9</ele>
        <time>2023-07-19T10:06:00Z</time>
      </trkpt>
      <trkpt lat="47.6413" lon="-2.95244">
        <ele>13.2</ele>
        <time>2023-07-19T10:06:17Z</time>
      </trkpt>
      <trkpt lat="47.64139" lon="-2.95208">
        <ele>14.3</ele>
        <time>2023-07-19T10:06:24Z</time>
      </trkpt>
      <trkpt lat="47.64143" lon="-2.95191">
        <ele>14.7</ele>
        <time>2023-07-19T10:06:27Z</time>
      </trkpt>
      <trkpt lat="47.64143" lon="-2.95185">
        <ele>14.7</ele>
        <time>2023-07-19T10:06:28Z</time>
      </trkpt>
      <trkpt lat="47.64144" lon="-2.95179">
        <ele>14.8</ele>
        <time>2023-07-19T10:06:29Z</time>
      </trkpt>
      <trkpt lat="47.64145" lon="-2.95172">
        <ele>14.9</ele>
        <time>2023-07-19T10:06:30Z</time>
      </trkpt>
      <trkpt lat="47.64148" lon="-2.95159">
        <ele>15</ele>
        <time>2023-07-19T10:06:32Z</time>
      </trkpt>
      <trkpt lat="47.64158" lon="-2.95108">
        <ele>15.4</ele>
        <time>2023-07-19T10:06:40Z</time>
      </trkpt>
      <trkpt lat="47.64171" lon="-2.95078">
        <ele>16</ele>
        <time>2023-07-19T10:06:48Z</time>
      </trkpt>
      <trkpt lat="47.64177" lon="-2.95073">
        <ele>16.3</ele>
        <time>2023-07-19T10:06:50Z</time>
      </trkpt>
      <trkpt lat="47.64186" lon="-2.95062">
        <ele>16.8</ele>
        <time>2023-07-19T10:06:53Z</time>
      </trkpt>
      <trkpt lat="47.64198" lon="-2.95051">
        <ele>17.9</ele>
        <time>2023-07-19T10:06:57Z</time>
      </trkpt>
      <trkpt lat="47.64208" lon="-2.95042">
        <ele>18.9</ele>
        <time>2023-07-19T10:07:01Z</time>
      </trkpt>
      <trkpt lat="47.64211" lon="-2.95039">
        <ele>19.2</ele>
        <time>2023-07-19T10:07:03Z</time>
      </trkpt>
      <trkpt lat="47.64213" lon="-2.95037">
        <ele>19.4</ele>
        <time>2023-07-19T10:07:04Z</time>
      </trkpt>
      <trkpt lat="47.64251" lon="-2.94977">
        <ele>23.5</ele>
        <time>2023-07-19T10:07:26Z</time>
      </trkpt>
      <trkpt lat="47.64261" lon="-2.94943">
        <ele>24.5</ele>
        <time>2023-07-19T10:07:35Z</time>
      </trkpt>
      <trkpt lat="47.64264" lon="-2.94931">
        <ele>24.7</ele>
        <time>2023-07-19T10:07:38Z</time>
      </trkpt>
      <trkpt lat="47.643" lon="-2.94867">
        <ele>25.7</ele>
        <time>2023-07-19T10:07:55Z</time>
      </trkpt>
      <trkpt lat="47.64325" lon="-2.9483">
        <ele>26.1</ele>
        <time>2023-07-19T10:08:05Z</time>
      </trkpt>
      <trkpt lat="47.64349" lon="-2.94795">
        <ele>26.5</ele>
        <time>2023-07-19T10:08:14Z</time>
      </trkpt>
      <trkpt lat="47.64365" lon="-2.94771">
        <ele>26.6</ele>
        <time>2023-07-19T10:08:22Z</time>
      </trkpt>
      <trkpt lat="47.64365" lon="-2.94775">
        <ele>26.6</ele>
        <time>2023-07-19T10:08:25Z</time>
      </trkpt>
      <trkpt lat="47.64355" lon="-2.94778">
        <ele>26.3</ele>
        <time>2023-07-19T10:08:29Z</time>
      </trkpt>
      <trkpt lat="47.64353" lon="-2.94775">
        <ele>26.3</ele>
        <time>2023-07-19T10:08:30Z</time>
      </trkpt>
      <trkpt lat="47.6434" lon="-2.94745">
        <ele>26.2</ele>
        <time>2023-07-19T10:08:35Z</time>
      </trkpt>
      <trkpt lat="47.64338" lon="-2.94738">
        <ele>26.2</ele>
        <time>2023-07-19T10:08:36Z</time>
      </trkpt>
      <trkpt lat="47.6433" lon="-2.94718">
        <ele>25.9</ele>
        <time>2023-07-19T10:08:39Z</time>
      </trkpt>
      <trkpt lat="47.643" lon="-2.94646">
        <ele>24.1</ele>
        <time>2023-07-19T10:08:50Z</time>
      </trkpt>
      <trkpt lat="47.64294" lon="-2.94632">
        <ele>23.5</ele>
        <time>2023-07-19T10:08:53Z</time>
      </trkpt>
      <trkpt lat="47.64277" lon="-2.94641">
        <ele>23.3</ele>
        <time>2023-07-19T10:08:58Z</time>
      </trkpt>
      <trkpt lat="47.64257" lon="-2.94672">
        <ele>22.8</ele>
        <time>2023-07-19T10:09:06Z</time>
      </trkpt>
      <trkpt lat="47.64218" lon="-2.94723">
        <ele>22.8</ele>
        <time>2023-07-19T10:09:18Z</time>
      </trkpt>
      <trkpt lat="47.64207" lon="-2.94738">
        <ele>22.8</ele>
        <time>2023-07-19T10:09:23Z</time>
      </trkpt>
      <trkpt lat="47.64208" lon="-2.94732">
        <ele>22.8</ele>
        <time>2023-07-19T10:09:26Z</time>
      </trkpt>
      <trkpt lat="47.64215" lon="-2.94722">
        <ele>22.8</ele>
        <time>2023-07-19T10:09:29Z</time>
      </trkpt>
      <trkpt lat="47.64218" lon="-2.94718">
        <ele>22.7</ele>
        <time>2023-07-19T10:09:30Z</time>
      </trkpt>
      <trkpt lat="47.64239" lon="-2.94688">
        <ele>22.7</ele>
        <time>2023-07-19T10:09:36Z</time>
      </trkpt>
      <trkpt lat="47.64283" lon="-2.94641">
        <ele>23.3</ele>
        <time>2023-07-19T10:09:47Z</time>
      </trkpt>
      <trkpt lat="47.64325" lon="-2.94605">
        <ele>24.1</ele>
        <time>2023-07-19T10:09:57Z</time>
      </trkpt>
      <trkpt lat="47.64353" lon="-2.94579">
        <ele>24.9</ele>
        <time>2023-07-19T10:10:05Z</time>
      </trkpt>
      <trkpt lat="47.64354" lon="-2.94568">
        <ele>24.7</ele>
        <time>2023-07-19T10:10:07Z</time>
      </trkpt>
      <trkpt lat="47.64347" lon="-2.94481">
        <ele>22.8</ele>
        <time>2023-07-19T10:10:18Z</time>
      </trkpt>
      <trkpt lat="47.64342" lon="-2.94454">
        <ele>22.2</ele>
        <time>2023-07-19T10:10:21Z</time>
      </trkpt>
      <trkpt lat="47.64331" lon="-2.94418">
        <ele>21.1</ele>
        <time>2023-07-19T10:10:25Z</time>
      </trkpt>
      <trkpt lat="47.64295" lon="-2.94354">
        <ele>19.7</ele>
        <time>2023-07-19T10:10:33Z</time>
      </trkpt>
      <trkpt lat="47.64291" lon="-2.94346">
        <ele>19.7</ele>
        <time>2023-07-19T10:10:34Z</time>
      </trkpt>
      <trkpt lat="47.64287" lon="-2.94329">
        <ele>19.7</ele>
        <time>2023-07-19T10:10:36Z</time>
      </trkpt>
      <trkpt lat="47.64277" lon="-2.94259">
        <ele>20.1</ele>
        <time>2023-07-19T10:10:45Z</time>
      </trkpt>
      <trkpt lat="47.64271" lon="-2.94234">
        <ele>20.2</ele>
        <time>2023-07-19T10:10:49Z</time>
      </trkpt>
      <trkpt lat="47.64269" lon="-2.9422">
        <ele>20.3</ele>
        <time>2023-07-19T10:10:52Z</time>
      </trkpt>
      <trkpt lat="47.64269" lon="-2.94219">
        <ele>20.3</ele>
        <time>2023-07-19T10:10:55Z</time>
      </trkpt>
      <trkpt lat="47.64269" lon="-2.94219">
        <ele>20.3</ele>
        <time>2023-07-19T11:34:35Z</time>
      </trkpt>
      <trkpt lat="47.64269" lon="-2.94219">
        <ele>20.3</ele>
        <time>2023-07-19T11:34:36Z</time>
      </trkpt>
      <trkpt lat="47.64269" lon="-2.94219">
        <ele>20.3</ele>
        <time>2023-07-19T11:34:37Z</time>
      </trkpt>
      <trkpt lat="47.64269" lon="-2.94219">
        <ele>20.3</ele>
        <time>2023-07-19T11:34:41Z</time>
      </trkpt>
      <trkpt lat="47.64269" lon="-2.94219">
        <ele>20.3</ele>
        <time>2023-07-19T11:34:42Z</time>
      </trkpt>
      <trkpt lat="47.64293" lon="-2.94209">
        <ele>20.5</ele>
        <time>2023-07-19T11:34:48Z</time>
      </trkpt>
      <trkpt lat="47.64255" lon="-2.94144">
        <ele>20.5</ele>
        <time>2023-07-19T11:35:04Z</time>
      </trkpt>
      <trkpt lat="47.64231" lon="-2.94067">
        <ele>20.4</ele>
        <time>2023-07-19T11:35:16Z</time>
      </trkpt>
      <trkpt lat="47.64215" lon="-2.94035">
        <ele>20.2</ele>
        <time>2023-07-19T11:35:21Z</time>
      </trkpt>
      <trkpt lat="47.64206" lon="-2.94021">
        <ele>20.3</ele>
        <time>2023-07-19T11:35:24Z</time>
      </trkpt>
      <trkpt lat="47.64205" lon="-2.94016">
        <ele>20.3</ele>
        <time>2023-07-19T11:35:25Z</time>
      </trkpt>
      <trkpt lat="47.64207" lon="-2.9401">
        <ele>20.4</ele>
        <time>2023-07-19T11:35:26Z</time>
      </trkpt>
      <trkpt lat="47.64209" lon="-2.94005">
        <ele>20.5</ele>
        <time>2023-07-19T11:35:27Z</time>
      </trkpt>
      <trkpt lat="47.64212" lon="-2.93999">
        <ele>20.6</ele>
        <time>2023-07-19T11:35:28Z</time>
      </trkpt>
      <trkpt lat="47.64214" lon="-2.93994">
        <ele>20.7</ele>
        <time>2023-07-19T11:35:29Z</time>
      </trkpt>
      <trkpt lat="47.64218" lon="-2.9399">
        <ele>20.8</ele>
        <time>2023-07-19T11:35:30Z</time>
      </trkpt>
      <trkpt lat="47.64225" lon="-2.9398">
        <ele>21</ele>
        <time>2023-07-19T11:35:32Z</time>
      </trkpt>
      <trkpt lat="47.64239" lon="-2.93959">
        <ele>21.4</ele>
        <time>2023-07-19T11:35:36Z</time>
      </trkpt>
      <trkpt lat="47.64243" lon="-2.93954">
        <ele>21.4</ele>
        <time>2023-07-19T11:35:37Z</time>
      </trkpt>
      <trkpt lat="47.64268" lon="-2.93919">
        <ele>21.8</ele>
        <time>2023-07-19T11:35:44Z</time>
      </trkpt>
      <trkpt lat="47.64276" lon="-2.93909">
        <ele>21.9</ele>
        <time>2023-07-19T11:35:46Z</time>
      </trkpt>
      <trkpt lat="47.64285" lon="-2.93899">
        <ele>22</ele>
        <time>2023-07-19T11:35:48Z</time>
      </trkpt>
      <trkpt lat="47.64294" lon="-2.9389">
        <ele>22.1</ele>
        <time>2023-07-19T11:35:50Z</time>
      </trkpt>
      <trkpt lat="47.64314" lon="-2.93866">
        <ele>22.5</ele>
        <time>2023-07-19T11:35:55Z</time>
      </trkpt>
      <trkpt lat="47.64321" lon="-2.93856">
        <ele>22.7</ele>
        <time>2023-07-19T11:35:57Z</time>
      </trkpt>
      <trkpt lat="47.64332" lon="-2.9384">
        <ele>22.9</ele>
        <time>2023-07-19T11:36:00Z</time>
      </trkpt>
      <trkpt lat="47.64351" lon="-2.93815">
        <ele>23.1</ele>
        <time>2023-07-19T11:36:05Z</time>
      </trkpt>
      <trkpt lat="47.64386" lon="-2.93779">
        <ele>22.7</ele>
        <time>2023-07-19T11:36:13Z</time>
      </trkpt>
      <trkpt lat="47.64431" lon="-2.93743">
        <ele>22</ele>
        <time>2023-07-19T11:36:21Z</time>
      </trkpt>
      <trkpt lat="47.64437" lon="-2.93738">
        <ele>21.9</ele>
        <time>2023-07-19T11:36:22Z</time>
      </trkpt>
      <trkpt lat="47.64465" lon="-2.93715">
        <ele>21.6</ele>
        <time>2023-07-19T11:36:27Z</time>
      </trkpt>
      <trkpt lat="47.64477" lon="-2.93705">
        <ele>21.4</ele>
        <time>2023-07-19T11:36:29Z</time>
      </trkpt>
      <trkpt lat="47.64507" lon="-2.93682">
        <ele>20.9</ele>
        <time>2023-07-19T11:36:34Z</time>
      </trkpt>
      <trkpt lat="47.64519" lon="-2.93672">
        <ele>20.7</ele>
        <time>2023-07-19T11:36:36Z</time>
      </trkpt>
      <trkpt lat="47.64525" lon="-2.93667">
        <ele>20.5</ele>
        <time>2023-07-19T11:36:37Z</time>
      </trkpt>
      <trkpt lat="47.64543" lon="-2.93652">
        <ele>20.2</ele>
        <time>2023-07-19T11:36:40Z</time>
      </trkpt>
      <trkpt lat="47.64574" lon="-2.93625">
        <ele>19.9</ele>
        <time>2023-07-19T11:36:45Z</time>
      </trkpt>
      <trkpt lat="47.64585" lon="-2.93614">
        <ele>19.8</ele>
        <time>2023-07-19T11:36:47Z</time>
      </trkpt>
      <trkpt lat="47.64602" lon="-2.93597">
        <ele>19.8</ele>
        <time>2023-07-19T11:36:50Z</time>
      </trkpt>
      <trkpt lat="47.64619" lon="-2.93583">
        <ele>19.7</ele>
        <time>2023-07-19T11:36:53Z</time>
      </trkpt>
      <trkpt lat="47.64625" lon="-2.93577">
        <ele>19.7</ele>
        <time>2023-07-19T11:36:54Z</time>
      </trkpt>
      <trkpt lat="47.64631" lon="-2.93572">
        <ele>19.7</ele>
        <time>2023-07-19T11:36:55Z</time>
      </trkpt>
      <trkpt lat="47.64647" lon="-2.93557">
        <ele>19.6</ele>
        <time>2023-07-19T11:36:58Z</time>
      </trkpt>
      <trkpt lat="47.64666" lon="-2.93528">
        <ele>19.3</ele>
        <time>2023-07-19T11:37:02Z</time>
      </trkpt>
      <trkpt lat="47.64672" lon="-2.93508">
        <ele>19.1</ele>
        <time>2023-07-19T11:37:04Z</time>
      </trkpt>
      <trkpt lat="47.64673" lon="-2.93486">
        <ele>19</ele>
        <time>2023-07-19T11:37:06Z</time>
      </trkpt>
      <trkpt lat="47.64665" lon="-2.93409">
        <ele>19.3</ele>
        <time>2023-07-19T11:37:14Z</time>
      </trkpt>
      <trkpt lat="47.64667" lon="-2.93392">
        <ele>19.2</ele>
        <time>2023-07-19T11:37:16Z</time>
      </trkpt>
      <trkpt lat="47.64672" lon="-2.93376">
        <ele>18.8</ele>
        <time>2023-07-19T11:37:18Z</time>
      </trkpt>
      <trkpt lat="47.64681" lon="-2.93362">
        <ele>18.1</ele>
        <time>2023-07-19T11:37:20Z</time>
      </trkpt>
      <trkpt lat="47.64732" lon="-2.93318">
        <ele>14.3</ele>
        <time>2023-07-19T11:37:27Z</time>
      </trkpt>
      <trkpt lat="47.64749" lon="-2.93305">
        <ele>13</ele>
        <time>2023-07-19T11:37:29Z</time>
      </trkpt>
      <trkpt lat="47.64776" lon="-2.93285">
        <ele>10.8</ele>
        <time>2023-07-19T11:37:32Z</time>
      </trkpt>
      <trkpt lat="47.64812" lon="-2.93256">
        <ele>7.7</ele>
        <time>2023-07-19T11:37:36Z</time>
      </trkpt>
      <trkpt lat="47.64861" lon="-2.93223">
        <ele>5.2</ele>
        <time>2023-07-19T11:37:41Z</time>
      </trkpt>
      <trkpt lat="47.64918" lon="-2.93184">
        <ele>3.8</ele>
        <time>2023-07-19T11:37:47Z</time>
      </trkpt>
      <trkpt lat="47.64942" lon="-2.93165">
        <ele>3.6</ele>
        <time>2023-07-19T11:37:50Z</time>
      </trkpt>
      <trkpt lat="47.6495" lon="-2.93159">
        <ele>3.6</ele>
        <time>2023-07-19T11:37:51Z</time>
      </trkpt>
      <trkpt lat="47.64957" lon="-2.93154">
        <ele>3.6</ele>
        <time>2023-07-19T11:37:52Z</time>
      </trkpt>
      <trkpt lat="47.6497" lon="-2.93143">
        <ele>3.6</ele>
        <time>2023-07-19T11:37:54Z</time>
      </trkpt>
      <trkpt lat="47.64988" lon="-2.93126">
        <ele>3.9</ele>
        <time>2023-07-19T11:37:57Z</time>
      </trkpt>
      <trkpt lat="47.64996" lon="-2.93109">
        <ele>4</ele>
        <time>2023-07-19T11:37:59Z</time>
      </trkpt>
      <trkpt lat="47.64996" lon="-2.93091">
        <ele>4.1</ele>
        <time>2023-07-19T11:38:01Z</time>
      </trkpt>
      <trkpt lat="47.64989" lon="-2.93074">
        <ele>4.1</ele>
        <time>2023-07-19T11:38:03Z</time>
      </trkpt>
      <trkpt lat="47.64957" lon="-2.93013">
        <ele>4.2</ele>
        <time>2023-07-19T11:38:13Z</time>
      </trkpt>
      <trkpt lat="47.64955" lon="-2.93007">
        <ele>4.2</ele>
        <time>2023-07-19T11:38:20Z</time>
      </trkpt>
      <trkpt lat="47.64955" lon="-2.93007">
        <ele>4.2</ele>
        <time>2023-07-19T11:38:27Z</time>
      </trkpt>
      <trkpt lat="47.64955" lon="-2.93007">
        <ele>4.2</ele>
        <time>2023-07-19T11:38:28Z</time>
      </trkpt>
      <trkpt lat="47.64955" lon="-2.93007">
        <ele>4.2</ele>
        <time>2023-07-19T11:38:30Z</time>
      </trkpt>
      <trkpt lat="47.64955" lon="-2.93007">
        <ele>4.2</ele>
        <time>2023-07-19T11:38:31Z</time>
      </trkpt>
      <trkpt lat="47.64955" lon="-2.93007">
        <ele>4.2</ele>
        <time>2023-07-19T11:38:37Z</time>
      </trkpt>
      <trkpt lat="47.64955" lon="-2.93005">
        <ele>4.2</ele>
        <time>2023-07-19T11:38:42Z</time>
      </trkpt>
      <trkpt lat="47.64951" lon="-2.92959">
        <ele>4.3</ele>
        <time>2023-07-19T11:38:51Z</time>
      </trkpt>
      <trkpt lat="47.64952" lon="-2.92946">
        <ele>4.3</ele>
        <time>2023-07-19T11:38:53Z</time>
      </trkpt>
      <trkpt lat="47.64974" lon="-2.92872">
        <ele>3.7</ele>
        <time>2023-07-19T11:39:07Z</time>
      </trkpt>
      <trkpt lat="47.64976" lon="-2.92861">
        <ele>3.7</ele>
        <time>2023-07-19T11:39:09Z</time>
      </trkpt>
      <trkpt lat="47.64974" lon="-2.92813">
        <ele>3.7</ele>
        <time>2023-07-19T11:39:16Z</time>
      </trkpt>
      <trkpt lat="47.64985" lon="-2.92765">
        <ele>3.7</ele>
        <time>2023-07-19T11:39:23Z</time>
      </trkpt>
      <trkpt lat="47.64994" lon="-2.92715">
        <ele>4</ele>
        <time>2023-07-19T11:39:30Z</time>
      </trkpt>
      <trkpt lat="47.64998" lon="-2.92695">
        <ele>4</ele>
        <time>2023-07-19T11:39:33Z</time>
      </trkpt>
      <trkpt lat="47.65003" lon="-2.92675">
        <ele>4</ele>
        <time>2023-07-19T11:39:36Z</time>
      </trkpt>
      <trkpt lat="47.6501" lon="-2.92648">
        <ele>3.9</ele>
        <time>2023-07-19T11:39:40Z</time>
      </trkpt>
      <trkpt lat="47.65038" lon="-2.92608">
        <ele>3.9</ele>
        <time>2023-07-19T11:39:48Z</time>
      </trkpt>
      <trkpt lat="47.65049" lon="-2.92591">
        <ele>4</ele>
        <time>2023-07-19T11:39:56Z</time>
      </trkpt>
      <trkpt lat="47.65068" lon="-2.92573">
        <ele>4.3</ele>
        <time>2023-07-19T11:40:09Z</time>
      </trkpt>
      <trkpt lat="47.65073" lon="-2.92564">
        <ele>4.5</ele>
        <time>2023-07-19T11:40:16Z</time>
      </trkpt>
      <trkpt lat="47.65074" lon="-2.92563">
        <ele>4.5</ele>
        <time>2023-07-19T11:40:17Z</time>
      </trkpt>
      <trkpt lat="47.65074" lon="-2.92563">
        <ele>4.5</ele>
        <time>2023-07-19T11:40:18Z</time>
      </trkpt>
      <trkpt lat="47.65075" lon="-2.92562">
        <ele>4.5</ele>
        <time>2023-07-19T11:40:19Z</time>
      </trkpt>
      <trkpt lat="47.65075" lon="-2.92562">
        <ele>4.5</ele>
        <time>2023-07-19T11:40:21Z</time>
      </trkpt>
      <trkpt lat="47.65077" lon="-2.92561">
        <ele>4.5</ele>
        <time>2023-07-19T11:40:22Z</time>
      </trkpt>
      <trkpt lat="47.65079" lon="-2.92559">
        <ele>4.5</ele>
        <time>2023-07-19T11:40:23Z</time>
      </trkpt>
      <trkpt lat="47.65081" lon="-2.92557">
        <ele>4.5</ele>
        <time>2023-07-19T11:40:24Z</time>
      </trkpt>
      <trkpt lat="47.65096" lon="-2.92545">
        <ele>4.4</ele>
        <time>2023-07-19T11:40:29Z</time>
      </trkpt>
      <trkpt lat="47.651" lon="-2.92542">
        <ele>4.4</ele>
        <time>2023-07-19T11:40:30Z</time>
      </trkpt>
      <trkpt lat="47.65134" lon="-2.92519">
        <ele>4.4</ele>
        <time>2023-07-19T11:40:40Z</time>
      </trkpt>
      <trkpt lat="47.65155" lon="-2.92498">
        <ele>4.3</ele>
        <time>2023-07-19T11:40:47Z</time>
      </trkpt>
      <trkpt lat="47.65163" lon="-2.92498">
        <ele>4.2</ele>
        <time>2023-07-19T11:40:49Z</time>
      </trkpt>
      <trkpt lat="47.65173" lon="-2.92499">
        <ele>4.1</ele>
        <time>2023-07-19T11:40:51Z</time>
      </trkpt>
      <trkpt lat="47.65227" lon="-2.92493">
        <ele>4.1</ele>
        <time>2023-07-19T11:41:04Z</time>
      </trkpt>
      <trkpt lat="47.65268" lon="-2.92452">
        <ele>4.5</ele>
        <time>2023-07-19T11:41:17Z</time>
      </trkpt>
      <trkpt lat="47.65279" lon="-2.92461">
        <ele>4.5</ele>
        <time>2023-07-19T11:41:20Z</time>
      </trkpt>
      <trkpt lat="47.65305" lon="-2.92452">
        <ele>4.4</ele>
        <time>2023-07-19T11:41:28Z</time>
      </trkpt>
      <trkpt lat="47.65313" lon="-2.9245">
        <ele>4.4</ele>
        <time>2023-07-19T11:41:31Z</time>
      </trkpt>
      <trkpt lat="47.65354" lon="-2.92476">
        <ele>4.2</ele>
        <time>2023-07-19T11:41:42Z</time>
      </trkpt>
      <trkpt lat="47.65391" lon="-2.92537">
        <ele>4.2</ele>
        <time>2023-07-19T11:41:55Z</time>
      </trkpt>
      <trkpt lat="47.65418" lon="-2.92553">
        <ele>4.7</ele>
        <time>2023-07-19T11:42:04Z</time>
      </trkpt>
      <trkpt lat="47.65468" lon="-2.9259">
        <ele>5.5</ele>
        <time>2023-07-19T11:42:22Z</time>
      </trkpt>
      <trkpt lat="47.65522" lon="-2.92615">
        <ele>6.4</ele>
        <time>2023-07-19T11:42:39Z</time>
      </trkpt>
      <trkpt lat="47.65537" lon="-2.92612">
        <ele>6.6</ele>
        <time>2023-07-19T11:42:48Z</time>
      </trkpt>
      <trkpt lat="47.65537" lon="-2.9253">
        <ele>9.8</ele>
        <time>2023-07-19T11:43:09Z</time>
      </trkpt>
      <trkpt lat="47.65538" lon="-2.92473">
        <ele>11.5</ele>
        <time>2023-07-19T11:43:21Z</time>
      </trkpt>
      <trkpt lat="47.65537" lon="-2.92451">
        <ele>12.1</ele>
        <time>2023-07-19T11:43:26Z</time>
      </trkpt>
      <trkpt lat="47.65533" lon="-2.9243">
        <ele>12.7</ele>
        <time>2023-07-19T11:43:31Z</time>
      </trkpt>
      <trkpt lat="47.65524" lon="-2.92409">
        <ele>13.2</ele>
        <time>2023-07-19T11:43:36Z</time>
      </trkpt>
      <trkpt lat="47.65507" lon="-2.92387">
        <ele>13.8</ele>
        <time>2023-07-19T11:43:43Z</time>
      </trkpt>
      <trkpt lat="47.65486" lon="-2.92371">
        <ele>14.3</ele>
        <time>2023-07-19T11:43:49Z</time>
      </trkpt>
      <trkpt lat="47.65477" lon="-2.92366">
        <ele>14.4</ele>
        <time>2023-07-19T11:43:52Z</time>
      </trkpt>
      <trkpt lat="47.65473" lon="-2.92363">
        <ele>14.5</ele>
        <time>2023-07-19T11:43:53Z</time>
      </trkpt>
      <trkpt lat="47.6547" lon="-2.92361">
        <ele>14.6</ele>
        <time>2023-07-19T11:43:54Z</time>
      </trkpt>
      <trkpt lat="47.6546" lon="-2.92352">
        <ele>14.7</ele>
        <time>2023-07-19T11:43:57Z</time>
      </trkpt>
      <trkpt lat="47.6545" lon="-2.92345">
        <ele>14.8</ele>
        <time>2023-07-19T11:44:00Z</time>
      </trkpt>
      <trkpt lat="47.65446" lon="-2.92342">
        <ele>14.9</ele>
        <time>2023-07-19T11:44:01Z</time>
      </trkpt>
      <trkpt lat="47.65443" lon="-2.92339">
        <ele>14.9</ele>
        <time>2023-07-19T11:44:02Z</time>
      </trkpt>
      <trkpt lat="47.65436" lon="-2.92332">
        <ele>14.9</ele>
        <time>2023-07-19T11:44:04Z</time>
      </trkpt>
      <trkpt lat="47.65432" lon="-2.92327">
        <ele>15</ele>
        <time>2023-07-19T11:44:05Z</time>
      </trkpt>
      <trkpt lat="47.65429" lon="-2.92322">
        <ele>15</ele>
        <time>2023-07-19T11:44:06Z</time>
      </trkpt>
      <trkpt lat="47.65425" lon="-2.92317">
        <ele>15</ele>
        <time>2023-07-19T11:44:07Z</time>
      </trkpt>
      <trkpt lat="47.65422" lon="-2.92312">
        <ele>15</ele>
        <time>2023-07-19T11:44:08Z</time>
      </trkpt>
      <trkpt lat="47.65389" lon="-2.92248">
        <ele>16.4</ele>
        <time>2023-07-19T11:44:18Z</time>
      </trkpt>
      <trkpt lat="47.65355" lon="-2.9218">
        <ele>19.6</ele>
        <time>2023-07-19T11:44:31Z</time>
      </trkpt>
      <trkpt lat="47.65324" lon="-2.92109">
        <ele>22</ele>
        <time>2023-07-19T11:44:45Z</time>
      </trkpt>
      <trkpt lat="47.65294" lon="-2.92076">
        <ele>23.1</ele>
        <time>2023-07-19T11:44:55Z</time>
      </trkpt>
      <trkpt lat="47.65285" lon="-2.92067">
        <ele>23.4</ele>
        <time>2023-07-19T11:44:58Z</time>
      </trkpt>
      <trkpt lat="47.65278" lon="-2.92054">
        <ele>23.7</ele>
        <time>2023-07-19T11:45:04Z</time>
      </trkpt>
      <trkpt lat="47.65274" lon="-2.92047">
        <ele>23.9</ele>
        <time>2023-07-19T11:45:08Z</time>
      </trkpt>
      <trkpt lat="47.65263" lon="-2.91985">
        <ele>24.7</ele>
        <time>2023-07-19T11:45:19Z</time>
      </trkpt>
      <trkpt lat="47.65244" lon="-2.91938">
        <ele>25.4</ele>
        <time>2023-07-19T11:45:28Z</time>
      </trkpt>
      <trkpt lat="47.65239" lon="-2.9189">
        <ele>26.2</ele>
        <time>2023-07-19T11:45:36Z</time>
      </trkpt>
      <trkpt lat="47.65247" lon="-2.91819">
        <ele>27.6</ele>
        <time>2023-07-19T11:45:50Z</time>
      </trkpt>
      <trkpt lat="47.65251" lon="-2.91816">
        <ele>27.7</ele>
        <time>2023-07-19T11:45:52Z</time>
      </trkpt>
      <trkpt lat="47.65306" lon="-2.91812">
        <ele>27.8</ele>
        <time>2023-07-19T11:46:07Z</time>
      </trkpt>
      <trkpt lat="47.65338" lon="-2.91805">
        <ele>27.9</ele>
        <time>2023-07-19T11:46:14Z</time>
      </trkpt>
      <trkpt lat="47.65346" lon="-2.91796">
        <ele>27.6</ele>
        <time>2023-07-19T11:46:16Z</time>
      </trkpt>
      <trkpt lat="47.65354" lon="-2.91786">
        <ele>27.3</ele>
        <time>2023-07-19T11:46:18Z</time>
      </trkpt>
      <trkpt lat="47.65368" lon="-2.9178">
        <ele>26.8</ele>
        <time>2023-07-19T11:46:21Z</time>
      </trkpt>
      <trkpt lat="47.65425" lon="-2.91768">
        <ele>24.4</ele>
        <time>2023-07-19T11:46:33Z</time>
      </trkpt>
      <trkpt lat="47.65446" lon="-2.91763">
        <ele>23.2</ele>
        <time>2023-07-19T11:46:37Z</time>
      </trkpt>
      <trkpt lat="47.65457" lon="-2.91761">
        <ele>22.6</ele>
        <time>2023-07-19T11:46:39Z</time>
      </trkpt>
      <trkpt lat="47.6547" lon="-2.91746">
        <ele>21.5</ele>
        <time>2023-07-19T11:46:43Z</time>
      </trkpt>
      <trkpt lat="47.65511" lon="-2.9171">
        <ele>20.4</ele>
        <time>2023-07-19T11:46:52Z</time>
      </trkpt>
      <trkpt lat="47.6551" lon="-2.91697">
        <ele>20.4</ele>
        <time>2023-07-19T11:46:54Z</time>
      </trkpt>
      <trkpt lat="47.65506" lon="-2.91685">
        <ele>20.4</ele>
        <time>2023-07-19T11:46:56Z</time>
      </trkpt>
      <trkpt lat="47.65478" lon="-2.91611">
        <ele>20.7</ele>
        <time>2023-07-19T11:47:08Z</time>
      </trkpt>
      <trkpt lat="47.65478" lon="-2.91605">
        <ele>20.7</ele>
        <time>2023-07-19T11:47:09Z</time>
      </trkpt>
      <trkpt lat="47.65482" lon="-2.91588">
        <ele>20.6</ele>
        <time>2023-07-19T11:47:12Z</time>
      </trkpt>
      <trkpt lat="47.65492" lon="-2.91555">
        <ele>20</ele>
        <time>2023-07-19T11:47:18Z</time>
      </trkpt>
      <trkpt lat="47.6549" lon="-2.91546">
        <ele>20</ele>
        <time>2023-07-19T11:47:20Z</time>
      </trkpt>
      <trkpt lat="47.65492" lon="-2.91523">
        <ele>19.9</ele>
        <time>2023-07-19T11:47:26Z</time>
      </trkpt>
      <trkpt lat="47.65526" lon="-2.91456">
        <ele>19.8</ele>
        <time>2023-07-19T11:47:37Z</time>
      </trkpt>
      <trkpt lat="47.6554" lon="-2.9143">
        <ele>19.6</ele>
        <time>2023-07-19T11:47:41Z</time>
      </trkpt>
      <trkpt lat="47.65544" lon="-2.91424">
        <ele>19.6</ele>
        <time>2023-07-19T11:47:42Z</time>
      </trkpt>
      <trkpt lat="47.65548" lon="-2.91418">
        <ele>19.6</ele>
        <time>2023-07-19T11:47:43Z</time>
      </trkpt>
      <trkpt lat="47.65553" lon="-2.91412">
        <ele>19.6</ele>
        <time>2023-07-19T11:47:44Z</time>
      </trkpt>
      <trkpt lat="47.65557" lon="-2.91406">
        <ele>19.7</ele>
        <time>2023-07-19T11:47:45Z</time>
      </trkpt>
      <trkpt lat="47.656" lon="-2.91353">
        <ele>20.9</ele>
        <time>2023-07-19T11:47:56Z</time>
      </trkpt>
      <trkpt lat="47.65613" lon="-2.91337">
        <ele>21.5</ele>
        <time>2023-07-19T11:48:00Z</time>
      </trkpt>
      <trkpt lat="47.65616" lon="-2.91334">
        <ele>21.7</ele>
        <time>2023-07-19T11:48:01Z</time>
      </trkpt>
      <trkpt lat="47.65622" lon="-2.91327">
        <ele>22</ele>
        <time>2023-07-19T11:48:03Z</time>
      </trkpt>
      <trkpt lat="47.65626" lon="-2.91324">
        <ele>22.1</ele>
        <time>2023-07-19T11:48:04Z</time>
      </trkpt>
      <trkpt lat="47.65635" lon="-2.91314">
        <ele>22.6</ele>
        <time>2023-07-19T11:48:07Z</time>
      </trkpt>
      <trkpt lat="47.65645" lon="-2.91305">
        <ele>23.1</ele>
        <time>2023-07-19T11:48:10Z</time>
      </trkpt>
      <trkpt lat="47.65678" lon="-2.91284">
        <ele>24.1</ele>
        <time>2023-07-19T11:48:19Z</time>
      </trkpt>
      <trkpt lat="47.65685" lon="-2.91279">
        <ele>24.1</ele>
        <time>2023-07-19T11:48:21Z</time>
      </trkpt>
      <trkpt lat="47.65699" lon="-2.91267">
        <ele>24.2</ele>
        <time>2023-07-19T11:48:25Z</time>
      </trkpt>
      <trkpt lat="47.65707" lon="-2.91261">
        <ele>24.1</ele>
        <time>2023-07-19T11:48:27Z</time>
      </trkpt>
      <trkpt lat="47.65728" lon="-2.91242">
        <ele>23.8</ele>
        <time>2023-07-19T11:48:32Z</time>
      </trkpt>
      <trkpt lat="47.65762" lon="-2.91218">
        <ele>23.2</ele>
        <time>2023-07-19T11:48:39Z</time>
      </trkpt>
      <trkpt lat="47.65792" lon="-2.91208">
        <ele>23</ele>
        <time>2023-07-19T11:48:44Z</time>
      </trkpt>
      <trkpt lat="47.65816" lon="-2.91203">
        <ele>22.9</ele>
        <time>2023-07-19T11:48:48Z</time>
      </trkpt>
      <trkpt lat="47.65823" lon="-2.91202">
        <ele>22.8</ele>
        <time>2023-07-19T11:48:49Z</time>
      </trkpt>
      <trkpt lat="47.65829" lon="-2.91201">
        <ele>22.8</ele>
        <time>2023-07-19T11:48:50Z</time>
      </trkpt>
      <trkpt lat="47.65835" lon="-2.91199">
        <ele>22.8</ele>
        <time>2023-07-19T11:48:51Z</time>
      </trkpt>
      <trkpt lat="47.65848" lon="-2.91197">
        <ele>22.9</ele>
        <time>2023-07-19T11:48:52Z</time>
      </trkpt>
      <trkpt lat="47.65854" lon="-2.91196">
        <ele>22.9</ele>
        <time>2023-07-19T11:48:54Z</time>
      </trkpt>
      <trkpt lat="47.6586" lon="-2.91194">
        <ele>23</ele>
        <time>2023-07-19T11:48:55Z</time>
      </trkpt>
      <trkpt lat="47.65911" lon="-2.91186">
        <ele>23.8</ele>
        <time>2023-07-19T11:49:04Z</time>
      </trkpt>
      <trkpt lat="47.65965" lon="-2.91174">
        <ele>25.8</ele>
        <time>2023-07-19T11:49:15Z</time>
      </trkpt>
      <trkpt lat="47.6601" lon="-2.91148">
        <ele>27.8</ele>
        <time>2023-07-19T11:49:26Z</time>
      </trkpt>
      <trkpt lat="47.66057" lon="-2.91106">
        <ele>30</ele>
        <time>2023-07-19T11:49:39Z</time>
      </trkpt>
      <trkpt lat="47.66098" lon="-2.91048">
        <ele>32.1</ele>
        <time>2023-07-19T11:49:53Z</time>
      </trkpt>
      <trkpt lat="47.6613" lon="-2.9098">
        <ele>34.3</ele>
        <time>2023-07-19T11:50:07Z</time>
      </trkpt>
      <trkpt lat="47.66134" lon="-2.90969">
        <ele>34.6</ele>
        <time>2023-07-19T11:50:09Z</time>
      </trkpt>
      <trkpt lat="47.66137" lon="-2.90959">
        <ele>34.9</ele>
        <time>2023-07-19T11:50:11Z</time>
      </trkpt>
      <trkpt lat="47.66142" lon="-2.90942">
        <ele>35.4</ele>
        <time>2023-07-19T11:50:14Z</time>
      </trkpt>
      <trkpt lat="47.66146" lon="-2.90926">
        <ele>35.9</ele>
        <time>2023-07-19T11:50:17Z</time>
      </trkpt>
      <trkpt lat="47.6615" lon="-2.90909">
        <ele>36.4</ele>
        <time>2023-07-19T11:50:20Z</time>
      </trkpt>
      <trkpt lat="47.66151" lon="-2.90904">
        <ele>36.5</ele>
        <time>2023-07-19T11:50:21Z</time>
      </trkpt>
      <trkpt lat="47.66152" lon="-2.90898">
        <ele>36.7</ele>
        <time>2023-07-19T11:50:22Z</time>
      </trkpt>
      <trkpt lat="47.66152" lon="-2.90892">
        <ele>36.9</ele>
        <time>2023-07-19T11:50:23Z</time>
      </trkpt>
      <trkpt lat="47.66155" lon="-2.90875">
        <ele>37.3</ele>
        <time>2023-07-19T11:50:26Z</time>
      </trkpt>
      <trkpt lat="47.6616" lon="-2.90817">
        <ele>38.9</ele>
        <time>2023-07-19T11:50:36Z</time>
      </trkpt>
      <trkpt lat="47.66162" lon="-2.90733">
        <ele>41.1</ele>
        <time>2023-07-19T11:50:50Z</time>
      </trkpt>
      <trkpt lat="47.66163" lon="-2.90704">
        <ele>41.7</ele>
        <time>2023-07-19T11:50:55Z</time>
      </trkpt>
      <trkpt lat="47.66172" lon="-2.90644">
        <ele>43</ele>
        <time>2023-07-19T11:51:05Z</time>
      </trkpt>
      <trkpt lat="47.66177" lon="-2.90626">
        <ele>43.3</ele>
        <time>2023-07-19T11:51:08Z</time>
      </trkpt>
      <trkpt lat="47.66178" lon="-2.9062">
        <ele>43.4</ele>
        <time>2023-07-19T11:51:09Z</time>
      </trkpt>
      <trkpt lat="47.66205" lon="-2.90546">
        <ele>44.3</ele>
        <time>2023-07-19T11:51:22Z</time>
      </trkpt>
      <trkpt lat="47.66241" lon="-2.90491">
        <ele>44.9</ele>
        <time>2023-07-19T11:51:33Z</time>
      </trkpt>
      <trkpt lat="47.66266" lon="-2.90456">
        <ele>45.3</ele>
        <time>2023-07-19T11:51:41Z</time>
      </trkpt>
      <trkpt lat="47.66271" lon="-2.90445">
        <ele>45.5</ele>
        <time>2023-07-19T11:51:43Z</time>
      </trkpt>
      <trkpt lat="47.66274" lon="-2.90433">
        <ele>45.6</ele>
        <time>2023-07-19T11:51:45Z</time>
      </trkpt>
      <trkpt lat="47.66276" lon="-2.90409">
        <ele>45.8</ele>
        <time>2023-07-19T11:51:49Z</time>
      </trkpt>
      <trkpt lat="47.66279" lon="-2.90397">
        <ele>45.9</ele>
        <time>2023-07-19T11:51:51Z</time>
      </trkpt>
      <trkpt lat="47.66284" lon="-2.90387">
        <ele>46</ele>
        <time>2023-07-19T11:51:53Z</time>
      </trkpt>
      <trkpt lat="47.66291" lon="-2.90379">
        <ele>46.1</ele>
        <time>2023-07-19T11:51:55Z</time>
      </trkpt>
      <trkpt lat="47.66301" lon="-2.90368">
        <ele>46.2</ele>
        <time>2023-07-19T11:51:58Z</time>
      </trkpt>
      <trkpt lat="47.66306" lon="-2.90357">
        <ele>46.3</ele>
        <time>2023-07-19T11:52:00Z</time>
      </trkpt>
      <trkpt lat="47.66312" lon="-2.90272">
        <ele>46.8</ele>
        <time>2023-07-19T11:52:12Z</time>
      </trkpt>
      <trkpt lat="47.66322" lon="-2.90187">
        <ele>47.8</ele>
        <time>2023-07-19T11:52:24Z</time>
      </trkpt>
      <trkpt lat="47.66341" lon="-2.90109">
        <ele>49</ele>
        <time>2023-07-19T11:52:35Z</time>
      </trkpt>
      <trkpt lat="47.66365" lon="-2.90033">
        <ele>51.2</ele>
        <time>2023-07-19T11:52:47Z</time>
      </trkpt>
      <trkpt lat="47.66382" lon="-2.89977">
        <ele>53.5</ele>
        <time>2023-07-19T11:52:57Z</time>
      </trkpt>
      <trkpt lat="47.66407" lon="-2.89942">
        <ele>54.6</ele>
        <time>2023-07-19T11:53:07Z</time>
      </trkpt>
      <trkpt lat="47.66418" lon="-2.89941">
        <ele>55</ele>
        <time>2023-07-19T11:53:10Z</time>
      </trkpt>
      <trkpt lat="47.66472" lon="-2.89933">
        <ele>56</ele>
        <time>2023-07-19T11:53:25Z</time>
      </trkpt>
      <trkpt lat="47.66482" lon="-2.89931">
        <ele>56.1</ele>
        <time>2023-07-19T11:53:28Z</time>
      </trkpt>
      <trkpt lat="47.66537" lon="-2.89916">
        <ele>55.6</ele>
        <time>2023-07-19T11:53:41Z</time>
      </trkpt>
      <trkpt lat="47.66595" lon="-2.89898">
        <ele>53.7</ele>
        <time>2023-07-19T11:53:51Z</time>
      </trkpt>
      <trkpt lat="47.66615" lon="-2.89892">
        <ele>53.3</ele>
        <time>2023-07-19T11:53:54Z</time>
      </trkpt>
      <trkpt lat="47.66628" lon="-2.89888">
        <ele>53.2</ele>
        <time>2023-07-19T11:53:56Z</time>
      </trkpt>
      <trkpt lat="47.66666" lon="-2.89877">
        <ele>53.5</ele>
        <time>2023-07-19T11:54:02Z</time>
      </trkpt>
      <trkpt lat="47.66687" lon="-2.89871">
        <ele>53.6</ele>
        <time>2023-07-19T11:54:06Z</time>
      </trkpt>
      <trkpt lat="47.66703" lon="-2.89868">
        <ele>53.4</ele>
        <time>2023-07-19T11:54:09Z</time>
      </trkpt>
      <trkpt lat="47.66744" lon="-2.89853">
        <ele>52.6</ele>
        <time>2023-07-19T11:54:16Z</time>
      </trkpt>
      <trkpt lat="47.66773" lon="-2.89837">
        <ele>52.2</ele>
        <time>2023-07-19T11:54:21Z</time>
      </trkpt>
      <trkpt lat="47.66791" lon="-2.89823">
        <ele>51.9</ele>
        <time>2023-07-19T11:54:24Z</time>
      </trkpt>
      <trkpt lat="47.66843" lon="-2.89777">
        <ele>51.1</ele>
        <time>2023-07-19T11:54:33Z</time>
      </trkpt>
      <trkpt lat="47.66887" lon="-2.89719">
        <ele>50.3</ele>
        <time>2023-07-19T11:54:42Z</time>
      </trkpt>
      <trkpt lat="47.669" lon="-2.897">
        <ele>50.1</ele>
        <time>2023-07-19T11:54:45Z</time>
      </trkpt>
      <trkpt lat="47.66905" lon="-2.89694">
        <ele>50</ele>
        <time>2023-07-19T11:54:46Z</time>
      </trkpt>
      <trkpt lat="47.6691" lon="-2.8969">
        <ele>49.9</ele>
        <time>2023-07-19T11:54:47Z</time>
      </trkpt>
      <trkpt lat="47.6692" lon="-2.89687">
        <ele>49.5</ele>
        <time>2023-07-19T11:54:49Z</time>
      </trkpt>
      <trkpt lat="47.6693" lon="-2.89691">
        <ele>49.2</ele>
        <time>2023-07-19T11:54:51Z</time>
      </trkpt>
      <trkpt lat="47.66935" lon="-2.89694">
        <ele>49</ele>
        <time>2023-07-19T11:54:52Z</time>
      </trkpt>
      <trkpt lat="47.66946" lon="-2.89703">
        <ele>48.8</ele>
        <time>2023-07-19T11:54:53Z</time>
      </trkpt>
      <trkpt lat="47.66952" lon="-2.89709">
        <ele>48.8</ele>
        <time>2023-07-19T11:54:55Z</time>
      </trkpt>
      <trkpt lat="47.66986" lon="-2.89738">
        <ele>48.4</ele>
        <time>2023-07-19T11:55:01Z</time>
      </trkpt>
      <trkpt lat="47.66992" lon="-2.89742">
        <ele>48.4</ele>
        <time>2023-07-19T11:55:02Z</time>
      </trkpt>
      <trkpt lat="47.66997" lon="-2.89747">
        <ele>48.3</ele>
        <time>2023-07-19T11:55:03Z</time>
      </trkpt>
      <trkpt lat="47.67008" lon="-2.89758">
        <ele>48.2</ele>
        <time>2023-07-19T11:55:05Z</time>
      </trkpt>
      <trkpt lat="47.67041" lon="-2.89801">
        <ele>47.9</ele>
        <time>2023-07-19T11:55:12Z</time>
      </trkpt>
      <trkpt lat="47.6705" lon="-2.89813">
        <ele>47.9</ele>
        <time>2023-07-19T11:55:14Z</time>
      </trkpt>
      <trkpt lat="47.67054" lon="-2.89819">
        <ele>47.9</ele>
        <time>2023-07-19T11:55:15Z</time>
      </trkpt>
      <trkpt lat="47.67059" lon="-2.89825">
        <ele>47.9</ele>
        <time>2023-07-19T11:55:16Z</time>
      </trkpt>
      <trkpt lat="47.67102" lon="-2.89883">
        <ele>47.8</ele>
        <time>2023-07-19T11:55:26Z</time>
      </trkpt>
      <trkpt lat="47.67145" lon="-2.89933">
        <ele>48</ele>
        <time>2023-07-19T11:55:36Z</time>
      </trkpt>
      <trkpt lat="47.6719" lon="-2.89986">
        <ele>47.6</ele>
        <time>2023-07-19T11:55:47Z</time>
      </trkpt>
      <trkpt lat="47.67232" lon="-2.9004">
        <ele>47.3</ele>
        <time>2023-07-19T11:55:58Z</time>
      </trkpt>
      <trkpt lat="47.67274" lon="-2.90099">
        <ele>47</ele>
        <time>2023-07-19T11:56:09Z</time>
      </trkpt>
      <trkpt lat="47.67316" lon="-2.90157">
        <ele>47</ele>
        <time>2023-07-19T11:56:20Z</time>
      </trkpt>
      <trkpt lat="47.67319" lon="-2.90162">
        <ele>47</ele>
        <time>2023-07-19T11:56:21Z</time>
      </trkpt>
      <trkpt lat="47.6733" lon="-2.90175">
        <ele>47</ele>
        <time>2023-07-19T11:56:24Z</time>
      </trkpt>
      <trkpt lat="47.67334" lon="-2.9018">
        <ele>47</ele>
        <time>2023-07-19T11:56:25Z</time>
      </trkpt>
      <trkpt lat="47.67337" lon="-2.90185">
        <ele>47</ele>
        <time>2023-07-19T11:56:26Z</time>
      </trkpt>
      <trkpt lat="47.67341" lon="-2.90189">
        <ele>47</ele>
        <time>2023-07-19T11:56:27Z</time>
      </trkpt>
      <trkpt lat="47.67344" lon="-2.90194">
        <ele>47</ele>
        <time>2023-07-19T11:56:28Z</time>
      </trkpt>
      <trkpt lat="47.67351" lon="-2.90203">
        <ele>47.1</ele>
        <time>2023-07-19T11:56:30Z</time>
      </trkpt>
      <trkpt lat="47.67357" lon="-2.90212">
        <ele>47.1</ele>
        <time>2023-07-19T11:56:32Z</time>
      </trkpt>
      <trkpt lat="47.67374" lon="-2.90238">
        <ele>46.9</ele>
        <time>2023-07-19T11:56:37Z</time>
      </trkpt>
      <trkpt lat="47.67377" lon="-2.90243">
        <ele>46.8</ele>
        <time>2023-07-19T11:56:38Z</time>
      </trkpt>
      <trkpt lat="47.67381" lon="-2.90249">
        <ele>46.7</ele>
        <time>2023-07-19T11:56:39Z</time>
      </trkpt>
      <trkpt lat="47.67384" lon="-2.90254">
        <ele>46.6</ele>
        <time>2023-07-19T11:56:40Z</time>
      </trkpt>
      <trkpt lat="47.67423" lon="-2.90318">
        <ele>45.5</ele>
        <time>2023-07-19T11:56:50Z</time>
      </trkpt>
      <trkpt lat="47.67456" lon="-2.90372">
        <ele>44.4</ele>
        <time>2023-07-19T11:56:59Z</time>
      </trkpt>
      <trkpt lat="47.67459" lon="-2.90384">
        <ele>44.2</ele>
        <time>2023-07-19T11:57:01Z</time>
      </trkpt>
      <trkpt lat="47.6746" lon="-2.90407">
        <ele>43.7</ele>
        <time>2023-07-19T11:57:04Z</time>
      </trkpt>
      <trkpt lat="47.6746" lon="-2.90422">
        <ele>43.4</ele>
        <time>2023-07-19T11:57:05Z</time>
      </trkpt>
      <trkpt lat="47.6746" lon="-2.9043">
        <ele>43.3</ele>
        <time>2023-07-19T11:57:07Z</time>
      </trkpt>
      <trkpt lat="47.67449" lon="-2.905">
        <ele>42.4</ele>
        <time>2023-07-19T11:57:16Z</time>
      </trkpt>
      <trkpt lat="47.67445" lon="-2.90522">
        <ele>42</ele>
        <time>2023-07-19T11:57:19Z</time>
      </trkpt>
      <trkpt lat="47.67444" lon="-2.9053">
        <ele>41.8</ele>
        <time>2023-07-19T11:57:20Z</time>
      </trkpt>
      <trkpt lat="47.67443" lon="-2.90538">
        <ele>41.7</ele>
        <time>2023-07-19T11:57:21Z</time>
      </trkpt>
      <trkpt lat="47.67442" lon="-2.90546">
        <ele>41.6</ele>
        <time>2023-07-19T11:57:22Z</time>
      </trkpt>
      <trkpt lat="47.67439" lon="-2.90562">
        <ele>41.2</ele>
        <time>2023-07-19T11:57:24Z</time>
      </trkpt>
      <trkpt lat="47.67439" lon="-2.90579">
        <ele>40.9</ele>
        <time>2023-07-19T11:57:26Z</time>
      </trkpt>
      <trkpt lat="47.67443" lon="-2.90596">
        <ele>40.6</ele>
        <time>2023-07-19T11:57:28Z</time>
      </trkpt>
      <trkpt lat="47.67453" lon="-2.90603">
        <ele>40.5</ele>
        <time>2023-07-19T11:57:30Z</time>
      </trkpt>
      <trkpt lat="47.67458" lon="-2.90602">
        <ele>40.4</ele>
        <time>2023-07-19T11:57:31Z</time>
      </trkpt>
      <trkpt lat="47.67463" lon="-2.90599">
        <ele>40.4</ele>
        <time>2023-07-19T11:57:32Z</time>
      </trkpt>
      <trkpt lat="47.67467" lon="-2.90596">
        <ele>40.4</ele>
        <time>2023-07-19T11:57:33Z</time>
      </trkpt>
      <trkpt lat="47.6747" lon="-2.90592">
        <ele>40.4</ele>
        <time>2023-07-19T11:57:34Z</time>
      </trkpt>
      <trkpt lat="47.67472" lon="-2.90588">
        <ele>40.3</ele>
        <time>2023-07-19T11:57:35Z</time>
      </trkpt>
      <trkpt lat="47.67478" lon="-2.90582">
        <ele>40.3</ele>
        <time>2023-07-19T11:57:38Z</time>
      </trkpt>
      <trkpt lat="47.67476" lon="-2.90588">
        <ele>40.3</ele>
        <time>2023-07-19T11:57:42Z</time>
      </trkpt>
      <trkpt lat="47.67453" lon="-2.90604">
        <ele>40.4</ele>
        <time>2023-07-19T11:57:48Z</time>
      </trkpt>
      <trkpt lat="47.67446" lon="-2.90603">
        <ele>40.4</ele>
        <time>2023-07-19T11:57:50Z</time>
      </trkpt>
      <trkpt lat="47.6744" lon="-2.90596">
        <ele>40.3</ele>
        <time>2023-07-19T11:57:52Z</time>
      </trkpt>
      <trkpt lat="47.67436" lon="-2.90581">
        <ele>40.5</ele>
        <time>2023-07-19T11:57:54Z</time>
      </trkpt>
      <trkpt lat="47.67435" lon="-2.90567">
        <ele>41</ele>
        <time>2023-07-19T11:57:56Z</time>
      </trkpt>
      <trkpt lat="47.67439" lon="-2.90532">
        <ele>41.7</ele>
        <time>2023-07-19T11:58:01Z</time>
      </trkpt>
      <trkpt lat="47.67448" lon="-2.90478">
        <ele>42.6</ele>
        <time>2023-07-19T11:58:09Z</time>
      </trkpt>
      <trkpt lat="47.67452" lon="-2.90458">
        <ele>42.9</ele>
        <time>2023-07-19T11:58:12Z</time>
      </trkpt>
      <trkpt lat="47.67456" lon="-2.90424">
        <ele>43.4</ele>
        <time>2023-07-19T11:58:17Z</time>
      </trkpt>
      <trkpt lat="47.67455" lon="-2.90372">
        <ele>44.3</ele>
        <time>2023-07-19T11:58:25Z</time>
      </trkpt>
      <trkpt lat="47.67458" lon="-2.9036">
        <ele>44.8</ele>
        <time>2023-07-19T11:58:27Z</time>
      </trkpt>
      <trkpt lat="47.67468" lon="-2.90341">
        <ele>45.4</ele>
        <time>2023-07-19T11:58:31Z</time>
      </trkpt>
      <trkpt lat="47.67486" lon="-2.90316">
        <ele>46.5</ele>
        <time>2023-07-19T11:58:37Z</time>
      </trkpt>
      <trkpt lat="47.67491" lon="-2.90308">
        <ele>46.7</ele>
        <time>2023-07-19T11:58:39Z</time>
      </trkpt>
      <trkpt lat="47.67514" lon="-2.90267">
        <ele>47.5</ele>
        <time>2023-07-19T11:58:49Z</time>
      </trkpt>
      <trkpt lat="47.67546" lon="-2.90249">
        <ele>47.6</ele>
        <time>2023-07-19T11:59:01Z</time>
      </trkpt>
      <trkpt lat="47.67547" lon="-2.90253">
        <ele>47.6</ele>
        <time>2023-07-19T11:59:03Z</time>
      </trkpt>
      <trkpt lat="47.67547" lon="-2.90255">
        <ele>47.6</ele>
        <time>2023-07-19T11:59:04Z</time>
      </trkpt>
      <trkpt lat="47.67544" lon="-2.90256">
        <ele>47.6</ele>
        <time>2023-07-19T11:59:05Z</time>
      </trkpt>
      <trkpt lat="47.67537" lon="-2.90259">
        <ele>47.6</ele>
        <time>2023-07-19T11:59:08Z</time>
      </trkpt>
      <trkpt lat="47.67531" lon="-2.90265">
        <ele>47.5</ele>
        <time>2023-07-19T11:59:10Z</time>
      </trkpt>
      <trkpt lat="47.67528" lon="-2.90268">
        <ele>47.5</ele>
        <time>2023-07-19T11:59:11Z</time>
      </trkpt>
      <trkpt lat="47.67525" lon="-2.90271">
        <ele>47.5</ele>
        <time>2023-07-19T11:59:12Z</time>
      </trkpt>
      <trkpt lat="47.67516" lon="-2.90283">
        <ele>47.4</ele>
        <time>2023-07-19T11:59:15Z</time>
      </trkpt>
      <trkpt lat="47.67513" lon="-2.90287">
        <ele>47.3</ele>
        <time>2023-07-19T11:59:16Z</time>
      </trkpt>
      <trkpt lat="47.6751" lon="-2.90292">
        <ele>47.2</ele>
        <time>2023-07-19T11:59:17Z</time>
      </trkpt>
      <trkpt lat="47.67507" lon="-2.90296">
        <ele>47.1</ele>
        <time>2023-07-19T11:59:18Z</time>
      </trkpt>
      <trkpt lat="47.67501" lon="-2.90305">
        <ele>46.9</ele>
        <time>2023-07-19T11:59:20Z</time>
      </trkpt>
      <trkpt lat="47.67498" lon="-2.90309">
        <ele>46.8</ele>
        <time>2023-07-19T11:59:21Z</time>
      </trkpt>
      <trkpt lat="47.67489" lon="-2.90324">
        <ele>46.2</ele>
        <time>2023-07-19T11:59:24Z</time>
      </trkpt>
      <trkpt lat="47.67485" lon="-2.90328">
        <ele>46</ele>
        <time>2023-07-19T11:59:25Z</time>
      </trkpt>
      <trkpt lat="47.67482" lon="-2.90333">
        <ele>45.8</ele>
        <time>2023-07-19T11:59:26Z</time>
      </trkpt>
      <trkpt lat="47.67478" lon="-2.90337">
        <ele>45.6</ele>
        <time>2023-07-19T11:59:27Z</time>
      </trkpt>
      <trkpt lat="47.67471" lon="-2.90347">
        <ele>45.2</ele>
        <time>2023-07-19T11:59:29Z</time>
      </trkpt>
      <trkpt lat="47.67457" lon="-2.90363">
        <ele>44.6</ele>
        <time>2023-07-19T11:59:33Z</time>
      </trkpt>
      <trkpt lat="47.67448" lon="-2.90361">
        <ele>44.5</ele>
        <time>2023-07-19T11:59:35Z</time>
      </trkpt>
      <trkpt lat="47.67444" lon="-2.90358">
        <ele>44.7</ele>
        <time>2023-07-19T11:59:36Z</time>
      </trkpt>
      <trkpt lat="47.6744" lon="-2.90353">
        <ele>44.8</ele>
        <time>2023-07-19T11:59:37Z</time>
      </trkpt>
      <trkpt lat="47.67429" lon="-2.90335">
        <ele>45.2</ele>
        <time>2023-07-19T11:59:40Z</time>
      </trkpt>
      <trkpt lat="47.67418" lon="-2.90315">
        <ele>45.5</ele>
        <time>2023-07-19T11:59:43Z</time>
      </trkpt>
      <trkpt lat="47.6741" lon="-2.90303">
        <ele>45.8</ele>
        <time>2023-07-19T11:59:45Z</time>
      </trkpt>
      <trkpt lat="47.67407" lon="-2.90297">
        <ele>45.8</ele>
        <time>2023-07-19T11:59:46Z</time>
      </trkpt>
      <trkpt lat="47.67397" lon="-2.90279">
        <ele>46.1</ele>
        <time>2023-07-19T11:59:49Z</time>
      </trkpt>
      <trkpt lat="47.67393" lon="-2.90274">
        <ele>46.2</ele>
        <time>2023-07-19T11:59:50Z</time>
      </trkpt>
      <trkpt lat="47.6739" lon="-2.90269">
        <ele>46.3</ele>
        <time>2023-07-19T11:59:51Z</time>
      </trkpt>
      <trkpt lat="47.67351" lon="-2.90209">
        <ele>47.1</ele>
        <time>2023-07-19T12:00:04Z</time>
      </trkpt>
      <trkpt lat="47.67311" lon="-2.90153">
        <ele>47</ele>
        <time>2023-07-19T12:00:16Z</time>
      </trkpt>
      <trkpt lat="47.67271" lon="-2.90099">
        <ele>47</ele>
        <time>2023-07-19T12:00:26Z</time>
      </trkpt>
      <trkpt lat="47.67248" lon="-2.90068">
        <ele>47.1</ele>
        <time>2023-07-19T12:00:32Z</time>
      </trkpt>
      <trkpt lat="47.67207" lon="-2.90015">
        <ele>47.4</ele>
        <time>2023-07-19T12:00:43Z</time>
      </trkpt>
      <trkpt lat="47.67164" lon="-2.89965">
        <ele>47.8</ele>
        <time>2023-07-19T12:00:54Z</time>
      </trkpt>
      <trkpt lat="47.67146" lon="-2.89942">
        <ele>48</ele>
        <time>2023-07-19T12:00:59Z</time>
      </trkpt>
      <trkpt lat="47.67114" lon="-2.89907">
        <ele>47.9</ele>
        <time>2023-07-19T12:01:07Z</time>
      </trkpt>
      <trkpt lat="47.6707" lon="-2.89854">
        <ele>47.9</ele>
        <time>2023-07-19T12:01:18Z</time>
      </trkpt>
      <trkpt lat="47.67065" lon="-2.89849">
        <ele>47.9</ele>
        <time>2023-07-19T12:01:19Z</time>
      </trkpt>
      <trkpt lat="47.67058" lon="-2.89839">
        <ele>47.9</ele>
        <time>2023-07-19T12:01:20Z</time>
      </trkpt>
      <trkpt lat="47.67018" lon="-2.89782">
        <ele>48.1</ele>
        <time>2023-07-19T12:01:31Z</time>
      </trkpt>
      <trkpt lat="47.66995" lon="-2.89753">
        <ele>48.3</ele>
        <time>2023-07-19T12:01:37Z</time>
      </trkpt>
      <trkpt lat="47.66974" lon="-2.89738">
        <ele>48.5</ele>
        <time>2023-07-19T12:01:42Z</time>
      </trkpt>
      <trkpt lat="47.66926" lon="-2.89699">
        <ele>49.2</ele>
        <time>2023-07-19T12:01:54Z</time>
      </trkpt>
      <trkpt lat="47.66918" lon="-2.89683">
        <ele>49.8</ele>
        <time>2023-07-19T12:01:57Z</time>
      </trkpt>
      <trkpt lat="47.66919" lon="-2.89669">
        <ele>49.7</ele>
        <time>2023-07-19T12:01:59Z</time>
      </trkpt>
      <trkpt lat="47.66922" lon="-2.89655">
        <ele>49.6</ele>
        <time>2023-07-19T12:02:01Z</time>
      </trkpt>
      <trkpt lat="47.66938" lon="-2.89623">
        <ele>49.2</ele>
        <time>2023-07-19T12:02:06Z</time>
      </trkpt>
      <trkpt lat="47.66944" lon="-2.8961">
        <ele>49</ele>
        <time>2023-07-19T12:02:08Z</time>
      </trkpt>
      <trkpt lat="47.6698" lon="-2.89543">
        <ele>48.3</ele>
        <time>2023-07-19T12:02:18Z</time>
      </trkpt>
      <trkpt lat="47.66989" lon="-2.89531">
        <ele>48.2</ele>
        <time>2023-07-19T12:02:20Z</time>
      </trkpt>
      <trkpt lat="47.67004" lon="-2.89517">
        <ele>48</ele>
        <time>2023-07-19T12:02:23Z</time>
      </trkpt>
      <trkpt lat="47.67053" lon="-2.89481">
        <ele>47.6</ele>
        <time>2023-07-19T12:02:32Z</time>
      </trkpt>
      <trkpt lat="47.67102" lon="-2.89445">
        <ele>47.5</ele>
        <time>2023-07-19T12:02:42Z</time>
      </trkpt>
      <trkpt lat="47.67155" lon="-2.89411">
        <ele>48.2</ele>
        <time>2023-07-19T12:02:53Z</time>
      </trkpt>
      <trkpt lat="47.67212" lon="-2.89394">
        <ele>48.5</ele>
        <time>2023-07-19T12:03:04Z</time>
      </trkpt>
      <trkpt lat="47.67217" lon="-2.89393">
        <ele>48.5</ele>
        <time>2023-07-19T12:03:05Z</time>
      </trkpt>
      <trkpt lat="47.67254" lon="-2.8939">
        <ele>48.5</ele>
        <time>2023-07-19T12:03:12Z</time>
      </trkpt>
      <trkpt lat="47.67307" lon="-2.89407">
        <ele>48.1</ele>
        <time>2023-07-19T12:03:22Z</time>
      </trkpt>
      <trkpt lat="47.67362" lon="-2.8943">
        <ele>47.2</ele>
        <time>2023-07-19T12:03:31Z</time>
      </trkpt>
      <trkpt lat="47.67416" lon="-2.89448">
        <ele>45.2</ele>
        <time>2023-07-19T12:03:39Z</time>
      </trkpt>
      <trkpt lat="47.67453" lon="-2.89457">
        <ele>43.9</ele>
        <time>2023-07-19T12:03:44Z</time>
      </trkpt>
      <trkpt lat="47.67475" lon="-2.89463">
        <ele>43.1</ele>
        <time>2023-07-19T12:03:47Z</time>
      </trkpt>
      <trkpt lat="47.67527" lon="-2.89476">
        <ele>41.5</ele>
        <time>2023-07-19T12:03:54Z</time>
      </trkpt>
      <trkpt lat="47.67578" lon="-2.89488">
        <ele>39.8</ele>
        <time>2023-07-19T12:04:01Z</time>
      </trkpt>
      <trkpt lat="47.67585" lon="-2.89489">
        <ele>39.6</ele>
        <time>2023-07-19T12:04:02Z</time>
      </trkpt>
      <trkpt lat="47.67593" lon="-2.89491">
        <ele>39.4</ele>
        <time>2023-07-19T12:04:03Z</time>
      </trkpt>
      <trkpt lat="47.676" lon="-2.89492">
        <ele>39.1</ele>
        <time>2023-07-19T12:04:04Z</time>
      </trkpt>
      <trkpt lat="47.67608" lon="-2.89493">
        <ele>38.9</ele>
        <time>2023-07-19T12:04:05Z</time>
      </trkpt>
      <trkpt lat="47.67666" lon="-2.89481">
        <ele>37.3</ele>
        <time>2023-07-19T12:04:13Z</time>
      </trkpt>
      <trkpt lat="47.67687" lon="-2.89472">
        <ele>36.3</ele>
        <time>2023-07-19T12:04:16Z</time>
      </trkpt>
      <trkpt lat="47.67735" lon="-2.89459">
        <ele>35</ele>
        <time>2023-07-19T12:04:22Z</time>
      </trkpt>
      <trkpt lat="47.67751" lon="-2.89464">
        <ele>35.1</ele>
        <time>2023-07-19T12:04:24Z</time>
      </trkpt>
      <trkpt lat="47.67771" lon="-2.89471">
        <ele>35.5</ele>
        <time>2023-07-19T12:04:27Z</time>
      </trkpt>
      <trkpt lat="47.67784" lon="-2.89471">
        <ele>35.8</ele>
        <time>2023-07-19T12:04:29Z</time>
      </trkpt>
      <trkpt lat="47.67799" lon="-2.89465">
        <ele>36.3</ele>
        <time>2023-07-19T12:04:32Z</time>
      </trkpt>
      <trkpt lat="47.67833" lon="-2.89447">
        <ele>38.2</ele>
        <time>2023-07-19T12:04:40Z</time>
      </trkpt>
      <trkpt lat="47.67861" lon="-2.89428">
        <ele>39.6</ele>
        <time>2023-07-19T12:04:47Z</time>
      </trkpt>
      <trkpt lat="47.67882" lon="-2.89412">
        <ele>40.5</ele>
        <time>2023-07-19T12:04:53Z</time>
      </trkpt>
      <trkpt lat="47.67886" lon="-2.89408">
        <ele>40.7</ele>
        <time>2023-07-19T12:04:54Z</time>
      </trkpt>
      <trkpt lat="47.67934" lon="-2.89367">
        <ele>42.5</ele>
        <time>2023-07-19T12:05:07Z</time>
      </trkpt>
      <trkpt lat="47.67937" lon="-2.89364">
        <ele>42.6</ele>
        <time>2023-07-19T12:05:08Z</time>
      </trkpt>
      <trkpt lat="47.67953" lon="-2.89349">
        <ele>43.1</ele>
        <time>2023-07-19T12:05:13Z</time>
      </trkpt>
      <trkpt lat="47.67957" lon="-2.89346">
        <ele>43.2</ele>
        <time>2023-07-19T12:05:14Z</time>
      </trkpt>
      <trkpt lat="47.67964" lon="-2.8934">
        <ele>43.4</ele>
        <time>2023-07-19T12:05:16Z</time>
      </trkpt>
      <trkpt lat="47.68012" lon="-2.89299">
        <ele>44.7</ele>
        <time>2023-07-19T12:05:30Z</time>
      </trkpt>
      <trkpt lat="47.6806" lon="-2.89258">
        <ele>45.7</ele>
        <time>2023-07-19T12:05:44Z</time>
      </trkpt>
      <trkpt lat="47.68114" lon="-2.89225">
        <ele>45.4</ele>
        <time>2023-07-19T12:05:57Z</time>
      </trkpt>
      <trkpt lat="47.68165" lon="-2.89201">
        <ele>44.3</ele>
        <time>2023-07-19T12:06:06Z</time>
      </trkpt>
      <trkpt lat="47.68216" lon="-2.89171">
        <ele>43.2</ele>
        <time>2023-07-19T12:06:14Z</time>
      </trkpt>
      <trkpt lat="47.68234" lon="-2.8916">
        <ele>42.9</ele>
        <time>2023-07-19T12:06:17Z</time>
      </trkpt>
      <trkpt lat="47.68271" lon="-2.89136">
        <ele>42.2</ele>
        <time>2023-07-19T12:06:23Z</time>
      </trkpt>
      <trkpt lat="47.68306" lon="-2.89114">
        <ele>41.8</ele>
        <time>2023-07-19T12:06:29Z</time>
      </trkpt>
      <trkpt lat="47.68312" lon="-2.8911">
        <ele>41.7</ele>
        <time>2023-07-19T12:06:30Z</time>
      </trkpt>
      <trkpt lat="47.68365" lon="-2.89069">
        <ele>40.3</ele>
        <time>2023-07-19T12:06:39Z</time>
      </trkpt>
      <trkpt lat="47.68409" lon="-2.89009">
        <ele>37.7</ele>
        <time>2023-07-19T12:06:47Z</time>
      </trkpt>
      <trkpt lat="47.68443" lon="-2.88954">
        <ele>34.5</ele>
        <time>2023-07-19T12:06:53Z</time>
      </trkpt>
      <trkpt lat="47.6845" lon="-2.88929">
        <ele>33.6</ele>
        <time>2023-07-19T12:06:55Z</time>
      </trkpt>
      <trkpt lat="47.6846" lon="-2.88859">
        <ele>30.6</ele>
        <time>2023-07-19T12:07:00Z</time>
      </trkpt>
      <trkpt lat="47.6846" lon="-2.88845">
        <ele>29.9</ele>
        <time>2023-07-19T12:07:01Z</time>
      </trkpt>
      <trkpt lat="47.68457" lon="-2.88741">
        <ele>26</ele>
        <time>2023-07-19T12:07:08Z</time>
      </trkpt>
      <trkpt lat="47.68455" lon="-2.88727">
        <ele>25.8</ele>
        <time>2023-07-19T12:07:09Z</time>
      </trkpt>
      <trkpt lat="47.68434" lon="-2.88647">
        <ele>25.5</ele>
        <time>2023-07-19T12:07:16Z</time>
      </trkpt>
      <trkpt lat="47.68431" lon="-2.88637">
        <ele>25.7</ele>
        <time>2023-07-19T12:07:17Z</time>
      </trkpt>
      <trkpt lat="47.68428" lon="-2.88627">
        <ele>26</ele>
        <time>2023-07-19T12:07:18Z</time>
      </trkpt>
      <trkpt lat="47.6842" lon="-2.886">
        <ele>26.8</ele>
        <time>2023-07-19T12:07:21Z</time>
      </trkpt>
      <trkpt lat="47.6841" lon="-2.8857">
        <ele>27.7</ele>
        <time>2023-07-19T12:07:25Z</time>
      </trkpt>
      <trkpt lat="47.68399" lon="-2.88535">
        <ele>28.6</ele>
        <time>2023-07-19T12:07:30Z</time>
      </trkpt>
      <trkpt lat="47.68395" lon="-2.8852">
        <ele>28.9</ele>
        <time>2023-07-19T12:07:32Z</time>
      </trkpt>
      <trkpt lat="47.68371" lon="-2.88445">
        <ele>30.2</ele>
        <time>2023-07-19T12:07:43Z</time>
      </trkpt>
      <trkpt lat="47.68349" lon="-2.88381">
        <ele>31.5</ele>
        <time>2023-07-19T12:07:54Z</time>
      </trkpt>
      <trkpt lat="47.68338" lon="-2.88344">
        <ele>32.3</ele>
        <time>2023-07-19T12:08:01Z</time>
      </trkpt>
      <trkpt lat="47.68329" lon="-2.88303">
        <ele>33.5</ele>
        <time>2023-07-19T12:08:09Z</time>
      </trkpt>
      <trkpt lat="47.68334" lon="-2.88298">
        <ele>33.4</ele>
        <time>2023-07-19T12:08:11Z</time>
      </trkpt>
      <trkpt lat="47.68356" lon="-2.88292">
        <ele>32.9</ele>
        <time>2023-07-19T12:08:17Z</time>
      </trkpt>
      <trkpt lat="47.68365" lon="-2.8829">
        <ele>32.8</ele>
        <time>2023-07-19T12:08:19Z</time>
      </trkpt>
      <trkpt lat="47.68402" lon="-2.88289">
        <ele>32.4</ele>
        <time>2023-07-19T12:08:26Z</time>
      </trkpt>
      <trkpt lat="47.6846" lon="-2.8829">
        <ele>31.7</ele>
        <time>2023-07-19T12:08:36Z</time>
      </trkpt>
      <trkpt lat="47.68515" lon="-2.88284">
        <ele>30.8</ele>
        <time>2023-07-19T12:08:45Z</time>
      </trkpt>
      <trkpt lat="47.68568" lon="-2.88266">
        <ele>29.8</ele>
        <time>2023-07-19T12:08:54Z</time>
      </trkpt>
      <trkpt lat="47.68626" lon="-2.88243">
        <ele>27.4</ele>
        <time>2023-07-19T12:09:04Z</time>
      </trkpt>
      <trkpt lat="47.68639" lon="-2.88241">
        <ele>26.4</ele>
        <time>2023-07-19T12:09:06Z</time>
      </trkpt>
      <trkpt lat="47.68701" lon="-2.88238">
        <ele>22.1</ele>
        <time>2023-07-19T12:09:13Z</time>
      </trkpt>
      <trkpt lat="47.68762" lon="-2.88254">
        <ele>20.9</ele>
        <time>2023-07-19T12:09:20Z</time>
      </trkpt>
      <trkpt lat="47.68787" lon="-2.88266">
        <ele>21.3</ele>
        <time>2023-07-19T12:09:24Z</time>
      </trkpt>
      <trkpt lat="47.68794" lon="-2.88277">
        <ele>21.3</ele>
        <time>2023-07-19T12:09:26Z</time>
      </trkpt>
      <trkpt lat="47.68801" lon="-2.88289">
        <ele>21.3</ele>
        <time>2023-07-19T12:09:28Z</time>
      </trkpt>
      <trkpt lat="47.68843" lon="-2.88343">
        <ele>21.9</ele>
        <time>2023-07-19T12:09:38Z</time>
      </trkpt>
      <trkpt lat="47.68888" lon="-2.88391">
        <ele>22</ele>
        <time>2023-07-19T12:09:48Z</time>
      </trkpt>
      <trkpt lat="47.68938" lon="-2.88435">
        <ele>22.2</ele>
        <time>2023-07-19T12:09:58Z</time>
      </trkpt>
      <trkpt lat="47.68984" lon="-2.88485">
        <ele>22.3</ele>
        <time>2023-07-19T12:10:08Z</time>
      </trkpt>
      <trkpt lat="47.68994" lon="-2.88493">
        <ele>22.2</ele>
        <time>2023-07-19T12:10:10Z</time>
      </trkpt>
      <trkpt lat="47.69012" lon="-2.88499">
        <ele>22</ele>
        <time>2023-07-19T12:10:13Z</time>
      </trkpt>
      <trkpt lat="47.69025" lon="-2.88498">
        <ele>21.8</ele>
        <time>2023-07-19T12:10:14Z</time>
      </trkpt>
      <trkpt lat="47.69037" lon="-2.88494">
        <ele>21.8</ele>
        <time>2023-07-19T12:10:17Z</time>
      </trkpt>
      <trkpt lat="47.69089" lon="-2.88463">
        <ele>22.8</ele>
        <time>2023-07-19T12:10:27Z</time>
      </trkpt>
      <trkpt lat="47.69113" lon="-2.88447">
        <ele>23.9</ele>
        <time>2023-07-19T12:10:32Z</time>
      </trkpt>
      <trkpt lat="47.69126" lon="-2.88437">
        <ele>24.7</ele>
        <time>2023-07-19T12:10:35Z</time>
      </trkpt>
      <trkpt lat="47.69173" lon="-2.88396">
        <ele>28.5</ele>
        <time>2023-07-19T12:10:49Z</time>
      </trkpt>
      <trkpt lat="47.69178" lon="-2.88391">
        <ele>29</ele>
        <time>2023-07-19T12:10:51Z</time>
      </trkpt>
      <trkpt lat="47.69227" lon="-2.8835">
        <ele>33.1</ele>
        <time>2023-07-19T12:11:10Z</time>
      </trkpt>
      <trkpt lat="47.69236" lon="-2.88341">
        <ele>33.7</ele>
        <time>2023-07-19T12:11:14Z</time>
      </trkpt>
      <trkpt lat="47.6924" lon="-2.88337">
        <ele>34</ele>
        <time>2023-07-19T12:11:16Z</time>
      </trkpt>
      <trkpt lat="47.69242" lon="-2.88335">
        <ele>34.2</ele>
        <time>2023-07-19T12:11:17Z</time>
      </trkpt>
      <trkpt lat="47.6928" lon="-2.88294">
        <ele>36</ele>
        <time>2023-07-19T12:11:31Z</time>
      </trkpt>
      <trkpt lat="47.69286" lon="-2.88287">
        <ele>36.1</ele>
        <time>2023-07-19T12:11:33Z</time>
      </trkpt>
      <trkpt lat="47.69299" lon="-2.88276">
        <ele>36.2</ele>
        <time>2023-07-19T12:11:37Z</time>
      </trkpt>
      <trkpt lat="47.69306" lon="-2.88271">
        <ele>36.3</ele>
        <time>2023-07-19T12:11:39Z</time>
      </trkpt>
      <trkpt lat="47.69309" lon="-2.88269">
        <ele>36.4</ele>
        <time>2023-07-19T12:11:40Z</time>
      </trkpt>
      <trkpt lat="47.69325" lon="-2.88262">
        <ele>36.6</ele>
        <time>2023-07-19T12:11:44Z</time>
      </trkpt>
      <trkpt lat="47.69379" lon="-2.8824">
        <ele>36.4</ele>
        <time>2023-07-19T12:11:57Z</time>
      </trkpt>
      <trkpt lat="47.69389" lon="-2.88235">
        <ele>36.1</ele>
        <time>2023-07-19T12:11:58Z</time>
      </trkpt>
      <trkpt lat="47.69394" lon="-2.88231">
        <ele>36.4</ele>
        <time>2023-07-19T12:12:00Z</time>
      </trkpt>
      <trkpt lat="47.69412" lon="-2.88199">
        <ele>37.4</ele>
        <time>2023-07-19T12:12:07Z</time>
      </trkpt>
      <trkpt lat="47.69416" lon="-2.8817">
        <ele>38</ele>
        <time>2023-07-19T12:12:12Z</time>
      </trkpt>
      <trkpt lat="47.6941" lon="-2.88113">
        <ele>39.5</ele>
        <time>2023-07-19T12:12:22Z</time>
      </trkpt>
      <trkpt lat="47.69377" lon="-2.88045">
        <ele>42.2</ele>
        <time>2023-07-19T12:12:37Z</time>
      </trkpt>
      <trkpt lat="47.69345" lon="-2.8798">
        <ele>44.6</ele>
        <time>2023-07-19T12:12:52Z</time>
      </trkpt>
      <trkpt lat="47.69321" lon="-2.87928">
        <ele>45.7</ele>
        <time>2023-07-19T12:13:05Z</time>
      </trkpt>
      <trkpt lat="47.69312" lon="-2.87904">
        <ele>46.1</ele>
        <time>2023-07-19T12:13:11Z</time>
      </trkpt>
      <trkpt lat="47.69311" lon="-2.87899">
        <ele>46.1</ele>
        <time>2023-07-19T12:13:12Z</time>
      </trkpt>
      <trkpt lat="47.69308" lon="-2.87872">
        <ele>46.1</ele>
        <time>2023-07-19T12:13:18Z</time>
      </trkpt>
      <trkpt lat="47.69306" lon="-2.87867">
        <ele>46.1</ele>
        <time>2023-07-19T12:13:19Z</time>
      </trkpt>
      <trkpt lat="47.69298" lon="-2.87829">
        <ele>46.9</ele>
        <time>2023-07-19T12:13:26Z</time>
      </trkpt>
      <trkpt lat="47.69287" lon="-2.87751">
        <ele>48.9</ele>
        <time>2023-07-19T12:13:42Z</time>
      </trkpt>
      <trkpt lat="47.69296" lon="-2.87674">
        <ele>48.5</ele>
        <time>2023-07-19T12:13:58Z</time>
      </trkpt>
      <trkpt lat="47.69305" lon="-2.87628">
        <ele>48.2</ele>
        <time>2023-07-19T12:14:06Z</time>
      </trkpt>
      <trkpt lat="47.69301" lon="-2.87615">
        <ele>48.2</ele>
        <time>2023-07-19T12:14:08Z</time>
      </trkpt>
      <trkpt lat="47.69291" lon="-2.87583">
        <ele>48.4</ele>
        <time>2023-07-19T12:14:13Z</time>
      </trkpt>
      <trkpt lat="47.69285" lon="-2.8756">
        <ele>49</ele>
        <time>2023-07-19T12:14:17Z</time>
      </trkpt>
      <trkpt lat="47.6929" lon="-2.87549">
        <ele>49.4</ele>
        <time>2023-07-19T12:14:20Z</time>
      </trkpt>
      <trkpt lat="47.69304" lon="-2.87549">
        <ele>50.1</ele>
        <time>2023-07-19T12:14:28Z</time>
      </trkpt>
      <trkpt lat="47.69305" lon="-2.8755">
        <ele>50.1</ele>
        <time>2023-07-19T12:14:48Z</time>
      </trkpt>
      <trkpt lat="47.69305" lon="-2.8755">
        <ele>50.1</ele>
        <time>2023-07-19T12:14:49Z</time>
      </trkpt>
      <trkpt lat="47.69306" lon="-2.87546">
        <ele>50.3</ele>
        <time>2023-07-19T12:14:53Z</time>
      </trkpt>
      <trkpt lat="47.69309" lon="-2.8754">
        <ele>50.4</ele>
        <time>2023-07-19T12:14:55Z</time>
      </trkpt>
      <trkpt lat="47.69313" lon="-2.87519">
        <ele>51</ele>
        <time>2023-07-19T12:14:59Z</time>
      </trkpt>
      <trkpt lat="47.69314" lon="-2.87507">
        <ele>51.3</ele>
        <time>2023-07-19T12:15:01Z</time>
      </trkpt>
      <trkpt lat="47.69313" lon="-2.87495">
        <ele>51.5</ele>
        <time>2023-07-19T12:15:03Z</time>
      </trkpt>
      <trkpt lat="47.69313" lon="-2.87477">
        <ele>51.6</ele>
        <time>2023-07-19T12:15:06Z</time>
      </trkpt>
      <trkpt lat="47.69313" lon="-2.8747">
        <ele>51.6</ele>
        <time>2023-07-19T12:15:07Z</time>
      </trkpt>
      <trkpt lat="47.69313" lon="-2.87464">
        <ele>51.5</ele>
        <time>2023-07-19T12:15:08Z</time>
      </trkpt>
      <trkpt lat="47.69312" lon="-2.87458">
        <ele>51.5</ele>
        <time>2023-07-19T12:15:09Z</time>
      </trkpt>
      <trkpt lat="47.6931" lon="-2.87438">
        <ele>51.1</ele>
        <time>2023-07-19T12:15:12Z</time>
      </trkpt>
      <trkpt lat="47.6931" lon="-2.87431">
        <ele>50.9</ele>
        <time>2023-07-19T12:15:13Z</time>
      </trkpt>
      <trkpt lat="47.69309" lon="-2.87423">
        <ele>50.6</ele>
        <time>2023-07-19T12:15:14Z</time>
      </trkpt>
      <trkpt lat="47.69308" lon="-2.87398">
        <ele>49.7</ele>
        <time>2023-07-19T12:15:17Z</time>
      </trkpt>
      <trkpt lat="47.69307" lon="-2.87359">
        <ele>48</ele>
        <time>2023-07-19T12:15:21Z</time>
      </trkpt>
      <trkpt lat="47.69306" lon="-2.87338">
        <ele>47</ele>
        <time>2023-07-19T12:15:22Z</time>
      </trkpt>
      <trkpt lat="47.69306" lon="-2.87338">
        <ele>47</ele>
        <time>2023-07-19T12:15:23Z</time>
      </trkpt>
      <trkpt lat="47.69308" lon="-2.87297">
        <ele>44.6</ele>
        <time>2023-07-19T12:15:28Z</time>
      </trkpt>
      <trkpt lat="47.69308" lon="-2.87265">
        <ele>42</ele>
        <time>2023-07-19T12:15:35Z</time>
      </trkpt>
      <trkpt lat="47.69306" lon="-2.87175">
        <ele>37.2</ele>
        <time>2023-07-19T12:15:43Z</time>
      </trkpt>
      <trkpt lat="47.69305" lon="-2.87162">
        <ele>36.9</ele>
        <time>2023-07-19T12:15:44Z</time>
      </trkpt>
      <trkpt lat="47.69304" lon="-2.8715">
        <ele>36.6</ele>
        <time>2023-07-19T12:15:45Z</time>
      </trkpt>
      <trkpt lat="47.69302" lon="-2.87125">
        <ele>36.1</ele>
        <time>2023-07-19T12:15:47Z</time>
      </trkpt>
      <trkpt lat="47.69299" lon="-2.8709">
        <ele>35.5</ele>
        <time>2023-07-19T12:15:50Z</time>
      </trkpt>
      <trkpt lat="47.69305" lon="-2.87069">
        <ele>35.2</ele>
        <time>2023-07-19T12:15:52Z</time>
      </trkpt>
      <trkpt lat="47.69332" lon="-2.86988">
        <ele>34.9</ele>
        <time>2023-07-19T12:16:00Z</time>
      </trkpt>
      <trkpt lat="47.69353" lon="-2.86904">
        <ele>34.1</ele>
        <time>2023-07-19T12:16:08Z</time>
      </trkpt>
      <trkpt lat="47.69358" lon="-2.86882">
        <ele>34.1</ele>
        <time>2023-07-19T12:16:10Z</time>
      </trkpt>
      <trkpt lat="47.69383" lon="-2.86807">
        <ele>34</ele>
        <time>2023-07-19T12:16:18Z</time>
      </trkpt>
      <trkpt lat="47.694" lon="-2.86769">
        <ele>33.2</ele>
        <time>2023-07-19T12:16:22Z</time>
      </trkpt>
      <trkpt lat="47.69423" lon="-2.86711">
        <ele>32.7</ele>
        <time>2023-07-19T12:16:28Z</time>
      </trkpt>
      <trkpt lat="47.69428" lon="-2.86647">
        <ele>32.5</ele>
        <time>2023-07-19T12:16:35Z</time>
      </trkpt>
      <trkpt lat="47.69433" lon="-2.86632">
        <ele>32.4</ele>
        <time>2023-07-19T12:16:37Z</time>
      </trkpt>
      <trkpt lat="47.69433" lon="-2.86616">
        <ele>32.4</ele>
        <time>2023-07-19T12:16:39Z</time>
      </trkpt>
      <trkpt lat="47.69428" lon="-2.86601">
        <ele>32.5</ele>
        <time>2023-07-19T12:16:41Z</time>
      </trkpt>
      <trkpt lat="47.69421" lon="-2.86587">
        <ele>32.5</ele>
        <time>2023-07-19T12:16:43Z</time>
      </trkpt>
      <trkpt lat="47.69394" lon="-2.86557">
        <ele>32.8</ele>
        <time>2023-07-19T12:16:49Z</time>
      </trkpt>
      <trkpt lat="47.69382" lon="-2.86541">
        <ele>33</ele>
        <time>2023-07-19T12:16:52Z</time>
      </trkpt>
      <trkpt lat="47.69353" lon="-2.86507">
        <ele>33.5</ele>
        <time>2023-07-19T12:16:59Z</time>
      </trkpt>
      <trkpt lat="47.69329" lon="-2.86489">
        <ele>33.9</ele>
        <time>2023-07-19T12:17:04Z</time>
      </trkpt>
      <trkpt lat="47.69292" lon="-2.86468">
        <ele>34.7</ele>
        <time>2023-07-19T12:17:11Z</time>
      </trkpt>
      <trkpt lat="47.69277" lon="-2.8646">
        <ele>35.1</ele>
        <time>2023-07-19T12:17:14Z</time>
      </trkpt>
      <trkpt lat="47.69267" lon="-2.86454">
        <ele>35.4</ele>
        <time>2023-07-19T12:17:16Z</time>
      </trkpt>
      <trkpt lat="47.69258" lon="-2.86421">
        <ele>35.8</ele>
        <time>2023-07-19T12:17:22Z</time>
      </trkpt>
      <trkpt lat="47.69269" lon="-2.86377">
        <ele>36.5</ele>
        <time>2023-07-19T12:17:28Z</time>
      </trkpt>
      <trkpt lat="47.69265" lon="-2.86363">
        <ele>36.8</ele>
        <time>2023-07-19T12:17:31Z</time>
      </trkpt>
      <trkpt lat="47.69234" lon="-2.86353">
        <ele>37.9</ele>
        <time>2023-07-19T12:17:39Z</time>
      </trkpt>
      <trkpt lat="47.69209" lon="-2.86288">
        <ele>39.8</ele>
        <time>2023-07-19T12:17:53Z</time>
      </trkpt>
      <trkpt lat="47.69203" lon="-2.86234">
        <ele>41.8</ele>
        <time>2023-07-19T12:18:01Z</time>
      </trkpt>
      <trkpt lat="47.692" lon="-2.86202">
        <ele>43.5</ele>
        <time>2023-07-19T12:18:09Z</time>
      </trkpt>
      <trkpt lat="47.69199" lon="-2.86193">
        <ele>43.9</ele>
        <time>2023-07-19T12:18:11Z</time>
      </trkpt>
      <trkpt lat="47.69198" lon="-2.86185">
        <ele>44.3</ele>
        <time>2023-07-19T12:18:13Z</time>
      </trkpt>
      <trkpt lat="47.692" lon="-2.86174">
        <ele>44.7</ele>
        <time>2023-07-19T12:18:16Z</time>
      </trkpt>
      <trkpt lat="47.69203" lon="-2.86164">
        <ele>45.1</ele>
        <time>2023-07-19T12:18:19Z</time>
      </trkpt>
      <trkpt lat="47.692" lon="-2.86154">
        <ele>45.4</ele>
        <time>2023-07-19T12:18:22Z</time>
      </trkpt>
      <trkpt lat="47.69197" lon="-2.86137">
        <ele>45.5</ele>
        <time>2023-07-19T12:18:26Z</time>
      </trkpt>
      <trkpt lat="47.69193" lon="-2.86105">
        <ele>45.5</ele>
        <time>2023-07-19T12:18:31Z</time>
      </trkpt>
      <trkpt lat="47.69177" lon="-2.86055">
        <ele>45.4</ele>
        <time>2023-07-19T12:18:39Z</time>
      </trkpt>
      <trkpt lat="47.69176" lon="-2.8597">
        <ele>43.6</ele>
        <time>2023-07-19T12:18:49Z</time>
      </trkpt>
      <trkpt lat="47.69178" lon="-2.85948">
        <ele>43</ele>
        <time>2023-07-19T12:18:51Z</time>
      </trkpt>
      <trkpt lat="47.69178" lon="-2.85925">
        <ele>42.5</ele>
        <time>2023-07-19T12:18:53Z</time>
      </trkpt>
      <trkpt lat="47.69178" lon="-2.85914">
        <ele>42.4</ele>
        <time>2023-07-19T12:18:54Z</time>
      </trkpt>
      <trkpt lat="47.69177" lon="-2.85892">
        <ele>42.1</ele>
        <time>2023-07-19T12:18:56Z</time>
      </trkpt>
      <trkpt lat="47.69178" lon="-2.85846">
        <ele>41.8</ele>
        <time>2023-07-19T12:19:00Z</time>
      </trkpt>
      <trkpt lat="47.69179" lon="-2.85835">
        <ele>41.7</ele>
        <time>2023-07-19T12:19:01Z</time>
      </trkpt>
      <trkpt lat="47.69179" lon="-2.85824">
        <ele>41.7</ele>
        <time>2023-07-19T12:19:02Z</time>
      </trkpt>
      <trkpt lat="47.6918" lon="-2.85813">
        <ele>41.7</ele>
        <time>2023-07-19T12:19:03Z</time>
      </trkpt>
      <trkpt lat="47.6918" lon="-2.85802">
        <ele>41.6</ele>
        <time>2023-07-19T12:19:04Z</time>
      </trkpt>
      <trkpt lat="47.69181" lon="-2.85737">
        <ele>41.2</ele>
        <time>2023-07-19T12:19:10Z</time>
      </trkpt>
      <trkpt lat="47.69181" lon="-2.85726">
        <ele>41.1</ele>
        <time>2023-07-19T12:19:11Z</time>
      </trkpt>
      <trkpt lat="47.69184" lon="-2.85638">
        <ele>40.1</ele>
        <time>2023-07-19T12:19:19Z</time>
      </trkpt>
      <trkpt lat="47.69183" lon="-2.85581">
        <ele>39.2</ele>
        <time>2023-07-19T12:19:24Z</time>
      </trkpt>
      <trkpt lat="47.69176" lon="-2.85548">
        <ele>38.6</ele>
        <time>2023-07-19T12:19:27Z</time>
      </trkpt>
      <trkpt lat="47.69162" lon="-2.85471">
        <ele>37.1</ele>
        <time>2023-07-19T12:19:34Z</time>
      </trkpt>
      <trkpt lat="47.69162" lon="-2.8546">
        <ele>37</ele>
        <time>2023-07-19T12:19:35Z</time>
      </trkpt>
      <trkpt lat="47.6917" lon="-2.85443">
        <ele>36.8</ele>
        <time>2023-07-19T12:19:37Z</time>
      </trkpt>
      <trkpt lat="47.69187" lon="-2.85423">
        <ele>36.6</ele>
        <time>2023-07-19T12:19:40Z</time>
      </trkpt>
      <trkpt lat="47.69194" lon="-2.85406">
        <ele>36.3</ele>
        <time>2023-07-19T12:19:42Z</time>
      </trkpt>
      <trkpt lat="47.69196" lon="-2.85387">
        <ele>36</ele>
        <time>2023-07-19T12:19:44Z</time>
      </trkpt>
      <trkpt lat="47.69198" lon="-2.85376">
        <ele>35.8</ele>
        <time>2023-07-19T12:19:45Z</time>
      </trkpt>
      <trkpt lat="47.69201" lon="-2.85354">
        <ele>35.5</ele>
        <time>2023-07-19T12:19:47Z</time>
      </trkpt>
      <trkpt lat="47.69202" lon="-2.85343">
        <ele>35.4</ele>
        <time>2023-07-19T12:19:48Z</time>
      </trkpt>
      <trkpt lat="47.69209" lon="-2.85271">
        <ele>34.9</ele>
        <time>2023-07-19T12:19:55Z</time>
      </trkpt>
      <trkpt lat="47.69206" lon="-2.85252">
        <ele>35</ele>
        <time>2023-07-19T12:19:57Z</time>
      </trkpt>
      <trkpt lat="47.69198" lon="-2.8524">
        <ele>35</ele>
        <time>2023-07-19T12:19:59Z</time>
      </trkpt>
      <trkpt lat="47.69186" lon="-2.85234">
        <ele>35.1</ele>
        <time>2023-07-19T12:20:01Z</time>
      </trkpt>
      <trkpt lat="47.69173" lon="-2.85233">
        <ele>35.2</ele>
        <time>2023-07-19T12:20:03Z</time>
      </trkpt>
      <trkpt lat="47.69133" lon="-2.85227">
        <ele>35.3</ele>
        <time>2023-07-19T12:20:10Z</time>
      </trkpt>
      <trkpt lat="47.6912" lon="-2.85214">
        <ele>35.2</ele>
        <time>2023-07-19T12:20:13Z</time>
      </trkpt>
      <trkpt lat="47.69108" lon="-2.85213">
        <ele>35.2</ele>
        <time>2023-07-19T12:20:15Z</time>
      </trkpt>
      <trkpt lat="47.69088" lon="-2.85218">
        <ele>35.3</ele>
        <time>2023-07-19T12:20:19Z</time>
      </trkpt>
      <trkpt lat="47.69079" lon="-2.85213">
        <ele>35.3</ele>
        <time>2023-07-19T12:20:21Z</time>
      </trkpt>
      <trkpt lat="47.69072" lon="-2.85202">
        <ele>35.3</ele>
        <time>2023-07-19T12:20:23Z</time>
      </trkpt>
      <trkpt lat="47.69057" lon="-2.85159">
        <ele>35.3</ele>
        <time>2023-07-19T12:20:29Z</time>
      </trkpt>
      <trkpt lat="47.69053" lon="-2.85134">
        <ele>35.3</ele>
        <time>2023-07-19T12:20:32Z</time>
      </trkpt>
      <trkpt lat="47.69031" lon="-2.85056">
        <ele>35.7</ele>
        <time>2023-07-19T12:20:43Z</time>
      </trkpt>
      <trkpt lat="47.69011" lon="-2.85013">
        <ele>35.9</ele>
        <time>2023-07-19T12:20:50Z</time>
      </trkpt>
      <trkpt lat="47.69008" lon="-2.84999">
        <ele>35.9</ele>
        <time>2023-07-19T12:20:52Z</time>
      </trkpt>
      <trkpt lat="47.69" lon="-2.84914">
        <ele>36.3</ele>
        <time>2023-07-19T12:21:03Z</time>
      </trkpt>
      <trkpt lat="47.68993" lon="-2.8483">
        <ele>36.6</ele>
        <time>2023-07-19T12:21:14Z</time>
      </trkpt>
      <trkpt lat="47.68994" lon="-2.84823">
        <ele>36.6</ele>
        <time>2023-07-19T12:21:15Z</time>
      </trkpt>
      <trkpt lat="47.69017" lon="-2.84743">
        <ele>37.1</ele>
        <time>2023-07-19T12:21:26Z</time>
      </trkpt>
      <trkpt lat="47.69032" lon="-2.84702">
        <ele>37.5</ele>
        <time>2023-07-19T12:21:32Z</time>
      </trkpt>
      <trkpt lat="47.69043" lon="-2.84654">
        <ele>37.9</ele>
        <time>2023-07-19T12:21:39Z</time>
      </trkpt>
      <trkpt lat="47.69073" lon="-2.84586">
        <ele>38.4</ele>
        <time>2023-07-19T12:21:53Z</time>
      </trkpt>
      <trkpt lat="47.69073" lon="-2.84584">
        <ele>38.5</ele>
        <time>2023-07-19T12:21:56Z</time>
      </trkpt>
      <trkpt lat="47.69074" lon="-2.84585">
        <ele>38.5</ele>
        <time>2023-07-19T12:22:31Z</time>
      </trkpt>
      <trkpt lat="47.69075" lon="-2.84582">
        <ele>38.5</ele>
        <time>2023-07-19T12:22:35Z</time>
      </trkpt>
      <trkpt lat="47.6908" lon="-2.84573">
        <ele>38.6</ele>
        <time>2023-07-19T12:22:38Z</time>
      </trkpt>
      <trkpt lat="47.69089" lon="-2.84551">
        <ele>38.9</ele>
        <time>2023-07-19T12:22:43Z</time>
      </trkpt>
      <trkpt lat="47.69095" lon="-2.84538">
        <ele>39</ele>
        <time>2023-07-19T12:22:46Z</time>
      </trkpt>
      <trkpt lat="47.69101" lon="-2.8453">
        <ele>39.1</ele>
        <time>2023-07-19T12:22:48Z</time>
      </trkpt>
      <trkpt lat="47.69108" lon="-2.84518">
        <ele>39.2</ele>
        <time>2023-07-19T12:22:51Z</time>
      </trkpt>
      <trkpt lat="47.6911" lon="-2.84512">
        <ele>39.3</ele>
        <time>2023-07-19T12:22:52Z</time>
      </trkpt>
      <trkpt lat="47.69123" lon="-2.84448">
        <ele>39.7</ele>
        <time>2023-07-19T12:23:04Z</time>
      </trkpt>
      <trkpt lat="47.69121" lon="-2.8443">
        <ele>39.8</ele>
        <time>2023-07-19T12:23:07Z</time>
      </trkpt>
      <trkpt lat="47.69121" lon="-2.84366">
        <ele>40.4</ele>
        <time>2023-07-19T12:23:17Z</time>
      </trkpt>
      <trkpt lat="47.69126" lon="-2.84343">
        <ele>40.9</ele>
        <time>2023-07-19T12:23:21Z</time>
      </trkpt>
      <trkpt lat="47.69127" lon="-2.84328">
        <ele>41.2</ele>
        <time>2023-07-19T12:23:24Z</time>
      </trkpt>
      <trkpt lat="47.69105" lon="-2.84327">
        <ele>41.6</ele>
        <time>2023-07-19T12:23:30Z</time>
      </trkpt>
      <trkpt lat="47.69063" lon="-2.84326">
        <ele>41.9</ele>
        <time>2023-07-19T12:23:39Z</time>
      </trkpt>
      <trkpt lat="47.69053" lon="-2.84325">
        <ele>42</ele>
        <time>2023-07-19T12:23:41Z</time>
      </trkpt>
      <trkpt lat="47.69048" lon="-2.84324">
        <ele>42</ele>
        <time>2023-07-19T12:23:42Z</time>
      </trkpt>
      <trkpt lat="47.69038" lon="-2.84323">
        <ele>42</ele>
        <time>2023-07-19T12:23:44Z</time>
      </trkpt>
      <trkpt lat="47.68982" lon="-2.84319">
        <ele>41.7</ele>
        <time>2023-07-19T12:23:55Z</time>
      </trkpt>
      <trkpt lat="47.68972" lon="-2.84318">
        <ele>41.6</ele>
        <time>2023-07-19T12:23:57Z</time>
      </trkpt>
      <trkpt lat="47.68961" lon="-2.84319">
        <ele>41.4</ele>
        <time>2023-07-19T12:23:59Z</time>
      </trkpt>
      <trkpt lat="47.68955" lon="-2.84318">
        <ele>41.4</ele>
        <time>2023-07-19T12:24:00Z</time>
      </trkpt>
      <trkpt lat="47.68945" lon="-2.84311">
        <ele>41.4</ele>
        <time>2023-07-19T12:24:02Z</time>
      </trkpt>
      <trkpt lat="47.6894" lon="-2.84298">
        <ele>41.5</ele>
        <time>2023-07-19T12:24:04Z</time>
      </trkpt>
      <trkpt lat="47.68936" lon="-2.84255">
        <ele>41.9</ele>
        <time>2023-07-19T12:24:10Z</time>
      </trkpt>
      <trkpt lat="47.68935" lon="-2.84235">
        <ele>42.3</ele>
        <time>2023-07-19T12:24:13Z</time>
      </trkpt>
      <trkpt lat="47.68935" lon="-2.84229">
        <ele>42.4</ele>
        <time>2023-07-19T12:24:14Z</time>
      </trkpt>
      <trkpt lat="47.68934" lon="-2.84222">
        <ele>42.5</ele>
        <time>2023-07-19T12:24:15Z</time>
      </trkpt>
      <trkpt lat="47.68931" lon="-2.84212">
        <ele>42.6</ele>
        <time>2023-07-19T12:24:17Z</time>
      </trkpt>
      <trkpt lat="47.68925" lon="-2.84211">
        <ele>42.7</ele>
        <time>2023-07-19T12:24:19Z</time>
      </trkpt>
      <trkpt lat="47.68916" lon="-2.84214">
        <ele>42.7</ele>
        <time>2023-07-19T12:24:21Z</time>
      </trkpt>
      <trkpt lat="47.68911" lon="-2.84222">
        <ele>42.7</ele>
        <time>2023-07-19T12:24:23Z</time>
      </trkpt>
      <trkpt lat="47.68901" lon="-2.84243">
        <ele>42.4</ele>
        <time>2023-07-19T12:24:28Z</time>
      </trkpt>
      <trkpt lat="47.68877" lon="-2.84249">
        <ele>42.3</ele>
        <time>2023-07-19T12:24:33Z</time>
      </trkpt>
      <trkpt lat="47.68874" lon="-2.8424">
        <ele>42.3</ele>
        <time>2023-07-19T12:24:35Z</time>
      </trkpt>
      <trkpt lat="47.68875" lon="-2.84233">
        <ele>42.3</ele>
        <time>2023-07-19T12:24:36Z</time>
      </trkpt>
      <trkpt lat="47.68879" lon="-2.84182">
        <ele>42.7</ele>
        <time>2023-07-19T12:24:43Z</time>
      </trkpt>
      <trkpt lat="47.68879" lon="-2.84132">
        <ele>43.6</ele>
        <time>2023-07-19T12:24:50Z</time>
      </trkpt>
      <trkpt lat="47.68883" lon="-2.84122">
        <ele>43.9</ele>
        <time>2023-07-19T12:24:52Z</time>
      </trkpt>
      <trkpt lat="47.68885" lon="-2.84116">
        <ele>44</ele>
        <time>2023-07-19T12:24:53Z</time>
      </trkpt>
      <trkpt lat="47.68887" lon="-2.84104">
        <ele>44.3</ele>
        <time>2023-07-19T12:24:55Z</time>
      </trkpt>
      <trkpt lat="47.68885" lon="-2.84075">
        <ele>45.1</ele>
        <time>2023-07-19T12:25:00Z</time>
      </trkpt>
      <trkpt lat="47.68889" lon="-2.84017">
        <ele>46.6</ele>
        <time>2023-07-19T12:25:11Z</time>
      </trkpt>
      <trkpt lat="47.68906" lon="-2.84004">
        <ele>47</ele>
        <time>2023-07-19T12:25:16Z</time>
      </trkpt>
      <trkpt lat="47.6891" lon="-2.84">
        <ele>47.1</ele>
        <time>2023-07-19T12:25:17Z</time>
      </trkpt>
      <trkpt lat="47.68913" lon="-2.8399">
        <ele>47.3</ele>
        <time>2023-07-19T12:25:19Z</time>
      </trkpt>
      <trkpt lat="47.68913" lon="-2.8396">
        <ele>47.6</ele>
        <time>2023-07-19T12:25:24Z</time>
      </trkpt>
      <trkpt lat="47.68919" lon="-2.83928">
        <ele>47.8</ele>
        <time>2023-07-19T12:25:29Z</time>
      </trkpt>
      <trkpt lat="47.68927" lon="-2.8392">
        <ele>47.9</ele>
        <time>2023-07-19T12:25:33Z</time>
      </trkpt>
      <trkpt lat="47.6895" lon="-2.83927">
        <ele>47.5</ele>
        <time>2023-07-19T12:25:38Z</time>
      </trkpt>
      <trkpt lat="47.68959" lon="-2.83927">
        <ele>47.4</ele>
        <time>2023-07-19T12:25:40Z</time>
      </trkpt>
      <trkpt lat="47.68971" lon="-2.83911">
        <ele>47.4</ele>
        <time>2023-07-19T12:25:44Z</time>
      </trkpt>
      <trkpt lat="47.68973" lon="-2.83899">
        <ele>47.5</ele>
        <time>2023-07-19T12:25:45Z</time>
      </trkpt>
      <trkpt lat="47.68977" lon="-2.8387">
        <ele>47.8</ele>
        <time>2023-07-19T12:25:50Z</time>
      </trkpt>
      <trkpt lat="47.68988" lon="-2.83792">
        <ele>47.6</ele>
        <time>2023-07-19T12:26:01Z</time>
      </trkpt>
      <trkpt lat="47.68993" lon="-2.83769">
        <ele>47.2</ele>
        <time>2023-07-19T12:26:04Z</time>
      </trkpt>
      <trkpt lat="47.68996" lon="-2.83763">
        <ele>47</ele>
        <time>2023-07-19T12:26:05Z</time>
      </trkpt>
      <trkpt lat="47.69" lon="-2.83757">
        <ele>46.9</ele>
        <time>2023-07-19T12:26:06Z</time>
      </trkpt>
      <trkpt lat="47.69003" lon="-2.83752">
        <ele>46.7</ele>
        <time>2023-07-19T12:26:07Z</time>
      </trkpt>
      <trkpt lat="47.69006" lon="-2.83744">
        <ele>46.5</ele>
        <time>2023-07-19T12:26:08Z</time>
      </trkpt>
      <trkpt lat="47.69021" lon="-2.8369">
        <ele>45.1</ele>
        <time>2023-07-19T12:26:14Z</time>
      </trkpt>
      <trkpt lat="47.69024" lon="-2.83672">
        <ele>44.8</ele>
        <time>2023-07-19T12:26:16Z</time>
      </trkpt>
      <trkpt lat="47.69022" lon="-2.83656">
        <ele>44.5</ele>
        <time>2023-07-19T12:26:18Z</time>
      </trkpt>
      <trkpt lat="47.69014" lon="-2.83645">
        <ele>44.3</ele>
        <time>2023-07-19T12:26:20Z</time>
      </trkpt>
      <trkpt lat="47.69004" lon="-2.83635">
        <ele>44</ele>
        <time>2023-07-19T12:26:22Z</time>
      </trkpt>
      <trkpt lat="47.68957" lon="-2.83581">
        <ele>42.8</ele>
        <time>2023-07-19T12:26:31Z</time>
      </trkpt>
      <trkpt lat="47.68916" lon="-2.83527">
        <ele>42.4</ele>
        <time>2023-07-19T12:26:39Z</time>
      </trkpt>
      <trkpt lat="47.68867" lon="-2.83476">
        <ele>42.3</ele>
        <time>2023-07-19T12:26:48Z</time>
      </trkpt>
      <trkpt lat="47.68821" lon="-2.83425">
        <ele>42.2</ele>
        <time>2023-07-19T12:26:57Z</time>
      </trkpt>
      <trkpt lat="47.68816" lon="-2.83419">
        <ele>42.2</ele>
        <time>2023-07-19T12:26:58Z</time>
      </trkpt>
      <trkpt lat="47.68796" lon="-2.83395">
        <ele>42.2</ele>
        <time>2023-07-19T12:27:02Z</time>
      </trkpt>
      <trkpt lat="47.68785" lon="-2.83386">
        <ele>42.3</ele>
        <time>2023-07-19T12:27:03Z</time>
      </trkpt>
      <trkpt lat="47.68779" lon="-2.83381">
        <ele>42.4</ele>
        <time>2023-07-19T12:27:05Z</time>
      </trkpt>
      <trkpt lat="47.68774" lon="-2.83377">
        <ele>42.5</ele>
        <time>2023-07-19T12:27:06Z</time>
      </trkpt>
      <trkpt lat="47.68769" lon="-2.83374">
        <ele>42.7</ele>
        <time>2023-07-19T12:27:07Z</time>
      </trkpt>
      <trkpt lat="47.68755" lon="-2.83363">
        <ele>43.1</ele>
        <time>2023-07-19T12:27:10Z</time>
      </trkpt>
      <trkpt lat="47.68753" lon="-2.83359">
        <ele>43.2</ele>
        <time>2023-07-19T12:27:11Z</time>
      </trkpt>
      <trkpt lat="47.68751" lon="-2.83354">
        <ele>43.3</ele>
        <time>2023-07-19T12:27:13Z</time>
      </trkpt>
      <trkpt lat="47.68751" lon="-2.83352">
        <ele>43.3</ele>
        <time>2023-07-19T12:27:14Z</time>
      </trkpt>
      <trkpt lat="47.68751" lon="-2.8335">
        <ele>43.3</ele>
        <time>2023-07-19T12:27:15Z</time>
      </trkpt>
      <trkpt lat="47.68746" lon="-2.83328">
        <ele>43.4</ele>
        <time>2023-07-19T12:27:21Z</time>
      </trkpt>
      <trkpt lat="47.68744" lon="-2.83323">
        <ele>43.4</ele>
        <time>2023-07-19T12:27:22Z</time>
      </trkpt>
      <trkpt lat="47.68742" lon="-2.83312">
        <ele>43.5</ele>
        <time>2023-07-19T12:27:24Z</time>
      </trkpt>
      <trkpt lat="47.6874" lon="-2.83307">
        <ele>43.6</ele>
        <time>2023-07-19T12:27:25Z</time>
      </trkpt>
      <trkpt lat="47.68728" lon="-2.83283">
        <ele>44.1</ele>
        <time>2023-07-19T12:27:30Z</time>
      </trkpt>
      <trkpt lat="47.68725" lon="-2.83279">
        <ele>44.3</ele>
        <time>2023-07-19T12:27:31Z</time>
      </trkpt>
      <trkpt lat="47.68721" lon="-2.83275">
        <ele>44.4</ele>
        <time>2023-07-19T12:27:32Z</time>
      </trkpt>
      <trkpt lat="47.68717" lon="-2.83272">
        <ele>44.7</ele>
        <time>2023-07-19T12:27:33Z</time>
      </trkpt>
      <trkpt lat="47.68713" lon="-2.8327">
        <ele>45</ele>
        <time>2023-07-19T12:27:34Z</time>
      </trkpt>
      <trkpt lat="47.68709" lon="-2.83269">
        <ele>45.2</ele>
        <time>2023-07-19T12:27:35Z</time>
      </trkpt>
      <trkpt lat="47.68701" lon="-2.83267">
        <ele>45.7</ele>
        <time>2023-07-19T12:27:37Z</time>
      </trkpt>
      <trkpt lat="47.68695" lon="-2.83263">
        <ele>46.1</ele>
        <time>2023-07-19T12:27:39Z</time>
      </trkpt>
      <trkpt lat="47.68691" lon="-2.83262">
        <ele>46.4</ele>
        <time>2023-07-19T12:27:40Z</time>
      </trkpt>
      <trkpt lat="47.68688" lon="-2.8326">
        <ele>46.5</ele>
        <time>2023-07-19T12:27:41Z</time>
      </trkpt>
      <trkpt lat="47.68684" lon="-2.83259">
        <ele>46.7</ele>
        <time>2023-07-19T12:27:42Z</time>
      </trkpt>
      <trkpt lat="47.68681" lon="-2.83258">
        <ele>46.8</ele>
        <time>2023-07-19T12:27:43Z</time>
      </trkpt>
      <trkpt lat="47.68673" lon="-2.83256">
        <ele>47</ele>
        <time>2023-07-19T12:27:45Z</time>
      </trkpt>
      <trkpt lat="47.68662" lon="-2.83252">
        <ele>47.1</ele>
        <time>2023-07-19T12:27:48Z</time>
      </trkpt>
      <trkpt lat="47.68634" lon="-2.83242">
        <ele>47.1</ele>
        <time>2023-07-19T12:27:55Z</time>
      </trkpt>
      <trkpt lat="47.68626" lon="-2.83235">
        <ele>47.1</ele>
        <time>2023-07-19T12:27:57Z</time>
      </trkpt>
      <trkpt lat="47.68613" lon="-2.83156">
        <ele>45.6</ele>
        <time>2023-07-19T12:28:09Z</time>
      </trkpt>
      <trkpt lat="47.68597" lon="-2.83079">
        <ele>44.1</ele>
        <time>2023-07-19T12:28:17Z</time>
      </trkpt>
      <trkpt lat="47.68584" lon="-2.82997">
        <ele>42.5</ele>
        <time>2023-07-19T12:28:25Z</time>
      </trkpt>
      <trkpt lat="47.68575" lon="-2.82911">
        <ele>41.1</ele>
        <time>2023-07-19T12:28:33Z</time>
      </trkpt>
      <trkpt lat="47.68568" lon="-2.82859">
        <ele>40.6</ele>
        <time>2023-07-19T12:28:38Z</time>
      </trkpt>
      <trkpt lat="47.68571" lon="-2.82833">
        <ele>40.6</ele>
        <time>2023-07-19T12:28:41Z</time>
      </trkpt>
      <trkpt lat="47.68594" lon="-2.82791">
        <ele>40.7</ele>
        <time>2023-07-19T12:28:47Z</time>
      </trkpt>
      <trkpt lat="47.68621" lon="-2.8272">
        <ele>40.1</ele>
        <time>2023-07-19T12:28:56Z</time>
      </trkpt>
      <trkpt lat="47.68656" lon="-2.82653">
        <ele>39.2</ele>
        <time>2023-07-19T12:29:05Z</time>
      </trkpt>
      <trkpt lat="47.68697" lon="-2.82594">
        <ele>38</ele>
        <time>2023-07-19T12:29:14Z</time>
      </trkpt>
      <trkpt lat="47.68708" lon="-2.82584">
        <ele>37.8</ele>
        <time>2023-07-19T12:29:16Z</time>
      </trkpt>
      <trkpt lat="47.68736" lon="-2.82568">
        <ele>37.3</ele>
        <time>2023-07-19T12:29:23Z</time>
      </trkpt>
      <trkpt lat="47.68736" lon="-2.82531">
        <ele>36.7</ele>
        <time>2023-07-19T12:29:31Z</time>
      </trkpt>
      <trkpt lat="47.68731" lon="-2.8252">
        <ele>36.4</ele>
        <time>2023-07-19T12:29:33Z</time>
      </trkpt>
      <trkpt lat="47.68726" lon="-2.82509">
        <ele>36.2</ele>
        <time>2023-07-19T12:29:35Z</time>
      </trkpt>
      <trkpt lat="47.68724" lon="-2.82502">
        <ele>36.1</ele>
        <time>2023-07-19T12:29:36Z</time>
      </trkpt>
      <trkpt lat="47.68723" lon="-2.82494">
        <ele>36</ele>
        <time>2023-07-19T12:29:37Z</time>
      </trkpt>
      <trkpt lat="47.68721" lon="-2.82479">
        <ele>36</ele>
        <time>2023-07-19T12:29:39Z</time>
      </trkpt>
      <trkpt lat="47.6872" lon="-2.82472">
        <ele>36</ele>
        <time>2023-07-19T12:29:40Z</time>
      </trkpt>
      <trkpt lat="47.68718" lon="-2.82456">
        <ele>35.9</ele>
        <time>2023-07-19T12:29:42Z</time>
      </trkpt>
      <trkpt lat="47.68705" lon="-2.82393">
        <ele>35.8</ele>
        <time>2023-07-19T12:29:50Z</time>
      </trkpt>
      <trkpt lat="47.68716" lon="-2.82368">
        <ele>35.6</ele>
        <time>2023-07-19T12:29:54Z</time>
      </trkpt>
      <trkpt lat="47.68718" lon="-2.8235">
        <ele>35.5</ele>
        <time>2023-07-19T12:29:56Z</time>
      </trkpt>
      <trkpt lat="47.68709" lon="-2.8231">
        <ele>35.3</ele>
        <time>2023-07-19T12:30:01Z</time>
      </trkpt>
      <trkpt lat="47.68701" lon="-2.82298">
        <ele>35.1</ele>
        <time>2023-07-19T12:30:03Z</time>
      </trkpt>
      <trkpt lat="47.68675" lon="-2.8227">
        <ele>35</ele>
        <time>2023-07-19T12:30:08Z</time>
      </trkpt>
      <trkpt lat="47.68667" lon="-2.82256">
        <ele>35</ele>
        <time>2023-07-19T12:30:10Z</time>
      </trkpt>
      <trkpt lat="47.68662" lon="-2.8224">
        <ele>35.1</ele>
        <time>2023-07-19T12:30:12Z</time>
      </trkpt>
      <trkpt lat="47.68657" lon="-2.82201">
        <ele>35.1</ele>
        <time>2023-07-19T12:30:17Z</time>
      </trkpt>
      <trkpt lat="47.68653" lon="-2.82187">
        <ele>35</ele>
        <time>2023-07-19T12:30:19Z</time>
      </trkpt>
      <trkpt lat="47.68642" lon="-2.82161">
        <ele>34.9</ele>
        <time>2023-07-19T12:30:23Z</time>
      </trkpt>
      <trkpt lat="47.68638" lon="-2.82146">
        <ele>34.9</ele>
        <time>2023-07-19T12:30:25Z</time>
      </trkpt>
      <trkpt lat="47.68637" lon="-2.82138">
        <ele>34.8</ele>
        <time>2023-07-19T12:30:26Z</time>
      </trkpt>
      <trkpt lat="47.68633" lon="-2.82113">
        <ele>34.5</ele>
        <time>2023-07-19T12:30:29Z</time>
      </trkpt>
      <trkpt lat="47.6864" lon="-2.82066">
        <ele>34.1</ele>
        <time>2023-07-19T12:30:34Z</time>
      </trkpt>
      <trkpt lat="47.68641" lon="-2.82048">
        <ele>34.2</ele>
        <time>2023-07-19T12:30:36Z</time>
      </trkpt>
      <trkpt lat="47.68625" lon="-2.82002">
        <ele>34</ele>
        <time>2023-07-19T12:30:42Z</time>
      </trkpt>
      <trkpt lat="47.68605" lon="-2.81968">
        <ele>33.9</ele>
        <time>2023-07-19T12:30:47Z</time>
      </trkpt>
      <trkpt lat="47.68576" lon="-2.81933">
        <ele>33.7</ele>
        <time>2023-07-19T12:30:53Z</time>
      </trkpt>
      <trkpt lat="47.68524" lon="-2.81904">
        <ele>33.3</ele>
        <time>2023-07-19T12:31:02Z</time>
      </trkpt>
      <trkpt lat="47.68514" lon="-2.81893">
        <ele>33.2</ele>
        <time>2023-07-19T12:31:04Z</time>
      </trkpt>
      <trkpt lat="47.68487" lon="-2.81851">
        <ele>32.9</ele>
        <time>2023-07-19T12:31:10Z</time>
      </trkpt>
      <trkpt lat="47.68433" lon="-2.81818">
        <ele>33.9</ele>
        <time>2023-07-19T12:31:20Z</time>
      </trkpt>
      <trkpt lat="47.68425" lon="-2.81814">
        <ele>34</ele>
        <time>2023-07-19T12:31:21Z</time>
      </trkpt>
      <trkpt lat="47.68421" lon="-2.81811">
        <ele>34</ele>
        <time>2023-07-19T12:31:23Z</time>
      </trkpt>
      <trkpt lat="47.68417" lon="-2.81806">
        <ele>34</ele>
        <time>2023-07-19T12:31:24Z</time>
      </trkpt>
      <trkpt lat="47.68408" lon="-2.818">
        <ele>33.9</ele>
        <time>2023-07-19T12:31:26Z</time>
      </trkpt>
      <trkpt lat="47.68382" lon="-2.81793">
        <ele>33.4</ele>
        <time>2023-07-19T12:31:31Z</time>
      </trkpt>
      <trkpt lat="47.68374" lon="-2.81782">
        <ele>33.5</ele>
        <time>2023-07-19T12:31:33Z</time>
      </trkpt>
      <trkpt lat="47.6837" lon="-2.81769">
        <ele>33.7</ele>
        <time>2023-07-19T12:31:35Z</time>
      </trkpt>
      <trkpt lat="47.68365" lon="-2.8175">
        <ele>34.4</ele>
        <time>2023-07-19T12:31:38Z</time>
      </trkpt>
      <trkpt lat="47.68363" lon="-2.81731">
        <ele>35.1</ele>
        <time>2023-07-19T12:31:41Z</time>
      </trkpt>
      <trkpt lat="47.6836" lon="-2.81704">
        <ele>36.2</ele>
        <time>2023-07-19T12:31:45Z</time>
      </trkpt>
      <trkpt lat="47.68357" lon="-2.81686">
        <ele>37</ele>
        <time>2023-07-19T12:31:48Z</time>
      </trkpt>
      <trkpt lat="47.68363" lon="-2.81649">
        <ele>38.1</ele>
        <time>2023-07-19T12:31:55Z</time>
      </trkpt>
      <trkpt lat="47.68366" lon="-2.81645">
        <ele>38.1</ele>
        <time>2023-07-19T12:31:56Z</time>
      </trkpt>
      <trkpt lat="47.6837" lon="-2.81641">
        <ele>38.2</ele>
        <time>2023-07-19T12:31:57Z</time>
      </trkpt>
      <trkpt lat="47.68373" lon="-2.81637">
        <ele>38.3</ele>
        <time>2023-07-19T12:31:58Z</time>
      </trkpt>
      <trkpt lat="47.68402" lon="-2.81606">
        <ele>38.7</ele>
        <time>2023-07-19T12:32:06Z</time>
      </trkpt>
      <trkpt lat="47.68412" lon="-2.81597">
        <ele>39</ele>
        <time>2023-07-19T12:32:09Z</time>
      </trkpt>
      <trkpt lat="47.68422" lon="-2.81586">
        <ele>39.3</ele>
        <time>2023-07-19T12:32:12Z</time>
      </trkpt>
      <trkpt lat="47.68426" lon="-2.81583">
        <ele>39.4</ele>
        <time>2023-07-19T12:32:13Z</time>
      </trkpt>
      <trkpt lat="47.68432" lon="-2.81576">
        <ele>39.7</ele>
        <time>2023-07-19T12:32:15Z</time>
      </trkpt>
      <trkpt lat="47.6847" lon="-2.81531">
        <ele>41.6</ele>
        <time>2023-07-19T12:32:30Z</time>
      </trkpt>
      <trkpt lat="47.68468" lon="-2.81526">
        <ele>41.7</ele>
        <time>2023-07-19T12:32:33Z</time>
      </trkpt>
      <trkpt lat="47.68462" lon="-2.81516">
        <ele>41.6</ele>
        <time>2023-07-19T12:32:37Z</time>
      </trkpt>
      <trkpt lat="47.68452" lon="-2.81473">
        <ele>40.6</ele>
        <time>2023-07-19T12:32:45Z</time>
      </trkpt>
      <trkpt lat="47.68444" lon="-2.81442">
        <ele>39.9</ele>
        <time>2023-07-19T12:32:49Z</time>
      </trkpt>
      <trkpt lat="47.68422" lon="-2.8136">
        <ele>39.6</ele>
        <time>2023-07-19T12:32:59Z</time>
      </trkpt>
      <trkpt lat="47.68418" lon="-2.81344">
        <ele>39.7</ele>
        <time>2023-07-19T12:33:01Z</time>
      </trkpt>
      <trkpt lat="47.68419" lon="-2.81329">
        <ele>39.8</ele>
        <time>2023-07-19T12:33:03Z</time>
      </trkpt>
      <trkpt lat="47.68431" lon="-2.81321">
        <ele>40.1</ele>
        <time>2023-07-19T12:33:06Z</time>
      </trkpt>
      <trkpt lat="47.68433" lon="-2.81311">
        <ele>40.2</ele>
        <time>2023-07-19T12:33:08Z</time>
      </trkpt>
      <trkpt lat="47.68433" lon="-2.81305">
        <ele>40.3</ele>
        <time>2023-07-19T12:33:09Z</time>
      </trkpt>
      <trkpt lat="47.68431" lon="-2.81222">
        <ele>40.1</ele>
        <time>2023-07-19T12:33:21Z</time>
      </trkpt>
      <trkpt lat="47.68437" lon="-2.81187">
        <ele>39.5</ele>
        <time>2023-07-19T12:33:28Z</time>
      </trkpt>
      <trkpt lat="47.68459" lon="-2.81156">
        <ele>38.5</ele>
        <time>2023-07-19T12:33:40Z</time>
      </trkpt>
      <trkpt lat="47.68457" lon="-2.81118">
        <ele>37.3</ele>
        <time>2023-07-19T12:33:45Z</time>
      </trkpt>
      <trkpt lat="47.68447" lon="-2.81075">
        <ele>35.7</ele>
        <time>2023-07-19T12:33:50Z</time>
      </trkpt>
      <trkpt lat="47.68443" lon="-2.81061">
        <ele>35.2</ele>
        <time>2023-07-19T12:33:52Z</time>
      </trkpt>
      <trkpt lat="47.68452" lon="-2.81047">
        <ele>34.6</ele>
        <time>2023-07-19T12:33:55Z</time>
      </trkpt>
      <trkpt lat="47.68473" lon="-2.81035">
        <ele>34.5</ele>
        <time>2023-07-19T12:33:59Z</time>
      </trkpt>
      <trkpt lat="47.6848" lon="-2.81024">
        <ele>34.5</ele>
        <time>2023-07-19T12:34:01Z</time>
      </trkpt>
      <trkpt lat="47.68484" lon="-2.81008">
        <ele>34.5</ele>
        <time>2023-07-19T12:34:03Z</time>
      </trkpt>
      <trkpt lat="47.68484" lon="-2.8099">
        <ele>34.5</ele>
        <time>2023-07-19T12:34:05Z</time>
      </trkpt>
      <trkpt lat="47.68476" lon="-2.8095">
        <ele>34.6</ele>
        <time>2023-07-19T12:34:16Z</time>
      </trkpt>
      <trkpt lat="47.68475" lon="-2.80932">
        <ele>35</ele>
        <time>2023-07-19T12:34:22Z</time>
      </trkpt>
      <trkpt lat="47.68476" lon="-2.80929">
        <ele>35</ele>
        <time>2023-07-19T12:34:23Z</time>
      </trkpt>
      <trkpt lat="47.68478" lon="-2.80917">
        <ele>35.3</ele>
        <time>2023-07-19T12:34:26Z</time>
      </trkpt>
      <trkpt lat="47.6848" lon="-2.80908">
        <ele>35.4</ele>
        <time>2023-07-19T12:34:28Z</time>
      </trkpt>
      <trkpt lat="47.68481" lon="-2.80903">
        <ele>35.5</ele>
        <time>2023-07-19T12:34:29Z</time>
      </trkpt>
      <trkpt lat="47.68481" lon="-2.80882">
        <ele>35.6</ele>
        <time>2023-07-19T12:34:33Z</time>
      </trkpt>
      <trkpt lat="47.68482" lon="-2.80876">
        <ele>35.7</ele>
        <time>2023-07-19T12:34:34Z</time>
      </trkpt>
      <trkpt lat="47.68482" lon="-2.80869">
        <ele>35.7</ele>
        <time>2023-07-19T12:34:35Z</time>
      </trkpt>
      <trkpt lat="47.68483" lon="-2.80863">
        <ele>35.7</ele>
        <time>2023-07-19T12:34:36Z</time>
      </trkpt>
      <trkpt lat="47.68483" lon="-2.8085">
        <ele>35.8</ele>
        <time>2023-07-19T12:34:38Z</time>
      </trkpt>
      <trkpt lat="47.68483" lon="-2.80843">
        <ele>35.8</ele>
        <time>2023-07-19T12:34:39Z</time>
      </trkpt>
      <trkpt lat="47.68487" lon="-2.80823">
        <ele>35.8</ele>
        <time>2023-07-19T12:34:42Z</time>
      </trkpt>
      <trkpt lat="47.68488" lon="-2.80816">
        <ele>35.9</ele>
        <time>2023-07-19T12:34:43Z</time>
      </trkpt>
      <trkpt lat="47.6849" lon="-2.80809">
        <ele>35.9</ele>
        <time>2023-07-19T12:34:44Z</time>
      </trkpt>
      <trkpt lat="47.68495" lon="-2.8079">
        <ele>36.1</ele>
        <time>2023-07-19T12:34:47Z</time>
      </trkpt>
      <trkpt lat="47.68497" lon="-2.80785">
        <ele>36.2</ele>
        <time>2023-07-19T12:34:48Z</time>
      </trkpt>
      <trkpt lat="47.68503" lon="-2.80762">
        <ele>36.4</ele>
        <time>2023-07-19T12:34:53Z</time>
      </trkpt>
      <trkpt lat="47.68511" lon="-2.80732">
        <ele>36.1</ele>
        <time>2023-07-19T12:34:59Z</time>
      </trkpt>
      <trkpt lat="47.68512" lon="-2.8068">
        <ele>35.9</ele>
        <time>2023-07-19T12:35:06Z</time>
      </trkpt>
      <trkpt lat="47.68511" lon="-2.80672">
        <ele>35.9</ele>
        <time>2023-07-19T12:35:07Z</time>
      </trkpt>
      <trkpt lat="47.6851" lon="-2.80655">
        <ele>35.9</ele>
        <time>2023-07-19T12:35:09Z</time>
      </trkpt>
      <trkpt lat="47.68509" lon="-2.80633">
        <ele>36.1</ele>
        <time>2023-07-19T12:35:12Z</time>
      </trkpt>
      <trkpt lat="47.68509" lon="-2.80625">
        <ele>36.2</ele>
        <time>2023-07-19T12:35:13Z</time>
      </trkpt>
      <trkpt lat="47.68509" lon="-2.80619">
        <ele>36.3</ele>
        <time>2023-07-19T12:35:14Z</time>
      </trkpt>
      <trkpt lat="47.68509" lon="-2.80612">
        <ele>36.4</ele>
        <time>2023-07-19T12:35:15Z</time>
      </trkpt>
      <trkpt lat="47.68508" lon="-2.80606">
        <ele>36.5</ele>
        <time>2023-07-19T12:35:16Z</time>
      </trkpt>
      <trkpt lat="47.68497" lon="-2.80525">
        <ele>38.1</ele>
        <time>2023-07-19T12:35:29Z</time>
      </trkpt>
      <trkpt lat="47.68454" lon="-2.80477">
        <ele>39.3</ele>
        <time>2023-07-19T12:35:50Z</time>
      </trkpt>
      <trkpt lat="47.68414" lon="-2.80538">
        <ele>38.5</ele>
        <time>2023-07-19T12:36:07Z</time>
      </trkpt>
      <trkpt lat="47.6841" lon="-2.80539">
        <ele>38.5</ele>
        <time>2023-07-19T12:36:08Z</time>
      </trkpt>
      <trkpt lat="47.68406" lon="-2.80538">
        <ele>38.5</ele>
        <time>2023-07-19T12:36:09Z</time>
      </trkpt>
      <trkpt lat="47.68393" lon="-2.80527">
        <ele>38.8</ele>
        <time>2023-07-19T12:36:12Z</time>
      </trkpt>
      <trkpt lat="47.68385" lon="-2.80517">
        <ele>39.2</ele>
        <time>2023-07-19T12:36:14Z</time>
      </trkpt>
      <trkpt lat="47.68339" lon="-2.80464">
        <ele>41.3</ele>
        <time>2023-07-19T12:36:26Z</time>
      </trkpt>
      <trkpt lat="47.68291" lon="-2.80426">
        <ele>42.5</ele>
        <time>2023-07-19T12:36:40Z</time>
      </trkpt>
      <trkpt lat="47.68275" lon="-2.80422">
        <ele>42.8</ele>
        <time>2023-07-19T12:36:45Z</time>
      </trkpt>
      <trkpt lat="47.68251" lon="-2.80419">
        <ele>43.2</ele>
        <time>2023-07-19T12:36:52Z</time>
      </trkpt>
      <trkpt lat="47.68248" lon="-2.80416">
        <ele>43.2</ele>
        <time>2023-07-19T12:36:53Z</time>
      </trkpt>
      <trkpt lat="47.6824" lon="-2.80409">
        <ele>43.1</ele>
        <time>2023-07-19T12:36:58Z</time>
      </trkpt>
      <trkpt lat="47.68239" lon="-2.80404">
        <ele>43.1</ele>
        <time>2023-07-19T12:37:13Z</time>
      </trkpt>
      <trkpt lat="47.68237" lon="-2.80405">
        <ele>43</ele>
        <time>2023-07-19T12:37:23Z</time>
      </trkpt>
      <trkpt lat="47.68195" lon="-2.80395">
        <ele>42.3</ele>
        <time>2023-07-19T12:37:35Z</time>
      </trkpt>
      <trkpt lat="47.68185" lon="-2.80397">
        <ele>42.1</ele>
        <time>2023-07-19T12:37:37Z</time>
      </trkpt>
      <trkpt lat="47.68136" lon="-2.80408">
        <ele>41.5</ele>
        <time>2023-07-19T12:37:48Z</time>
      </trkpt>
      <trkpt lat="47.68124" lon="-2.80365">
        <ele>40.7</ele>
        <time>2023-07-19T12:37:55Z</time>
      </trkpt>
      <trkpt lat="47.6812" lon="-2.80339">
        <ele>40.2</ele>
        <time>2023-07-19T12:37:58Z</time>
      </trkpt>
      <trkpt lat="47.68118" lon="-2.80331">
        <ele>40</ele>
        <time>2023-07-19T12:37:59Z</time>
      </trkpt>
      <trkpt lat="47.68115" lon="-2.80323">
        <ele>39.8</ele>
        <time>2023-07-19T12:38:00Z</time>
      </trkpt>
      <trkpt lat="47.68111" lon="-2.80318">
        <ele>39.6</ele>
        <time>2023-07-19T12:38:01Z</time>
      </trkpt>
      <trkpt lat="47.68105" lon="-2.80316">
        <ele>39.4</ele>
        <time>2023-07-19T12:38:02Z</time>
      </trkpt>
      <trkpt lat="47.68086" lon="-2.80311">
        <ele>38.6</ele>
        <time>2023-07-19T12:38:05Z</time>
      </trkpt>
      <trkpt lat="47.6808" lon="-2.8031">
        <ele>38.4</ele>
        <time>2023-07-19T12:38:06Z</time>
      </trkpt>
      <trkpt lat="47.68067" lon="-2.80298">
        <ele>38</ele>
        <time>2023-07-19T12:38:10Z</time>
      </trkpt>
      <trkpt lat="47.68066" lon="-2.80292">
        <ele>38</ele>
        <time>2023-07-19T12:38:11Z</time>
      </trkpt>
      <trkpt lat="47.68064" lon="-2.80259">
        <ele>37.7</ele>
        <time>2023-07-19T12:38:17Z</time>
      </trkpt>
      <trkpt lat="47.68065" lon="-2.80252">
        <ele>37.7</ele>
        <time>2023-07-19T12:38:18Z</time>
      </trkpt>
      <trkpt lat="47.68065" lon="-2.80245">
        <ele>37.6</ele>
        <time>2023-07-19T12:38:19Z</time>
      </trkpt>
      <trkpt lat="47.68065" lon="-2.80239">
        <ele>37.6</ele>
        <time>2023-07-19T12:38:20Z</time>
      </trkpt>
      <trkpt lat="47.68063" lon="-2.80226">
        <ele>37.5</ele>
        <time>2023-07-19T12:38:21Z</time>
      </trkpt>
      <trkpt lat="47.68062" lon="-2.80221">
        <ele>37.4</ele>
        <time>2023-07-19T12:38:23Z</time>
      </trkpt>
      <trkpt lat="47.68058" lon="-2.80217">
        <ele>37.2</ele>
        <time>2023-07-19T12:38:24Z</time>
      </trkpt>
      <trkpt lat="47.68049" lon="-2.80213">
        <ele>37.1</ele>
        <time>2023-07-19T12:38:26Z</time>
      </trkpt>
      <trkpt lat="47.68024" lon="-2.8021">
        <ele>36.9</ele>
        <time>2023-07-19T12:38:31Z</time>
      </trkpt>
      <trkpt lat="47.6802" lon="-2.80209">
        <ele>37</ele>
        <time>2023-07-19T12:38:32Z</time>
      </trkpt>
      <trkpt lat="47.68016" lon="-2.80208">
        <ele>37</ele>
        <time>2023-07-19T12:38:33Z</time>
      </trkpt>
      <trkpt lat="47.68013" lon="-2.80206">
        <ele>37.1</ele>
        <time>2023-07-19T12:38:34Z</time>
      </trkpt>
      <trkpt lat="47.68011" lon="-2.80204">
        <ele>37.1</ele>
        <time>2023-07-19T12:38:35Z</time>
      </trkpt>
      <trkpt lat="47.6801" lon="-2.80202">
        <ele>37.1</ele>
        <time>2023-07-19T12:38:36Z</time>
      </trkpt>
      <trkpt lat="47.68015" lon="-2.80203">
        <ele>37</ele>
        <time>2023-07-19T12:38:38Z</time>
      </trkpt>
      <trkpt lat="47.68027" lon="-2.80203">
        <ele>37</ele>
        <time>2023-07-19T12:38:41Z</time>
      </trkpt>
      <trkpt lat="47.68029" lon="-2.80198">
        <ele>37</ele>
        <time>2023-07-19T12:38:42Z</time>
      </trkpt>
      <trkpt lat="47.68031" lon="-2.80194">
        <ele>37</ele>
        <time>2023-07-19T12:38:43Z</time>
      </trkpt>
      <trkpt lat="47.68034" lon="-2.80189">
        <ele>37.1</ele>
        <time>2023-07-19T12:38:44Z</time>
      </trkpt>
      <trkpt lat="47.68036" lon="-2.80183">
        <ele>37.2</ele>
        <time>2023-07-19T12:38:45Z</time>
      </trkpt>
      <trkpt lat="47.68039" lon="-2.80178">
        <ele>37.3</ele>
        <time>2023-07-19T12:38:46Z</time>
      </trkpt>
      <trkpt lat="47.68044" lon="-2.80168">
        <ele>37.5</ele>
        <time>2023-07-19T12:38:48Z</time>
      </trkpt>
      <trkpt lat="47.68047" lon="-2.80163">
        <ele>37.7</ele>
        <time>2023-07-19T12:38:49Z</time>
      </trkpt>
      <trkpt lat="47.68055" lon="-2.8015">
        <ele>37.9</ele>
        <time>2023-07-19T12:38:52Z</time>
      </trkpt>
      <trkpt lat="47.68058" lon="-2.80146">
        <ele>38</ele>
        <time>2023-07-19T12:38:53Z</time>
      </trkpt>
      <trkpt lat="47.68061" lon="-2.80143">
        <ele>38</ele>
        <time>2023-07-19T12:38:54Z</time>
      </trkpt>
      <trkpt lat="47.68064" lon="-2.80139">
        <ele>38.1</ele>
        <time>2023-07-19T12:38:55Z</time>
      </trkpt>
      <trkpt lat="47.68078" lon="-2.80126">
        <ele>38.3</ele>
        <time>2023-07-19T12:39:00Z</time>
      </trkpt>
      <trkpt lat="47.68083" lon="-2.80122">
        <ele>38.4</ele>
        <time>2023-07-19T12:39:01Z</time>
      </trkpt>
      <trkpt lat="47.68087" lon="-2.80119">
        <ele>38.5</ele>
        <time>2023-07-19T12:39:02Z</time>
      </trkpt>
      <trkpt lat="47.68105" lon="-2.80088">
        <ele>38.9</ele>
        <time>2023-07-19T12:39:09Z</time>
      </trkpt>
      <trkpt lat="47.68121" lon="-2.80059">
        <ele>39.1</ele>
        <time>2023-07-19T12:39:15Z</time>
      </trkpt>
      <trkpt lat="47.6814" lon="-2.80024">
        <ele>39.4</ele>
        <time>2023-07-19T12:39:22Z</time>
      </trkpt>
      <trkpt lat="47.68146" lon="-2.80007">
        <ele>39.6</ele>
        <time>2023-07-19T12:39:26Z</time>
      </trkpt>
      <trkpt lat="47.68144" lon="-2.80003">
        <ele>39.7</ele>
        <time>2023-07-19T12:39:28Z</time>
      </trkpt>
      <trkpt lat="47.68119" lon="-2.8002">
        <ele>39.8</ele>
        <time>2023-07-19T12:39:36Z</time>
      </trkpt>
      <trkpt lat="47.68115" lon="-2.80023">
        <ele>39.8</ele>
        <time>2023-07-19T12:39:37Z</time>
      </trkpt>
      <trkpt lat="47.68109" lon="-2.80031">
        <ele>39.8</ele>
        <time>2023-07-19T12:39:39Z</time>
      </trkpt>
      <trkpt lat="47.68101" lon="-2.80036">
        <ele>39.7</ele>
        <time>2023-07-19T12:39:41Z</time>
      </trkpt>
      <trkpt lat="47.68046" lon="-2.80051">
        <ele>39.3</ele>
        <time>2023-07-19T12:39:53Z</time>
      </trkpt>
      <trkpt lat="47.6799" lon="-2.80072">
        <ele>39.1</ele>
        <time>2023-07-19T12:40:05Z</time>
      </trkpt>
      <trkpt lat="47.67964" lon="-2.8009">
        <ele>39</ele>
        <time>2023-07-19T12:40:11Z</time>
      </trkpt>
      <trkpt lat="47.67956" lon="-2.80097">
        <ele>38.7</ele>
        <time>2023-07-19T12:40:13Z</time>
      </trkpt>
      <trkpt lat="47.67952" lon="-2.80099">
        <ele>38.8</ele>
        <time>2023-07-19T12:40:14Z</time>
      </trkpt>
      <trkpt lat="47.67948" lon="-2.801">
        <ele>38.8</ele>
        <time>2023-07-19T12:40:15Z</time>
      </trkpt>
      <trkpt lat="47.67939" lon="-2.80101">
        <ele>38.8</ele>
        <time>2023-07-19T12:40:17Z</time>
      </trkpt>
      <trkpt lat="47.67926" lon="-2.80103">
        <ele>38.9</ele>
        <time>2023-07-19T12:40:20Z</time>
      </trkpt>
      <trkpt lat="47.67871" lon="-2.80114">
        <ele>39</ele>
        <time>2023-07-19T12:40:32Z</time>
      </trkpt>
      <trkpt lat="47.67813" lon="-2.80126">
        <ele>38.5</ele>
        <time>2023-07-19T12:40:43Z</time>
      </trkpt>
      <trkpt lat="47.67764" lon="-2.80136">
        <ele>38</ele>
        <time>2023-07-19T12:40:53Z</time>
      </trkpt>
      <trkpt lat="47.6771" lon="-2.80163">
        <ele>37.7</ele>
        <time>2023-07-19T12:41:07Z</time>
      </trkpt>
      <trkpt lat="47.67682" lon="-2.80154">
        <ele>37.5</ele>
        <time>2023-07-19T12:41:15Z</time>
      </trkpt>
      <trkpt lat="47.67645" lon="-2.80093">
        <ele>39</ele>
        <time>2023-07-19T12:41:32Z</time>
      </trkpt>
      <trkpt lat="47.6762" lon="-2.80055">
        <ele>40.4</ele>
        <time>2023-07-19T12:41:42Z</time>
      </trkpt>
      <trkpt lat="47.67617" lon="-2.80049">
        <ele>40.6</ele>
        <time>2023-07-19T12:41:44Z</time>
      </trkpt>
      <trkpt lat="47.67611" lon="-2.80038">
        <ele>41</ele>
        <time>2023-07-19T12:41:47Z</time>
      </trkpt>
      <trkpt lat="47.67576" lon="-2.80036">
        <ele>40.8</ele>
        <time>2023-07-19T12:41:56Z</time>
      </trkpt>
      <trkpt lat="47.67572" lon="-2.80034">
        <ele>40.7</ele>
        <time>2023-07-19T12:41:57Z</time>
      </trkpt>
      <trkpt lat="47.6756" lon="-2.8002">
        <ele>40.8</ele>
        <time>2023-07-19T12:42:01Z</time>
      </trkpt>
      <trkpt lat="47.67548" lon="-2.79979">
        <ele>41.4</ele>
        <time>2023-07-19T12:42:09Z</time>
      </trkpt>
      <trkpt lat="47.67548" lon="-2.79972">
        <ele>41.5</ele>
        <time>2023-07-19T12:42:10Z</time>
      </trkpt>
      <trkpt lat="47.67553" lon="-2.7995">
        <ele>41.9</ele>
        <time>2023-07-19T12:42:14Z</time>
      </trkpt>
      <trkpt lat="47.67563" lon="-2.7993">
        <ele>42.3</ele>
        <time>2023-07-19T12:42:18Z</time>
      </trkpt>
      <trkpt lat="47.67568" lon="-2.79918">
        <ele>42.5</ele>
        <time>2023-07-19T12:42:20Z</time>
      </trkpt>
      <trkpt lat="47.67569" lon="-2.79904">
        <ele>42.7</ele>
        <time>2023-07-19T12:42:22Z</time>
      </trkpt>
      <trkpt lat="47.67566" lon="-2.7989">
        <ele>42.9</ele>
        <time>2023-07-19T12:42:24Z</time>
      </trkpt>
      <trkpt lat="47.67561" lon="-2.79879">
        <ele>43</ele>
        <time>2023-07-19T12:42:26Z</time>
      </trkpt>
      <trkpt lat="47.67542" lon="-2.79854">
        <ele>43.3</ele>
        <time>2023-07-19T12:42:32Z</time>
      </trkpt>
      <trkpt lat="47.67495" lon="-2.79801">
        <ele>43.1</ele>
        <time>2023-07-19T12:42:44Z</time>
      </trkpt>
      <trkpt lat="47.67474" lon="-2.79775">
        <ele>43</ele>
        <time>2023-07-19T12:42:49Z</time>
      </trkpt>
      <trkpt lat="47.67445" lon="-2.79739">
        <ele>43.2</ele>
        <time>2023-07-19T12:42:56Z</time>
      </trkpt>
      <trkpt lat="47.67436" lon="-2.79729">
        <ele>43.3</ele>
        <time>2023-07-19T12:42:57Z</time>
      </trkpt>
      <trkpt lat="47.67432" lon="-2.79724">
        <ele>43.3</ele>
        <time>2023-07-19T12:42:59Z</time>
      </trkpt>
      <trkpt lat="47.6742" lon="-2.79708">
        <ele>43.5</ele>
        <time>2023-07-19T12:43:02Z</time>
      </trkpt>
      <trkpt lat="47.67391" lon="-2.7967">
        <ele>43.9</ele>
        <time>2023-07-19T12:43:09Z</time>
      </trkpt>
      <trkpt lat="47.67368" lon="-2.79641">
        <ele>44.2</ele>
        <time>2023-07-19T12:43:15Z</time>
      </trkpt>
      <trkpt lat="47.67328" lon="-2.79585">
        <ele>44.4</ele>
        <time>2023-07-19T12:43:27Z</time>
      </trkpt>
      <trkpt lat="47.67291" lon="-2.79519">
        <ele>44</ele>
        <time>2023-07-19T12:43:39Z</time>
      </trkpt>
      <trkpt lat="47.67272" lon="-2.79466">
        <ele>43.3</ele>
        <time>2023-07-19T12:43:49Z</time>
      </trkpt>
      <trkpt lat="47.67253" lon="-2.79389">
        <ele>42.7</ele>
        <time>2023-07-19T12:43:58Z</time>
      </trkpt>
      <trkpt lat="47.67234" lon="-2.79334">
        <ele>42.7</ele>
        <time>2023-07-19T12:44:05Z</time>
      </trkpt>
      <trkpt lat="47.67208" lon="-2.79266">
        <ele>41.8</ele>
        <time>2023-07-19T12:44:14Z</time>
      </trkpt>
      <trkpt lat="47.67174" lon="-2.79196">
        <ele>40.9</ele>
        <time>2023-07-19T12:44:23Z</time>
      </trkpt>
      <trkpt lat="47.67146" lon="-2.79142">
        <ele>40.6</ele>
        <time>2023-07-19T12:44:30Z</time>
      </trkpt>
      <trkpt lat="47.67141" lon="-2.79135">
        <ele>40.5</ele>
        <time>2023-07-19T12:44:31Z</time>
      </trkpt>
      <trkpt lat="47.67131" lon="-2.79125">
        <ele>40.4</ele>
        <time>2023-07-19T12:44:33Z</time>
      </trkpt>
      <trkpt lat="47.67103" lon="-2.79103">
        <ele>40.2</ele>
        <time>2023-07-19T12:44:38Z</time>
      </trkpt>
      <trkpt lat="47.67096" lon="-2.7909">
        <ele>40.2</ele>
        <time>2023-07-19T12:44:40Z</time>
      </trkpt>
      <trkpt lat="47.67092" lon="-2.79073">
        <ele>40.2</ele>
        <time>2023-07-19T12:44:42Z</time>
      </trkpt>
      <trkpt lat="47.67087" lon="-2.79056">
        <ele>40.1</ele>
        <time>2023-07-19T12:44:44Z</time>
      </trkpt>
      <trkpt lat="47.67078" lon="-2.79033">
        <ele>39.9</ele>
        <time>2023-07-19T12:44:47Z</time>
      </trkpt>
      <trkpt lat="47.67032" lon="-2.78977">
        <ele>39.4</ele>
        <time>2023-07-19T12:44:56Z</time>
      </trkpt>
      <trkpt lat="47.67006" lon="-2.78948">
        <ele>39.5</ele>
        <time>2023-07-19T12:45:01Z</time>
      </trkpt>
      <trkpt lat="47.67001" lon="-2.78942">
        <ele>39.5</ele>
        <time>2023-07-19T12:45:02Z</time>
      </trkpt>
      <trkpt lat="47.66996" lon="-2.78936">
        <ele>39.4</ele>
        <time>2023-07-19T12:45:03Z</time>
      </trkpt>
      <trkpt lat="47.66991" lon="-2.7893">
        <ele>39.4</ele>
        <time>2023-07-19T12:45:04Z</time>
      </trkpt>
      <trkpt lat="47.66985" lon="-2.78924">
        <ele>39.3</ele>
        <time>2023-07-19T12:45:05Z</time>
      </trkpt>
      <trkpt lat="47.6698" lon="-2.78919">
        <ele>39.2</ele>
        <time>2023-07-19T12:45:06Z</time>
      </trkpt>
      <trkpt lat="47.66974" lon="-2.78913">
        <ele>39.2</ele>
        <time>2023-07-19T12:45:07Z</time>
      </trkpt>
      <trkpt lat="47.66968" lon="-2.78908">
        <ele>39.1</ele>
        <time>2023-07-19T12:45:08Z</time>
      </trkpt>
      <trkpt lat="47.66963" lon="-2.78902">
        <ele>39.1</ele>
        <time>2023-07-19T12:45:09Z</time>
      </trkpt>
      <trkpt lat="47.66942" lon="-2.78883">
        <ele>38.9</ele>
        <time>2023-07-19T12:45:13Z</time>
      </trkpt>
      <trkpt lat="47.66931" lon="-2.78876">
        <ele>38.5</ele>
        <time>2023-07-19T12:45:15Z</time>
      </trkpt>
      <trkpt lat="47.66919" lon="-2.7887">
        <ele>38.4</ele>
        <time>2023-07-19T12:45:17Z</time>
      </trkpt>
      <trkpt lat="47.66913" lon="-2.78867">
        <ele>38.5</ele>
        <time>2023-07-19T12:45:18Z</time>
      </trkpt>
      <trkpt lat="47.66903" lon="-2.78855">
        <ele>37.9</ele>
        <time>2023-07-19T12:45:20Z</time>
      </trkpt>
      <trkpt lat="47.66892" lon="-2.78829">
        <ele>36.9</ele>
        <time>2023-07-19T12:45:23Z</time>
      </trkpt>
      <trkpt lat="47.66881" lon="-2.78816">
        <ele>36.5</ele>
        <time>2023-07-19T12:45:25Z</time>
      </trkpt>
      <trkpt lat="47.66857" lon="-2.78793">
        <ele>35.5</ele>
        <time>2023-07-19T12:45:29Z</time>
      </trkpt>
      <trkpt lat="47.66851" lon="-2.78786">
        <ele>35.3</ele>
        <time>2023-07-19T12:45:30Z</time>
      </trkpt>
      <trkpt lat="47.66841" lon="-2.78771">
        <ele>35</ele>
        <time>2023-07-19T12:45:32Z</time>
      </trkpt>
      <trkpt lat="47.66806" lon="-2.78703">
        <ele>33.7</ele>
        <time>2023-07-19T12:45:40Z</time>
      </trkpt>
      <trkpt lat="47.66768" lon="-2.78631">
        <ele>33.1</ele>
        <time>2023-07-19T12:45:48Z</time>
      </trkpt>
      <trkpt lat="47.66733" lon="-2.7856">
        <ele>32.8</ele>
        <time>2023-07-19T12:45:56Z</time>
      </trkpt>
      <trkpt lat="47.66712" lon="-2.78522">
        <ele>32.7</ele>
        <time>2023-07-19T12:46:01Z</time>
      </trkpt>
      <trkpt lat="47.66693" lon="-2.78501">
        <ele>32.6</ele>
        <time>2023-07-19T12:46:06Z</time>
      </trkpt>
      <trkpt lat="47.6668" lon="-2.78493">
        <ele>32.2</ele>
        <time>2023-07-19T12:46:09Z</time>
      </trkpt>
      <trkpt lat="47.66674" lon="-2.78482">
        <ele>32</ele>
        <time>2023-07-19T12:46:11Z</time>
      </trkpt>
      <trkpt lat="47.66672" lon="-2.78465">
        <ele>32.1</ele>
        <time>2023-07-19T12:46:13Z</time>
      </trkpt>
      <trkpt lat="47.66672" lon="-2.78448">
        <ele>32.3</ele>
        <time>2023-07-19T12:46:15Z</time>
      </trkpt>
      <trkpt lat="47.66668" lon="-2.78432">
        <ele>32.4</ele>
        <time>2023-07-19T12:46:17Z</time>
      </trkpt>
      <trkpt lat="47.66658" lon="-2.7841">
        <ele>32.6</ele>
        <time>2023-07-19T12:46:20Z</time>
      </trkpt>
      <trkpt lat="47.6663" lon="-2.7835">
        <ele>32.7</ele>
        <time>2023-07-19T12:46:29Z</time>
      </trkpt>
      <trkpt lat="47.66589" lon="-2.78293">
        <ele>31.9</ele>
        <time>2023-07-19T12:46:39Z</time>
      </trkpt>
      <trkpt lat="47.6656" lon="-2.78258">
        <ele>31.1</ele>
        <time>2023-07-19T12:46:45Z</time>
      </trkpt>
      <trkpt lat="47.66514" lon="-2.7821">
        <ele>30.1</ele>
        <time>2023-07-19T12:46:53Z</time>
      </trkpt>
      <trkpt lat="47.66468" lon="-2.78157">
        <ele>29.3</ele>
        <time>2023-07-19T12:47:01Z</time>
      </trkpt>
      <trkpt lat="47.66448" lon="-2.78135">
        <ele>29.2</ele>
        <time>2023-07-19T12:47:05Z</time>
      </trkpt>
      <trkpt lat="47.66427" lon="-2.78119">
        <ele>29</ele>
        <time>2023-07-19T12:47:09Z</time>
      </trkpt>
      <trkpt lat="47.66417" lon="-2.78113">
        <ele>28.9</ele>
        <time>2023-07-19T12:47:11Z</time>
      </trkpt>
      <trkpt lat="47.66408" lon="-2.781">
        <ele>28.6</ele>
        <time>2023-07-19T12:47:13Z</time>
      </trkpt>
      <trkpt lat="47.66405" lon="-2.78092">
        <ele>28.5</ele>
        <time>2023-07-19T12:47:14Z</time>
      </trkpt>
      <trkpt lat="47.66403" lon="-2.78083">
        <ele>28.5</ele>
        <time>2023-07-19T12:47:15Z</time>
      </trkpt>
      <trkpt lat="47.664" lon="-2.78073">
        <ele>28.4</ele>
        <time>2023-07-19T12:47:16Z</time>
      </trkpt>
      <trkpt lat="47.66396" lon="-2.78064">
        <ele>28.3</ele>
        <time>2023-07-19T12:47:17Z</time>
      </trkpt>
      <trkpt lat="47.66385" lon="-2.78049">
        <ele>28</ele>
        <time>2023-07-19T12:47:19Z</time>
      </trkpt>
      <trkpt lat="47.66339" lon="-2.77992">
        <ele>27.2</ele>
        <time>2023-07-19T12:47:27Z</time>
      </trkpt>
      <trkpt lat="47.66292" lon="-2.77934">
        <ele>27</ele>
        <time>2023-07-19T12:47:35Z</time>
      </trkpt>
      <trkpt lat="47.6625" lon="-2.77877">
        <ele>27.2</ele>
        <time>2023-07-19T12:47:43Z</time>
      </trkpt>
      <trkpt lat="47.66209" lon="-2.77822">
        <ele>27.8</ele>
        <time>2023-07-19T12:47:52Z</time>
      </trkpt>
      <trkpt lat="47.66184" lon="-2.77789">
        <ele>28</ele>
        <time>2023-07-19T12:47:58Z</time>
      </trkpt>
      <trkpt lat="47.66142" lon="-2.77739">
        <ele>28</ele>
        <time>2023-07-19T12:48:07Z</time>
      </trkpt>
      <trkpt lat="47.66098" lon="-2.77686">
        <ele>28.2</ele>
        <time>2023-07-19T12:48:16Z</time>
      </trkpt>
      <trkpt lat="47.66072" lon="-2.77648">
        <ele>28.4</ele>
        <time>2023-07-19T12:48:22Z</time>
      </trkpt>
      <trkpt lat="47.66035" lon="-2.77584">
        <ele>28.8</ele>
        <time>2023-07-19T12:48:32Z</time>
      </trkpt>
      <trkpt lat="47.66026" lon="-2.77563">
        <ele>28.9</ele>
        <time>2023-07-19T12:48:35Z</time>
      </trkpt>
      <trkpt lat="47.6601" lon="-2.77523">
        <ele>29</ele>
        <time>2023-07-19T12:48:41Z</time>
      </trkpt>
      <trkpt lat="47.66008" lon="-2.77515">
        <ele>29.1</ele>
        <time>2023-07-19T12:48:42Z</time>
      </trkpt>
      <trkpt lat="47.66001" lon="-2.77495">
        <ele>29.2</ele>
        <time>2023-07-19T12:48:45Z</time>
      </trkpt>
      <trkpt lat="47.6599" lon="-2.77466">
        <ele>29.2</ele>
        <time>2023-07-19T12:48:49Z</time>
      </trkpt>
      <trkpt lat="47.65985" lon="-2.77451">
        <ele>29.2</ele>
        <time>2023-07-19T12:48:50Z</time>
      </trkpt>
      <trkpt lat="47.65985" lon="-2.77451">
        <ele>29.2</ele>
        <time>2023-07-19T12:48:51Z</time>
      </trkpt>
      <trkpt lat="47.65971" lon="-2.77415">
        <ele>29.2</ele>
        <time>2023-07-19T12:48:56Z</time>
      </trkpt>
      <trkpt lat="47.65969" lon="-2.77408">
        <ele>29.2</ele>
        <time>2023-07-19T12:48:57Z</time>
      </trkpt>
      <trkpt lat="47.65967" lon="-2.774">
        <ele>29.2</ele>
        <time>2023-07-19T12:48:58Z</time>
      </trkpt>
      <trkpt lat="47.65957" lon="-2.77371">
        <ele>29.1</ele>
        <time>2023-07-19T12:49:02Z</time>
      </trkpt>
      <trkpt lat="47.65955" lon="-2.77363">
        <ele>29.2</ele>
        <time>2023-07-19T12:49:03Z</time>
      </trkpt>
      <trkpt lat="47.65951" lon="-2.77348">
        <ele>29.2</ele>
        <time>2023-07-19T12:49:05Z</time>
      </trkpt>
      <trkpt lat="47.65946" lon="-2.77325">
        <ele>29.3</ele>
        <time>2023-07-19T12:49:08Z</time>
      </trkpt>
      <trkpt lat="47.65942" lon="-2.77313">
        <ele>29.4</ele>
        <time>2023-07-19T12:49:10Z</time>
      </trkpt>
      <trkpt lat="47.65941" lon="-2.77308">
        <ele>29.5</ele>
        <time>2023-07-19T12:49:11Z</time>
      </trkpt>
      <trkpt lat="47.6594" lon="-2.77302">
        <ele>29.5</ele>
        <time>2023-07-19T12:49:12Z</time>
      </trkpt>
      <trkpt lat="47.65922" lon="-2.77236">
        <ele>30.4</ele>
        <time>2023-07-19T12:49:26Z</time>
      </trkpt>
      <trkpt lat="47.65913" lon="-2.77187">
        <ele>30.8</ele>
        <time>2023-07-19T12:49:38Z</time>
      </trkpt>
      <trkpt lat="47.65911" lon="-2.77125">
        <ele>31</ele>
        <time>2023-07-19T12:49:51Z</time>
      </trkpt>
      <trkpt lat="47.65911" lon="-2.77113">
        <ele>30.9</ele>
        <time>2023-07-19T12:49:53Z</time>
      </trkpt>
      <trkpt lat="47.65911" lon="-2.77108">
        <ele>30.9</ele>
        <time>2023-07-19T12:49:54Z</time>
      </trkpt>
      <trkpt lat="47.65907" lon="-2.77077">
        <ele>30.9</ele>
        <time>2023-07-19T12:50:08Z</time>
      </trkpt>
      <trkpt lat="47.65902" lon="-2.76993">
        <ele>30.6</ele>
        <time>2023-07-19T12:50:23Z</time>
      </trkpt>
      <trkpt lat="47.65902" lon="-2.76982">
        <ele>30.5</ele>
        <time>2023-07-19T12:50:25Z</time>
      </trkpt>
      <trkpt lat="47.65901" lon="-2.76932">
        <ele>30.4</ele>
        <time>2023-07-19T12:50:33Z</time>
      </trkpt>
      <trkpt lat="47.65903" lon="-2.76848">
        <ele>30.1</ele>
        <time>2023-07-19T12:50:45Z</time>
      </trkpt>
      <trkpt lat="47.65904" lon="-2.76825">
        <ele>30.1</ele>
        <time>2023-07-19T12:50:48Z</time>
      </trkpt>
      <trkpt lat="47.65905" lon="-2.76742">
        <ele>30.2</ele>
        <time>2023-07-19T12:50:59Z</time>
      </trkpt>
      <trkpt lat="47.65905" lon="-2.76685">
        <ele>30.2</ele>
        <time>2023-07-19T12:51:08Z</time>
      </trkpt>
      <trkpt lat="47.65903" lon="-2.76658">
        <ele>30.2</ele>
        <time>2023-07-19T12:51:14Z</time>
      </trkpt>
      <trkpt lat="47.65908" lon="-2.76576">
        <ele>30.2</ele>
        <time>2023-07-19T12:51:29Z</time>
      </trkpt>
      <trkpt lat="47.65913" lon="-2.76514">
        <ele>30.3</ele>
        <time>2023-07-19T12:51:38Z</time>
      </trkpt>
      <trkpt lat="47.6591" lon="-2.76501">
        <ele>30.4</ele>
        <time>2023-07-19T12:51:40Z</time>
      </trkpt>
      <trkpt lat="47.65902" lon="-2.7647">
        <ele>30.5</ele>
        <time>2023-07-19T12:51:46Z</time>
      </trkpt>
      <trkpt lat="47.65848" lon="-2.76441">
        <ele>30.1</ele>
        <time>2023-07-19T12:52:01Z</time>
      </trkpt>
      <trkpt lat="47.65824" lon="-2.76419">
        <ele>29.9</ele>
        <time>2023-07-19T12:52:11Z</time>
      </trkpt>
      <trkpt lat="47.65829" lon="-2.76415">
        <ele>29.9</ele>
        <time>2023-07-19T12:52:13Z</time>
      </trkpt>
      <trkpt lat="47.65866" lon="-2.764">
        <ele>30.3</ele>
        <time>2023-07-19T12:52:22Z</time>
      </trkpt>
      <trkpt lat="47.65898" lon="-2.76361">
        <ele>30.8</ele>
        <time>2023-07-19T12:52:36Z</time>
      </trkpt>
      <trkpt lat="47.6588" lon="-2.7629">
        <ele>29.7</ele>
        <time>2023-07-19T12:52:56Z</time>
      </trkpt>
      <trkpt lat="47.65878" lon="-2.7627">
        <ele>29.1</ele>
        <time>2023-07-19T12:53:01Z</time>
      </trkpt>
      <trkpt lat="47.65893" lon="-2.76206">
        <ele>27.7</ele>
        <time>2023-07-19T12:53:13Z</time>
      </trkpt>
      <trkpt lat="47.65897" lon="-2.7619">
        <ele>27.3</ele>
        <time>2023-07-19T12:53:16Z</time>
      </trkpt>
      <trkpt lat="47.65898" lon="-2.76184">
        <ele>27.1</ele>
        <time>2023-07-19T12:53:17Z</time>
      </trkpt>
      <trkpt lat="47.65876" lon="-2.76117">
        <ele>25.6</ele>
        <time>2023-07-19T12:53:33Z</time>
      </trkpt>
      <trkpt lat="47.6587" lon="-2.76112">
        <ele>25.4</ele>
        <time>2023-07-19T12:53:35Z</time>
      </trkpt>
      <trkpt lat="47.65867" lon="-2.7611">
        <ele>25.4</ele>
        <time>2023-07-19T12:53:36Z</time>
      </trkpt>
      <trkpt lat="47.65864" lon="-2.76106">
        <ele>25.5</ele>
        <time>2023-07-19T12:53:47Z</time>
      </trkpt>
      <trkpt lat="47.65864" lon="-2.76106">
        <ele>25.5</ele>
        <time>2023-07-19T12:53:51Z</time>
      </trkpt>
      <trkpt lat="47.65851" lon="-2.7612">
        <ele>25.5</ele>
        <time>2023-07-19T12:57:02Z</time>
      </trkpt>
      <trkpt lat="47.65849" lon="-2.7612">
        <ele>25.5</ele>
        <time>2023-07-19T12:57:03Z</time>
      </trkpt>
      <trkpt lat="47.65831" lon="-2.76121">
        <ele>25.6</ele>
        <time>2023-07-19T12:57:10Z</time>
      </trkpt>
      <trkpt lat="47.65822" lon="-2.76119">
        <ele>25.6</ele>
        <time>2023-07-19T12:57:17Z</time>
      </trkpt>
      <trkpt lat="47.6582" lon="-2.76116">
        <ele>25.5</ele>
        <time>2023-07-19T12:57:21Z</time>
      </trkpt>
      <trkpt lat="47.6582" lon="-2.76114">
        <ele>25.5</ele>
        <time>2023-07-19T12:57:22Z</time>
      </trkpt>
      <trkpt lat="47.65817" lon="-2.76106">
        <ele>25.3</ele>
        <time>2023-07-19T12:57:27Z</time>
      </trkpt>
      <trkpt lat="47.65816" lon="-2.76097">
        <ele>25.1</ele>
        <time>2023-07-19T12:57:36Z</time>
      </trkpt>
      <trkpt lat="47.65817" lon="-2.76016">
        <ele>23.3</ele>
        <time>2023-07-19T12:57:54Z</time>
      </trkpt>
      <trkpt lat="47.65817" lon="-2.76003">
        <ele>23</ele>
        <time>2023-07-19T12:58:09Z</time>
      </trkpt>
      <trkpt lat="47.65817" lon="-2.76003">
        <ele>23</ele>
        <time>2023-07-19T13:00:50Z</time>
      </trkpt>
      <trkpt lat="47.65817" lon="-2.76003">
        <ele>23</ele>
        <time>2023-07-19T13:00:51Z</time>
      </trkpt>
      <trkpt lat="47.65816" lon="-2.76002">
        <ele>22.6</ele>
        <time>2023-07-19T13:00:55Z</time>
      </trkpt>
      <trkpt lat="47.65797" lon="-2.75999">
        <ele>21.6</ele>
        <time>2023-07-19T13:01:01Z</time>
      </trkpt>
      <trkpt lat="47.65771" lon="-2.75995">
        <ele>20.2</ele>
        <time>2023-07-19T13:01:09Z</time>
      </trkpt>
      <trkpt lat="47.65749" lon="-2.75991">
        <ele>18.6</ele>
        <time>2023-07-19T13:01:14Z</time>
      </trkpt>
      <trkpt lat="47.65731" lon="-2.75989">
        <ele>17.2</ele>
        <time>2023-07-19T13:01:17Z</time>
      </trkpt>
      <trkpt lat="47.65676" lon="-2.75983">
        <ele>13.7</ele>
        <time>2023-07-19T13:01:25Z</time>
      </trkpt>
      <trkpt lat="47.65653" lon="-2.75982">
        <ele>12.9</ele>
        <time>2023-07-19T13:01:28Z</time>
      </trkpt>
      <trkpt lat="47.65637" lon="-2.75984">
        <ele>12.7</ele>
        <time>2023-07-19T13:01:30Z</time>
      </trkpt>
      <trkpt lat="47.6563" lon="-2.75983">
        <ele>12.4</ele>
        <time>2023-07-19T13:01:31Z</time>
      </trkpt>
      <trkpt lat="47.65622" lon="-2.75982">
        <ele>12.2</ele>
        <time>2023-07-19T13:01:32Z</time>
      </trkpt>
      <trkpt lat="47.65601" lon="-2.75979">
        <ele>11.5</ele>
        <time>2023-07-19T13:01:35Z</time>
      </trkpt>
      <trkpt lat="47.65594" lon="-2.75978">
        <ele>11.3</ele>
        <time>2023-07-19T13:01:36Z</time>
      </trkpt>
      <trkpt lat="47.6558" lon="-2.75976">
        <ele>10.8</ele>
        <time>2023-07-19T13:01:38Z</time>
      </trkpt>
      <trkpt lat="47.65573" lon="-2.75975">
        <ele>10.6</ele>
        <time>2023-07-19T13:01:39Z</time>
      </trkpt>
      <trkpt lat="47.65548" lon="-2.75971">
        <ele>10</ele>
        <time>2023-07-19T13:01:43Z</time>
      </trkpt>
      <trkpt lat="47.6553" lon="-2.7597">
        <ele>9.4</ele>
        <time>2023-07-19T13:01:46Z</time>
      </trkpt>
      <trkpt lat="47.655" lon="-2.75968">
        <ele>8.4</ele>
        <time>2023-07-19T13:01:51Z</time>
      </trkpt>
      <trkpt lat="47.65475" lon="-2.75967">
        <ele>7.7</ele>
        <time>2023-07-19T13:01:55Z</time>
      </trkpt>
      <trkpt lat="47.6545" lon="-2.75965">
        <ele>7</ele>
        <time>2023-07-19T13:01:59Z</time>
      </trkpt>
      <trkpt lat="47.65431" lon="-2.75962">
        <ele>6.6</ele>
        <time>2023-07-19T13:02:02Z</time>
      </trkpt>
      <trkpt lat="47.65385" lon="-2.75954">
        <ele>6</ele>
        <time>2023-07-19T13:02:12Z</time>
      </trkpt>
      <trkpt lat="47.65378" lon="-2.75953">
        <ele>6</ele>
        <time>2023-07-19T13:02:14Z</time>
      </trkpt>
      <trkpt lat="47.6536" lon="-2.75949">
        <ele>5.9</ele>
        <time>2023-07-19T13:02:19Z</time>
      </trkpt>
      <trkpt lat="47.65356" lon="-2.75949">
        <ele>5.9</ele>
        <time>2023-07-19T13:02:20Z</time>
      </trkpt>
      <trkpt lat="47.65352" lon="-2.75949">
        <ele>5.9</ele>
        <time>2023-07-19T13:02:21Z</time>
      </trkpt>
      <trkpt lat="47.65339" lon="-2.75949">
        <ele>5.7</ele>
        <time>2023-07-19T13:02:24Z</time>
      </trkpt>
      <trkpt lat="47.65325" lon="-2.75945">
        <ele>5.5</ele>
        <time>2023-07-19T13:02:27Z</time>
      </trkpt>
      <trkpt lat="47.6532" lon="-2.75943">
        <ele>5.5</ele>
        <time>2023-07-19T13:02:28Z</time>
      </trkpt>
      <trkpt lat="47.65315" lon="-2.7594">
        <ele>5.4</ele>
        <time>2023-07-19T13:02:29Z</time>
      </trkpt>
      <trkpt lat="47.6531" lon="-2.75938">
        <ele>5.4</ele>
        <time>2023-07-19T13:02:30Z</time>
      </trkpt>
      <trkpt lat="47.65305" lon="-2.75936">
        <ele>5.3</ele>
        <time>2023-07-19T13:02:31Z</time>
      </trkpt>
      <trkpt lat="47.65281" lon="-2.75924">
        <ele>5.1</ele>
        <time>2023-07-19T13:02:36Z</time>
      </trkpt>
      <trkpt lat="47.65277" lon="-2.75922">
        <ele>5.1</ele>
        <time>2023-07-19T13:02:37Z</time>
      </trkpt>
      <trkpt lat="47.65273" lon="-2.7592">
        <ele>5.1</ele>
        <time>2023-07-19T13:02:38Z</time>
      </trkpt>
      <trkpt lat="47.65265" lon="-2.75917">
        <ele>5</ele>
        <time>2023-07-19T13:02:40Z</time>
      </trkpt>
      <trkpt lat="47.65257" lon="-2.75915">
        <ele>5</ele>
        <time>2023-07-19T13:02:42Z</time>
      </trkpt>
      <trkpt lat="47.65254" lon="-2.75912">
        <ele>5</ele>
        <time>2023-07-19T13:02:43Z</time>
      </trkpt>
      <trkpt lat="47.65251" lon="-2.75907">
        <ele>5</ele>
        <time>2023-07-19T13:02:44Z</time>
      </trkpt>
      <trkpt lat="47.65248" lon="-2.75903">
        <ele>5</ele>
        <time>2023-07-19T13:02:45Z</time>
      </trkpt>
      <trkpt lat="47.6524" lon="-2.75897">
        <ele>5</ele>
        <time>2023-07-19T13:02:47Z</time>
      </trkpt>
      <trkpt lat="47.65231" lon="-2.75895">
        <ele>5</ele>
        <time>2023-07-19T13:02:49Z</time>
      </trkpt>
      <trkpt lat="47.65222" lon="-2.75894">
        <ele>4.9</ele>
        <time>2023-07-19T13:02:51Z</time>
      </trkpt>
      <trkpt lat="47.65199" lon="-2.75894">
        <ele>4.7</ele>
        <time>2023-07-19T13:02:56Z</time>
      </trkpt>
      <trkpt lat="47.65184" lon="-2.75894">
        <ele>4.6</ele>
        <time>2023-07-19T13:02:59Z</time>
      </trkpt>
      <trkpt lat="47.65175" lon="-2.75894">
        <ele>4.6</ele>
        <time>2023-07-19T13:03:01Z</time>
      </trkpt>
      <trkpt lat="47.6516" lon="-2.75893">
        <ele>4.5</ele>
        <time>2023-07-19T13:03:04Z</time>
      </trkpt>
      <trkpt lat="47.65155" lon="-2.75893">
        <ele>4.6</ele>
        <time>2023-07-19T13:03:05Z</time>
      </trkpt>
      <trkpt lat="47.65149" lon="-2.75893">
        <ele>4.6</ele>
        <time>2023-07-19T13:03:06Z</time>
      </trkpt>
      <trkpt lat="47.65144" lon="-2.75893">
        <ele>4.6</ele>
        <time>2023-07-19T13:03:07Z</time>
      </trkpt>
      <trkpt lat="47.65106" lon="-2.75885">
        <ele>4.8</ele>
        <time>2023-07-19T13:03:14Z</time>
      </trkpt>
      <trkpt lat="47.65056" lon="-2.75874">
        <ele>5.1</ele>
        <time>2023-07-19T13:03:23Z</time>
      </trkpt>
      <trkpt lat="47.65048" lon="-2.75867">
        <ele>4.9</ele>
        <time>2023-07-19T13:03:25Z</time>
      </trkpt>
      <trkpt lat="47.65041" lon="-2.75854">
        <ele>4.6</ele>
        <time>2023-07-19T13:03:27Z</time>
      </trkpt>
      <trkpt lat="47.65034" lon="-2.75843">
        <ele>4.4</ele>
        <time>2023-07-19T13:03:29Z</time>
      </trkpt>
      <trkpt lat="47.65024" lon="-2.75838">
        <ele>4.4</ele>
        <time>2023-07-19T13:03:31Z</time>
      </trkpt>
      <trkpt lat="47.64966" lon="-2.75831">
        <ele>4.5</ele>
        <time>2023-07-19T13:03:42Z</time>
      </trkpt>
      <trkpt lat="47.64921" lon="-2.75827">
        <ele>4.6</ele>
        <time>2023-07-19T13:03:51Z</time>
      </trkpt>
      <trkpt lat="47.64916" lon="-2.75826">
        <ele>4.6</ele>
        <time>2023-07-19T13:03:52Z</time>
      </trkpt>
      <trkpt lat="47.6486" lon="-2.75818">
        <ele>4.7</ele>
        <time>2023-07-19T13:04:03Z</time>
      </trkpt>
      <trkpt lat="47.64803" lon="-2.75815">
        <ele>4.7</ele>
        <time>2023-07-19T13:04:14Z</time>
      </trkpt>
      <trkpt lat="47.64745" lon="-2.7582">
        <ele>4.6</ele>
        <time>2023-07-19T13:04:25Z</time>
      </trkpt>
      <trkpt lat="47.64692" lon="-2.75841">
        <ele>4.6</ele>
        <time>2023-07-19T13:04:36Z</time>
      </trkpt>
      <trkpt lat="47.6464" lon="-2.75867">
        <ele>4.7</ele>
        <time>2023-07-19T13:04:47Z</time>
      </trkpt>
      <trkpt lat="47.64585" lon="-2.75894">
        <ele>4.7</ele>
        <time>2023-07-19T13:05:00Z</time>
      </trkpt>
      <trkpt lat="47.64534" lon="-2.75922">
        <ele>4.6</ele>
        <time>2023-07-19T13:05:12Z</time>
      </trkpt>
      <trkpt lat="47.64478" lon="-2.75952">
        <ele>4.5</ele>
        <time>2023-07-19T13:05:23Z</time>
      </trkpt>
      <trkpt lat="47.64426" lon="-2.75979">
        <ele>4.5</ele>
        <time>2023-07-19T13:05:33Z</time>
      </trkpt>
      <trkpt lat="47.64373" lon="-2.76003">
        <ele>4.4</ele>
        <time>2023-07-19T13:05:43Z</time>
      </trkpt>
      <trkpt lat="47.64335" lon="-2.76021">
        <ele>4.4</ele>
        <time>2023-07-19T13:05:50Z</time>
      </trkpt>
      <trkpt lat="47.64287" lon="-2.76067">
        <ele>4.4</ele>
        <time>2023-07-19T13:06:02Z</time>
      </trkpt>
      <trkpt lat="47.64276" lon="-2.76078">
        <ele>4.5</ele>
        <time>2023-07-19T13:06:05Z</time>
      </trkpt>
      <trkpt lat="47.64267" lon="-2.76082">
        <ele>4.5</ele>
        <time>2023-07-19T13:06:07Z</time>
      </trkpt>
      <trkpt lat="47.6421" lon="-2.761">
        <ele>4.7</ele>
        <time>2023-07-19T13:06:19Z</time>
      </trkpt>
      <trkpt lat="47.64158" lon="-2.7612">
        <ele>4.6</ele>
        <time>2023-07-19T13:06:30Z</time>
      </trkpt>
      <trkpt lat="47.6413" lon="-2.76134">
        <ele>4.6</ele>
        <time>2023-07-19T13:06:36Z</time>
      </trkpt>
      <trkpt lat="47.64119" lon="-2.76142">
        <ele>4.6</ele>
        <time>2023-07-19T13:06:39Z</time>
      </trkpt>
      <trkpt lat="47.64089" lon="-2.76148">
        <ele>4.7</ele>
        <time>2023-07-19T13:06:47Z</time>
      </trkpt>
      <trkpt lat="47.64082" lon="-2.76128">
        <ele>5</ele>
        <time>2023-07-19T13:06:51Z</time>
      </trkpt>
      <trkpt lat="47.64076" lon="-2.76097">
        <ele>5.5</ele>
        <time>2023-07-19T13:06:56Z</time>
      </trkpt>
      <trkpt lat="47.64067" lon="-2.76045">
        <ele>5.5</ele>
        <time>2023-07-19T13:07:05Z</time>
      </trkpt>
      <trkpt lat="47.64063" lon="-2.76018">
        <ele>5.3</ele>
        <time>2023-07-19T13:07:09Z</time>
      </trkpt>
      <trkpt lat="47.64061" lon="-2.76004">
        <ele>5.3</ele>
        <time>2023-07-19T13:07:11Z</time>
      </trkpt>
      <trkpt lat="47.64056" lon="-2.75969">
        <ele>5.2</ele>
        <time>2023-07-19T13:07:16Z</time>
      </trkpt>
      <trkpt lat="47.64059" lon="-2.75941">
        <ele>5.3</ele>
        <time>2023-07-19T13:07:20Z</time>
      </trkpt>
      <trkpt lat="47.64058" lon="-2.75927">
        <ele>5.5</ele>
        <time>2023-07-19T13:07:21Z</time>
      </trkpt>
      <trkpt lat="47.64058" lon="-2.75927">
        <ele>5.5</ele>
        <time>2023-07-19T13:07:22Z</time>
      </trkpt>
      <trkpt lat="47.64055" lon="-2.75913">
        <ele>5.7</ele>
        <time>2023-07-19T13:07:24Z</time>
      </trkpt>
      <trkpt lat="47.64053" lon="-2.75899">
        <ele>5.9</ele>
        <time>2023-07-19T13:07:26Z</time>
      </trkpt>
      <trkpt lat="47.64052" lon="-2.75885">
        <ele>6.2</ele>
        <time>2023-07-19T13:07:28Z</time>
      </trkpt>
      <trkpt lat="47.64049" lon="-2.75865">
        <ele>6.6</ele>
        <time>2023-07-19T13:07:31Z</time>
      </trkpt>
      <trkpt lat="47.64048" lon="-2.75852">
        <ele>6.8</ele>
        <time>2023-07-19T13:07:33Z</time>
      </trkpt>
      <trkpt lat="47.64048" lon="-2.75846">
        <ele>7</ele>
        <time>2023-07-19T13:07:34Z</time>
      </trkpt>
      <trkpt lat="47.64049" lon="-2.75833">
        <ele>7.2</ele>
        <time>2023-07-19T13:07:36Z</time>
      </trkpt>
      <trkpt lat="47.64049" lon="-2.75827">
        <ele>7.4</ele>
        <time>2023-07-19T13:07:37Z</time>
      </trkpt>
      <trkpt lat="47.64049" lon="-2.75821">
        <ele>7.5</ele>
        <time>2023-07-19T13:07:38Z</time>
      </trkpt>
      <trkpt lat="47.64057" lon="-2.75755">
        <ele>8.9</ele>
        <time>2023-07-19T13:07:50Z</time>
      </trkpt>
      <trkpt lat="47.64059" lon="-2.75746">
        <ele>9</ele>
        <time>2023-07-19T13:07:52Z</time>
      </trkpt>
      <trkpt lat="47.64061" lon="-2.75738">
        <ele>9.2</ele>
        <time>2023-07-19T13:07:54Z</time>
      </trkpt>
      <trkpt lat="47.64064" lon="-2.7573">
        <ele>9.3</ele>
        <time>2023-07-19T13:07:56Z</time>
      </trkpt>
      <trkpt lat="47.64087" lon="-2.7567">
        <ele>10.2</ele>
        <time>2023-07-19T13:08:08Z</time>
      </trkpt>
      <trkpt lat="47.64111" lon="-2.75629">
        <ele>11.1</ele>
        <time>2023-07-19T13:08:16Z</time>
      </trkpt>
      <trkpt lat="47.64121" lon="-2.75617">
        <ele>11.4</ele>
        <time>2023-07-19T13:08:19Z</time>
      </trkpt>
      <trkpt lat="47.64157" lon="-2.7558">
        <ele>12.4</ele>
        <time>2023-07-19T13:08:30Z</time>
      </trkpt>
      <trkpt lat="47.64131" lon="-2.7551">
        <ele>13</ele>
        <time>2023-07-19T13:08:45Z</time>
      </trkpt>
      <trkpt lat="47.64113" lon="-2.75491">
        <ele>13.1</ele>
        <time>2023-07-19T13:08:51Z</time>
      </trkpt>
      <trkpt lat="47.64084" lon="-2.75459">
        <ele>12.9</ele>
        <time>2023-07-19T13:08:59Z</time>
      </trkpt>
      <trkpt lat="47.64078" lon="-2.75448">
        <ele>12.9</ele>
        <time>2023-07-19T13:09:00Z</time>
      </trkpt>
      <trkpt lat="47.64071" lon="-2.75437">
        <ele>13.1</ele>
        <time>2023-07-19T13:09:03Z</time>
      </trkpt>
      <trkpt lat="47.64067" lon="-2.75432">
        <ele>13.3</ele>
        <time>2023-07-19T13:09:04Z</time>
      </trkpt>
      <trkpt lat="47.64064" lon="-2.75426">
        <ele>13.4</ele>
        <time>2023-07-19T13:09:05Z</time>
      </trkpt>
      <trkpt lat="47.64061" lon="-2.7542">
        <ele>13.6</ele>
        <time>2023-07-19T13:09:06Z</time>
      </trkpt>
      <trkpt lat="47.64048" lon="-2.75389">
        <ele>14.1</ele>
        <time>2023-07-19T13:09:11Z</time>
      </trkpt>
      <trkpt lat="47.64045" lon="-2.75383">
        <ele>14.2</ele>
        <time>2023-07-19T13:09:12Z</time>
      </trkpt>
      <trkpt lat="47.6403" lon="-2.7535">
        <ele>14.8</ele>
        <time>2023-07-19T13:09:18Z</time>
      </trkpt>
      <trkpt lat="47.64026" lon="-2.7534">
        <ele>15</ele>
        <time>2023-07-19T13:09:20Z</time>
      </trkpt>
      <trkpt lat="47.63987" lon="-2.7532">
        <ele>14.9</ele>
        <time>2023-07-19T13:09:33Z</time>
      </trkpt>
      <trkpt lat="47.63972" lon="-2.75296">
        <ele>15.2</ele>
        <time>2023-07-19T13:09:42Z</time>
      </trkpt>
      <trkpt lat="47.64009" lon="-2.75237">
        <ele>17.3</ele>
        <time>2023-07-19T13:09:54Z</time>
      </trkpt>
      <trkpt lat="47.64023" lon="-2.75214">
        <ele>18</ele>
        <time>2023-07-19T13:10:14Z</time>
      </trkpt>
      <trkpt lat="47.64071" lon="-2.75169">
        <ele>19.1</ele>
        <time>2023-07-19T13:10:27Z</time>
      </trkpt>
      <trkpt lat="47.6408" lon="-2.75159">
        <ele>19.1</ele>
        <time>2023-07-19T13:10:30Z</time>
      </trkpt>
      <trkpt lat="47.64099" lon="-2.75154">
        <ele>19.2</ele>
        <time>2023-07-19T13:10:35Z</time>
      </trkpt>
      <trkpt lat="47.64108" lon="-2.75145">
        <ele>19.2</ele>
        <time>2023-07-19T13:10:38Z</time>
      </trkpt>
      <trkpt lat="47.64108" lon="-2.75135">
        <ele>18.9</ele>
        <time>2023-07-19T13:10:40Z</time>
      </trkpt>
      <trkpt lat="47.64079" lon="-2.75085">
        <ele>17.7</ele>
        <time>2023-07-19T13:10:52Z</time>
      </trkpt>
      <trkpt lat="47.64042" lon="-2.75088">
        <ele>16.7</ele>
        <time>2023-07-19T13:10:59Z</time>
      </trkpt>
      <trkpt lat="47.63993" lon="-2.75109">
        <ele>15</ele>
        <time>2023-07-19T13:11:09Z</time>
      </trkpt>
      <trkpt lat="47.63962" lon="-2.75113">
        <ele>14</ele>
        <time>2023-07-19T13:11:14Z</time>
      </trkpt>
      <trkpt lat="47.63921" lon="-2.75118">
        <ele>12.8</ele>
        <time>2023-07-19T13:11:20Z</time>
      </trkpt>
      <trkpt lat="47.63862" lon="-2.75121">
        <ele>12</ele>
        <time>2023-07-19T13:11:29Z</time>
      </trkpt>
      <trkpt lat="47.63837" lon="-2.75114">
        <ele>11.8</ele>
        <time>2023-07-19T13:11:33Z</time>
      </trkpt>
      <trkpt lat="47.63819" lon="-2.75106">
        <ele>11.5</ele>
        <time>2023-07-19T13:11:36Z</time>
      </trkpt>
      <trkpt lat="47.63767" lon="-2.75072">
        <ele>10.6</ele>
        <time>2023-07-19T13:11:45Z</time>
      </trkpt>
      <trkpt lat="47.63719" lon="-2.75021">
        <ele>9.7</ele>
        <time>2023-07-19T13:11:54Z</time>
      </trkpt>
      <trkpt lat="47.63683" lon="-2.74974">
        <ele>9.2</ele>
        <time>2023-07-19T13:12:01Z</time>
      </trkpt>
      <trkpt lat="47.63658" lon="-2.7494">
        <ele>8.7</ele>
        <time>2023-07-19T13:12:06Z</time>
      </trkpt>
      <trkpt lat="47.63613" lon="-2.74883">
        <ele>8</ele>
        <time>2023-07-19T13:12:15Z</time>
      </trkpt>
      <trkpt lat="47.63579" lon="-2.7484">
        <ele>7.5</ele>
        <time>2023-07-19T13:12:22Z</time>
      </trkpt>
      <trkpt lat="47.63538" lon="-2.74789">
        <ele>6.9</ele>
        <time>2023-07-19T13:12:31Z</time>
      </trkpt>
      <trkpt lat="47.63492" lon="-2.7474">
        <ele>5.7</ele>
        <time>2023-07-19T13:12:40Z</time>
      </trkpt>
      <trkpt lat="47.63454" lon="-2.747">
        <ele>4.8</ele>
        <time>2023-07-19T13:12:47Z</time>
      </trkpt>
      <trkpt lat="47.63409" lon="-2.74653">
        <ele>4.3</ele>
        <time>2023-07-19T13:12:55Z</time>
      </trkpt>
      <trkpt lat="47.63363" lon="-2.74606">
        <ele>4</ele>
        <time>2023-07-19T13:13:04Z</time>
      </trkpt>
      <trkpt lat="47.63314" lon="-2.74561">
        <ele>3.7</ele>
        <time>2023-07-19T13:13:14Z</time>
      </trkpt>
      <trkpt lat="47.63273" lon="-2.74525">
        <ele>3.6</ele>
        <time>2023-07-19T13:13:22Z</time>
      </trkpt>
      <trkpt lat="47.63242" lon="-2.74502">
        <ele>3.7</ele>
        <time>2023-07-19T13:13:28Z</time>
      </trkpt>
      <trkpt lat="47.6319" lon="-2.74466">
        <ele>4.4</ele>
        <time>2023-07-19T13:13:39Z</time>
      </trkpt>
      <trkpt lat="47.63136" lon="-2.74439">
        <ele>5.3</ele>
        <time>2023-07-19T13:13:51Z</time>
      </trkpt>
      <trkpt lat="47.63084" lon="-2.74413">
        <ele>5.9</ele>
        <time>2023-07-19T13:14:03Z</time>
      </trkpt>
      <trkpt lat="47.63064" lon="-2.74399">
        <ele>6.1</ele>
        <time>2023-07-19T13:14:08Z</time>
      </trkpt>
      <trkpt lat="47.63021" lon="-2.7435">
        <ele>6.1</ele>
        <time>2023-07-19T13:14:24Z</time>
      </trkpt>
      <trkpt lat="47.63015" lon="-2.74311">
        <ele>6.3</ele>
        <time>2023-07-19T13:14:32Z</time>
      </trkpt>
      <trkpt lat="47.63009" lon="-2.74294">
        <ele>6.4</ele>
        <time>2023-07-19T13:14:37Z</time>
      </trkpt>
      <trkpt lat="47.63011" lon="-2.74293">
        <ele>6.4</ele>
        <time>2023-07-19T13:14:39Z</time>
      </trkpt>
      <trkpt lat="47.6302" lon="-2.74322">
        <ele>6.3</ele>
        <time>2023-07-19T13:14:46Z</time>
      </trkpt>
      <trkpt lat="47.63022" lon="-2.74327">
        <ele>6.2</ele>
        <time>2023-07-19T13:14:47Z</time>
      </trkpt>
      <trkpt lat="47.63026" lon="-2.74352">
        <ele>6</ele>
        <time>2023-07-19T13:14:57Z</time>
      </trkpt>
      <trkpt lat="47.63025" lon="-2.74353">
        <ele>6</ele>
        <time>2023-07-19T13:15:07Z</time>
      </trkpt>
      <trkpt lat="47.63023" lon="-2.74351">
        <ele>6</ele>
        <time>2023-07-19T13:15:09Z</time>
      </trkpt>
      <trkpt lat="47.63005" lon="-2.74338">
        <ele>5.8</ele>
        <time>2023-07-19T13:15:15Z</time>
      </trkpt>
      <trkpt lat="47.62956" lon="-2.74301">
        <ele>4.7</ele>
        <time>2023-07-19T13:15:26Z</time>
      </trkpt>
      <trkpt lat="47.62907" lon="-2.74267">
        <ele>3.8</ele>
        <time>2023-07-19T13:15:36Z</time>
      </trkpt>
      <trkpt lat="47.62865" lon="-2.74233">
        <ele>3.4</ele>
        <time>2023-07-19T13:15:45Z</time>
      </trkpt>
      <trkpt lat="47.62857" lon="-2.74227">
        <ele>3.3</ele>
        <time>2023-07-19T13:15:47Z</time>
      </trkpt>
      <trkpt lat="47.62853" lon="-2.74224">
        <ele>3.3</ele>
        <time>2023-07-19T13:15:48Z</time>
      </trkpt>
      <trkpt lat="47.62849" lon="-2.74221">
        <ele>3.2</ele>
        <time>2023-07-19T13:15:49Z</time>
      </trkpt>
      <trkpt lat="47.62845" lon="-2.74218">
        <ele>3.2</ele>
        <time>2023-07-19T13:15:50Z</time>
      </trkpt>
      <trkpt lat="47.62836" lon="-2.74212">
        <ele>3.1</ele>
        <time>2023-07-19T13:15:52Z</time>
      </trkpt>
      <trkpt lat="47.62812" lon="-2.74195">
        <ele>3</ele>
        <time>2023-07-19T13:15:58Z</time>
      </trkpt>
      <trkpt lat="47.62808" lon="-2.74193">
        <ele>3</ele>
        <time>2023-07-19T13:15:59Z</time>
      </trkpt>
      <trkpt lat="47.62804" lon="-2.74191">
        <ele>3</ele>
        <time>2023-07-19T13:16:00Z</time>
      </trkpt>
      <trkpt lat="47.62801" lon="-2.74189">
        <ele>3</ele>
        <time>2023-07-19T13:16:01Z</time>
      </trkpt>
      <trkpt lat="47.62784" lon="-2.74181">
        <ele>3</ele>
        <time>2023-07-19T13:16:06Z</time>
      </trkpt>
      <trkpt lat="47.62781" lon="-2.74179">
        <ele>3</ele>
        <time>2023-07-19T13:16:07Z</time>
      </trkpt>
      <trkpt lat="47.62774" lon="-2.74176">
        <ele>3</ele>
        <time>2023-07-19T13:16:09Z</time>
      </trkpt>
      <trkpt lat="47.62771" lon="-2.74174">
        <ele>3</ele>
        <time>2023-07-19T13:16:10Z</time>
      </trkpt>
      <trkpt lat="47.62763" lon="-2.74171">
        <ele>3.1</ele>
        <time>2023-07-19T13:16:12Z</time>
      </trkpt>
      <trkpt lat="47.62754" lon="-2.74166">
        <ele>3.1</ele>
        <time>2023-07-19T13:16:15Z</time>
      </trkpt>
      <trkpt lat="47.6275" lon="-2.74165">
        <ele>3.1</ele>
        <time>2023-07-19T13:16:16Z</time>
      </trkpt>
      <trkpt lat="47.62748" lon="-2.74163">
        <ele>3.1</ele>
        <time>2023-07-19T13:16:17Z</time>
      </trkpt>
      <trkpt lat="47.62745" lon="-2.74162">
        <ele>3.1</ele>
        <time>2023-07-19T13:16:18Z</time>
      </trkpt>
      <trkpt lat="47.62742" lon="-2.7416">
        <ele>3.1</ele>
        <time>2023-07-19T13:16:19Z</time>
      </trkpt>
      <trkpt lat="47.62728" lon="-2.74149">
        <ele>3.4</ele>
        <time>2023-07-19T13:16:25Z</time>
      </trkpt>
      <trkpt lat="47.62732" lon="-2.74138">
        <ele>3.1</ele>
        <time>2023-07-19T13:16:29Z</time>
      </trkpt>
      <trkpt lat="47.62741" lon="-2.74123">
        <ele>3</ele>
        <time>2023-07-19T13:16:34Z</time>
      </trkpt>
      <trkpt lat="47.62752" lon="-2.74103">
        <ele>2.9</ele>
        <time>2023-07-19T13:16:41Z</time>
      </trkpt>
      <trkpt lat="47.62762" lon="-2.74092">
        <ele>3</ele>
        <time>2023-07-19T13:16:47Z</time>
      </trkpt>
      <trkpt lat="47.62764" lon="-2.74091">
        <ele>3</ele>
        <time>2023-07-19T13:16:48Z</time>
      </trkpt>
      <trkpt lat="47.62769" lon="-2.74087">
        <ele>3</ele>
        <time>2023-07-19T13:16:53Z</time>
      </trkpt>
      <trkpt lat="47.62773" lon="-2.74085">
        <ele>3.1</ele>
        <time>2023-07-19T13:16:59Z</time>
      </trkpt>
      <trkpt lat="47.62232" lon="-2.73282">
        <ele>4.9</ele>
        <time>2023-07-19T13:20:49Z</time>
      </trkpt>
      <trkpt lat="47.62229" lon="-2.73282">
        <ele>4.8</ele>
        <time>2023-07-19T13:20:50Z</time>
      </trkpt>
      <trkpt lat="47.62197" lon="-2.73271">
        <ele>5.4</ele>
        <time>2023-07-19T13:21:01Z</time>
      </trkpt>
      <trkpt lat="47.62189" lon="-2.7325">
        <ele>5.6</ele>
        <time>2023-07-19T13:21:06Z</time>
      </trkpt>
      <trkpt lat="47.62186" lon="-2.73227">
        <ele>5.9</ele>
        <time>2023-07-19T13:21:10Z</time>
      </trkpt>
      <trkpt lat="47.62187" lon="-2.73214">
        <ele>6.1</ele>
        <time>2023-07-19T13:21:12Z</time>
      </trkpt>
      <trkpt lat="47.62186" lon="-2.732">
        <ele>6.2</ele>
        <time>2023-07-19T13:21:14Z</time>
      </trkpt>
      <trkpt lat="47.6218" lon="-2.73192">
        <ele>6.3</ele>
        <time>2023-07-19T13:21:16Z</time>
      </trkpt>
      <trkpt lat="47.62153" lon="-2.73194">
        <ele>6.6</ele>
        <time>2023-07-19T13:21:23Z</time>
      </trkpt>
      <trkpt lat="47.62099" lon="-2.73165">
        <ele>7.1</ele>
        <time>2023-07-19T13:21:35Z</time>
      </trkpt>
      <trkpt lat="47.62051" lon="-2.73129">
        <ele>7.3</ele>
        <time>2023-07-19T13:21:46Z</time>
      </trkpt>
      <trkpt lat="47.62001" lon="-2.73089">
        <ele>6.7</ele>
        <time>2023-07-19T13:21:56Z</time>
      </trkpt>
      <trkpt lat="47.61949" lon="-2.73047">
        <ele>6.1</ele>
        <time>2023-07-19T13:22:06Z</time>
      </trkpt>
      <trkpt lat="47.61907" lon="-2.73024">
        <ele>5.7</ele>
        <time>2023-07-19T13:22:14Z</time>
      </trkpt>
      <trkpt lat="47.6189" lon="-2.73019">
        <ele>5.5</ele>
        <time>2023-07-19T13:22:17Z</time>
      </trkpt>
      <trkpt lat="47.61836" lon="-2.7301">
        <ele>4.8</ele>
        <time>2023-07-19T13:22:26Z</time>
      </trkpt>
      <trkpt lat="47.6178" lon="-2.73005">
        <ele>4.6</ele>
        <time>2023-07-19T13:22:35Z</time>
      </trkpt>
      <trkpt lat="47.61722" lon="-2.73001">
        <ele>4.2</ele>
        <time>2023-07-19T13:22:46Z</time>
      </trkpt>
      <trkpt lat="47.61695" lon="-2.72991">
        <ele>4</ele>
        <time>2023-07-19T13:22:53Z</time>
      </trkpt>
      <trkpt lat="47.61663" lon="-2.72923">
        <ele>5.6</ele>
        <time>2023-07-19T13:23:04Z</time>
      </trkpt>
      <trkpt lat="47.61656" lon="-2.72909">
        <ele>6.1</ele>
        <time>2023-07-19T13:23:07Z</time>
      </trkpt>
      <trkpt lat="47.61635" lon="-2.72881">
        <ele>5.8</ele>
        <time>2023-07-19T13:23:14Z</time>
      </trkpt>
      <trkpt lat="47.61624" lon="-2.72867">
        <ele>5.3</ele>
        <time>2023-07-19T13:23:17Z</time>
      </trkpt>
      <trkpt lat="47.61612" lon="-2.72848">
        <ele>4.8</ele>
        <time>2023-07-19T13:23:20Z</time>
      </trkpt>
      <trkpt lat="47.61577" lon="-2.72781">
        <ele>5.2</ele>
        <time>2023-07-19T13:23:30Z</time>
      </trkpt>
      <trkpt lat="47.61541" lon="-2.72714">
        <ele>7.5</ele>
        <time>2023-07-19T13:23:41Z</time>
      </trkpt>
      <trkpt lat="47.6153" lon="-2.72695">
        <ele>7.9</ele>
        <time>2023-07-19T13:23:45Z</time>
      </trkpt>
      <trkpt lat="47.61524" lon="-2.72685">
        <ele>8.1</ele>
        <time>2023-07-19T13:23:47Z</time>
      </trkpt>
      <trkpt lat="47.61507" lon="-2.72655">
        <ele>8.5</ele>
        <time>2023-07-19T13:23:53Z</time>
      </trkpt>
      <trkpt lat="47.6146" lon="-2.72606">
        <ele>8.4</ele>
        <time>2023-07-19T13:24:05Z</time>
      </trkpt>
      <trkpt lat="47.61446" lon="-2.72594">
        <ele>8.2</ele>
        <time>2023-07-19T13:24:08Z</time>
      </trkpt>
      <trkpt lat="47.61394" lon="-2.72569">
        <ele>7.8</ele>
        <time>2023-07-19T13:24:18Z</time>
      </trkpt>
      <trkpt lat="47.61378" lon="-2.72561">
        <ele>7.8</ele>
        <time>2023-07-19T13:24:21Z</time>
      </trkpt>
      <trkpt lat="47.61364" lon="-2.72546">
        <ele>7.8</ele>
        <time>2023-07-19T13:24:24Z</time>
      </trkpt>
      <trkpt lat="47.61324" lon="-2.72491">
        <ele>8.6</ele>
        <time>2023-07-19T13:24:34Z</time>
      </trkpt>
      <trkpt lat="47.61286" lon="-2.72427">
        <ele>8.6</ele>
        <time>2023-07-19T13:24:45Z</time>
      </trkpt>
      <trkpt lat="47.6125" lon="-2.72359">
        <ele>8.5</ele>
        <time>2023-07-19T13:24:56Z</time>
      </trkpt>
      <trkpt lat="47.61209" lon="-2.72306">
        <ele>8.7</ele>
        <time>2023-07-19T13:25:06Z</time>
      </trkpt>
      <trkpt lat="47.61169" lon="-2.72253">
        <ele>9.7</ele>
        <time>2023-07-19T13:25:17Z</time>
      </trkpt>
      <trkpt lat="47.61131" lon="-2.7219">
        <ele>10</ele>
        <time>2023-07-19T13:25:29Z</time>
      </trkpt>
      <trkpt lat="47.61086" lon="-2.72136">
        <ele>10.3</ele>
        <time>2023-07-19T13:25:41Z</time>
      </trkpt>
      <trkpt lat="47.61037" lon="-2.72089">
        <ele>10.7</ele>
        <time>2023-07-19T13:25:53Z</time>
      </trkpt>
      <trkpt lat="47.61025" lon="-2.7208">
        <ele>10.8</ele>
        <time>2023-07-19T13:25:56Z</time>
      </trkpt>
      <trkpt lat="47.60975" lon="-2.72043">
        <ele>10.7</ele>
        <time>2023-07-19T13:26:09Z</time>
      </trkpt>
      <trkpt lat="47.60939" lon="-2.71999">
        <ele>9.7</ele>
        <time>2023-07-19T13:26:20Z</time>
      </trkpt>
      <trkpt lat="47.6093" lon="-2.71998">
        <ele>9.5</ele>
        <time>2023-07-19T13:26:22Z</time>
      </trkpt>
      <trkpt lat="47.60924" lon="-2.72004">
        <ele>9.7</ele>
        <time>2023-07-19T13:26:24Z</time>
      </trkpt>
      <trkpt lat="47.60922" lon="-2.72007">
        <ele>9.8</ele>
        <time>2023-07-19T13:26:26Z</time>
      </trkpt>
      <trkpt lat="47.60921" lon="-2.72002">
        <ele>9.7</ele>
        <time>2023-07-19T13:26:29Z</time>
      </trkpt>
      <trkpt lat="47.60937" lon="-2.71967">
        <ele>8.4</ele>
        <time>2023-07-19T13:26:37Z</time>
      </trkpt>
      <trkpt lat="47.60938" lon="-2.71959">
        <ele>8.2</ele>
        <time>2023-07-19T13:26:38Z</time>
      </trkpt>
      <trkpt lat="47.60937" lon="-2.71952">
        <ele>8</ele>
        <time>2023-07-19T13:26:39Z</time>
      </trkpt>
      <trkpt lat="47.60934" lon="-2.71938">
        <ele>7.7</ele>
        <time>2023-07-19T13:26:41Z</time>
      </trkpt>
      <trkpt lat="47.60932" lon="-2.71932">
        <ele>7.6</ele>
        <time>2023-07-19T13:26:42Z</time>
      </trkpt>
      <trkpt lat="47.6093" lon="-2.71926">
        <ele>7.5</ele>
        <time>2023-07-19T13:26:43Z</time>
      </trkpt>
      <trkpt lat="47.60928" lon="-2.7192">
        <ele>7.4</ele>
        <time>2023-07-19T13:26:44Z</time>
      </trkpt>
      <trkpt lat="47.60918" lon="-2.71899">
        <ele>7</ele>
        <time>2023-07-19T13:26:48Z</time>
      </trkpt>
      <trkpt lat="47.60915" lon="-2.71883">
        <ele>6.6</ele>
        <time>2023-07-19T13:26:51Z</time>
      </trkpt>
      <trkpt lat="47.60914" lon="-2.71877">
        <ele>6.5</ele>
        <time>2023-07-19T13:26:52Z</time>
      </trkpt>
      <trkpt lat="47.60914" lon="-2.71867">
        <ele>6.2</ele>
        <time>2023-07-19T13:26:54Z</time>
      </trkpt>
      <trkpt lat="47.60914" lon="-2.71862">
        <ele>6.1</ele>
        <time>2023-07-19T13:26:55Z</time>
      </trkpt>
      <trkpt lat="47.60916" lon="-2.71847">
        <ele>5.7</ele>
        <time>2023-07-19T13:26:58Z</time>
      </trkpt>
      <trkpt lat="47.6092" lon="-2.71845">
        <ele>5.5</ele>
        <time>2023-07-19T13:27:00Z</time>
      </trkpt>
      <trkpt lat="47.60924" lon="-2.71878">
        <ele>6.5</ele>
        <time>2023-07-19T13:27:07Z</time>
      </trkpt>
      <trkpt lat="47.60925" lon="-2.7189">
        <ele>6.8</ele>
        <time>2023-07-19T13:27:09Z</time>
      </trkpt>
      <trkpt lat="47.60926" lon="-2.71901">
        <ele>7.1</ele>
        <time>2023-07-19T13:27:11Z</time>
      </trkpt>
      <trkpt lat="47.60931" lon="-2.71919">
        <ele>7.4</ele>
        <time>2023-07-19T13:27:14Z</time>
      </trkpt>
      <trkpt lat="47.6094" lon="-2.71949">
        <ele>8</ele>
        <time>2023-07-19T13:27:19Z</time>
      </trkpt>
      <trkpt lat="47.60941" lon="-2.71957">
        <ele>8.1</ele>
        <time>2023-07-19T13:27:20Z</time>
      </trkpt>
      <trkpt lat="47.6094" lon="-2.71964">
        <ele>8.3</ele>
        <time>2023-07-19T13:27:21Z</time>
      </trkpt>
      <trkpt lat="47.6094" lon="-2.7197">
        <ele>8.5</ele>
        <time>2023-07-19T13:27:22Z</time>
      </trkpt>
      <trkpt lat="47.60938" lon="-2.71977">
        <ele>8.7</ele>
        <time>2023-07-19T13:27:23Z</time>
      </trkpt>
      <trkpt lat="47.60937" lon="-2.71983">
        <ele>9</ele>
        <time>2023-07-19T13:27:24Z</time>
      </trkpt>
      <trkpt lat="47.60934" lon="-2.71988">
        <ele>9.2</ele>
        <time>2023-07-19T13:27:25Z</time>
      </trkpt>
      <trkpt lat="47.60929" lon="-2.71999">
        <ele>9.6</ele>
        <time>2023-07-19T13:27:27Z</time>
      </trkpt>
      <trkpt lat="47.60924" lon="-2.72009">
        <ele>9.8</ele>
        <time>2023-07-19T13:27:29Z</time>
      </trkpt>
      <trkpt lat="47.60897" lon="-2.72054">
        <ele>10.5</ele>
        <time>2023-07-19T13:27:40Z</time>
      </trkpt>
      <trkpt lat="47.60891" lon="-2.72065">
        <ele>10.6</ele>
        <time>2023-07-19T13:27:43Z</time>
      </trkpt>
      <trkpt lat="47.60882" lon="-2.72079">
        <ele>10.6</ele>
        <time>2023-07-19T13:27:47Z</time>
      </trkpt>
      <trkpt lat="47.60859" lon="-2.72121">
        <ele>9.9</ele>
        <time>2023-07-19T13:27:56Z</time>
      </trkpt>
      <trkpt lat="47.60818" lon="-2.72181">
        <ele>7.3</ele>
        <time>2023-07-19T13:28:06Z</time>
      </trkpt>
      <trkpt lat="47.60782" lon="-2.72215">
        <ele>5.2</ele>
        <time>2023-07-19T13:28:12Z</time>
      </trkpt>
      <trkpt lat="47.60751" lon="-2.72238">
        <ele>4</ele>
        <time>2023-07-19T13:28:17Z</time>
      </trkpt>
      <trkpt lat="47.60746" lon="-2.72243">
        <ele>3.8</ele>
        <time>2023-07-19T13:28:18Z</time>
      </trkpt>
      <trkpt lat="47.60735" lon="-2.72255">
        <ele>3.5</ele>
        <time>2023-07-19T13:28:21Z</time>
      </trkpt>
      <trkpt lat="47.60728" lon="-2.72254">
        <ele>3.4</ele>
        <time>2023-07-19T13:28:22Z</time>
      </trkpt>
      <trkpt lat="47.60724" lon="-2.72251">
        <ele>3.3</ele>
        <time>2023-07-19T13:28:24Z</time>
      </trkpt>
      <trkpt lat="47.60711" lon="-2.72242">
        <ele>3.1</ele>
        <time>2023-07-19T13:28:27Z</time>
      </trkpt>
      <trkpt lat="47.60684" lon="-2.72234">
        <ele>2.9</ele>
        <time>2023-07-19T13:28:32Z</time>
      </trkpt>
      <trkpt lat="47.60628" lon="-2.72237">
        <ele>2.5</ele>
        <time>2023-07-19T13:28:42Z</time>
      </trkpt>
      <trkpt lat="47.60572" lon="-2.72245">
        <ele>2.5</ele>
        <time>2023-07-19T13:28:52Z</time>
      </trkpt>
      <trkpt lat="47.60517" lon="-2.72254">
        <ele>2.5</ele>
        <time>2023-07-19T13:29:02Z</time>
      </trkpt>
      <trkpt lat="47.60459" lon="-2.72253">
        <ele>2.6</ele>
        <time>2023-07-19T13:29:13Z</time>
      </trkpt>
      <trkpt lat="47.60412" lon="-2.72245">
        <ele>2.9</ele>
        <time>2023-07-19T13:29:26Z</time>
      </trkpt>
      <trkpt lat="47.60406" lon="-2.72248">
        <ele>2.9</ele>
        <time>2023-07-19T13:29:30Z</time>
      </trkpt>
      <trkpt lat="47.60405" lon="-2.72244">
        <ele>2.9</ele>
        <time>2023-07-19T13:29:39Z</time>
      </trkpt>
      <trkpt lat="47.60393" lon="-2.7223">
        <ele>2.8</ele>
        <time>2023-07-19T13:29:43Z</time>
      </trkpt>
      <trkpt lat="47.60387" lon="-2.72219">
        <ele>2.8</ele>
        <time>2023-07-19T13:29:45Z</time>
      </trkpt>
      <trkpt lat="47.60361" lon="-2.72142">
        <ele>2.6</ele>
        <time>2023-07-19T13:29:56Z</time>
      </trkpt>
      <trkpt lat="47.6033" lon="-2.7207">
        <ele>3</ele>
        <time>2023-07-19T13:30:07Z</time>
      </trkpt>
      <trkpt lat="47.603" lon="-2.7204">
        <ele>3.1</ele>
        <time>2023-07-19T13:30:14Z</time>
      </trkpt>
      <trkpt lat="47.60289" lon="-2.72035">
        <ele>3.1</ele>
        <time>2023-07-19T13:30:16Z</time>
      </trkpt>
      <trkpt lat="47.60244" lon="-2.72026">
        <ele>3.2</ele>
        <time>2023-07-19T13:30:25Z</time>
      </trkpt>
      <trkpt lat="47.602" lon="-2.71991">
        <ele>3.3</ele>
        <time>2023-07-19T13:30:35Z</time>
      </trkpt>
      <trkpt lat="47.60196" lon="-2.71986">
        <ele>3.2</ele>
        <time>2023-07-19T13:30:36Z</time>
      </trkpt>
      <trkpt lat="47.60152" lon="-2.71935">
        <ele>2.8</ele>
        <time>2023-07-19T13:30:46Z</time>
      </trkpt>
      <trkpt lat="47.60147" lon="-2.71931">
        <ele>2.8</ele>
        <time>2023-07-19T13:30:47Z</time>
      </trkpt>
      <trkpt lat="47.60093" lon="-2.71906">
        <ele>2.8</ele>
        <time>2023-07-19T13:30:57Z</time>
      </trkpt>
      <trkpt lat="47.60038" lon="-2.71884">
        <ele>2.7</ele>
        <time>2023-07-19T13:31:08Z</time>
      </trkpt>
      <trkpt lat="47.59987" lon="-2.71856">
        <ele>2.7</ele>
        <time>2023-07-19T13:31:19Z</time>
      </trkpt>
      <trkpt lat="47.59946" lon="-2.71805">
        <ele>2.5</ele>
        <time>2023-07-19T13:31:30Z</time>
      </trkpt>
      <trkpt lat="47.59895" lon="-2.71765">
        <ele>2.3</ele>
        <time>2023-07-19T13:31:41Z</time>
      </trkpt>
      <trkpt lat="47.59843" lon="-2.71737">
        <ele>2.3</ele>
        <time>2023-07-19T13:31:54Z</time>
      </trkpt>
      <trkpt lat="47.59836" lon="-2.71738">
        <ele>2.3</ele>
        <time>2023-07-19T13:31:59Z</time>
      </trkpt>
      <trkpt lat="47.59833" lon="-2.71737">
        <ele>2.3</ele>
        <time>2023-07-19T13:33:05Z</time>
      </trkpt>
      <trkpt lat="47.59825" lon="-2.71736">
        <ele>2.4</ele>
        <time>2023-07-19T13:33:08Z</time>
      </trkpt>
      <trkpt lat="47.59818" lon="-2.71737">
        <ele>2.5</ele>
        <time>2023-07-19T13:33:10Z</time>
      </trkpt>
      <trkpt lat="47.59806" lon="-2.71741">
        <ele>2.8</ele>
        <time>2023-07-19T13:33:13Z</time>
      </trkpt>
      <trkpt lat="47.59794" lon="-2.71744">
        <ele>3.4</ele>
        <time>2023-07-19T13:33:16Z</time>
      </trkpt>
      <trkpt lat="47.59774" lon="-2.71751">
        <ele>4.6</ele>
        <time>2023-07-19T13:33:21Z</time>
      </trkpt>
      <trkpt lat="47.59752" lon="-2.71751">
        <ele>5.9</ele>
        <time>2023-07-19T13:33:26Z</time>
      </trkpt>
      <trkpt lat="47.59748" lon="-2.7175">
        <ele>6.2</ele>
        <time>2023-07-19T13:33:27Z</time>
      </trkpt>
      <trkpt lat="47.59744" lon="-2.7175">
        <ele>6.5</ele>
        <time>2023-07-19T13:33:28Z</time>
      </trkpt>
      <trkpt lat="47.5974" lon="-2.7175">
        <ele>6.7</ele>
        <time>2023-07-19T13:33:29Z</time>
      </trkpt>
      <trkpt lat="47.59728" lon="-2.71748">
        <ele>7.5</ele>
        <time>2023-07-19T13:33:32Z</time>
      </trkpt>
      <trkpt lat="47.59721" lon="-2.71747">
        <ele>8</ele>
        <time>2023-07-19T13:33:34Z</time>
      </trkpt>
      <trkpt lat="47.59707" lon="-2.71747">
        <ele>8.9</ele>
        <time>2023-07-19T13:33:39Z</time>
      </trkpt>
      <trkpt lat="47.59701" lon="-2.71746">
        <ele>9.2</ele>
        <time>2023-07-19T13:33:41Z</time>
      </trkpt>
      <trkpt lat="47.5969" lon="-2.71747">
        <ele>9.8</ele>
        <time>2023-07-19T13:33:44Z</time>
      </trkpt>
      <trkpt lat="47.59657" lon="-2.71743">
        <ele>11.2</ele>
        <time>2023-07-19T13:33:54Z</time>
      </trkpt>
      <trkpt lat="47.59638" lon="-2.71727">
        <ele>11.8</ele>
        <time>2023-07-19T13:34:01Z</time>
      </trkpt>
      <trkpt lat="47.59617" lon="-2.71704">
        <ele>12.1</ele>
        <time>2023-07-19T13:34:09Z</time>
      </trkpt>
      <trkpt lat="47.59582" lon="-2.7169">
        <ele>11.6</ele>
        <time>2023-07-19T13:34:19Z</time>
      </trkpt>
      <trkpt lat="47.59529" lon="-2.71712">
        <ele>8.5</ele>
        <time>2023-07-19T13:34:29Z</time>
      </trkpt>
      <trkpt lat="47.59491" lon="-2.71721">
        <ele>7</ele>
        <time>2023-07-19T13:34:35Z</time>
      </trkpt>
      <trkpt lat="47.59461" lon="-2.71725">
        <ele>6.2</ele>
        <time>2023-07-19T13:34:40Z</time>
      </trkpt>
      <trkpt lat="47.59449" lon="-2.71726">
        <ele>5.9</ele>
        <time>2023-07-19T13:34:42Z</time>
      </trkpt>
      <trkpt lat="47.59431" lon="-2.71725">
        <ele>5.5</ele>
        <time>2023-07-19T13:34:45Z</time>
      </trkpt>
      <trkpt lat="47.59375" lon="-2.71738">
        <ele>3.7</ele>
        <time>2023-07-19T13:34:55Z</time>
      </trkpt>
      <trkpt lat="47.59351" lon="-2.71755">
        <ele>3.1</ele>
        <time>2023-07-19T13:34:59Z</time>
      </trkpt>
      <trkpt lat="47.59345" lon="-2.7176">
        <ele>3.1</ele>
        <time>2023-07-19T13:35:00Z</time>
      </trkpt>
      <trkpt lat="47.59322" lon="-2.71778">
        <ele>2.9</ele>
        <time>2023-07-19T13:35:04Z</time>
      </trkpt>
      <trkpt lat="47.59317" lon="-2.71783">
        <ele>2.9</ele>
        <time>2023-07-19T13:35:05Z</time>
      </trkpt>
      <trkpt lat="47.59307" lon="-2.7179">
        <ele>2.9</ele>
        <time>2023-07-19T13:35:07Z</time>
      </trkpt>
      <trkpt lat="47.59264" lon="-2.71811">
        <ele>2.6</ele>
        <time>2023-07-19T13:35:15Z</time>
      </trkpt>
      <trkpt lat="47.59258" lon="-2.71814">
        <ele>2.6</ele>
        <time>2023-07-19T13:35:16Z</time>
      </trkpt>
      <trkpt lat="47.59242" lon="-2.7182">
        <ele>2.6</ele>
        <time>2023-07-19T13:35:19Z</time>
      </trkpt>
      <trkpt lat="47.59226" lon="-2.71826">
        <ele>2.7</ele>
        <time>2023-07-19T13:35:22Z</time>
      </trkpt>
      <trkpt lat="47.59215" lon="-2.7183">
        <ele>2.7</ele>
        <time>2023-07-19T13:35:24Z</time>
      </trkpt>
      <trkpt lat="47.5921" lon="-2.71832">
        <ele>2.7</ele>
        <time>2023-07-19T13:35:25Z</time>
      </trkpt>
      <trkpt lat="47.59205" lon="-2.71834">
        <ele>2.8</ele>
        <time>2023-07-19T13:35:26Z</time>
      </trkpt>
      <trkpt lat="47.592" lon="-2.71836">
        <ele>2.8</ele>
        <time>2023-07-19T13:35:27Z</time>
      </trkpt>
      <trkpt lat="47.59189" lon="-2.7184">
        <ele>2.9</ele>
        <time>2023-07-19T13:35:29Z</time>
      </trkpt>
      <trkpt lat="47.59179" lon="-2.71844">
        <ele>3</ele>
        <time>2023-07-19T13:35:31Z</time>
      </trkpt>
      <trkpt lat="47.59168" lon="-2.71848">
        <ele>3.2</ele>
        <time>2023-07-19T13:35:33Z</time>
      </trkpt>
      <trkpt lat="47.59164" lon="-2.71849">
        <ele>3.3</ele>
        <time>2023-07-19T13:35:34Z</time>
      </trkpt>
      <trkpt lat="47.59159" lon="-2.71851">
        <ele>3.5</ele>
        <time>2023-07-19T13:35:35Z</time>
      </trkpt>
      <trkpt lat="47.59154" lon="-2.71853">
        <ele>3.6</ele>
        <time>2023-07-19T13:35:36Z</time>
      </trkpt>
      <trkpt lat="47.5915" lon="-2.71855">
        <ele>3.8</ele>
        <time>2023-07-19T13:35:37Z</time>
      </trkpt>
      <trkpt lat="47.59145" lon="-2.71857">
        <ele>4</ele>
        <time>2023-07-19T13:35:38Z</time>
      </trkpt>
      <trkpt lat="47.59137" lon="-2.7186">
        <ele>4.4</ele>
        <time>2023-07-19T13:35:40Z</time>
      </trkpt>
      <trkpt lat="47.59133" lon="-2.71862">
        <ele>4.5</ele>
        <time>2023-07-19T13:35:41Z</time>
      </trkpt>
      <trkpt lat="47.59104" lon="-2.71896">
        <ele>4.7</ele>
        <time>2023-07-19T13:35:51Z</time>
      </trkpt>
      <trkpt lat="47.59101" lon="-2.71907">
        <ele>4.5</ele>
        <time>2023-07-19T13:35:53Z</time>
      </trkpt>
      <trkpt lat="47.59096" lon="-2.71936">
        <ele>3.7</ele>
        <time>2023-07-19T13:35:57Z</time>
      </trkpt>
      <trkpt lat="47.59088" lon="-2.71974">
        <ele>2.9</ele>
        <time>2023-07-19T13:36:02Z</time>
      </trkpt>
      <trkpt lat="47.59082" lon="-2.71989">
        <ele>2.7</ele>
        <time>2023-07-19T13:36:04Z</time>
      </trkpt>
      <trkpt lat="47.59072" lon="-2.72006">
        <ele>2.6</ele>
        <time>2023-07-19T13:36:07Z</time>
      </trkpt>
      <trkpt lat="47.59061" lon="-2.72018">
        <ele>2.6</ele>
        <time>2023-07-19T13:36:10Z</time>
      </trkpt>
      <trkpt lat="47.59057" lon="-2.72022">
        <ele>2.6</ele>
        <time>2023-07-19T13:36:11Z</time>
      </trkpt>
      <trkpt lat="47.5905" lon="-2.72029">
        <ele>2.6</ele>
        <time>2023-07-19T13:36:14Z</time>
      </trkpt>
      <trkpt lat="47.59046" lon="-2.7203">
        <ele>2.6</ele>
        <time>2023-07-19T13:36:16Z</time>
      </trkpt>
      <trkpt lat="47.59014" lon="-2.72025">
        <ele>2.7</ele>
        <time>2023-07-19T13:36:31Z</time>
      </trkpt>
      <trkpt lat="47.59006" lon="-2.7202">
        <ele>2.8</ele>
        <time>2023-07-19T13:36:45Z</time>
      </trkpt>
      <trkpt lat="47.59006" lon="-2.7202">
        <ele>2.8</ele>
        <time>2023-07-19T13:37:01Z</time>
      </trkpt>
      <trkpt lat="47.59006" lon="-2.7202">
        <ele>2.8</ele>
        <time>2023-07-19T13:37:05Z</time>
      </trkpt>
      <trkpt lat="47.59006" lon="-2.7202">
        <ele>2.8</ele>
        <time>2023-07-19T13:37:12Z</time>
      </trkpt>
      <trkpt lat="47.59006" lon="-2.7202">
        <ele>2.8</ele>
        <time>2023-07-19T13:37:19Z</time>
      </trkpt>
      <trkpt lat="47.59006" lon="-2.7202">
        <ele>2.8</ele>
        <time>2023-07-19T13:37:22Z</time>
      </trkpt>
      <trkpt lat="47.59006" lon="-2.7202">
        <ele>2.8</ele>
        <time>2023-07-19T13:37:26Z</time>
      </trkpt>
      <trkpt lat="47.59006" lon="-2.7202">
        <ele>2.8</ele>
        <time>2023-07-19T13:37:35Z</time>
      </trkpt>
      <trkpt lat="47.59005" lon="-2.7202">
        <ele>2.8</ele>
        <time>2023-07-19T13:37:41Z</time>
      </trkpt>
      <trkpt lat="47.59005" lon="-2.72021">
        <ele>2.8</ele>
        <time>2023-07-19T13:37:44Z</time>
      </trkpt>
      <trkpt lat="47.58998" lon="-2.72021">
        <ele>2.8</ele>
        <time>2023-07-19T13:37:50Z</time>
      </trkpt>
      <trkpt lat="47.58989" lon="-2.72023">
        <ele>2.8</ele>
        <time>2023-07-19T13:37:55Z</time>
      </trkpt>
      <trkpt lat="47.58988" lon="-2.72026">
        <ele>2.8</ele>
        <time>2023-07-19T13:38:01Z</time>
      </trkpt>
      <trkpt lat="47.58988" lon="-2.72026">
        <ele>2.8</ele>
        <time>2023-07-19T13:55:28Z</time>
      </trkpt>
      <trkpt lat="47.58988" lon="-2.72026">
        <ele>2.8</ele>
        <time>2023-07-19T13:55:29Z</time>
      </trkpt>
      <trkpt lat="47.58825" lon="-2.71806">
        <ele>3.9</ele>
        <time>2023-07-19T13:55:31Z</time>
      </trkpt>
      <trkpt lat="47.58824" lon="-2.71807">
        <ele>3.9</ele>
        <time>2023-07-19T13:55:34Z</time>
      </trkpt>
      <trkpt lat="47.58822" lon="-2.7181">
        <ele>3.9</ele>
        <time>2023-07-19T13:55:36Z</time>
      </trkpt>
      <trkpt lat="47.58819" lon="-2.71809">
        <ele>3.9</ele>
        <time>2023-07-19T13:55:38Z</time>
      </trkpt>
      <trkpt lat="47.58819" lon="-2.71805">
        <ele>3.9</ele>
        <time>2023-07-19T13:55:39Z</time>
      </trkpt>
      <trkpt lat="47.58819" lon="-2.71805">
        <ele>3.9</ele>
        <time>2023-07-19T13:55:40Z</time>
      </trkpt>
      <trkpt lat="47.58822" lon="-2.71797">
        <ele>3.9</ele>
        <time>2023-07-19T13:55:43Z</time>
      </trkpt>
      <trkpt lat="47.58814" lon="-2.71728">
        <ele>3.8</ele>
        <time>2023-07-19T13:56:03Z</time>
      </trkpt>
      <trkpt lat="47.58796" lon="-2.71647">
        <ele>3.6</ele>
        <time>2023-07-19T13:56:16Z</time>
      </trkpt>
      <trkpt lat="47.58796" lon="-2.71619">
        <ele>3.4</ele>
        <time>2023-07-19T13:56:20Z</time>
      </trkpt>
      <trkpt lat="47.58803" lon="-2.71558">
        <ele>3.2</ele>
        <time>2023-07-19T13:56:28Z</time>
      </trkpt>
      <trkpt lat="47.58797" lon="-2.71521">
        <ele>3.1</ele>
        <time>2023-07-19T13:56:33Z</time>
      </trkpt>
      <trkpt lat="47.5879" lon="-2.71512">
        <ele>3.2</ele>
        <time>2023-07-19T13:56:35Z</time>
      </trkpt>
      <trkpt lat="47.58772" lon="-2.71516">
        <ele>3.3</ele>
        <time>2023-07-19T13:56:39Z</time>
      </trkpt>
      <trkpt lat="47.58723" lon="-2.71516">
        <ele>4.4</ele>
        <time>2023-07-19T13:56:51Z</time>
      </trkpt>
      <trkpt lat="47.58695" lon="-2.71515">
        <ele>5</ele>
        <time>2023-07-19T13:56:58Z</time>
      </trkpt>
      <trkpt lat="47.5864" lon="-2.71508">
        <ele>5.2</ele>
        <time>2023-07-19T13:57:11Z</time>
      </trkpt>
      <trkpt lat="47.58586" lon="-2.71502">
        <ele>4.4</ele>
        <time>2023-07-19T13:57:21Z</time>
      </trkpt>
      <trkpt lat="47.58526" lon="-2.71493">
        <ele>3.3</ele>
        <time>2023-07-19T13:57:31Z</time>
      </trkpt>
      <trkpt lat="47.58471" lon="-2.71486">
        <ele>2.6</ele>
        <time>2023-07-19T13:57:40Z</time>
      </trkpt>
      <trkpt lat="47.58447" lon="-2.71483">
        <ele>2.5</ele>
        <time>2023-07-19T13:57:44Z</time>
      </trkpt>
      <trkpt lat="47.58417" lon="-2.71484">
        <ele>2.3</ele>
        <time>2023-07-19T13:57:49Z</time>
      </trkpt>
      <trkpt lat="47.58406" lon="-2.7149">
        <ele>2.2</ele>
        <time>2023-07-19T13:57:51Z</time>
      </trkpt>
      <trkpt lat="47.58396" lon="-2.71498">
        <ele>2.2</ele>
        <time>2023-07-19T13:57:53Z</time>
      </trkpt>
      <trkpt lat="47.58387" lon="-2.71509">
        <ele>2.2</ele>
        <time>2023-07-19T13:57:55Z</time>
      </trkpt>
      <trkpt lat="47.58383" lon="-2.71514">
        <ele>2.2</ele>
        <time>2023-07-19T13:57:56Z</time>
      </trkpt>
      <trkpt lat="47.58379" lon="-2.71519">
        <ele>2.1</ele>
        <time>2023-07-19T13:57:57Z</time>
      </trkpt>
      <trkpt lat="47.58374" lon="-2.71524">
        <ele>2.1</ele>
        <time>2023-07-19T13:57:58Z</time>
      </trkpt>
      <trkpt lat="47.5837" lon="-2.7153">
        <ele>2.1</ele>
        <time>2023-07-19T13:57:59Z</time>
      </trkpt>
      <trkpt lat="47.58366" lon="-2.71535">
        <ele>2.1</ele>
        <time>2023-07-19T13:58:00Z</time>
      </trkpt>
      <trkpt lat="47.5835" lon="-2.71558">
        <ele>2</ele>
        <time>2023-07-19T13:58:04Z</time>
      </trkpt>
      <trkpt lat="47.58346" lon="-2.71563">
        <ele>2</ele>
        <time>2023-07-19T13:58:05Z</time>
      </trkpt>
      <trkpt lat="47.58338" lon="-2.71574">
        <ele>2</ele>
        <time>2023-07-19T13:58:07Z</time>
      </trkpt>
      <trkpt lat="47.58289" lon="-2.71616">
        <ele>2.2</ele>
        <time>2023-07-19T13:58:18Z</time>
      </trkpt>
      <trkpt lat="47.5828" lon="-2.71622">
        <ele>2.4</ele>
        <time>2023-07-19T13:58:20Z</time>
      </trkpt>
      <trkpt lat="47.58272" lon="-2.71624">
        <ele>2.6</ele>
        <time>2023-07-19T13:58:22Z</time>
      </trkpt>
      <trkpt lat="47.58263" lon="-2.71621">
        <ele>2.7</ele>
        <time>2023-07-19T13:58:24Z</time>
      </trkpt>
      <trkpt lat="47.58243" lon="-2.71605">
        <ele>2.7</ele>
        <time>2023-07-19T13:58:29Z</time>
      </trkpt>
      <trkpt lat="47.58236" lon="-2.71595">
        <ele>2.7</ele>
        <time>2023-07-19T13:58:31Z</time>
      </trkpt>
      <trkpt lat="47.58229" lon="-2.71585">
        <ele>2.8</ele>
        <time>2023-07-19T13:58:33Z</time>
      </trkpt>
      <trkpt lat="47.58222" lon="-2.71575">
        <ele>2.8</ele>
        <time>2023-07-19T13:58:35Z</time>
      </trkpt>
      <trkpt lat="47.58211" lon="-2.71561">
        <ele>2.8</ele>
        <time>2023-07-19T13:58:38Z</time>
      </trkpt>
      <trkpt lat="47.58171" lon="-2.71505">
        <ele>2.7</ele>
        <time>2023-07-19T13:58:49Z</time>
      </trkpt>
      <trkpt lat="47.58134" lon="-2.71458">
        <ele>2.8</ele>
        <time>2023-07-19T13:58:58Z</time>
      </trkpt>
      <trkpt lat="47.58088" lon="-2.71408">
        <ele>2.9</ele>
        <time>2023-07-19T13:59:09Z</time>
      </trkpt>
      <trkpt lat="47.58046" lon="-2.7138">
        <ele>2.8</ele>
        <time>2023-07-19T13:59:19Z</time>
      </trkpt>
      <trkpt lat="47.57995" lon="-2.7136">
        <ele>2.7</ele>
        <time>2023-07-19T13:59:31Z</time>
      </trkpt>
      <trkpt lat="47.5794" lon="-2.71343">
        <ele>3.1</ele>
        <time>2023-07-19T13:59:44Z</time>
      </trkpt>
      <trkpt lat="47.57932" lon="-2.71342">
        <ele>3.2</ele>
        <time>2023-07-19T13:59:45Z</time>
      </trkpt>
      <trkpt lat="47.5788" lon="-2.7134">
        <ele>3.3</ele>
        <time>2023-07-19T13:59:58Z</time>
      </trkpt>
      <trkpt lat="47.57834" lon="-2.71299">
        <ele>3.2</ele>
        <time>2023-07-19T14:00:08Z</time>
      </trkpt>
      <trkpt lat="47.57817" lon="-2.71281">
        <ele>3.2</ele>
        <time>2023-07-19T14:00:12Z</time>
      </trkpt>
      <trkpt lat="47.5778" lon="-2.71242">
        <ele>3.2</ele>
        <time>2023-07-19T14:00:21Z</time>
      </trkpt>
      <trkpt lat="47.57733" lon="-2.71193">
        <ele>3.4</ele>
        <time>2023-07-19T14:00:33Z</time>
      </trkpt>
      <trkpt lat="47.57725" lon="-2.71187">
        <ele>3.4</ele>
        <time>2023-07-19T14:00:34Z</time>
      </trkpt>
      <trkpt lat="47.57674" lon="-2.71153">
        <ele>3.5</ele>
        <time>2023-07-19T14:00:47Z</time>
      </trkpt>
      <trkpt lat="47.5764" lon="-2.71133">
        <ele>3.3</ele>
        <time>2023-07-19T14:00:54Z</time>
      </trkpt>
      <trkpt lat="47.57599" lon="-2.71083">
        <ele>3.1</ele>
        <time>2023-07-19T14:01:03Z</time>
      </trkpt>
      <trkpt lat="47.57587" lon="-2.71063">
        <ele>3.2</ele>
        <time>2023-07-19T14:01:06Z</time>
      </trkpt>
      <trkpt lat="47.57559" lon="-2.71007">
        <ele>4.1</ele>
        <time>2023-07-19T14:01:14Z</time>
      </trkpt>
      <trkpt lat="47.57524" lon="-2.70941">
        <ele>6.9</ele>
        <time>2023-07-19T14:01:26Z</time>
      </trkpt>
      <trkpt lat="47.57507" lon="-2.70874">
        <ele>9.6</ele>
        <time>2023-07-19T14:01:39Z</time>
      </trkpt>
      <trkpt lat="47.57504" lon="-2.70849">
        <ele>10.2</ele>
        <time>2023-07-19T14:01:45Z</time>
      </trkpt>
      <trkpt lat="47.57493" lon="-2.70791">
        <ele>11.2</ele>
        <time>2023-07-19T14:01:58Z</time>
      </trkpt>
      <trkpt lat="47.5748" lon="-2.70776">
        <ele>11.6</ele>
        <time>2023-07-19T14:02:04Z</time>
      </trkpt>
      <trkpt lat="47.57477" lon="-2.70777">
        <ele>11.6</ele>
        <time>2023-07-19T14:02:05Z</time>
      </trkpt>
      <trkpt lat="47.57471" lon="-2.70781">
        <ele>11.6</ele>
        <time>2023-07-19T14:02:07Z</time>
      </trkpt>
      <trkpt lat="47.57466" lon="-2.70788">
        <ele>11.5</ele>
        <time>2023-07-19T14:02:09Z</time>
      </trkpt>
      <trkpt lat="47.57458" lon="-2.708">
        <ele>11.3</ele>
        <time>2023-07-19T14:02:12Z</time>
      </trkpt>
      <trkpt lat="47.57416" lon="-2.7086">
        <ele>9.6</ele>
        <time>2023-07-19T14:02:25Z</time>
      </trkpt>
      <trkpt lat="47.57384" lon="-2.70895">
        <ele>8.4</ele>
        <time>2023-07-19T14:02:32Z</time>
      </trkpt>
      <trkpt lat="47.57344" lon="-2.70946">
        <ele>7.4</ele>
        <time>2023-07-19T14:02:40Z</time>
      </trkpt>
      <trkpt lat="47.57302" lon="-2.70985">
        <ele>7.6</ele>
        <time>2023-07-19T14:02:50Z</time>
      </trkpt>
      <trkpt lat="47.57283" lon="-2.71002">
        <ele>7.9</ele>
        <time>2023-07-19T14:02:57Z</time>
      </trkpt>
      <trkpt lat="47.57268" lon="-2.71019">
        <ele>8.2</ele>
        <time>2023-07-19T14:03:09Z</time>
      </trkpt>
      <trkpt lat="47.57268" lon="-2.71018">
        <ele>8.2</ele>
        <time>2023-07-19T14:03:11Z</time>
      </trkpt>
      <trkpt lat="47.57268" lon="-2.71015">
        <ele>8.2</ele>
        <time>2023-07-19T14:07:07Z</time>
      </trkpt>
      <trkpt lat="47.57264" lon="-2.71017">
        <ele>8.2</ele>
        <time>2023-07-19T14:07:14Z</time>
      </trkpt>
      <trkpt lat="47.57225" lon="-2.71066">
        <ele>9.2</ele>
        <time>2023-07-19T14:07:33Z</time>
      </trkpt>
      <trkpt lat="47.57178" lon="-2.71109">
        <ele>10.2</ele>
        <time>2023-07-19T14:07:50Z</time>
      </trkpt>
      <trkpt lat="47.57133" lon="-2.71154">
        <ele>11.1</ele>
        <time>2023-07-19T14:08:08Z</time>
      </trkpt>
      <trkpt lat="47.57125" lon="-2.71149">
        <ele>11.2</ele>
        <time>2023-07-19T14:08:11Z</time>
      </trkpt>
      <trkpt lat="47.57105" lon="-2.71177">
        <ele>11.6</ele>
        <time>2023-07-19T14:08:21Z</time>
      </trkpt>
      <trkpt lat="47.57101" lon="-2.71185">
        <ele>11.8</ele>
        <time>2023-07-19T14:08:23Z</time>
      </trkpt>
      <trkpt lat="47.57054" lon="-2.71224">
        <ele>12.4</ele>
        <time>2023-07-19T14:08:39Z</time>
      </trkpt>
      <trkpt lat="47.57" lon="-2.71246">
        <ele>12</ele>
        <time>2023-07-19T14:08:52Z</time>
      </trkpt>
      <trkpt lat="47.56942" lon="-2.71261">
        <ele>11.3</ele>
        <time>2023-07-19T14:09:03Z</time>
      </trkpt>
      <trkpt lat="47.56885" lon="-2.71273">
        <ele>10.4</ele>
        <time>2023-07-19T14:09:14Z</time>
      </trkpt>
      <trkpt lat="47.5683" lon="-2.7129">
        <ele>9.4</ele>
        <time>2023-07-19T14:09:23Z</time>
      </trkpt>
      <trkpt lat="47.56776" lon="-2.71304">
        <ele>8</ele>
        <time>2023-07-19T14:09:32Z</time>
      </trkpt>
      <trkpt lat="47.56769" lon="-2.71306">
        <ele>7.8</ele>
        <time>2023-07-19T14:09:33Z</time>
      </trkpt>
      <trkpt lat="47.56715" lon="-2.7132">
        <ele>6.3</ele>
        <time>2023-07-19T14:09:41Z</time>
      </trkpt>
      <trkpt lat="47.56683" lon="-2.7133">
        <ele>5.6</ele>
        <time>2023-07-19T14:09:46Z</time>
      </trkpt>
      <trkpt lat="47.56629" lon="-2.71361">
        <ele>5</ele>
        <time>2023-07-19T14:09:56Z</time>
      </trkpt>
      <trkpt lat="47.56589" lon="-2.71392">
        <ele>5.2</ele>
        <time>2023-07-19T14:10:03Z</time>
      </trkpt>
      <trkpt lat="47.56548" lon="-2.71418">
        <ele>5.6</ele>
        <time>2023-07-19T14:10:11Z</time>
      </trkpt>
      <trkpt lat="47.56532" lon="-2.71423">
        <ele>5.8</ele>
        <time>2023-07-19T14:10:14Z</time>
      </trkpt>
      <trkpt lat="47.56476" lon="-2.71433">
        <ele>6.4</ele>
        <time>2023-07-19T14:10:25Z</time>
      </trkpt>
      <trkpt lat="47.56442" lon="-2.7144">
        <ele>6.7</ele>
        <time>2023-07-19T14:10:32Z</time>
      </trkpt>
      <trkpt lat="47.56418" lon="-2.71445">
        <ele>6.9</ele>
        <time>2023-07-19T14:10:37Z</time>
      </trkpt>
      <trkpt lat="47.56383" lon="-2.7146">
        <ele>7.3</ele>
        <time>2023-07-19T14:10:44Z</time>
      </trkpt>
      <trkpt lat="47.56337" lon="-2.71511">
        <ele>8.5</ele>
        <time>2023-07-19T14:10:56Z</time>
      </trkpt>
      <trkpt lat="47.56304" lon="-2.71546">
        <ele>9.4</ele>
        <time>2023-07-19T14:11:05Z</time>
      </trkpt>
      <trkpt lat="47.56269" lon="-2.71567">
        <ele>10.1</ele>
        <time>2023-07-19T14:11:14Z</time>
      </trkpt>
      <trkpt lat="47.56244" lon="-2.71579">
        <ele>10.5</ele>
        <time>2023-07-19T14:11:20Z</time>
      </trkpt>
      <trkpt lat="47.56213" lon="-2.71577">
        <ele>10.8</ele>
        <time>2023-07-19T14:11:29Z</time>
      </trkpt>
      <trkpt lat="47.56178" lon="-2.71569">
        <ele>11.2</ele>
        <time>2023-07-19T14:11:40Z</time>
      </trkpt>
      <trkpt lat="47.56135" lon="-2.71567">
        <ele>11.6</ele>
        <time>2023-07-19T14:11:52Z</time>
      </trkpt>
      <trkpt lat="47.56124" lon="-2.71563">
        <ele>11.7</ele>
        <time>2023-07-19T14:11:55Z</time>
      </trkpt>
      <trkpt lat="47.56083" lon="-2.71546">
        <ele>12.1</ele>
        <time>2023-07-19T14:12:06Z</time>
      </trkpt>
      <trkpt lat="47.56054" lon="-2.71532">
        <ele>12.4</ele>
        <time>2023-07-19T14:12:13Z</time>
      </trkpt>
      <trkpt lat="47.5601" lon="-2.71483">
        <ele>12.8</ele>
        <time>2023-07-19T14:12:26Z</time>
      </trkpt>
      <trkpt lat="47.55971" lon="-2.7142">
        <ele>12.8</ele>
        <time>2023-07-19T14:12:40Z</time>
      </trkpt>
      <trkpt lat="47.5593" lon="-2.71363">
        <ele>13.2</ele>
        <time>2023-07-19T14:12:54Z</time>
      </trkpt>
      <trkpt lat="47.55906" lon="-2.71296">
        <ele>12.8</ele>
        <time>2023-07-19T14:13:07Z</time>
      </trkpt>
      <trkpt lat="47.5591" lon="-2.71285">
        <ele>12.7</ele>
        <time>2023-07-19T14:13:09Z</time>
      </trkpt>
      <trkpt lat="47.55921" lon="-2.71274">
        <ele>12.4</ele>
        <time>2023-07-19T14:13:12Z</time>
      </trkpt>
      <trkpt lat="47.55972" lon="-2.71244">
        <ele>11.3</ele>
        <time>2023-07-19T14:13:23Z</time>
      </trkpt>
      <trkpt lat="47.56025" lon="-2.71212">
        <ele>10.2</ele>
        <time>2023-07-19T14:13:34Z</time>
      </trkpt>
      <trkpt lat="47.56071" lon="-2.71184">
        <ele>9.8</ele>
        <time>2023-07-19T14:13:44Z</time>
      </trkpt>
      <trkpt lat="47.56073" lon="-2.7118">
        <ele>9.9</ele>
        <time>2023-07-19T14:13:45Z</time>
      </trkpt>
      <trkpt lat="47.56075" lon="-2.71176">
        <ele>9.9</ele>
        <time>2023-07-19T14:13:46Z</time>
      </trkpt>
      <trkpt lat="47.56076" lon="-2.71171">
        <ele>10</ele>
        <time>2023-07-19T14:13:47Z</time>
      </trkpt>
      <trkpt lat="47.56072" lon="-2.71158">
        <ele>11.1</ele>
        <time>2023-07-19T14:13:50Z</time>
      </trkpt>
      <trkpt lat="47.56068" lon="-2.71156">
        <ele>11.1</ele>
        <time>2023-07-19T14:13:51Z</time>
      </trkpt>
      <trkpt lat="47.56064" lon="-2.71156">
        <ele>11.1</ele>
        <time>2023-07-19T14:13:52Z</time>
      </trkpt>
      <trkpt lat="47.56056" lon="-2.7116">
        <ele>11.3</ele>
        <time>2023-07-19T14:13:54Z</time>
      </trkpt>
      <trkpt lat="47.5603" lon="-2.71174">
        <ele>12.1</ele>
        <time>2023-07-19T14:14:00Z</time>
      </trkpt>
      <trkpt lat="47.56021" lon="-2.71178">
        <ele>12.4</ele>
        <time>2023-07-19T14:14:02Z</time>
      </trkpt>
      <trkpt lat="47.55981" lon="-2.71198">
        <ele>13.5</ele>
        <time>2023-07-19T14:14:11Z</time>
      </trkpt>
      <trkpt lat="47.55954" lon="-2.71213">
        <ele>14</ele>
        <time>2023-07-19T14:14:18Z</time>
      </trkpt>
      <trkpt lat="47.55935" lon="-2.71225">
        <ele>14.1</ele>
        <time>2023-07-19T14:14:23Z</time>
      </trkpt>
      <trkpt lat="47.55905" lon="-2.71242">
        <ele>14.1</ele>
        <time>2023-07-19T14:14:30Z</time>
      </trkpt>
      <trkpt lat="47.55883" lon="-2.71255">
        <ele>14</ele>
        <time>2023-07-19T14:14:35Z</time>
      </trkpt>
      <trkpt lat="47.55846" lon="-2.71276">
        <ele>14.1</ele>
        <time>2023-07-19T14:14:43Z</time>
      </trkpt>
      <trkpt lat="47.55842" lon="-2.71278">
        <ele>14.1</ele>
        <time>2023-07-19T14:14:44Z</time>
      </trkpt>
      <trkpt lat="47.55789" lon="-2.71312">
        <ele>14.4</ele>
        <time>2023-07-19T14:14:56Z</time>
      </trkpt>
      <trkpt lat="47.55738" lon="-2.71343">
        <ele>14.4</ele>
        <time>2023-07-19T14:15:08Z</time>
      </trkpt>
      <trkpt lat="47.55684" lon="-2.71376">
        <ele>14.2</ele>
        <time>2023-07-19T14:15:20Z</time>
      </trkpt>
      <trkpt lat="47.55641" lon="-2.71401">
        <ele>13.7</ele>
        <time>2023-07-19T14:15:29Z</time>
      </trkpt>
      <trkpt lat="47.55589" lon="-2.7143">
        <ele>12.8</ele>
        <time>2023-07-19T14:15:39Z</time>
      </trkpt>
      <trkpt lat="47.55535" lon="-2.71463">
        <ele>11.7</ele>
        <time>2023-07-19T14:15:49Z</time>
      </trkpt>
      <trkpt lat="47.55483" lon="-2.71499">
        <ele>10.9</ele>
        <time>2023-07-19T14:15:58Z</time>
      </trkpt>
      <trkpt lat="47.55424" lon="-2.71537">
        <ele>11.6</ele>
        <time>2023-07-19T14:16:07Z</time>
      </trkpt>
      <trkpt lat="47.55393" lon="-2.71556">
        <ele>12.2</ele>
        <time>2023-07-19T14:16:14Z</time>
      </trkpt>
      <trkpt lat="47.55367" lon="-2.71571">
        <ele>12.6</ele>
        <time>2023-07-19T14:16:19Z</time>
      </trkpt>
      <trkpt lat="47.55352" lon="-2.71579">
        <ele>12.7</ele>
        <time>2023-07-19T14:16:22Z</time>
      </trkpt>
      <trkpt lat="47.55299" lon="-2.7161">
        <ele>12.3</ele>
        <time>2023-07-19T14:16:32Z</time>
      </trkpt>
      <trkpt lat="47.55264" lon="-2.71631">
        <ele>11.6</ele>
        <time>2023-07-19T14:16:38Z</time>
      </trkpt>
      <trkpt lat="47.5524" lon="-2.71646">
        <ele>11.1</ele>
        <time>2023-07-19T14:16:42Z</time>
      </trkpt>
      <trkpt lat="47.55227" lon="-2.7165">
        <ele>10.7</ele>
        <time>2023-07-19T14:16:44Z</time>
      </trkpt>
      <trkpt lat="47.55213" lon="-2.71651">
        <ele>10.5</ele>
        <time>2023-07-19T14:16:46Z</time>
      </trkpt>
      <trkpt lat="47.55174" lon="-2.71639">
        <ele>10</ele>
        <time>2023-07-19T14:16:52Z</time>
      </trkpt>
      <trkpt lat="47.55168" lon="-2.71638">
        <ele>10</ele>
        <time>2023-07-19T14:16:53Z</time>
      </trkpt>
      <trkpt lat="47.55146" lon="-2.71633">
        <ele>10.1</ele>
        <time>2023-07-19T14:16:57Z</time>
      </trkpt>
      <trkpt lat="47.55141" lon="-2.71632">
        <ele>10.2</ele>
        <time>2023-07-19T14:16:59Z</time>
      </trkpt>
      <trkpt lat="47.5514" lon="-2.71632">
        <ele>10.2</ele>
        <time>2023-07-19T14:17:03Z</time>
      </trkpt>
      <trkpt lat="47.5514" lon="-2.71632">
        <ele>10.2</ele>
        <time>2023-07-19T14:17:05Z</time>
      </trkpt>
      <trkpt lat="47.55139" lon="-2.71631">
        <ele>10.2</ele>
        <time>2023-07-19T14:17:06Z</time>
      </trkpt>
      <trkpt lat="47.55136" lon="-2.71629">
        <ele>10.2</ele>
        <time>2023-07-19T14:17:08Z</time>
      </trkpt>
      <trkpt lat="47.55123" lon="-2.71627">
        <ele>10.1</ele>
        <time>2023-07-19T14:17:12Z</time>
      </trkpt>
      <trkpt lat="47.5512" lon="-2.71629">
        <ele>10.1</ele>
        <time>2023-07-19T14:17:13Z</time>
      </trkpt>
      <trkpt lat="47.55112" lon="-2.71645">
        <ele>9.9</ele>
        <time>2023-07-19T14:17:16Z</time>
      </trkpt>
      <trkpt lat="47.5511" lon="-2.71651">
        <ele>9.8</ele>
        <time>2023-07-19T14:17:17Z</time>
      </trkpt>
      <trkpt lat="47.551" lon="-2.71657">
        <ele>9.7</ele>
        <time>2023-07-19T14:17:20Z</time>
      </trkpt>
      <trkpt lat="47.55096" lon="-2.71655">
        <ele>9.6</ele>
        <time>2023-07-19T14:17:21Z</time>
      </trkpt>
      <trkpt lat="47.55091" lon="-2.71653">
        <ele>9.5</ele>
        <time>2023-07-19T14:17:22Z</time>
      </trkpt>
      <trkpt lat="47.55068" lon="-2.71642">
        <ele>9.3</ele>
        <time>2023-07-19T14:17:27Z</time>
      </trkpt>
      <trkpt lat="47.55063" lon="-2.71642">
        <ele>9.3</ele>
        <time>2023-07-19T14:17:28Z</time>
      </trkpt>
      <trkpt lat="47.55057" lon="-2.71649">
        <ele>9.2</ele>
        <time>2023-07-19T14:17:30Z</time>
      </trkpt>
      <trkpt lat="47.55056" lon="-2.71655">
        <ele>9.2</ele>
        <time>2023-07-19T14:17:31Z</time>
      </trkpt>
      <trkpt lat="47.55055" lon="-2.71675">
        <ele>8.9</ele>
        <time>2023-07-19T14:17:35Z</time>
      </trkpt>
      <trkpt lat="47.55049" lon="-2.71694">
        <ele>8.6</ele>
        <time>2023-07-19T14:17:39Z</time>
      </trkpt>
      <trkpt lat="47.55053" lon="-2.71719">
        <ele>8.3</ele>
        <time>2023-07-19T14:17:43Z</time>
      </trkpt>
      <trkpt lat="47.55051" lon="-2.71732">
        <ele>8.2</ele>
        <time>2023-07-19T14:17:45Z</time>
      </trkpt>
      <trkpt lat="47.55045" lon="-2.71741">
        <ele>8</ele>
        <time>2023-07-19T14:17:47Z</time>
      </trkpt>
      <trkpt lat="47.55042" lon="-2.71746">
        <ele>8</ele>
        <time>2023-07-19T14:17:48Z</time>
      </trkpt>
      <trkpt lat="47.55033" lon="-2.71754">
        <ele>7.9</ele>
        <time>2023-07-19T14:17:50Z</time>
      </trkpt>
      <trkpt lat="47.54979" lon="-2.71782">
        <ele>8.9</ele>
        <time>2023-07-19T14:18:01Z</time>
      </trkpt>
      <trkpt lat="47.54966" lon="-2.71786">
        <ele>9.2</ele>
        <time>2023-07-19T14:18:04Z</time>
      </trkpt>
      <trkpt lat="47.54962" lon="-2.71788">
        <ele>9.4</ele>
        <time>2023-07-19T14:18:05Z</time>
      </trkpt>
      <trkpt lat="47.54932" lon="-2.71808">
        <ele>9.8</ele>
        <time>2023-07-19T14:18:12Z</time>
      </trkpt>
      <trkpt lat="47.54888" lon="-2.71833">
        <ele>10.3</ele>
        <time>2023-07-19T14:18:21Z</time>
      </trkpt>
      <trkpt lat="47.54834" lon="-2.71859">
        <ele>11.8</ele>
        <time>2023-07-19T14:18:33Z</time>
      </trkpt>
      <trkpt lat="47.54798" lon="-2.71873">
        <ele>12.9</ele>
        <time>2023-07-19T14:18:42Z</time>
      </trkpt>
      <trkpt lat="47.54782" lon="-2.71878">
        <ele>13.4</ele>
        <time>2023-07-19T14:18:46Z</time>
      </trkpt>
      <trkpt lat="47.54748" lon="-2.7189">
        <ele>14.3</ele>
        <time>2023-07-19T14:18:54Z</time>
      </trkpt>
      <trkpt lat="47.54739" lon="-2.7189">
        <ele>14.4</ele>
        <time>2023-07-19T14:18:56Z</time>
      </trkpt>
      <trkpt lat="47.5473" lon="-2.71894">
        <ele>14.5</ele>
        <time>2023-07-19T14:18:58Z</time>
      </trkpt>
      <trkpt lat="47.54717" lon="-2.71902">
        <ele>14.6</ele>
        <time>2023-07-19T14:19:01Z</time>
      </trkpt>
      <trkpt lat="47.54663" lon="-2.71932">
        <ele>14.8</ele>
        <time>2023-07-19T14:19:15Z</time>
      </trkpt>
      <trkpt lat="47.54655" lon="-2.71938">
        <ele>14.6</ele>
        <time>2023-07-19T14:19:17Z</time>
      </trkpt>
      <trkpt lat="47.54647" lon="-2.7194">
        <ele>14.4</ele>
        <time>2023-07-19T14:19:19Z</time>
      </trkpt>
      <trkpt lat="47.54642" lon="-2.71932">
        <ele>14.5</ele>
        <time>2023-07-19T14:19:21Z</time>
      </trkpt>
      <trkpt lat="47.54634" lon="-2.71921">
        <ele>14.6</ele>
        <time>2023-07-19T14:19:24Z</time>
      </trkpt>
      <trkpt lat="47.54639" lon="-2.71951">
        <ele>14.5</ele>
        <time>2023-07-19T14:19:32Z</time>
      </trkpt>
      <trkpt lat="47.54643" lon="-2.71963">
        <ele>14.5</ele>
        <time>2023-07-19T14:19:34Z</time>
      </trkpt>
      <trkpt lat="47.54642" lon="-2.71975">
        <ele>14.5</ele>
        <time>2023-07-19T14:19:36Z</time>
      </trkpt>
      <trkpt lat="47.54624" lon="-2.71999">
        <ele>14.6</ele>
        <time>2023-07-19T14:19:42Z</time>
      </trkpt>
      <trkpt lat="47.54582" lon="-2.7205">
        <ele>14.4</ele>
        <time>2023-07-19T14:19:54Z</time>
      </trkpt>
      <trkpt lat="47.54539" lon="-2.72106">
        <ele>14</ele>
        <time>2023-07-19T14:20:05Z</time>
      </trkpt>
      <trkpt lat="47.54531" lon="-2.72116">
        <ele>13.9</ele>
        <time>2023-07-19T14:20:07Z</time>
      </trkpt>
      <trkpt lat="47.54494" lon="-2.72175">
        <ele>14</ele>
        <time>2023-07-19T14:20:17Z</time>
      </trkpt>
      <trkpt lat="47.5447" lon="-2.72215">
        <ele>14</ele>
        <time>2023-07-19T14:20:24Z</time>
      </trkpt>
      <trkpt lat="47.54432" lon="-2.7228">
        <ele>13.9</ele>
        <time>2023-07-19T14:20:35Z</time>
      </trkpt>
      <trkpt lat="47.54428" lon="-2.72285">
        <ele>13.8</ele>
        <time>2023-07-19T14:20:36Z</time>
      </trkpt>
      <trkpt lat="47.54419" lon="-2.72291">
        <ele>13.7</ele>
        <time>2023-07-19T14:20:38Z</time>
      </trkpt>
      <trkpt lat="47.54363" lon="-2.72304">
        <ele>13</ele>
        <time>2023-07-19T14:20:48Z</time>
      </trkpt>
      <trkpt lat="47.5431" lon="-2.72318">
        <ele>12.4</ele>
        <time>2023-07-19T14:20:57Z</time>
      </trkpt>
      <trkpt lat="47.54252" lon="-2.72333">
        <ele>11.9</ele>
        <time>2023-07-19T14:21:07Z</time>
      </trkpt>
      <trkpt lat="47.54246" lon="-2.72334">
        <ele>11.9</ele>
        <time>2023-07-19T14:21:08Z</time>
      </trkpt>
      <trkpt lat="47.54229" lon="-2.72339">
        <ele>11.7</ele>
        <time>2023-07-19T14:21:11Z</time>
      </trkpt>
      <trkpt lat="47.54223" lon="-2.7234">
        <ele>11.7</ele>
        <time>2023-07-19T14:21:12Z</time>
      </trkpt>
      <trkpt lat="47.54204" lon="-2.72345">
        <ele>11.6</ele>
        <time>2023-07-19T14:21:15Z</time>
      </trkpt>
      <trkpt lat="47.54186" lon="-2.7235">
        <ele>11.5</ele>
        <time>2023-07-19T14:21:18Z</time>
      </trkpt>
      <trkpt lat="47.54162" lon="-2.72356">
        <ele>11.3</ele>
        <time>2023-07-19T14:21:22Z</time>
      </trkpt>
      <trkpt lat="47.54119" lon="-2.72366">
        <ele>11</ele>
        <time>2023-07-19T14:21:29Z</time>
      </trkpt>
      <trkpt lat="47.54063" lon="-2.7238">
        <ele>11.2</ele>
        <time>2023-07-19T14:21:39Z</time>
      </trkpt>
      <trkpt lat="47.54053" lon="-2.72387">
        <ele>11.6</ele>
        <time>2023-07-19T14:21:41Z</time>
      </trkpt>
      <trkpt lat="47.54012" lon="-2.7244">
        <ele>15.2</ele>
        <time>2023-07-19T14:21:55Z</time>
      </trkpt>
      <trkpt lat="47.53995" lon="-2.72458">
        <ele>16.3</ele>
        <time>2023-07-19T14:22:01Z</time>
      </trkpt>
      <trkpt lat="47.53983" lon="-2.72469">
        <ele>17</ele>
        <time>2023-07-19T14:22:05Z</time>
      </trkpt>
      <trkpt lat="47.53975" lon="-2.72477">
        <ele>17.5</ele>
        <time>2023-07-19T14:22:07Z</time>
      </trkpt>
      <trkpt lat="47.53971" lon="-2.72479">
        <ele>17.7</ele>
        <time>2023-07-19T14:22:09Z</time>
      </trkpt>
      <trkpt lat="47.53962" lon="-2.72488">
        <ele>18.2</ele>
        <time>2023-07-19T14:22:12Z</time>
      </trkpt>
      <trkpt lat="47.53959" lon="-2.7249">
        <ele>18.3</ele>
        <time>2023-07-19T14:22:13Z</time>
      </trkpt>
      <trkpt lat="47.53935" lon="-2.7251">
        <ele>19.2</ele>
        <time>2023-07-19T14:22:20Z</time>
      </trkpt>
      <trkpt lat="47.53932" lon="-2.72512">
        <ele>19.4</ele>
        <time>2023-07-19T14:22:21Z</time>
      </trkpt>
      <trkpt lat="47.53923" lon="-2.72519">
        <ele>19.8</ele>
        <time>2023-07-19T14:22:24Z</time>
      </trkpt>
      <trkpt lat="47.5392" lon="-2.72521">
        <ele>20</ele>
        <time>2023-07-19T14:22:25Z</time>
      </trkpt>
      <trkpt lat="47.5391" lon="-2.72528">
        <ele>20.3</ele>
        <time>2023-07-19T14:22:28Z</time>
      </trkpt>
      <trkpt lat="47.53893" lon="-2.72539">
        <ele>20.7</ele>
        <time>2023-07-19T14:22:34Z</time>
      </trkpt>
      <trkpt lat="47.5385" lon="-2.72552">
        <ele>21.2</ele>
        <time>2023-07-19T14:22:48Z</time>
      </trkpt>
      <trkpt lat="47.53828" lon="-2.72553">
        <ele>21.4</ele>
        <time>2023-07-19T14:22:55Z</time>
      </trkpt>
      <trkpt lat="47.53774" lon="-2.7255">
        <ele>21.2</ele>
        <time>2023-07-19T14:23:09Z</time>
      </trkpt>
      <trkpt lat="47.53739" lon="-2.7255">
        <ele>21.2</ele>
        <time>2023-07-19T14:23:19Z</time>
      </trkpt>
      <trkpt lat="47.5371" lon="-2.72556">
        <ele>21.2</ele>
        <time>2023-07-19T14:23:27Z</time>
      </trkpt>
      <trkpt lat="47.53698" lon="-2.72567">
        <ele>21.2</ele>
        <time>2023-07-19T14:23:31Z</time>
      </trkpt>
      <trkpt lat="47.5368" lon="-2.72583">
        <ele>21.3</ele>
        <time>2023-07-19T14:23:37Z</time>
      </trkpt>
      <trkpt lat="47.53672" lon="-2.72592">
        <ele>21.4</ele>
        <time>2023-07-19T14:23:40Z</time>
      </trkpt>
      <trkpt lat="47.53671" lon="-2.72606">
        <ele>21.6</ele>
        <time>2023-07-19T14:23:45Z</time>
      </trkpt>
      <trkpt lat="47.53662" lon="-2.72611">
        <ele>21.6</ele>
        <time>2023-07-19T14:23:49Z</time>
      </trkpt>
      <trkpt lat="47.5364" lon="-2.72609">
        <ele>21.8</ele>
        <time>2023-07-19T14:23:55Z</time>
      </trkpt>
      <trkpt lat="47.53604" lon="-2.72606">
        <ele>22.2</ele>
        <time>2023-07-19T14:24:05Z</time>
      </trkpt>
      <trkpt lat="47.53593" lon="-2.72608">
        <ele>22.4</ele>
        <time>2023-07-19T14:24:07Z</time>
      </trkpt>
      <trkpt lat="47.5359" lon="-2.72612">
        <ele>22.4</ele>
        <time>2023-07-19T14:24:09Z</time>
      </trkpt>
      <trkpt lat="47.53585" lon="-2.72627">
        <ele>22.4</ele>
        <time>2023-07-19T14:24:12Z</time>
      </trkpt>
      <trkpt lat="47.53579" lon="-2.72642">
        <ele>22.4</ele>
        <time>2023-07-19T14:24:15Z</time>
      </trkpt>
      <trkpt lat="47.53547" lon="-2.72709">
        <ele>22.4</ele>
        <time>2023-07-19T14:24:28Z</time>
      </trkpt>
      <trkpt lat="47.53539" lon="-2.72723">
        <ele>22.3</ele>
        <time>2023-07-19T14:24:31Z</time>
      </trkpt>
      <trkpt lat="47.53527" lon="-2.72806">
        <ele>22.3</ele>
        <time>2023-07-19T14:24:43Z</time>
      </trkpt>
      <trkpt lat="47.53522" lon="-2.72891">
        <ele>22.2</ele>
        <time>2023-07-19T14:24:54Z</time>
      </trkpt>
      <trkpt lat="47.53521" lon="-2.72906">
        <ele>22.2</ele>
        <time>2023-07-19T14:24:56Z</time>
      </trkpt>
      <trkpt lat="47.53522" lon="-2.72981">
        <ele>22.2</ele>
        <time>2023-07-19T14:25:06Z</time>
      </trkpt>
      <trkpt lat="47.53515" lon="-2.73031">
        <ele>22.2</ele>
        <time>2023-07-19T14:25:13Z</time>
      </trkpt>
      <trkpt lat="47.53513" lon="-2.73044">
        <ele>22.2</ele>
        <time>2023-07-19T14:25:15Z</time>
      </trkpt>
      <trkpt lat="47.53509" lon="-2.73072">
        <ele>22.1</ele>
        <time>2023-07-19T14:25:19Z</time>
      </trkpt>
      <trkpt lat="47.53506" lon="-2.73099">
        <ele>22.1</ele>
        <time>2023-07-19T14:25:23Z</time>
      </trkpt>
      <trkpt lat="47.535" lon="-2.73139">
        <ele>22.2</ele>
        <time>2023-07-19T14:25:29Z</time>
      </trkpt>
      <trkpt lat="47.53475" lon="-2.73212">
        <ele>21.8</ele>
        <time>2023-07-19T14:25:41Z</time>
      </trkpt>
      <trkpt lat="47.53466" lon="-2.73232">
        <ele>21.7</ele>
        <time>2023-07-19T14:25:47Z</time>
      </trkpt>
      <trkpt lat="47.53468" lon="-2.73225">
        <ele>21.7</ele>
        <time>2023-07-19T14:25:52Z</time>
      </trkpt>
      <trkpt lat="47.53491" lon="-2.7315">
        <ele>22.3</ele>
        <time>2023-07-19T14:26:07Z</time>
      </trkpt>
      <trkpt lat="47.53496" lon="-2.73134">
        <ele>22.2</ele>
        <time>2023-07-19T14:26:10Z</time>
      </trkpt>
      <trkpt lat="47.53506" lon="-2.73106">
        <ele>22.1</ele>
        <time>2023-07-19T14:26:17Z</time>
      </trkpt>
      <trkpt lat="47.53533" lon="-2.73129">
        <ele>21.5</ele>
        <time>2023-07-19T14:26:25Z</time>
      </trkpt>
      <trkpt lat="47.53573" lon="-2.73166">
        <ele>21.1</ele>
        <time>2023-07-19T14:26:35Z</time>
      </trkpt>
      <trkpt lat="47.53584" lon="-2.73172">
        <ele>21.1</ele>
        <time>2023-07-19T14:26:38Z</time>
      </trkpt>
      <trkpt lat="47.53591" lon="-2.73173">
        <ele>21</ele>
        <time>2023-07-19T14:26:40Z</time>
      </trkpt>
      <trkpt lat="47.53618" lon="-2.73183">
        <ele>21</ele>
        <time>2023-07-19T14:26:47Z</time>
      </trkpt>
      <trkpt lat="47.53632" lon="-2.73189">
        <ele>21.2</ele>
        <time>2023-07-19T14:26:51Z</time>
      </trkpt>
      <trkpt lat="47.53657" lon="-2.73192">
        <ele>21.7</ele>
        <time>2023-07-19T14:26:57Z</time>
      </trkpt>
      <trkpt lat="47.53683" lon="-2.73199">
        <ele>22.3</ele>
        <time>2023-07-19T14:27:04Z</time>
      </trkpt>
      <trkpt lat="47.53697" lon="-2.73204">
        <ele>22.7</ele>
        <time>2023-07-19T14:27:08Z</time>
      </trkpt>
      <trkpt lat="47.53716" lon="-2.73213">
        <ele>22.8</ele>
        <time>2023-07-19T14:27:14Z</time>
      </trkpt>
      <trkpt lat="47.53742" lon="-2.73268">
        <ele>22.1</ele>
        <time>2023-07-19T14:27:25Z</time>
      </trkpt>
      <trkpt lat="47.53741" lon="-2.7335">
        <ele>21.2</ele>
        <time>2023-07-19T14:27:37Z</time>
      </trkpt>
      <trkpt lat="47.5374" lon="-2.73412">
        <ele>20.3</ele>
        <time>2023-07-19T14:27:45Z</time>
      </trkpt>
      <trkpt lat="47.53737" lon="-2.735">
        <ele>19.3</ele>
        <time>2023-07-19T14:27:55Z</time>
      </trkpt>
      <trkpt lat="47.53735" lon="-2.73585">
        <ele>18.2</ele>
        <time>2023-07-19T14:28:05Z</time>
      </trkpt>
      <trkpt lat="47.53733" lon="-2.7365">
        <ele>16.6</ele>
        <time>2023-07-19T14:28:13Z</time>
      </trkpt>
      <trkpt lat="47.53736" lon="-2.73678">
        <ele>15.6</ele>
        <time>2023-07-19T14:28:16Z</time>
      </trkpt>
      <trkpt lat="47.53738" lon="-2.73687">
        <ele>15.3</ele>
        <time>2023-07-19T14:28:17Z</time>
      </trkpt>
      <trkpt lat="47.5374" lon="-2.73696">
        <ele>15</ele>
        <time>2023-07-19T14:28:18Z</time>
      </trkpt>
      <trkpt lat="47.53753" lon="-2.73733">
        <ele>13.9</ele>
        <time>2023-07-19T14:28:22Z</time>
      </trkpt>
      <trkpt lat="47.53768" lon="-2.73778">
        <ele>12.8</ele>
        <time>2023-07-19T14:28:27Z</time>
      </trkpt>
      <trkpt lat="47.53768" lon="-2.73797">
        <ele>12.8</ele>
        <time>2023-07-19T14:28:29Z</time>
      </trkpt>
      <trkpt lat="47.53764" lon="-2.73814">
        <ele>12.8</ele>
        <time>2023-07-19T14:28:31Z</time>
      </trkpt>
      <trkpt lat="47.53738" lon="-2.73889">
        <ele>13.4</ele>
        <time>2023-07-19T14:28:41Z</time>
      </trkpt>
      <trkpt lat="47.53709" lon="-2.73964">
        <ele>11.7</ele>
        <time>2023-07-19T14:28:52Z</time>
      </trkpt>
      <trkpt lat="47.5369" lon="-2.74036">
        <ele>8.8</ele>
        <time>2023-07-19T14:29:01Z</time>
      </trkpt>
      <trkpt lat="47.53723" lon="-2.74083">
        <ele>7.5</ele>
        <time>2023-07-19T14:29:16Z</time>
      </trkpt>
      <trkpt lat="47.53759" lon="-2.74052">
        <ele>7.1</ele>
        <time>2023-07-19T14:29:29Z</time>
      </trkpt>
      <trkpt lat="47.53768" lon="-2.74056">
        <ele>6.4</ele>
        <time>2023-07-19T14:29:31Z</time>
      </trkpt>
      <trkpt lat="47.53782" lon="-2.74076">
        <ele>5.7</ele>
        <time>2023-07-19T14:29:40Z</time>
      </trkpt>
      <trkpt lat="47.53781" lon="-2.74153">
        <ele>7.9</ele>
        <time>2023-07-19T14:29:58Z</time>
      </trkpt>
      <trkpt lat="47.53746" lon="-2.74201">
        <ele>10.7</ele>
        <time>2023-07-19T14:30:14Z</time>
      </trkpt>
      <trkpt lat="47.53736" lon="-2.74202">
        <ele>10.9</ele>
        <time>2023-07-19T14:30:17Z</time>
      </trkpt>
      <trkpt lat="47.53702" lon="-2.74222">
        <ele>12.4</ele>
        <time>2023-07-19T14:30:30Z</time>
      </trkpt>
      <trkpt lat="47.53677" lon="-2.74277">
        <ele>14</ele>
        <time>2023-07-19T14:30:44Z</time>
      </trkpt>
      <trkpt lat="47.53661" lon="-2.74318">
        <ele>14.3</ele>
        <time>2023-07-19T14:30:53Z</time>
      </trkpt>
      <trkpt lat="47.53652" lon="-2.74339">
        <ele>14.1</ele>
        <time>2023-07-19T14:30:57Z</time>
      </trkpt>
      <trkpt lat="47.5365" lon="-2.74345">
        <ele>14.1</ele>
        <time>2023-07-19T14:30:58Z</time>
      </trkpt>
      <trkpt lat="47.53647" lon="-2.74368">
        <ele>14.2</ele>
        <time>2023-07-19T14:31:02Z</time>
      </trkpt>
      <trkpt lat="47.53647" lon="-2.74374">
        <ele>14.3</ele>
        <time>2023-07-19T14:31:03Z</time>
      </trkpt>
      <trkpt lat="47.53646" lon="-2.74379">
        <ele>14.4</ele>
        <time>2023-07-19T14:31:04Z</time>
      </trkpt>
      <trkpt lat="47.53646" lon="-2.7439">
        <ele>14.6</ele>
        <time>2023-07-19T14:31:06Z</time>
      </trkpt>
      <trkpt lat="47.53646" lon="-2.74411">
        <ele>15.1</ele>
        <time>2023-07-19T14:31:10Z</time>
      </trkpt>
      <trkpt lat="47.53647" lon="-2.74465">
        <ele>16.3</ele>
        <time>2023-07-19T14:31:21Z</time>
      </trkpt>
      <trkpt lat="47.53647" lon="-2.7447">
        <ele>16.4</ele>
        <time>2023-07-19T14:31:22Z</time>
      </trkpt>
      <trkpt lat="47.53658" lon="-2.74546">
        <ele>18</ele>
        <time>2023-07-19T14:31:39Z</time>
      </trkpt>
      <trkpt lat="47.5366" lon="-2.74559">
        <ele>18.2</ele>
        <time>2023-07-19T14:31:43Z</time>
      </trkpt>
      <trkpt lat="47.53653" lon="-2.74607">
        <ele>19.2</ele>
        <time>2023-07-19T14:31:54Z</time>
      </trkpt>
      <trkpt lat="47.5364" lon="-2.74679">
        <ele>20.2</ele>
        <time>2023-07-19T14:32:09Z</time>
      </trkpt>
      <trkpt lat="47.53637" lon="-2.74702">
        <ele>20.4</ele>
        <time>2023-07-19T14:32:15Z</time>
      </trkpt>
      <trkpt lat="47.53624" lon="-2.74691">
        <ele>20.4</ele>
        <time>2023-07-19T14:32:21Z</time>
      </trkpt>
      <trkpt lat="47.53608" lon="-2.74724">
        <ele>20.3</ele>
        <time>2023-07-19T14:32:29Z</time>
      </trkpt>
      <trkpt lat="47.5358" lon="-2.74793">
        <ele>21</ele>
        <time>2023-07-19T14:32:43Z</time>
      </trkpt>
      <trkpt lat="47.53578" lon="-2.74798">
        <ele>21.1</ele>
        <time>2023-07-19T14:32:44Z</time>
      </trkpt>
      <trkpt lat="47.53577" lon="-2.74803">
        <ele>21.1</ele>
        <time>2023-07-19T14:32:45Z</time>
      </trkpt>
      <trkpt lat="47.53575" lon="-2.74809">
        <ele>21.2</ele>
        <time>2023-07-19T14:32:46Z</time>
      </trkpt>
      <trkpt lat="47.53573" lon="-2.74814">
        <ele>21.2</ele>
        <time>2023-07-19T14:32:47Z</time>
      </trkpt>
      <trkpt lat="47.53572" lon="-2.74819">
        <ele>21.2</ele>
        <time>2023-07-19T14:32:48Z</time>
      </trkpt>
      <trkpt lat="47.5357" lon="-2.74825">
        <ele>21.2</ele>
        <time>2023-07-19T14:32:49Z</time>
      </trkpt>
      <trkpt lat="47.53568" lon="-2.7483">
        <ele>21.3</ele>
        <time>2023-07-19T14:32:50Z</time>
      </trkpt>
      <trkpt lat="47.53563" lon="-2.74847">
        <ele>21.2</ele>
        <time>2023-07-19T14:32:53Z</time>
      </trkpt>
      <trkpt lat="47.53561" lon="-2.74853">
        <ele>21.2</ele>
        <time>2023-07-19T14:32:54Z</time>
      </trkpt>
      <trkpt lat="47.53559" lon="-2.74859">
        <ele>21.2</ele>
        <time>2023-07-19T14:32:55Z</time>
      </trkpt>
      <trkpt lat="47.53558" lon="-2.74865">
        <ele>21.2</ele>
        <time>2023-07-19T14:32:56Z</time>
      </trkpt>
      <trkpt lat="47.53554" lon="-2.74876">
        <ele>21.2</ele>
        <time>2023-07-19T14:32:58Z</time>
      </trkpt>
      <trkpt lat="47.53553" lon="-2.74882">
        <ele>21.1</ele>
        <time>2023-07-19T14:32:59Z</time>
      </trkpt>
      <trkpt lat="47.53551" lon="-2.74887">
        <ele>21.1</ele>
        <time>2023-07-19T14:33:00Z</time>
      </trkpt>
      <trkpt lat="47.53534" lon="-2.74963">
        <ele>20.8</ele>
        <time>2023-07-19T14:33:12Z</time>
      </trkpt>
      <trkpt lat="47.5353" lon="-2.74983">
        <ele>20.8</ele>
        <time>2023-07-19T14:33:15Z</time>
      </trkpt>
      <trkpt lat="47.53514" lon="-2.75056">
        <ele>20.6</ele>
        <time>2023-07-19T14:33:26Z</time>
      </trkpt>
      <trkpt lat="47.53507" lon="-2.75081">
        <ele>20.6</ele>
        <time>2023-07-19T14:33:30Z</time>
      </trkpt>
      <trkpt lat="47.535" lon="-2.75099">
        <ele>20.7</ele>
        <time>2023-07-19T14:33:33Z</time>
      </trkpt>
      <trkpt lat="47.53498" lon="-2.75105">
        <ele>20.7</ele>
        <time>2023-07-19T14:33:34Z</time>
      </trkpt>
      <trkpt lat="47.53496" lon="-2.75111">
        <ele>20.7</ele>
        <time>2023-07-19T14:33:35Z</time>
      </trkpt>
      <trkpt lat="47.53494" lon="-2.75117">
        <ele>20.8</ele>
        <time>2023-07-19T14:33:36Z</time>
      </trkpt>
      <trkpt lat="47.53468" lon="-2.75194">
        <ele>20.8</ele>
        <time>2023-07-19T14:33:48Z</time>
      </trkpt>
      <trkpt lat="47.53465" lon="-2.75199">
        <ele>20.7</ele>
        <time>2023-07-19T14:33:49Z</time>
      </trkpt>
      <trkpt lat="47.53441" lon="-2.75245">
        <ele>20.3</ele>
        <time>2023-07-19T14:33:58Z</time>
      </trkpt>
      <trkpt lat="47.53438" lon="-2.7525">
        <ele>20.2</ele>
        <time>2023-07-19T14:33:59Z</time>
      </trkpt>
      <trkpt lat="47.53432" lon="-2.75262">
        <ele>20.1</ele>
        <time>2023-07-19T14:34:01Z</time>
      </trkpt>
      <trkpt lat="47.53397" lon="-2.75324">
        <ele>19.2</ele>
        <time>2023-07-19T14:34:12Z</time>
      </trkpt>
      <trkpt lat="47.5339" lon="-2.75335">
        <ele>19</ele>
        <time>2023-07-19T14:34:14Z</time>
      </trkpt>
      <trkpt lat="47.53387" lon="-2.7534">
        <ele>18.9</ele>
        <time>2023-07-19T14:34:15Z</time>
      </trkpt>
      <trkpt lat="47.53362" lon="-2.75376">
        <ele>18.6</ele>
        <time>2023-07-19T14:34:22Z</time>
      </trkpt>
      <trkpt lat="47.53338" lon="-2.75413">
        <ele>18.5</ele>
        <time>2023-07-19T14:34:29Z</time>
      </trkpt>
      <trkpt lat="47.53306" lon="-2.75476">
        <ele>19.4</ele>
        <time>2023-07-19T14:34:39Z</time>
      </trkpt>
      <trkpt lat="47.53282" lon="-2.75535">
        <ele>21</ele>
        <time>2023-07-19T14:34:49Z</time>
      </trkpt>
      <trkpt lat="47.5327" lon="-2.75562">
        <ele>22</ele>
        <time>2023-07-19T14:34:54Z</time>
      </trkpt>
      <trkpt lat="47.53263" lon="-2.75578">
        <ele>22.6</ele>
        <time>2023-07-19T14:34:57Z</time>
      </trkpt>
      <trkpt lat="47.53252" lon="-2.75603">
        <ele>23.6</ele>
        <time>2023-07-19T14:35:02Z</time>
      </trkpt>
      <trkpt lat="47.53237" lon="-2.75638">
        <ele>24.8</ele>
        <time>2023-07-19T14:35:10Z</time>
      </trkpt>
      <trkpt lat="47.53233" lon="-2.75646">
        <ele>25.1</ele>
        <time>2023-07-19T14:35:12Z</time>
      </trkpt>
      <trkpt lat="47.53213" lon="-2.75691">
        <ele>25.3</ele>
        <time>2023-07-19T14:35:22Z</time>
      </trkpt>
      <trkpt lat="47.53182" lon="-2.75764">
        <ele>24.5</ele>
        <time>2023-07-19T14:35:35Z</time>
      </trkpt>
      <trkpt lat="47.5316" lon="-2.75819">
        <ele>23.4</ele>
        <time>2023-07-19T14:35:43Z</time>
      </trkpt>
      <trkpt lat="47.53153" lon="-2.75842">
        <ele>23.2</ele>
        <time>2023-07-19T14:35:46Z</time>
      </trkpt>
      <trkpt lat="47.53153" lon="-2.75848">
        <ele>23.1</ele>
        <time>2023-07-19T14:35:47Z</time>
      </trkpt>
      <trkpt lat="47.53153" lon="-2.75854">
        <ele>23</ele>
        <time>2023-07-19T14:35:48Z</time>
      </trkpt>
      <trkpt lat="47.53153" lon="-2.7586">
        <ele>22.9</ele>
        <time>2023-07-19T14:35:49Z</time>
      </trkpt>
      <trkpt lat="47.53151" lon="-2.7587">
        <ele>22.7</ele>
        <time>2023-07-19T14:35:51Z</time>
      </trkpt>
      <trkpt lat="47.53147" lon="-2.75881">
        <ele>22.4</ele>
        <time>2023-07-19T14:35:53Z</time>
      </trkpt>
      <trkpt lat="47.53145" lon="-2.75887">
        <ele>22.3</ele>
        <time>2023-07-19T14:35:54Z</time>
      </trkpt>
      <trkpt lat="47.53138" lon="-2.75895">
        <ele>21.9</ele>
        <time>2023-07-19T14:35:56Z</time>
      </trkpt>
      <trkpt lat="47.53124" lon="-2.75904">
        <ele>21.6</ele>
        <time>2023-07-19T14:35:59Z</time>
      </trkpt>
      <trkpt lat="47.53109" lon="-2.75909">
        <ele>21.5</ele>
        <time>2023-07-19T14:36:02Z</time>
      </trkpt>
      <trkpt lat="47.53093" lon="-2.75909">
        <ele>21.5</ele>
        <time>2023-07-19T14:36:05Z</time>
      </trkpt>
      <trkpt lat="47.53083" lon="-2.75909">
        <ele>21.5</ele>
        <time>2023-07-19T14:36:07Z</time>
      </trkpt>
      <trkpt lat="47.53068" lon="-2.75916">
        <ele>21.6</ele>
        <time>2023-07-19T14:36:10Z</time>
      </trkpt>
      <trkpt lat="47.53063" lon="-2.7592">
        <ele>21.6</ele>
        <time>2023-07-19T14:36:11Z</time>
      </trkpt>
      <trkpt lat="47.53051" lon="-2.75932">
        <ele>21.7</ele>
        <time>2023-07-19T14:36:14Z</time>
      </trkpt>
      <trkpt lat="47.53047" lon="-2.75936">
        <ele>21.7</ele>
        <time>2023-07-19T14:36:15Z</time>
      </trkpt>
      <trkpt lat="47.53043" lon="-2.75941">
        <ele>21.8</ele>
        <time>2023-07-19T14:36:16Z</time>
      </trkpt>
      <trkpt lat="47.53038" lon="-2.75945">
        <ele>21.8</ele>
        <time>2023-07-19T14:36:17Z</time>
      </trkpt>
      <trkpt lat="47.53034" lon="-2.7595">
        <ele>21.9</ele>
        <time>2023-07-19T14:36:18Z</time>
      </trkpt>
      <trkpt lat="47.53026" lon="-2.75959">
        <ele>22</ele>
        <time>2023-07-19T14:36:20Z</time>
      </trkpt>
      <trkpt lat="47.53022" lon="-2.75964">
        <ele>22</ele>
        <time>2023-07-19T14:36:21Z</time>
      </trkpt>
      <trkpt lat="47.53018" lon="-2.75968">
        <ele>22.1</ele>
        <time>2023-07-19T14:36:22Z</time>
      </trkpt>
      <trkpt lat="47.53014" lon="-2.75973">
        <ele>22.1</ele>
        <time>2023-07-19T14:36:23Z</time>
      </trkpt>
      <trkpt lat="47.52997" lon="-2.7599">
        <ele>22.3</ele>
        <time>2023-07-19T14:36:27Z</time>
      </trkpt>
      <trkpt lat="47.52989" lon="-2.75999">
        <ele>22.4</ele>
        <time>2023-07-19T14:36:29Z</time>
      </trkpt>
      <trkpt lat="47.52943" lon="-2.76049">
        <ele>22.8</ele>
        <time>2023-07-19T14:36:41Z</time>
      </trkpt>
      <trkpt lat="47.52902" lon="-2.76101">
        <ele>23.1</ele>
        <time>2023-07-19T14:36:53Z</time>
      </trkpt>
      <trkpt lat="47.52872" lon="-2.76167">
        <ele>23.8</ele>
        <time>2023-07-19T14:37:05Z</time>
      </trkpt>
      <trkpt lat="47.52841" lon="-2.76236">
        <ele>25.1</ele>
        <time>2023-07-19T14:37:19Z</time>
      </trkpt>
      <trkpt lat="47.52838" lon="-2.76241">
        <ele>25.2</ele>
        <time>2023-07-19T14:37:20Z</time>
      </trkpt>
      <trkpt lat="47.52811" lon="-2.76299">
        <ele>26.4</ele>
        <time>2023-07-19T14:37:32Z</time>
      </trkpt>
      <trkpt lat="47.52784" lon="-2.76369">
        <ele>28.1</ele>
        <time>2023-07-19T14:37:47Z</time>
      </trkpt>
      <trkpt lat="47.52765" lon="-2.76409">
        <ele>28.4</ele>
        <time>2023-07-19T14:37:58Z</time>
      </trkpt>
      <trkpt lat="47.52762" lon="-2.76469">
        <ele>28</ele>
        <time>2023-07-19T14:38:08Z</time>
      </trkpt>
      <trkpt lat="47.52754" lon="-2.76523">
        <ele>28</ele>
        <time>2023-07-19T14:38:17Z</time>
      </trkpt>
      <trkpt lat="47.52747" lon="-2.76525">
        <ele>28.2</ele>
        <time>2023-07-19T14:38:19Z</time>
      </trkpt>
      <trkpt lat="47.52713" lon="-2.76523">
        <ele>28.4</ele>
        <time>2023-07-19T14:38:27Z</time>
      </trkpt>
      <trkpt lat="47.52656" lon="-2.76535">
        <ele>28.6</ele>
        <time>2023-07-19T14:38:41Z</time>
      </trkpt>
      <trkpt lat="47.52621" lon="-2.76528">
        <ele>27.7</ele>
        <time>2023-07-19T14:38:51Z</time>
      </trkpt>
      <trkpt lat="47.52618" lon="-2.76515">
        <ele>27.4</ele>
        <time>2023-07-19T14:38:53Z</time>
      </trkpt>
      <trkpt lat="47.52618" lon="-2.765">
        <ele>27</ele>
        <time>2023-07-19T14:38:55Z</time>
      </trkpt>
      <trkpt lat="47.52615" lon="-2.76454">
        <ele>26</ele>
        <time>2023-07-19T14:39:01Z</time>
      </trkpt>
      <trkpt lat="47.52615" lon="-2.76447">
        <ele>25.8</ele>
        <time>2023-07-19T14:39:02Z</time>
      </trkpt>
      <trkpt lat="47.52606" lon="-2.76386">
        <ele>24.7</ele>
        <time>2023-07-19T14:39:09Z</time>
      </trkpt>
      <trkpt lat="47.52597" lon="-2.76302">
        <ele>24.1</ele>
        <time>2023-07-19T14:39:19Z</time>
      </trkpt>
      <trkpt lat="47.52591" lon="-2.76218">
        <ele>24.6</ele>
        <time>2023-07-19T14:39:30Z</time>
      </trkpt>
      <trkpt lat="47.52594" lon="-2.76136">
        <ele>24.6</ele>
        <time>2023-07-19T14:39:41Z</time>
      </trkpt>
      <trkpt lat="47.52589" lon="-2.76092">
        <ele>24.4</ele>
        <time>2023-07-19T14:39:47Z</time>
      </trkpt>
      <trkpt lat="47.52576" lon="-2.7606">
        <ele>23.9</ele>
        <time>2023-07-19T14:39:52Z</time>
      </trkpt>
      <trkpt lat="47.52553" lon="-2.76029">
        <ele>22.9</ele>
        <time>2023-07-19T14:39:57Z</time>
      </trkpt>
      <trkpt lat="47.5254" lon="-2.76023">
        <ele>22.3</ele>
        <time>2023-07-19T14:39:59Z</time>
      </trkpt>
      <trkpt lat="47.52518" lon="-2.76022">
        <ele>21.4</ele>
        <time>2023-07-19T14:40:02Z</time>
      </trkpt>
      <trkpt lat="47.52466" lon="-2.76004">
        <ele>20.1</ele>
        <time>2023-07-19T14:40:10Z</time>
      </trkpt>
      <trkpt lat="47.52453" lon="-2.76006">
        <ele>19.8</ele>
        <time>2023-07-19T14:40:12Z</time>
      </trkpt>
      <trkpt lat="47.52442" lon="-2.76018">
        <ele>19.6</ele>
        <time>2023-07-19T14:40:14Z</time>
      </trkpt>
      <trkpt lat="47.52435" lon="-2.76034">
        <ele>19.4</ele>
        <time>2023-07-19T14:40:16Z</time>
      </trkpt>
      <trkpt lat="47.52433" lon="-2.76051">
        <ele>19.4</ele>
        <time>2023-07-19T14:40:18Z</time>
      </trkpt>
      <trkpt lat="47.52429" lon="-2.76082">
        <ele>19.7</ele>
        <time>2023-07-19T14:40:22Z</time>
      </trkpt>
      <trkpt lat="47.52424" lon="-2.76163">
        <ele>19.7</ele>
        <time>2023-07-19T14:40:36Z</time>
      </trkpt>
      <trkpt lat="47.52397" lon="-2.76175">
        <ele>18.9</ele>
        <time>2023-07-19T14:40:44Z</time>
      </trkpt>
      <trkpt lat="47.5239" lon="-2.76182">
        <ele>18.5</ele>
        <time>2023-07-19T14:40:46Z</time>
      </trkpt>
      <trkpt lat="47.52374" lon="-2.76261">
        <ele>18.2</ele>
        <time>2023-07-19T14:41:01Z</time>
      </trkpt>
      <trkpt lat="47.5234" lon="-2.7625">
        <ele>18.2</ele>
        <time>2023-07-19T14:41:35Z</time>
      </trkpt>
      <trkpt lat="47.52366" lon="-2.76259">
        <ele>18.2</ele>
        <time>2023-07-19T14:41:50Z</time>
      </trkpt>
      <trkpt lat="47.52392" lon="-2.76192">
        <ele>18.5</ele>
        <time>2023-07-19T14:42:08Z</time>
      </trkpt>
      <trkpt lat="47.52401" lon="-2.76184">
        <ele>18.7</ele>
        <time>2023-07-19T14:42:11Z</time>
      </trkpt>
      <trkpt lat="47.52428" lon="-2.76149">
        <ele>19.7</ele>
        <time>2023-07-19T14:42:22Z</time>
      </trkpt>
      <trkpt lat="47.52435" lon="-2.76068">
        <ele>19.6</ele>
        <time>2023-07-19T14:42:36Z</time>
      </trkpt>
      <trkpt lat="47.52438" lon="-2.76027">
        <ele>19.4</ele>
        <time>2023-07-19T14:42:42Z</time>
      </trkpt>
      <trkpt lat="47.52441" lon="-2.76016">
        <ele>19.6</ele>
        <time>2023-07-19T14:42:44Z</time>
      </trkpt>
      <trkpt lat="47.52451" lon="-2.76004">
        <ele>19.8</ele>
        <time>2023-07-19T14:42:47Z</time>
      </trkpt>
      <trkpt lat="47.52503" lon="-2.76015">
        <ele>20.9</ele>
        <time>2023-07-19T14:43:01Z</time>
      </trkpt>
      <trkpt lat="47.52532" lon="-2.76015">
        <ele>22.1</ele>
        <time>2023-07-19T14:43:10Z</time>
      </trkpt>
      <trkpt lat="47.52497" lon="-2.75976">
        <ele>21.1</ele>
        <time>2023-07-19T14:43:21Z</time>
      </trkpt>
      <trkpt lat="47.52466" lon="-2.75913">
        <ele>18.6</ele>
        <time>2023-07-19T14:43:35Z</time>
      </trkpt>
      <trkpt lat="47.52462" lon="-2.75896">
        <ele>18</ele>
        <time>2023-07-19T14:43:36Z</time>
      </trkpt>
      <trkpt lat="47.52445" lon="-2.75836">
        <ele>17.8</ele>
        <time>2023-07-19T14:43:44Z</time>
      </trkpt>
      <trkpt lat="47.52438" lon="-2.75825">
        <ele>18.3</ele>
        <time>2023-07-19T14:43:46Z</time>
      </trkpt>
      <trkpt lat="47.52413" lon="-2.75805">
        <ele>18.1</ele>
        <time>2023-07-19T14:43:55Z</time>
      </trkpt>
      <trkpt lat="47.52411" lon="-2.75802">
        <ele>18</ele>
        <time>2023-07-19T14:43:56Z</time>
      </trkpt>
      <trkpt lat="47.52406" lon="-2.75796">
        <ele>17.7</ele>
        <time>2023-07-19T14:43:58Z</time>
      </trkpt>
      <trkpt lat="47.52404" lon="-2.75793">
        <ele>17.6</ele>
        <time>2023-07-19T14:43:59Z</time>
      </trkpt>
      <trkpt lat="47.52397" lon="-2.75783">
        <ele>17.1</ele>
        <time>2023-07-19T14:44:02Z</time>
      </trkpt>
      <trkpt lat="47.52392" lon="-2.75776">
        <ele>16.8</ele>
        <time>2023-07-19T14:44:03Z</time>
      </trkpt>
      <trkpt lat="47.5239" lon="-2.75771">
        <ele>16.6</ele>
        <time>2023-07-19T14:44:04Z</time>
      </trkpt>
      <trkpt lat="47.52388" lon="-2.75766">
        <ele>16.4</ele>
        <time>2023-07-19T14:44:05Z</time>
      </trkpt>
      <trkpt lat="47.52361" lon="-2.7573">
        <ele>15.2</ele>
        <time>2023-07-19T14:44:12Z</time>
      </trkpt>
      <trkpt lat="47.52354" lon="-2.75725">
        <ele>15</ele>
        <time>2023-07-19T14:44:14Z</time>
      </trkpt>
      <trkpt lat="47.52331" lon="-2.75704">
        <ele>13.9</ele>
        <time>2023-07-19T14:44:18Z</time>
      </trkpt>
      <trkpt lat="47.52306" lon="-2.75693">
        <ele>13.1</ele>
        <time>2023-07-19T14:44:22Z</time>
      </trkpt>
      <trkpt lat="47.52293" lon="-2.75687">
        <ele>12.9</ele>
        <time>2023-07-19T14:44:24Z</time>
      </trkpt>
      <trkpt lat="47.52287" lon="-2.75684">
        <ele>12.8</ele>
        <time>2023-07-19T14:44:25Z</time>
      </trkpt>
      <trkpt lat="47.5228" lon="-2.75681">
        <ele>12.7</ele>
        <time>2023-07-19T14:44:26Z</time>
      </trkpt>
      <trkpt lat="47.52274" lon="-2.75678">
        <ele>12.6</ele>
        <time>2023-07-19T14:44:27Z</time>
      </trkpt>
      <trkpt lat="47.52268" lon="-2.75676">
        <ele>12.6</ele>
        <time>2023-07-19T14:44:28Z</time>
      </trkpt>
      <trkpt lat="47.52239" lon="-2.75659">
        <ele>12.3</ele>
        <time>2023-07-19T14:44:32Z</time>
      </trkpt>
      <trkpt lat="47.52234" lon="-2.75656">
        <ele>12.3</ele>
        <time>2023-07-19T14:44:33Z</time>
      </trkpt>
      <trkpt lat="47.52227" lon="-2.75651">
        <ele>12.3</ele>
        <time>2023-07-19T14:44:34Z</time>
      </trkpt>
      <trkpt lat="47.52215" lon="-2.75643">
        <ele>12.2</ele>
        <time>2023-07-19T14:44:36Z</time>
      </trkpt>
      <trkpt lat="47.5221" lon="-2.7564">
        <ele>12.2</ele>
        <time>2023-07-19T14:44:37Z</time>
      </trkpt>
      <trkpt lat="47.52188" lon="-2.75633">
        <ele>12.3</ele>
        <time>2023-07-19T14:44:42Z</time>
      </trkpt>
      <trkpt lat="47.52149" lon="-2.75623">
        <ele>12.1</ele>
        <time>2023-07-19T14:44:50Z</time>
      </trkpt>
      <trkpt lat="47.52141" lon="-2.75623">
        <ele>12</ele>
        <time>2023-07-19T14:44:52Z</time>
      </trkpt>
      <trkpt lat="47.52123" lon="-2.75622">
        <ele>11.7</ele>
        <time>2023-07-19T14:44:56Z</time>
      </trkpt>
      <trkpt lat="47.52108" lon="-2.75621">
        <ele>11.3</ele>
        <time>2023-07-19T14:44:59Z</time>
      </trkpt>
      <trkpt lat="47.52095" lon="-2.7562">
        <ele>11.1</ele>
        <time>2023-07-19T14:45:02Z</time>
      </trkpt>
      <trkpt lat="47.52069" lon="-2.7561">
        <ele>10.8</ele>
        <time>2023-07-19T14:45:08Z</time>
      </trkpt>
      <trkpt lat="47.52018" lon="-2.75583">
        <ele>10.7</ele>
        <time>2023-07-19T14:45:24Z</time>
      </trkpt>
      <trkpt lat="47.51979" lon="-2.7557">
        <ele>11</ele>
        <time>2023-07-19T14:45:34Z</time>
      </trkpt>
      <trkpt lat="47.51976" lon="-2.75571">
        <ele>11</ele>
        <time>2023-07-19T14:45:35Z</time>
      </trkpt>
      <trkpt lat="47.51948" lon="-2.75574">
        <ele>11.1</ele>
        <time>2023-07-19T14:45:45Z</time>
      </trkpt>
      <trkpt lat="47.51946" lon="-2.75568">
        <ele>11.1</ele>
        <time>2023-07-19T14:45:47Z</time>
      </trkpt>
      <trkpt lat="47.5197" lon="-2.75564">
        <ele>11.1</ele>
        <time>2023-07-19T14:45:55Z</time>
      </trkpt>
      <trkpt lat="47.52009" lon="-2.75572">
        <ele>10.8</ele>
        <time>2023-07-19T14:46:05Z</time>
      </trkpt>
      <trkpt lat="47.52017" lon="-2.75581">
        <ele>10.6</ele>
        <time>2023-07-19T14:46:07Z</time>
      </trkpt>
      <trkpt lat="47.5202" lon="-2.75593">
        <ele>10.4</ele>
        <time>2023-07-19T14:46:09Z</time>
      </trkpt>
      <trkpt lat="47.5202" lon="-2.75609">
        <ele>10.2</ele>
        <time>2023-07-19T14:46:11Z</time>
      </trkpt>
      <trkpt lat="47.52016" lon="-2.75624">
        <ele>9.9</ele>
        <time>2023-07-19T14:46:13Z</time>
      </trkpt>
      <trkpt lat="47.51997" lon="-2.75702">
        <ele>8.8</ele>
        <time>2023-07-19T14:46:22Z</time>
      </trkpt>
      <trkpt lat="47.51986" lon="-2.75787">
        <ele>8</ele>
        <time>2023-07-19T14:46:31Z</time>
      </trkpt>
      <trkpt lat="47.5197" lon="-2.75872">
        <ele>7.9</ele>
        <time>2023-07-19T14:46:40Z</time>
      </trkpt>
      <trkpt lat="47.51946" lon="-2.75932">
        <ele>8.4</ele>
        <time>2023-07-19T14:46:48Z</time>
      </trkpt>
      <trkpt lat="47.51943" lon="-2.75939">
        <ele>8.5</ele>
        <time>2023-07-19T14:46:49Z</time>
      </trkpt>
      <trkpt lat="47.51939" lon="-2.75946">
        <ele>8.5</ele>
        <time>2023-07-19T14:46:50Z</time>
      </trkpt>
      <trkpt lat="47.51936" lon="-2.75953">
        <ele>8.5</ele>
        <time>2023-07-19T14:46:51Z</time>
      </trkpt>
      <trkpt lat="47.51929" lon="-2.75966">
        <ele>8.6</ele>
        <time>2023-07-19T14:46:53Z</time>
      </trkpt>
      <trkpt lat="47.51922" lon="-2.75979">
        <ele>8.6</ele>
        <time>2023-07-19T14:46:55Z</time>
      </trkpt>
      <trkpt lat="47.51918" lon="-2.75985">
        <ele>8.6</ele>
        <time>2023-07-19T14:46:56Z</time>
      </trkpt>
      <trkpt lat="47.51911" lon="-2.75997">
        <ele>8.7</ele>
        <time>2023-07-19T14:46:58Z</time>
      </trkpt>
      <trkpt lat="47.51904" lon="-2.76011">
        <ele>8.7</ele>
        <time>2023-07-19T14:47:00Z</time>
      </trkpt>
      <trkpt lat="47.51881" lon="-2.76058">
        <ele>8.5</ele>
        <time>2023-07-19T14:47:07Z</time>
      </trkpt>
      <trkpt lat="47.51878" lon="-2.76065">
        <ele>8.5</ele>
        <time>2023-07-19T14:47:08Z</time>
      </trkpt>
      <trkpt lat="47.51875" lon="-2.76072">
        <ele>8.5</ele>
        <time>2023-07-19T14:47:09Z</time>
      </trkpt>
      <trkpt lat="47.51851" lon="-2.76151">
        <ele>8.6</ele>
        <time>2023-07-19T14:47:20Z</time>
      </trkpt>
      <trkpt lat="47.51849" lon="-2.76166">
        <ele>8.7</ele>
        <time>2023-07-19T14:47:22Z</time>
      </trkpt>
      <trkpt lat="47.51848" lon="-2.76196">
        <ele>8.7</ele>
        <time>2023-07-19T14:47:26Z</time>
      </trkpt>
      <trkpt lat="47.51849" lon="-2.76219">
        <ele>8.7</ele>
        <time>2023-07-19T14:47:29Z</time>
      </trkpt>
      <trkpt lat="47.5185" lon="-2.76227">
        <ele>8.7</ele>
        <time>2023-07-19T14:47:30Z</time>
      </trkpt>
      <trkpt lat="47.5185" lon="-2.76234">
        <ele>8.7</ele>
        <time>2023-07-19T14:47:31Z</time>
      </trkpt>
      <trkpt lat="47.51852" lon="-2.7625">
        <ele>8.7</ele>
        <time>2023-07-19T14:47:33Z</time>
      </trkpt>
      <trkpt lat="47.51853" lon="-2.76258">
        <ele>8.7</ele>
        <time>2023-07-19T14:47:34Z</time>
      </trkpt>
      <trkpt lat="47.5186" lon="-2.76339">
        <ele>8.4</ele>
        <time>2023-07-19T14:47:44Z</time>
      </trkpt>
      <trkpt lat="47.51859" lon="-2.76346">
        <ele>8.3</ele>
        <time>2023-07-19T14:47:45Z</time>
      </trkpt>
      <trkpt lat="47.51855" lon="-2.76361">
        <ele>8.1</ele>
        <time>2023-07-19T14:47:47Z</time>
      </trkpt>
      <trkpt lat="47.51847" lon="-2.76373">
        <ele>8</ele>
        <time>2023-07-19T14:47:49Z</time>
      </trkpt>
      <trkpt lat="47.51801" lon="-2.76416">
        <ele>8</ele>
        <time>2023-07-19T14:47:58Z</time>
      </trkpt>
      <trkpt lat="47.51776" lon="-2.76438">
        <ele>8.1</ele>
        <time>2023-07-19T14:48:03Z</time>
      </trkpt>
      <trkpt lat="47.51761" lon="-2.76452">
        <ele>8.1</ele>
        <time>2023-07-19T14:48:06Z</time>
      </trkpt>
      <trkpt lat="47.51734" lon="-2.76486">
        <ele>8.3</ele>
        <time>2023-07-19T14:48:12Z</time>
      </trkpt>
      <trkpt lat="47.51719" lon="-2.76527">
        <ele>8.6</ele>
        <time>2023-07-19T14:48:18Z</time>
      </trkpt>
      <trkpt lat="47.51717" lon="-2.7655">
        <ele>8.7</ele>
        <time>2023-07-19T14:48:22Z</time>
      </trkpt>
      <trkpt lat="47.51689" lon="-2.76624">
        <ele>9.1</ele>
        <time>2023-07-19T14:48:34Z</time>
      </trkpt>
      <trkpt lat="47.5167" lon="-2.76694">
        <ele>9.9</ele>
        <time>2023-07-19T14:48:47Z</time>
      </trkpt>
      <trkpt lat="47.51686" lon="-2.7671">
        <ele>10.2</ele>
        <time>2023-07-19T14:48:55Z</time>
      </trkpt>
      <trkpt lat="47.51684" lon="-2.76713">
        <ele>10.2</ele>
        <time>2023-07-19T14:48:57Z</time>
      </trkpt>
      <trkpt lat="47.51658" lon="-2.76728">
        <ele>10.2</ele>
        <time>2023-07-19T14:49:07Z</time>
      </trkpt>
      <trkpt lat="47.5165" lon="-2.76735">
        <ele>10.4</ele>
        <time>2023-07-19T14:49:09Z</time>
      </trkpt>
      <trkpt lat="47.51621" lon="-2.76803">
        <ele>12.1</ele>
        <time>2023-07-19T14:49:25Z</time>
      </trkpt>
      <trkpt lat="47.51602" lon="-2.76833">
        <ele>13</ele>
        <time>2023-07-19T14:49:34Z</time>
      </trkpt>
      <trkpt lat="47.51556" lon="-2.76878">
        <ele>14.7</ele>
        <time>2023-07-19T14:49:51Z</time>
      </trkpt>
      <trkpt lat="47.51523" lon="-2.76904">
        <ele>16.4</ele>
        <time>2023-07-19T14:50:02Z</time>
      </trkpt>
      <trkpt lat="47.51513" lon="-2.76976">
        <ele>17.7</ele>
        <time>2023-07-19T14:50:20Z</time>
      </trkpt>
      <trkpt lat="47.51514" lon="-2.76986">
        <ele>17.8</ele>
        <time>2023-07-19T14:50:22Z</time>
      </trkpt>
      <trkpt lat="47.51514" lon="-2.76991">
        <ele>17.8</ele>
        <time>2023-07-19T14:50:23Z</time>
      </trkpt>
      <trkpt lat="47.51515" lon="-2.77001">
        <ele>17.8</ele>
        <time>2023-07-19T14:50:25Z</time>
      </trkpt>
      <trkpt lat="47.51517" lon="-2.77034">
        <ele>17.4</ele>
        <time>2023-07-19T14:50:31Z</time>
      </trkpt>
      <trkpt lat="47.51522" lon="-2.77116">
        <ele>16.3</ele>
        <time>2023-07-19T14:50:42Z</time>
      </trkpt>
      <trkpt lat="47.51526" lon="-2.77168">
        <ele>16.7</ele>
        <time>2023-07-19T14:50:49Z</time>
      </trkpt>
      <trkpt lat="47.51527" lon="-2.7725">
        <ele>18</ele>
        <time>2023-07-19T14:51:02Z</time>
      </trkpt>
      <trkpt lat="47.51531" lon="-2.77334">
        <ele>19.3</ele>
        <time>2023-07-19T14:51:18Z</time>
      </trkpt>
      <trkpt lat="47.5155" lon="-2.77411">
        <ele>19.5</ele>
        <time>2023-07-19T14:51:32Z</time>
      </trkpt>
      <trkpt lat="47.51561" lon="-2.77445">
        <ele>19.4</ele>
        <time>2023-07-19T14:51:38Z</time>
      </trkpt>
      <trkpt lat="47.51569" lon="-2.77471">
        <ele>19.1</ele>
        <time>2023-07-19T14:51:42Z</time>
      </trkpt>
      <trkpt lat="47.51573" lon="-2.77484">
        <ele>18.9</ele>
        <time>2023-07-19T14:51:44Z</time>
      </trkpt>
      <trkpt lat="47.51579" lon="-2.77505">
        <ele>18.7</ele>
        <time>2023-07-19T14:51:47Z</time>
      </trkpt>
      <trkpt lat="47.51582" lon="-2.77512">
        <ele>18.7</ele>
        <time>2023-07-19T14:51:48Z</time>
      </trkpt>
      <trkpt lat="47.51596" lon="-2.77587">
        <ele>19.3</ele>
        <time>2023-07-19T14:52:02Z</time>
      </trkpt>
      <trkpt lat="47.51593" lon="-2.7759">
        <ele>19.4</ele>
        <time>2023-07-19T14:52:03Z</time>
      </trkpt>
      <trkpt lat="47.51588" lon="-2.77596">
        <ele>19.6</ele>
        <time>2023-07-19T14:52:05Z</time>
      </trkpt>
      <trkpt lat="47.51573" lon="-2.77603">
        <ele>19.9</ele>
        <time>2023-07-19T14:52:09Z</time>
      </trkpt>
      <trkpt lat="47.51568" lon="-2.77607">
        <ele>20.1</ele>
        <time>2023-07-19T14:52:10Z</time>
      </trkpt>
      <trkpt lat="47.51566" lon="-2.7761">
        <ele>20.2</ele>
        <time>2023-07-19T14:52:12Z</time>
      </trkpt>
      <trkpt lat="47.51561" lon="-2.77615">
        <ele>20.3</ele>
        <time>2023-07-19T14:52:14Z</time>
      </trkpt>
      <trkpt lat="47.51559" lon="-2.77617">
        <ele>20.4</ele>
        <time>2023-07-19T14:52:15Z</time>
      </trkpt>
      <trkpt lat="47.51548" lon="-2.77624">
        <ele>20.7</ele>
        <time>2023-07-19T14:52:19Z</time>
      </trkpt>
      <trkpt lat="47.5154" lon="-2.77628">
        <ele>21.1</ele>
        <time>2023-07-19T14:52:21Z</time>
      </trkpt>
      <trkpt lat="47.51537" lon="-2.7763">
        <ele>21.2</ele>
        <time>2023-07-19T14:52:22Z</time>
      </trkpt>
      <trkpt lat="47.51532" lon="-2.77635">
        <ele>21.4</ele>
        <time>2023-07-19T14:52:24Z</time>
      </trkpt>
      <trkpt lat="47.51519" lon="-2.77645">
        <ele>22.3</ele>
        <time>2023-07-19T14:52:29Z</time>
      </trkpt>
      <trkpt lat="47.51514" lon="-2.77649">
        <ele>22.8</ele>
        <time>2023-07-19T14:52:31Z</time>
      </trkpt>
      <trkpt lat="47.51507" lon="-2.77654">
        <ele>23.2</ele>
        <time>2023-07-19T14:52:34Z</time>
      </trkpt>
      <trkpt lat="47.51502" lon="-2.7766">
        <ele>23.5</ele>
        <time>2023-07-19T14:52:37Z</time>
      </trkpt>
      <trkpt lat="47.51482" lon="-2.77679">
        <ele>24.5</ele>
        <time>2023-07-19T14:52:45Z</time>
      </trkpt>
      <trkpt lat="47.51461" lon="-2.77696">
        <ele>25.1</ele>
        <time>2023-07-19T14:52:52Z</time>
      </trkpt>
      <trkpt lat="47.51435" lon="-2.77722">
        <ele>25.3</ele>
        <time>2023-07-19T14:53:01Z</time>
      </trkpt>
      <trkpt lat="47.51423" lon="-2.77735">
        <ele>25.2</ele>
        <time>2023-07-19T14:53:05Z</time>
      </trkpt>
      <trkpt lat="47.51419" lon="-2.77738">
        <ele>25.1</ele>
        <time>2023-07-19T14:53:06Z</time>
      </trkpt>
      <trkpt lat="47.51404" lon="-2.77748">
        <ele>24.9</ele>
        <time>2023-07-19T14:53:10Z</time>
      </trkpt>
      <trkpt lat="47.51388" lon="-2.77758">
        <ele>24.6</ele>
        <time>2023-07-19T14:53:14Z</time>
      </trkpt>
      <trkpt lat="47.51365" lon="-2.77819">
        <ele>23.5</ele>
        <time>2023-07-19T14:53:24Z</time>
      </trkpt>
      <trkpt lat="47.51344" lon="-2.77852">
        <ele>22.7</ele>
        <time>2023-07-19T14:53:30Z</time>
      </trkpt>
      <trkpt lat="47.51334" lon="-2.77856">
        <ele>22.5</ele>
        <time>2023-07-19T14:53:32Z</time>
      </trkpt>
      <trkpt lat="47.51326" lon="-2.77864">
        <ele>22.3</ele>
        <time>2023-07-19T14:53:34Z</time>
      </trkpt>
      <trkpt lat="47.51324" lon="-2.77878">
        <ele>22.3</ele>
        <time>2023-07-19T14:53:36Z</time>
      </trkpt>
      <trkpt lat="47.51324" lon="-2.77923">
        <ele>22.4</ele>
        <time>2023-07-19T14:53:42Z</time>
      </trkpt>
      <trkpt lat="47.51321" lon="-2.7797">
        <ele>22.5</ele>
        <time>2023-07-19T14:53:49Z</time>
      </trkpt>
      <trkpt lat="47.51319" lon="-2.77975">
        <ele>22.5</ele>
        <time>2023-07-19T14:53:50Z</time>
      </trkpt>
      <trkpt lat="47.51301" lon="-2.78016">
        <ele>21.8</ele>
        <time>2023-07-19T14:53:58Z</time>
      </trkpt>
      <trkpt lat="47.51248" lon="-2.78034">
        <ele>20.3</ele>
        <time>2023-07-19T14:54:08Z</time>
      </trkpt>
      <trkpt lat="47.51228" lon="-2.7804">
        <ele>19.9</ele>
        <time>2023-07-19T14:54:12Z</time>
      </trkpt>
      <trkpt lat="47.51203" lon="-2.78035">
        <ele>19.5</ele>
        <time>2023-07-19T14:54:18Z</time>
      </trkpt>
      <trkpt lat="47.51153" lon="-2.77995">
        <ele>19.9</ele>
        <time>2023-07-19T14:54:29Z</time>
      </trkpt>
      <trkpt lat="47.51102" lon="-2.77958">
        <ele>19.6</ele>
        <time>2023-07-19T14:54:41Z</time>
      </trkpt>
      <trkpt lat="47.51087" lon="-2.77945">
        <ele>19.4</ele>
        <time>2023-07-19T14:54:44Z</time>
      </trkpt>
      <trkpt lat="47.51079" lon="-2.77941">
        <ele>19.4</ele>
        <time>2023-07-19T14:54:46Z</time>
      </trkpt>
      <trkpt lat="47.51047" lon="-2.7794">
        <ele>18.5</ele>
        <time>2023-07-19T14:54:52Z</time>
      </trkpt>
      <trkpt lat="47.51031" lon="-2.77945">
        <ele>17.4</ele>
        <time>2023-07-19T14:54:55Z</time>
      </trkpt>
      <trkpt lat="47.51019" lon="-2.77942">
        <ele>16.9</ele>
        <time>2023-07-19T14:54:57Z</time>
      </trkpt>
      <trkpt lat="47.51009" lon="-2.77934">
        <ele>16.5</ele>
        <time>2023-07-19T14:54:59Z</time>
      </trkpt>
      <trkpt lat="47.50964" lon="-2.77884">
        <ele>15.7</ele>
        <time>2023-07-19T14:55:07Z</time>
      </trkpt>
      <trkpt lat="47.50927" lon="-2.7784">
        <ele>16.6</ele>
        <time>2023-07-19T14:55:16Z</time>
      </trkpt>
      <trkpt lat="47.5092" lon="-2.77828">
        <ele>16.8</ele>
        <time>2023-07-19T14:55:18Z</time>
      </trkpt>
      <trkpt lat="47.50916" lon="-2.77822">
        <ele>16.9</ele>
        <time>2023-07-19T14:55:19Z</time>
      </trkpt>
      <trkpt lat="47.50912" lon="-2.77818">
        <ele>17.1</ele>
        <time>2023-07-19T14:55:20Z</time>
      </trkpt>
      <trkpt lat="47.50908" lon="-2.77815">
        <ele>17.2</ele>
        <time>2023-07-19T14:55:21Z</time>
      </trkpt>
      <trkpt lat="47.50892" lon="-2.77803">
        <ele>17.8</ele>
        <time>2023-07-19T14:55:25Z</time>
      </trkpt>
      <trkpt lat="47.50872" lon="-2.77787">
        <ele>18.6</ele>
        <time>2023-07-19T14:55:31Z</time>
      </trkpt>
      <trkpt lat="47.50866" lon="-2.77781">
        <ele>18.9</ele>
        <time>2023-07-19T14:55:33Z</time>
      </trkpt>
      <trkpt lat="47.50859" lon="-2.77775">
        <ele>19.2</ele>
        <time>2023-07-19T14:55:35Z</time>
      </trkpt>
      <trkpt lat="47.50856" lon="-2.77771">
        <ele>19.4</ele>
        <time>2023-07-19T14:55:36Z</time>
      </trkpt>
      <trkpt lat="47.50853" lon="-2.77768">
        <ele>19.5</ele>
        <time>2023-07-19T14:55:37Z</time>
      </trkpt>
      <trkpt lat="47.5085" lon="-2.77764">
        <ele>19.6</ele>
        <time>2023-07-19T14:55:38Z</time>
      </trkpt>
      <trkpt lat="47.50848" lon="-2.7776">
        <ele>19.8</ele>
        <time>2023-07-19T14:55:39Z</time>
      </trkpt>
      <trkpt lat="47.50843" lon="-2.77754">
        <ele>20</ele>
        <time>2023-07-19T14:55:41Z</time>
      </trkpt>
      <trkpt lat="47.50831" lon="-2.77739">
        <ele>20.5</ele>
        <time>2023-07-19T14:55:45Z</time>
      </trkpt>
      <trkpt lat="47.50823" lon="-2.77727">
        <ele>20.9</ele>
        <time>2023-07-19T14:55:48Z</time>
      </trkpt>
      <trkpt lat="47.50809" lon="-2.77712">
        <ele>21.5</ele>
        <time>2023-07-19T14:55:53Z</time>
      </trkpt>
      <trkpt lat="47.50756" lon="-2.77714">
        <ele>24.2</ele>
        <time>2023-07-19T14:56:10Z</time>
      </trkpt>
      <trkpt lat="47.50711" lon="-2.7776">
        <ele>26.3</ele>
        <time>2023-07-19T14:56:28Z</time>
      </trkpt>
      <trkpt lat="47.50695" lon="-2.77774">
        <ele>26.1</ele>
        <time>2023-07-19T14:56:34Z</time>
      </trkpt>
      <trkpt lat="47.50679" lon="-2.77784">
        <ele>25.8</ele>
        <time>2023-07-19T14:56:38Z</time>
      </trkpt>
      <trkpt lat="47.50657" lon="-2.77797">
        <ele>25.6</ele>
        <time>2023-07-19T14:56:43Z</time>
      </trkpt>
      <trkpt lat="47.50648" lon="-2.77799">
        <ele>25.5</ele>
        <time>2023-07-19T14:56:45Z</time>
      </trkpt>
      <trkpt lat="47.50639" lon="-2.77799">
        <ele>25.4</ele>
        <time>2023-07-19T14:56:47Z</time>
      </trkpt>
      <trkpt lat="47.50629" lon="-2.77797">
        <ele>25.3</ele>
        <time>2023-07-19T14:56:49Z</time>
      </trkpt>
      <trkpt lat="47.50616" lon="-2.77794">
        <ele>25.2</ele>
        <time>2023-07-19T14:56:52Z</time>
      </trkpt>
      <trkpt lat="47.50611" lon="-2.77792">
        <ele>25.2</ele>
        <time>2023-07-19T14:56:53Z</time>
      </trkpt>
      <trkpt lat="47.50607" lon="-2.7779">
        <ele>25.3</ele>
        <time>2023-07-19T14:56:54Z</time>
      </trkpt>
      <trkpt lat="47.50591" lon="-2.77824">
        <ele>26.3</ele>
        <time>2023-07-19T14:57:02Z</time>
      </trkpt>
      <trkpt lat="47.5058" lon="-2.77847">
        <ele>26.6</ele>
        <time>2023-07-19T14:57:08Z</time>
      </trkpt>
      <trkpt lat="47.50575" lon="-2.77854">
        <ele>26.8</ele>
        <time>2023-07-19T14:57:10Z</time>
      </trkpt>
      <trkpt lat="47.50543" lon="-2.77919">
        <ele>29</ele>
        <time>2023-07-19T14:57:27Z</time>
      </trkpt>
      <trkpt lat="47.50509" lon="-2.77988">
        <ele>30.9</ele>
        <time>2023-07-19T14:57:46Z</time>
      </trkpt>
      <trkpt lat="47.50486" lon="-2.78062">
        <ele>32</ele>
        <time>2023-07-19T14:58:03Z</time>
      </trkpt>
      <trkpt lat="47.50468" lon="-2.78107">
        <ele>32.8</ele>
        <time>2023-07-19T14:58:14Z</time>
      </trkpt>
      <trkpt lat="47.50455" lon="-2.78143">
        <ele>33.5</ele>
        <time>2023-07-19T14:58:24Z</time>
      </trkpt>
      <trkpt lat="47.50434" lon="-2.78216">
        <ele>34.4</ele>
        <time>2023-07-19T14:58:43Z</time>
      </trkpt>
      <trkpt lat="47.50419" lon="-2.78258">
        <ele>34.7</ele>
        <time>2023-07-19T14:58:55Z</time>
      </trkpt>
      <trkpt lat="47.5041" lon="-2.78289">
        <ele>34.9</ele>
        <time>2023-07-19T14:59:03Z</time>
      </trkpt>
      <trkpt lat="47.50403" lon="-2.78314">
        <ele>35.2</ele>
        <time>2023-07-19T14:59:09Z</time>
      </trkpt>
      <trkpt lat="47.50398" lon="-2.78324">
        <ele>35.3</ele>
        <time>2023-07-19T14:59:12Z</time>
      </trkpt>
      <trkpt lat="47.50395" lon="-2.78331">
        <ele>35.4</ele>
        <time>2023-07-19T14:59:14Z</time>
      </trkpt>
      <trkpt lat="47.5039" lon="-2.78336">
        <ele>35.4</ele>
        <time>2023-07-19T14:59:17Z</time>
      </trkpt>
      <trkpt lat="47.50389" lon="-2.78339">
        <ele>35.4</ele>
        <time>2023-07-19T14:59:18Z</time>
      </trkpt>
      <trkpt lat="47.50379" lon="-2.78353">
        <ele>35.2</ele>
        <time>2023-07-19T14:59:26Z</time>
      </trkpt>
      <trkpt lat="47.50377" lon="-2.78375">
        <ele>34.9</ele>
        <time>2023-07-19T14:59:30Z</time>
      </trkpt>
      <trkpt lat="47.50378" lon="-2.78388">
        <ele>34.8</ele>
        <time>2023-07-19T14:59:32Z</time>
      </trkpt>
      <trkpt lat="47.50379" lon="-2.78398">
        <ele>34.8</ele>
        <time>2023-07-19T14:59:34Z</time>
      </trkpt>
      <trkpt lat="47.50383" lon="-2.78473">
        <ele>34.2</ele>
        <time>2023-07-19T14:59:47Z</time>
      </trkpt>
      <trkpt lat="47.50382" lon="-2.78542">
        <ele>33.3</ele>
        <time>2023-07-19T14:59:58Z</time>
      </trkpt>
      <trkpt lat="47.50382" lon="-2.78561">
        <ele>33.2</ele>
        <time>2023-07-19T15:00:01Z</time>
      </trkpt>
      <trkpt lat="47.50382" lon="-2.78568">
        <ele>33.1</ele>
        <time>2023-07-19T15:00:02Z</time>
      </trkpt>
      <trkpt lat="47.5038" lon="-2.78624">
        <ele>33.1</ele>
        <time>2023-07-19T15:00:12Z</time>
      </trkpt>
      <trkpt lat="47.50371" lon="-2.78644">
        <ele>33.2</ele>
        <time>2023-07-19T15:00:17Z</time>
      </trkpt>
      <trkpt lat="47.50358" lon="-2.78651">
        <ele>33.2</ele>
        <time>2023-07-19T15:00:23Z</time>
      </trkpt>
      <trkpt lat="47.5037" lon="-2.78665">
        <ele>33.3</ele>
        <time>2023-07-19T15:00:28Z</time>
      </trkpt>
      <trkpt lat="47.50373" lon="-2.78747">
        <ele>34.9</ele>
        <time>2023-07-19T15:00:45Z</time>
      </trkpt>
      <trkpt lat="47.50371" lon="-2.78786">
        <ele>35.2</ele>
        <time>2023-07-19T15:00:53Z</time>
      </trkpt>
      <trkpt lat="47.50371" lon="-2.78816">
        <ele>35.5</ele>
        <time>2023-07-19T15:00:59Z</time>
      </trkpt>
      <trkpt lat="47.50372" lon="-2.78872">
        <ele>36</ele>
        <time>2023-07-19T15:01:11Z</time>
      </trkpt>
      <trkpt lat="47.50375" lon="-2.789">
        <ele>36.2</ele>
        <time>2023-07-19T15:01:17Z</time>
      </trkpt>
      <trkpt lat="47.50375" lon="-2.78904">
        <ele>36.2</ele>
        <time>2023-07-19T15:01:18Z</time>
      </trkpt>
      <trkpt lat="47.50375" lon="-2.78909">
        <ele>36.2</ele>
        <time>2023-07-19T15:01:19Z</time>
      </trkpt>
      <trkpt lat="47.50377" lon="-2.78928">
        <ele>36.4</ele>
        <time>2023-07-19T15:01:23Z</time>
      </trkpt>
      <trkpt lat="47.5038" lon="-2.78994">
        <ele>36.6</ele>
        <time>2023-07-19T15:01:39Z</time>
      </trkpt>
      <trkpt lat="47.50384" lon="-2.79045">
        <ele>36.8</ele>
        <time>2023-07-19T15:01:52Z</time>
      </trkpt>
      <trkpt lat="47.50396" lon="-2.79123">
        <ele>36.9</ele>
        <time>2023-07-19T15:02:12Z</time>
      </trkpt>
      <trkpt lat="47.50395" lon="-2.79206">
        <ele>37</ele>
        <time>2023-07-19T15:02:30Z</time>
      </trkpt>
      <trkpt lat="47.50395" lon="-2.79246">
        <ele>37</ele>
        <time>2023-07-19T15:02:37Z</time>
      </trkpt>
      <trkpt lat="47.50399" lon="-2.79327">
        <ele>36.4</ele>
        <time>2023-07-19T15:02:49Z</time>
      </trkpt>
      <trkpt lat="47.50399" lon="-2.79342">
        <ele>36.2</ele>
        <time>2023-07-19T15:02:51Z</time>
      </trkpt>
      <trkpt lat="47.50399" lon="-2.79358">
        <ele>36.1</ele>
        <time>2023-07-19T15:02:53Z</time>
      </trkpt>
      <trkpt lat="47.50395" lon="-2.79414">
        <ele>35.7</ele>
        <time>2023-07-19T15:03:00Z</time>
      </trkpt>
      <trkpt lat="47.50393" lon="-2.795">
        <ele>36.1</ele>
        <time>2023-07-19T15:03:11Z</time>
      </trkpt>
      <trkpt lat="47.50401" lon="-2.79584">
        <ele>37.9</ele>
        <time>2023-07-19T15:03:23Z</time>
      </trkpt>
      <trkpt lat="47.5041" lon="-2.79631">
        <ele>39.1</ele>
        <time>2023-07-19T15:03:31Z</time>
      </trkpt>
      <trkpt lat="47.50415" lon="-2.7969">
        <ele>39.8</ele>
        <time>2023-07-19T15:03:42Z</time>
      </trkpt>
      <trkpt lat="47.50415" lon="-2.79707">
        <ele>39.8</ele>
        <time>2023-07-19T15:03:45Z</time>
      </trkpt>
      <trkpt lat="47.50416" lon="-2.79751">
        <ele>39.9</ele>
        <time>2023-07-19T15:03:53Z</time>
      </trkpt>
      <trkpt lat="47.50416" lon="-2.79778">
        <ele>40.1</ele>
        <time>2023-07-19T15:03:58Z</time>
      </trkpt>
      <trkpt lat="47.5042" lon="-2.79844">
        <ele>40.6</ele>
        <time>2023-07-19T15:04:13Z</time>
      </trkpt>
      <trkpt lat="47.50416" lon="-2.79849">
        <ele>40.6</ele>
        <time>2023-07-19T15:04:16Z</time>
      </trkpt>
      <trkpt lat="47.50414" lon="-2.7985">
        <ele>40.6</ele>
        <time>2023-07-19T15:04:18Z</time>
      </trkpt>
      <trkpt lat="47.50412" lon="-2.79849">
        <ele>40.6</ele>
        <time>2023-07-19T15:04:22Z</time>
      </trkpt>
      <trkpt lat="47.50411" lon="-2.79847">
        <ele>40.6</ele>
        <time>2023-07-19T15:04:26Z</time>
      </trkpt>
      <trkpt lat="47.5041" lon="-2.79847">
        <ele>40.6</ele>
        <time>2023-07-19T15:04:27Z</time>
      </trkpt>
      <trkpt lat="47.5041" lon="-2.79846">
        <ele>40.6</ele>
        <time>2023-07-19T15:04:38Z</time>
      </trkpt>
      <trkpt lat="47.50408" lon="-2.79847">
        <ele>40.6</ele>
        <time>2023-07-19T15:04:40Z</time>
      </trkpt>
      <trkpt lat="47.5036" lon="-2.79859">
        <ele>39.9</ele>
        <time>2023-07-19T15:04:53Z</time>
      </trkpt>
      <trkpt lat="47.50355" lon="-2.79858">
        <ele>39.8</ele>
        <time>2023-07-19T15:04:54Z</time>
      </trkpt>
      <trkpt lat="47.50322" lon="-2.79847">
        <ele>39</ele>
        <time>2023-07-19T15:05:00Z</time>
      </trkpt>
      <trkpt lat="47.5031" lon="-2.79843">
        <ele>38.7</ele>
        <time>2023-07-19T15:05:02Z</time>
      </trkpt>
      <trkpt lat="47.50285" lon="-2.79833">
        <ele>38.1</ele>
        <time>2023-07-19T15:05:06Z</time>
      </trkpt>
      <trkpt lat="47.50227" lon="-2.79829">
        <ele>37.3</ele>
        <time>2023-07-19T15:05:15Z</time>
      </trkpt>
      <trkpt lat="47.50193" lon="-2.79823">
        <ele>37.2</ele>
        <time>2023-07-19T15:05:23Z</time>
      </trkpt>
      <trkpt lat="47.50161" lon="-2.7982">
        <ele>37.1</ele>
        <time>2023-07-19T15:05:32Z</time>
      </trkpt>
      <trkpt lat="47.50122" lon="-2.79817">
        <ele>37.1</ele>
        <time>2023-07-19T15:05:40Z</time>
      </trkpt>
      <trkpt lat="47.50101" lon="-2.79811">
        <ele>37</ele>
        <time>2023-07-19T15:05:44Z</time>
      </trkpt>
      <trkpt lat="47.50059" lon="-2.79791">
        <ele>36.7</ele>
        <time>2023-07-19T15:05:52Z</time>
      </trkpt>
      <trkpt lat="47.50027" lon="-2.79769">
        <ele>36.5</ele>
        <time>2023-07-19T15:05:58Z</time>
      </trkpt>
      <trkpt lat="47.4998" lon="-2.79723">
        <ele>35.9</ele>
        <time>2023-07-19T15:06:08Z</time>
      </trkpt>
      <trkpt lat="47.49975" lon="-2.7972">
        <ele>35.9</ele>
        <time>2023-07-19T15:06:09Z</time>
      </trkpt>
      <trkpt lat="47.49965" lon="-2.79716">
        <ele>35.9</ele>
        <time>2023-07-19T15:06:11Z</time>
      </trkpt>
      <trkpt lat="47.49956" lon="-2.79717">
        <ele>35.9</ele>
        <time>2023-07-19T15:06:13Z</time>
      </trkpt>
      <trkpt lat="47.49952" lon="-2.79718">
        <ele>35.8</ele>
        <time>2023-07-19T15:06:14Z</time>
      </trkpt>
      <trkpt lat="47.49901" lon="-2.79746">
        <ele>35.8</ele>
        <time>2023-07-19T15:06:25Z</time>
      </trkpt>
      <trkpt lat="47.49849" lon="-2.79771">
        <ele>35.4</ele>
        <time>2023-07-19T15:06:34Z</time>
      </trkpt>
      <trkpt lat="47.4981" lon="-2.79782">
        <ele>35</ele>
        <time>2023-07-19T15:06:41Z</time>
      </trkpt>
      <trkpt lat="47.49774" lon="-2.79794">
        <ele>34.4</ele>
        <time>2023-07-19T15:06:48Z</time>
      </trkpt>
      <trkpt lat="47.49767" lon="-2.79805">
        <ele>34.4</ele>
        <time>2023-07-19T15:06:50Z</time>
      </trkpt>
      <trkpt lat="47.49765" lon="-2.79819">
        <ele>34.2</ele>
        <time>2023-07-19T15:06:52Z</time>
      </trkpt>
      <trkpt lat="47.49768" lon="-2.79833">
        <ele>34.2</ele>
        <time>2023-07-19T15:06:54Z</time>
      </trkpt>
      <trkpt lat="47.49796" lon="-2.79907">
        <ele>33.6</ele>
        <time>2023-07-19T15:07:07Z</time>
      </trkpt>
      <trkpt lat="47.49814" lon="-2.79977">
        <ele>32.6</ele>
        <time>2023-07-19T15:07:16Z</time>
      </trkpt>
      <trkpt lat="47.49818" lon="-2.79991">
        <ele>32.4</ele>
        <time>2023-07-19T15:07:18Z</time>
      </trkpt>
      <trkpt lat="47.49839" lon="-2.80072">
        <ele>32</ele>
        <time>2023-07-19T15:07:28Z</time>
      </trkpt>
      <trkpt lat="47.4986" lon="-2.80153">
        <ele>32</ele>
        <time>2023-07-19T15:07:39Z</time>
      </trkpt>
      <trkpt lat="47.49864" lon="-2.80175">
        <ele>31.7</ele>
        <time>2023-07-19T15:07:42Z</time>
      </trkpt>
      <trkpt lat="47.49873" lon="-2.8023">
        <ele>31.1</ele>
        <time>2023-07-19T15:07:49Z</time>
      </trkpt>
      <trkpt lat="47.49874" lon="-2.80247">
        <ele>30.8</ele>
        <time>2023-07-19T15:07:51Z</time>
      </trkpt>
      <trkpt lat="47.49873" lon="-2.80255">
        <ele>30.6</ele>
        <time>2023-07-19T15:07:52Z</time>
      </trkpt>
      <trkpt lat="47.49873" lon="-2.80264">
        <ele>30.4</ele>
        <time>2023-07-19T15:07:53Z</time>
      </trkpt>
      <trkpt lat="47.49873" lon="-2.80282">
        <ele>29.8</ele>
        <time>2023-07-19T15:07:55Z</time>
      </trkpt>
      <trkpt lat="47.49872" lon="-2.80291">
        <ele>29.5</ele>
        <time>2023-07-19T15:07:56Z</time>
      </trkpt>
      <trkpt lat="47.4987" lon="-2.80308">
        <ele>29</ele>
        <time>2023-07-19T15:07:58Z</time>
      </trkpt>
      <trkpt lat="47.49869" lon="-2.80314">
        <ele>28.7</ele>
        <time>2023-07-19T15:07:59Z</time>
      </trkpt>
      <trkpt lat="47.49869" lon="-2.8032">
        <ele>28.4</ele>
        <time>2023-07-19T15:08:00Z</time>
      </trkpt>
      <trkpt lat="47.49868" lon="-2.80338">
        <ele>27.3</ele>
        <time>2023-07-19T15:08:04Z</time>
      </trkpt>
      <trkpt lat="47.49868" lon="-2.80356">
        <ele>25.8</ele>
        <time>2023-07-19T15:08:07Z</time>
      </trkpt>
      <trkpt lat="47.49868" lon="-2.80362">
        <ele>25.2</ele>
        <time>2023-07-19T15:08:08Z</time>
      </trkpt>
      <trkpt lat="47.49869" lon="-2.80368">
        <ele>24.6</ele>
        <time>2023-07-19T15:08:09Z</time>
      </trkpt>
      <trkpt lat="47.49867" lon="-2.80384">
        <ele>23.1</ele>
        <time>2023-07-19T15:08:12Z</time>
      </trkpt>
      <trkpt lat="47.49864" lon="-2.80395">
        <ele>22.1</ele>
        <time>2023-07-19T15:08:13Z</time>
      </trkpt>
      <trkpt lat="47.49864" lon="-2.80397">
        <ele>21.9</ele>
        <time>2023-07-19T15:08:14Z</time>
      </trkpt>
      <trkpt lat="47.49863" lon="-2.804">
        <ele>21.7</ele>
        <time>2023-07-19T15:08:15Z</time>
      </trkpt>
      <trkpt lat="47.49858" lon="-2.80428">
        <ele>20.2</ele>
        <time>2023-07-19T15:08:21Z</time>
      </trkpt>
      <trkpt lat="47.49877" lon="-2.80503">
        <ele>21.8</ele>
        <time>2023-07-19T15:08:39Z</time>
      </trkpt>
      <trkpt lat="47.49882" lon="-2.80532">
        <ele>23.2</ele>
        <time>2023-07-19T15:08:47Z</time>
      </trkpt>
      <trkpt lat="47.49885" lon="-2.80546">
        <ele>24</ele>
        <time>2023-07-19T15:08:50Z</time>
      </trkpt>
      <trkpt lat="47.49888" lon="-2.80626">
        <ele>28.1</ele>
        <time>2023-07-19T15:09:17Z</time>
      </trkpt>
      <trkpt lat="47.49884" lon="-2.8065">
        <ele>29.8</ele>
        <time>2023-07-19T15:09:27Z</time>
      </trkpt>
      <trkpt lat="47.49871" lon="-2.80722">
        <ele>31.3</ele>
        <time>2023-07-19T15:09:53Z</time>
      </trkpt>
      <trkpt lat="47.49873" lon="-2.80754">
        <ele>31.8</ele>
        <time>2023-07-19T15:10:01Z</time>
      </trkpt>
      <trkpt lat="47.49873" lon="-2.80834">
        <ele>31.7</ele>
        <time>2023-07-19T15:10:17Z</time>
      </trkpt>
      <trkpt lat="47.49877" lon="-2.80879">
        <ele>31.4</ele>
        <time>2023-07-19T15:10:24Z</time>
      </trkpt>
      <trkpt lat="47.49891" lon="-2.80911">
        <ele>31.1</ele>
        <time>2023-07-19T15:10:30Z</time>
      </trkpt>
      <trkpt lat="47.499" lon="-2.80922">
        <ele>31.1</ele>
        <time>2023-07-19T15:10:33Z</time>
      </trkpt>
      <trkpt lat="47.49903" lon="-2.80976">
        <ele>31.7</ele>
        <time>2023-07-19T15:10:51Z</time>
      </trkpt>
      <trkpt lat="47.49898" lon="-2.8104">
        <ele>32.9</ele>
        <time>2023-07-19T15:11:08Z</time>
      </trkpt>
      <trkpt lat="47.49894" lon="-2.81065">
        <ele>33.5</ele>
        <time>2023-07-19T15:11:14Z</time>
      </trkpt>
      <trkpt lat="47.49877" lon="-2.81102">
        <ele>34.1</ele>
        <time>2023-07-19T15:11:24Z</time>
      </trkpt>
      <trkpt lat="47.49864" lon="-2.81135">
        <ele>34.6</ele>
        <time>2023-07-19T15:11:32Z</time>
      </trkpt>
      <trkpt lat="47.49838" lon="-2.81211">
        <ele>35</ele>
        <time>2023-07-19T15:11:49Z</time>
      </trkpt>
      <trkpt lat="47.49826" lon="-2.81238">
        <ele>35.2</ele>
        <time>2023-07-19T15:11:55Z</time>
      </trkpt>
      <trkpt lat="47.49824" lon="-2.8125">
        <ele>35.1</ele>
        <time>2023-07-19T15:11:58Z</time>
      </trkpt>
      <trkpt lat="47.49814" lon="-2.81331">
        <ele>34.4</ele>
        <time>2023-07-19T15:12:13Z</time>
      </trkpt>
      <trkpt lat="47.49811" lon="-2.81344">
        <ele>34.2</ele>
        <time>2023-07-19T15:12:14Z</time>
      </trkpt>
      <trkpt lat="47.49809" lon="-2.8135">
        <ele>34.1</ele>
        <time>2023-07-19T15:12:16Z</time>
      </trkpt>
      <trkpt lat="47.49804" lon="-2.81363">
        <ele>33.9</ele>
        <time>2023-07-19T15:12:18Z</time>
      </trkpt>
      <trkpt lat="47.49793" lon="-2.81404">
        <ele>33.2</ele>
        <time>2023-07-19T15:12:24Z</time>
      </trkpt>
      <trkpt lat="47.49792" lon="-2.81411">
        <ele>33.1</ele>
        <time>2023-07-19T15:12:25Z</time>
      </trkpt>
      <trkpt lat="47.49791" lon="-2.81417">
        <ele>33</ele>
        <time>2023-07-19T15:12:26Z</time>
      </trkpt>
      <trkpt lat="47.4979" lon="-2.81424">
        <ele>32.9</ele>
        <time>2023-07-19T15:12:27Z</time>
      </trkpt>
      <trkpt lat="47.49783" lon="-2.81505">
        <ele>33.1</ele>
        <time>2023-07-19T15:12:40Z</time>
      </trkpt>
      <trkpt lat="47.49779" lon="-2.81534">
        <ele>33.3</ele>
        <time>2023-07-19T15:12:45Z</time>
      </trkpt>
      <trkpt lat="47.49767" lon="-2.81606">
        <ele>33.4</ele>
        <time>2023-07-19T15:12:57Z</time>
      </trkpt>
      <trkpt lat="47.49765" lon="-2.8169">
        <ele>33.2</ele>
        <time>2023-07-19T15:13:10Z</time>
      </trkpt>
      <trkpt lat="47.49755" lon="-2.81772">
        <ele>32.9</ele>
        <time>2023-07-19T15:13:24Z</time>
      </trkpt>
      <trkpt lat="47.49736" lon="-2.81796">
        <ele>32.6</ele>
        <time>2023-07-19T15:13:31Z</time>
      </trkpt>
      <trkpt lat="47.4972" lon="-2.81813">
        <ele>32.3</ele>
        <time>2023-07-19T15:13:36Z</time>
      </trkpt>
      <trkpt lat="47.4971" lon="-2.81822">
        <ele>32.2</ele>
        <time>2023-07-19T15:13:39Z</time>
      </trkpt>
      <trkpt lat="47.49669" lon="-2.81869">
        <ele>31.5</ele>
        <time>2023-07-19T15:13:51Z</time>
      </trkpt>
      <trkpt lat="47.49659" lon="-2.81875">
        <ele>31.3</ele>
        <time>2023-07-19T15:13:54Z</time>
      </trkpt>
      <trkpt lat="47.49649" lon="-2.81856">
        <ele>31.2</ele>
        <time>2023-07-19T15:13:58Z</time>
      </trkpt>
      <trkpt lat="47.49646" lon="-2.81843">
        <ele>31.2</ele>
        <time>2023-07-19T15:14:00Z</time>
      </trkpt>
      <trkpt lat="47.49628" lon="-2.81759">
        <ele>30.5</ele>
        <time>2023-07-19T15:14:11Z</time>
      </trkpt>
      <trkpt lat="47.49617" lon="-2.81707">
        <ele>30.2</ele>
        <time>2023-07-19T15:14:17Z</time>
      </trkpt>
      <trkpt lat="47.49607" lon="-2.81697">
        <ele>30</ele>
        <time>2023-07-19T15:14:19Z</time>
      </trkpt>
      <trkpt lat="47.49581" lon="-2.81691">
        <ele>29.4</ele>
        <time>2023-07-19T15:14:23Z</time>
      </trkpt>
      <trkpt lat="47.49543" lon="-2.81689">
        <ele>28.6</ele>
        <time>2023-07-19T15:14:29Z</time>
      </trkpt>
      <trkpt lat="47.495" lon="-2.81709">
        <ele>27.6</ele>
        <time>2023-07-19T15:14:36Z</time>
      </trkpt>
      <trkpt lat="47.49449" lon="-2.81739">
        <ele>26.7</ele>
        <time>2023-07-19T15:14:45Z</time>
      </trkpt>
      <trkpt lat="47.49422" lon="-2.81752">
        <ele>26.2</ele>
        <time>2023-07-19T15:14:50Z</time>
      </trkpt>
      <trkpt lat="47.49385" lon="-2.81757">
        <ele>25.6</ele>
        <time>2023-07-19T15:14:57Z</time>
      </trkpt>
      <trkpt lat="47.49374" lon="-2.8175">
        <ele>24.4</ele>
        <time>2023-07-19T15:15:00Z</time>
      </trkpt>
      <trkpt lat="47.49336" lon="-2.81731">
        <ele>22.7</ele>
        <time>2023-07-19T15:15:13Z</time>
      </trkpt>
      <trkpt lat="47.49336" lon="-2.8174">
        <ele>22.8</ele>
        <time>2023-07-19T15:15:15Z</time>
      </trkpt>
      <trkpt lat="47.49344" lon="-2.8176">
        <ele>23.2</ele>
        <time>2023-07-19T15:15:19Z</time>
      </trkpt>
      <trkpt lat="47.4937" lon="-2.81834">
        <ele>25.4</ele>
        <time>2023-07-19T15:15:32Z</time>
      </trkpt>
      <trkpt lat="47.49379" lon="-2.81871">
        <ele>26.3</ele>
        <time>2023-07-19T15:15:38Z</time>
      </trkpt>
      <trkpt lat="47.4939" lon="-2.81932">
        <ele>27.3</ele>
        <time>2023-07-19T15:15:49Z</time>
      </trkpt>
      <trkpt lat="47.49392" lon="-2.81968">
        <ele>27.7</ele>
        <time>2023-07-19T15:15:56Z</time>
      </trkpt>
      <trkpt lat="47.49387" lon="-2.81976">
        <ele>27.8</ele>
        <time>2023-07-19T15:15:58Z</time>
      </trkpt>
      <trkpt lat="47.49383" lon="-2.81979">
        <ele>27.9</ele>
        <time>2023-07-19T15:15:59Z</time>
      </trkpt>
      <trkpt lat="47.4938" lon="-2.81982">
        <ele>27.9</ele>
        <time>2023-07-19T15:16:00Z</time>
      </trkpt>
      <trkpt lat="47.49376" lon="-2.81985">
        <ele>28</ele>
        <time>2023-07-19T15:16:01Z</time>
      </trkpt>
      <trkpt lat="47.49369" lon="-2.81992">
        <ele>28</ele>
        <time>2023-07-19T15:16:02Z</time>
      </trkpt>
      <trkpt lat="47.49366" lon="-2.81995">
        <ele>28.1</ele>
        <time>2023-07-19T15:16:04Z</time>
      </trkpt>
      <trkpt lat="47.49357" lon="-2.82007">
        <ele>28.2</ele>
        <time>2023-07-19T15:16:07Z</time>
      </trkpt>
      <trkpt lat="47.49354" lon="-2.82024">
        <ele>28.3</ele>
        <time>2023-07-19T15:16:10Z</time>
      </trkpt>
      <trkpt lat="47.49357" lon="-2.82045">
        <ele>28.3</ele>
        <time>2023-07-19T15:16:14Z</time>
      </trkpt>
      <trkpt lat="47.49361" lon="-2.8207">
        <ele>28.2</ele>
        <time>2023-07-19T15:16:19Z</time>
      </trkpt>
      <trkpt lat="47.49364" lon="-2.82091">
        <ele>28.1</ele>
        <time>2023-07-19T15:16:24Z</time>
      </trkpt>
      <trkpt lat="47.49338" lon="-2.82111">
        <ele>27.7</ele>
        <time>2023-07-19T15:16:32Z</time>
      </trkpt>
      <trkpt lat="47.49329" lon="-2.82114">
        <ele>27.5</ele>
        <time>2023-07-19T15:16:34Z</time>
      </trkpt>
      <trkpt lat="47.49298" lon="-2.82127">
        <ele>26.9</ele>
        <time>2023-07-19T15:16:41Z</time>
      </trkpt>
      <trkpt lat="47.49273" lon="-2.82142">
        <ele>26.3</ele>
        <time>2023-07-19T15:16:47Z</time>
      </trkpt>
      <trkpt lat="47.49264" lon="-2.82148">
        <ele>26.2</ele>
        <time>2023-07-19T15:16:49Z</time>
      </trkpt>
      <trkpt lat="47.4926" lon="-2.8215">
        <ele>26.1</ele>
        <time>2023-07-19T15:16:50Z</time>
      </trkpt>
      <trkpt lat="47.49255" lon="-2.82151">
        <ele>26</ele>
        <time>2023-07-19T15:16:51Z</time>
      </trkpt>
      <trkpt lat="47.49251" lon="-2.82152">
        <ele>26</ele>
        <time>2023-07-19T15:16:52Z</time>
      </trkpt>
      <trkpt lat="47.49239" lon="-2.82149">
        <ele>25.8</ele>
        <time>2023-07-19T15:16:55Z</time>
      </trkpt>
      <trkpt lat="47.4923" lon="-2.82137">
        <ele>25.7</ele>
        <time>2023-07-19T15:16:58Z</time>
      </trkpt>
      <trkpt lat="47.49229" lon="-2.82123">
        <ele>25.6</ele>
        <time>2023-07-19T15:17:01Z</time>
      </trkpt>
      <trkpt lat="47.49233" lon="-2.82118">
        <ele>25.6</ele>
        <time>2023-07-19T15:17:02Z</time>
      </trkpt>
      <trkpt lat="47.49236" lon="-2.82116">
        <ele>25.6</ele>
        <time>2023-07-19T15:17:05Z</time>
      </trkpt>
      <trkpt lat="47.49241" lon="-2.82116">
        <ele>25.6</ele>
        <time>2023-07-19T15:17:09Z</time>
      </trkpt>
    </trkseg>
  </trk>
</gpx>